<?xml version="1.0" encoding="UTF-8" standalone="no" ?>
<gpx xmlns="http://www.topografix.com/GPX/1/1" xmlns:xsi="http://www.w3.org/2001/XMLSchema-instance" xsi:schemaLocation="http://www.topografix.com/GPX/1/1 http://www.topografix.com/GPX/1/1/gpx.xsd" version="1.1" creator="VisuGPX - https://www.visugpx.com">
  <metadata>
    <name>2021-09-07 Villegly </name>
  </metadata>
  <trk>
    <name><![CDATA[2021-09-07 Villegly avec patrick]]></name>
    <trkseg>
      <trkpt lat="43.28298" lon="2.43932">
        <ele>140.1</ele>
        <time>2021-09-07T05:19:53Z</time>
      </trkpt>
      <trkpt lat="43.28299" lon="2.43932">
        <ele>140.1</ele>
        <time>2021-09-07T05:19:54Z</time>
      </trkpt>
      <trkpt lat="43.28299" lon="2.43932">
        <ele>140.1</ele>
        <time>2021-09-07T05:19:56Z</time>
      </trkpt>
      <trkpt lat="43.28299" lon="2.43932">
        <ele>140.1</ele>
        <time>2021-09-07T05:19:58Z</time>
      </trkpt>
      <trkpt lat="43.28299" lon="2.43932">
        <ele>140.1</ele>
        <time>2021-09-07T05:20:00Z</time>
      </trkpt>
      <trkpt lat="43.28299" lon="2.43932">
        <ele>140.1</ele>
        <time>2021-09-07T05:20:01Z</time>
      </trkpt>
      <trkpt lat="43.28299" lon="2.43932">
        <ele>140.1</ele>
        <time>2021-09-07T05:20:02Z</time>
      </trkpt>
      <trkpt lat="43.28299" lon="2.43931">
        <ele>140.1</ele>
        <time>2021-09-07T05:20:03Z</time>
      </trkpt>
      <trkpt lat="43.283" lon="2.43931">
        <ele>140.1</ele>
        <time>2021-09-07T05:20:05Z</time>
      </trkpt>
      <trkpt lat="43.283" lon="2.43931">
        <ele>140.1</ele>
        <time>2021-09-07T05:20:06Z</time>
      </trkpt>
      <trkpt lat="43.28299" lon="2.4393">
        <ele>140.1</ele>
        <time>2021-09-07T05:20:08Z</time>
      </trkpt>
      <trkpt lat="43.28299" lon="2.43929">
        <ele>140.1</ele>
        <time>2021-09-07T05:20:10Z</time>
      </trkpt>
      <trkpt lat="43.28299" lon="2.4393">
        <ele>140.1</ele>
        <time>2021-09-07T05:20:12Z</time>
      </trkpt>
      <trkpt lat="43.28299" lon="2.4393">
        <ele>140.1</ele>
        <time>2021-09-07T05:20:14Z</time>
      </trkpt>
      <trkpt lat="43.28299" lon="2.4393">
        <ele>140.1</ele>
        <time>2021-09-07T05:20:15Z</time>
      </trkpt>
      <trkpt lat="43.28298" lon="2.4393">
        <ele>140.2</ele>
        <time>2021-09-07T05:20:16Z</time>
      </trkpt>
      <trkpt lat="43.28298" lon="2.4393">
        <ele>140.2</ele>
        <time>2021-09-07T05:20:18Z</time>
      </trkpt>
      <trkpt lat="43.28299" lon="2.4393">
        <ele>140.2</ele>
        <time>2021-09-07T05:20:20Z</time>
      </trkpt>
      <trkpt lat="43.28298" lon="2.4393">
        <ele>140.2</ele>
        <time>2021-09-07T05:20:21Z</time>
      </trkpt>
      <trkpt lat="43.28298" lon="2.4393">
        <ele>140.2</ele>
        <time>2021-09-07T05:20:22Z</time>
      </trkpt>
      <trkpt lat="43.28298" lon="2.4393">
        <ele>140.2</ele>
        <time>2021-09-07T05:20:23Z</time>
      </trkpt>
      <trkpt lat="43.28298" lon="2.4393">
        <ele>140.2</ele>
        <time>2021-09-07T05:20:25Z</time>
      </trkpt>
      <trkpt lat="43.28298" lon="2.4393">
        <ele>140.2</ele>
        <time>2021-09-07T05:20:27Z</time>
      </trkpt>
      <trkpt lat="43.28298" lon="2.4393">
        <ele>140.2</ele>
        <time>2021-09-07T05:20:29Z</time>
      </trkpt>
      <trkpt lat="43.28298" lon="2.4393">
        <ele>140.2</ele>
        <time>2021-09-07T05:20:30Z</time>
      </trkpt>
      <trkpt lat="43.28298" lon="2.4393">
        <ele>140.2</ele>
        <time>2021-09-07T05:20:32Z</time>
      </trkpt>
      <trkpt lat="43.28298" lon="2.4393">
        <ele>140.2</ele>
        <time>2021-09-07T05:20:33Z</time>
      </trkpt>
      <trkpt lat="43.28298" lon="2.4393">
        <ele>140.2</ele>
        <time>2021-09-07T05:20:35Z</time>
      </trkpt>
      <trkpt lat="43.28299" lon="2.43929">
        <ele>140.2</ele>
        <time>2021-09-07T05:20:37Z</time>
      </trkpt>
      <trkpt lat="43.28299" lon="2.43929">
        <ele>140.2</ele>
        <time>2021-09-07T05:20:38Z</time>
      </trkpt>
      <trkpt lat="43.28298" lon="2.43929">
        <ele>140.2</ele>
        <time>2021-09-07T05:20:39Z</time>
      </trkpt>
      <trkpt lat="43.28298" lon="2.43929">
        <ele>140.2</ele>
        <time>2021-09-07T05:20:41Z</time>
      </trkpt>
      <trkpt lat="43.28297" lon="2.43928">
        <ele>140.2</ele>
        <time>2021-09-07T05:20:43Z</time>
      </trkpt>
      <trkpt lat="43.28297" lon="2.43927">
        <ele>140.2</ele>
        <time>2021-09-07T05:20:44Z</time>
      </trkpt>
      <trkpt lat="43.28297" lon="2.43928">
        <ele>140.2</ele>
        <time>2021-09-07T05:20:46Z</time>
      </trkpt>
      <trkpt lat="43.28298" lon="2.4393">
        <ele>140.2</ele>
        <time>2021-09-07T05:20:48Z</time>
      </trkpt>
      <trkpt lat="43.28298" lon="2.43932">
        <ele>140.2</ele>
        <time>2021-09-07T05:20:49Z</time>
      </trkpt>
      <trkpt lat="43.28298" lon="2.43934">
        <ele>140.3</ele>
        <time>2021-09-07T05:20:50Z</time>
      </trkpt>
      <trkpt lat="43.28299" lon="2.43934">
        <ele>140.3</ele>
        <time>2021-09-07T05:20:51Z</time>
      </trkpt>
      <trkpt lat="43.283" lon="2.43935">
        <ele>140.3</ele>
        <time>2021-09-07T05:20:53Z</time>
      </trkpt>
      <trkpt lat="43.28301" lon="2.43935">
        <ele>140.3</ele>
        <time>2021-09-07T05:20:54Z</time>
      </trkpt>
      <trkpt lat="43.28301" lon="2.43936">
        <ele>140.3</ele>
        <time>2021-09-07T05:20:56Z</time>
      </trkpt>
      <trkpt lat="43.28302" lon="2.43936">
        <ele>140.3</ele>
        <time>2021-09-07T05:20:57Z</time>
      </trkpt>
      <trkpt lat="43.28303" lon="2.43937">
        <ele>140.3</ele>
        <time>2021-09-07T05:20:59Z</time>
      </trkpt>
      <trkpt lat="43.28304" lon="2.43938">
        <ele>140.3</ele>
        <time>2021-09-07T05:21:01Z</time>
      </trkpt>
      <trkpt lat="43.28304" lon="2.43938">
        <ele>140.4</ele>
        <time>2021-09-07T05:21:03Z</time>
      </trkpt>
      <trkpt lat="43.28305" lon="2.43939">
        <ele>140.4</ele>
        <time>2021-09-07T05:21:04Z</time>
      </trkpt>
      <trkpt lat="43.28306" lon="2.43939">
        <ele>140.4</ele>
        <time>2021-09-07T05:21:05Z</time>
      </trkpt>
      <trkpt lat="43.28309" lon="2.4394">
        <ele>140.4</ele>
        <time>2021-09-07T05:21:07Z</time>
      </trkpt>
      <trkpt lat="43.28314" lon="2.4394">
        <ele>140.5</ele>
        <time>2021-09-07T05:21:09Z</time>
      </trkpt>
      <trkpt lat="43.28316" lon="2.4394">
        <ele>140.6</ele>
        <time>2021-09-07T05:21:10Z</time>
      </trkpt>
      <trkpt lat="43.28322" lon="2.4394">
        <ele>140.7</ele>
        <time>2021-09-07T05:21:12Z</time>
      </trkpt>
      <trkpt lat="43.28327" lon="2.4394">
        <ele>140.7</ele>
        <time>2021-09-07T05:21:14Z</time>
      </trkpt>
      <trkpt lat="43.28332" lon="2.4394">
        <ele>140.8</ele>
        <time>2021-09-07T05:21:16Z</time>
      </trkpt>
      <trkpt lat="43.28337" lon="2.4394">
        <ele>140.8</ele>
        <time>2021-09-07T05:21:18Z</time>
      </trkpt>
      <trkpt lat="43.28342" lon="2.43939">
        <ele>140.8</ele>
        <time>2021-09-07T05:21:20Z</time>
      </trkpt>
      <trkpt lat="43.28345" lon="2.43939">
        <ele>140.9</ele>
        <time>2021-09-07T05:21:21Z</time>
      </trkpt>
      <trkpt lat="43.2835" lon="2.43939">
        <ele>140.9</ele>
        <time>2021-09-07T05:21:23Z</time>
      </trkpt>
      <trkpt lat="43.28353" lon="2.43939">
        <ele>141</ele>
        <time>2021-09-07T05:21:25Z</time>
      </trkpt>
      <trkpt lat="43.28356" lon="2.4394">
        <ele>141.1</ele>
        <time>2021-09-07T05:21:27Z</time>
      </trkpt>
      <trkpt lat="43.28357" lon="2.43941">
        <ele>141.1</ele>
        <time>2021-09-07T05:21:29Z</time>
      </trkpt>
      <trkpt lat="43.28358" lon="2.43942">
        <ele>141.2</ele>
        <time>2021-09-07T05:21:30Z</time>
      </trkpt>
      <trkpt lat="43.28358" lon="2.43943">
        <ele>141.2</ele>
        <time>2021-09-07T05:21:31Z</time>
      </trkpt>
      <trkpt lat="43.28359" lon="2.43948">
        <ele>141.3</ele>
        <time>2021-09-07T05:21:33Z</time>
      </trkpt>
      <trkpt lat="43.2836" lon="2.4395">
        <ele>141.3</ele>
        <time>2021-09-07T05:21:34Z</time>
      </trkpt>
      <trkpt lat="43.2836" lon="2.43954">
        <ele>141.4</ele>
        <time>2021-09-07T05:21:36Z</time>
      </trkpt>
      <trkpt lat="43.28361" lon="2.43956">
        <ele>141.4</ele>
        <time>2021-09-07T05:21:37Z</time>
      </trkpt>
      <trkpt lat="43.28361" lon="2.43959">
        <ele>141.5</ele>
        <time>2021-09-07T05:21:39Z</time>
      </trkpt>
      <trkpt lat="43.2836" lon="2.43963">
        <ele>141.6</ele>
        <time>2021-09-07T05:21:41Z</time>
      </trkpt>
      <trkpt lat="43.28359" lon="2.43969">
        <ele>141.6</ele>
        <time>2021-09-07T05:21:43Z</time>
      </trkpt>
      <trkpt lat="43.28359" lon="2.43972">
        <ele>141.7</ele>
        <time>2021-09-07T05:21:44Z</time>
      </trkpt>
      <trkpt lat="43.28359" lon="2.43978">
        <ele>141.8</ele>
        <time>2021-09-07T05:21:46Z</time>
      </trkpt>
      <trkpt lat="43.28358" lon="2.43982">
        <ele>141.8</ele>
        <time>2021-09-07T05:21:47Z</time>
      </trkpt>
      <trkpt lat="43.28358" lon="2.43988">
        <ele>141.9</ele>
        <time>2021-09-07T05:21:49Z</time>
      </trkpt>
      <trkpt lat="43.28357" lon="2.43992">
        <ele>141.9</ele>
        <time>2021-09-07T05:21:50Z</time>
      </trkpt>
      <trkpt lat="43.28357" lon="2.44001">
        <ele>142</ele>
        <time>2021-09-07T05:21:52Z</time>
      </trkpt>
      <trkpt lat="43.28356" lon="2.44004">
        <ele>142</ele>
        <time>2021-09-07T05:21:53Z</time>
      </trkpt>
      <trkpt lat="43.28355" lon="2.44008">
        <ele>142.1</ele>
        <time>2021-09-07T05:21:54Z</time>
      </trkpt>
      <trkpt lat="43.28353" lon="2.44015">
        <ele>142.1</ele>
        <time>2021-09-07T05:21:56Z</time>
      </trkpt>
      <trkpt lat="43.28352" lon="2.4402">
        <ele>142.2</ele>
        <time>2021-09-07T05:21:57Z</time>
      </trkpt>
      <trkpt lat="43.28351" lon="2.44021">
        <ele>142.2</ele>
        <time>2021-09-07T05:21:58Z</time>
      </trkpt>
      <trkpt lat="43.28351" lon="2.44025">
        <ele>142.2</ele>
        <time>2021-09-07T05:21:59Z</time>
      </trkpt>
      <trkpt lat="43.28349" lon="2.44032">
        <ele>142.3</ele>
        <time>2021-09-07T05:22:01Z</time>
      </trkpt>
      <trkpt lat="43.28348" lon="2.44036">
        <ele>142.4</ele>
        <time>2021-09-07T05:22:02Z</time>
      </trkpt>
      <trkpt lat="43.28347" lon="2.44043">
        <ele>142.5</ele>
        <time>2021-09-07T05:22:04Z</time>
      </trkpt>
      <trkpt lat="43.28346" lon="2.44048">
        <ele>142.5</ele>
        <time>2021-09-07T05:22:05Z</time>
      </trkpt>
      <trkpt lat="43.28346" lon="2.44049">
        <ele>142.6</ele>
        <time>2021-09-07T05:22:06Z</time>
      </trkpt>
      <trkpt lat="43.28344" lon="2.44056">
        <ele>142.7</ele>
        <time>2021-09-07T05:22:08Z</time>
      </trkpt>
      <trkpt lat="43.28344" lon="2.4406">
        <ele>142.7</ele>
        <time>2021-09-07T05:22:10Z</time>
      </trkpt>
      <trkpt lat="43.28343" lon="2.44067">
        <ele>142.8</ele>
        <time>2021-09-07T05:22:12Z</time>
      </trkpt>
      <trkpt lat="43.28343" lon="2.44068">
        <ele>142.8</ele>
        <time>2021-09-07T05:22:13Z</time>
      </trkpt>
      <trkpt lat="43.28343" lon="2.4407">
        <ele>142.8</ele>
        <time>2021-09-07T05:22:14Z</time>
      </trkpt>
      <trkpt lat="43.28342" lon="2.44072">
        <ele>142.8</ele>
        <time>2021-09-07T05:22:15Z</time>
      </trkpt>
      <trkpt lat="43.28342" lon="2.44074">
        <ele>142.8</ele>
        <time>2021-09-07T05:22:16Z</time>
      </trkpt>
      <trkpt lat="43.28343" lon="2.44079">
        <ele>142.8</ele>
        <time>2021-09-07T05:22:18Z</time>
      </trkpt>
      <trkpt lat="43.28344" lon="2.44084">
        <ele>142.9</ele>
        <time>2021-09-07T05:22:20Z</time>
      </trkpt>
      <trkpt lat="43.28344" lon="2.44088">
        <ele>142.9</ele>
        <time>2021-09-07T05:22:21Z</time>
      </trkpt>
      <trkpt lat="43.28345" lon="2.4409">
        <ele>143</ele>
        <time>2021-09-07T05:22:22Z</time>
      </trkpt>
      <trkpt lat="43.28346" lon="2.44095">
        <ele>143.1</ele>
        <time>2021-09-07T05:22:24Z</time>
      </trkpt>
      <trkpt lat="43.28348" lon="2.441">
        <ele>143.2</ele>
        <time>2021-09-07T05:22:26Z</time>
      </trkpt>
      <trkpt lat="43.28349" lon="2.44105">
        <ele>143.3</ele>
        <time>2021-09-07T05:22:28Z</time>
      </trkpt>
      <trkpt lat="43.28351" lon="2.44111">
        <ele>143.3</ele>
        <time>2021-09-07T05:22:30Z</time>
      </trkpt>
      <trkpt lat="43.28352" lon="2.44116">
        <ele>143.4</ele>
        <time>2021-09-07T05:22:32Z</time>
      </trkpt>
      <trkpt lat="43.28353" lon="2.44122">
        <ele>143.5</ele>
        <time>2021-09-07T05:22:34Z</time>
      </trkpt>
      <trkpt lat="43.28354" lon="2.44125">
        <ele>143.6</ele>
        <time>2021-09-07T05:22:35Z</time>
      </trkpt>
      <trkpt lat="43.28355" lon="2.44131">
        <ele>143.6</ele>
        <time>2021-09-07T05:22:37Z</time>
      </trkpt>
      <trkpt lat="43.28357" lon="2.44137">
        <ele>143.7</ele>
        <time>2021-09-07T05:22:39Z</time>
      </trkpt>
      <trkpt lat="43.28358" lon="2.4414">
        <ele>143.7</ele>
        <time>2021-09-07T05:22:40Z</time>
      </trkpt>
      <trkpt lat="43.28359" lon="2.44141">
        <ele>143.7</ele>
        <time>2021-09-07T05:22:41Z</time>
      </trkpt>
      <trkpt lat="43.2836" lon="2.44143">
        <ele>143.8</ele>
        <time>2021-09-07T05:22:42Z</time>
      </trkpt>
      <trkpt lat="43.28361" lon="2.44147">
        <ele>143.8</ele>
        <time>2021-09-07T05:22:44Z</time>
      </trkpt>
      <trkpt lat="43.28363" lon="2.4415">
        <ele>143.8</ele>
        <time>2021-09-07T05:22:45Z</time>
      </trkpt>
      <trkpt lat="43.28364" lon="2.44152">
        <ele>143.9</ele>
        <time>2021-09-07T05:22:46Z</time>
      </trkpt>
      <trkpt lat="43.28365" lon="2.44154">
        <ele>143.9</ele>
        <time>2021-09-07T05:22:47Z</time>
      </trkpt>
      <trkpt lat="43.28367" lon="2.44159">
        <ele>143.9</ele>
        <time>2021-09-07T05:22:49Z</time>
      </trkpt>
      <trkpt lat="43.28369" lon="2.44162">
        <ele>143.9</ele>
        <time>2021-09-07T05:22:51Z</time>
      </trkpt>
      <trkpt lat="43.28369" lon="2.44164">
        <ele>144</ele>
        <time>2021-09-07T05:22:52Z</time>
      </trkpt>
      <trkpt lat="43.2837" lon="2.44166">
        <ele>144</ele>
        <time>2021-09-07T05:22:53Z</time>
      </trkpt>
      <trkpt lat="43.28371" lon="2.44169">
        <ele>144</ele>
        <time>2021-09-07T05:22:55Z</time>
      </trkpt>
      <trkpt lat="43.28372" lon="2.44171">
        <ele>144.1</ele>
        <time>2021-09-07T05:22:56Z</time>
      </trkpt>
      <trkpt lat="43.28372" lon="2.44173">
        <ele>144.2</ele>
        <time>2021-09-07T05:22:57Z</time>
      </trkpt>
      <trkpt lat="43.28373" lon="2.44178">
        <ele>144.3</ele>
        <time>2021-09-07T05:22:59Z</time>
      </trkpt>
      <trkpt lat="43.28373" lon="2.44183">
        <ele>144.4</ele>
        <time>2021-09-07T05:23:01Z</time>
      </trkpt>
      <trkpt lat="43.28373" lon="2.44186">
        <ele>144.5</ele>
        <time>2021-09-07T05:23:02Z</time>
      </trkpt>
      <trkpt lat="43.28375" lon="2.44192">
        <ele>144.6</ele>
        <time>2021-09-07T05:23:04Z</time>
      </trkpt>
      <trkpt lat="43.28376" lon="2.44195">
        <ele>144.7</ele>
        <time>2021-09-07T05:23:05Z</time>
      </trkpt>
      <trkpt lat="43.28377" lon="2.442">
        <ele>144.8</ele>
        <time>2021-09-07T05:23:07Z</time>
      </trkpt>
      <trkpt lat="43.28378" lon="2.44202">
        <ele>144.9</ele>
        <time>2021-09-07T05:23:08Z</time>
      </trkpt>
      <trkpt lat="43.28379" lon="2.44204">
        <ele>144.9</ele>
        <time>2021-09-07T05:23:09Z</time>
      </trkpt>
      <trkpt lat="43.2838" lon="2.44207">
        <ele>144.9</ele>
        <time>2021-09-07T05:23:11Z</time>
      </trkpt>
      <trkpt lat="43.2838" lon="2.44208">
        <ele>144.9</ele>
        <time>2021-09-07T05:23:12Z</time>
      </trkpt>
      <trkpt lat="43.28381" lon="2.4421">
        <ele>145.1</ele>
        <time>2021-09-07T05:23:14Z</time>
      </trkpt>
      <trkpt lat="43.28383" lon="2.44212">
        <ele>145.1</ele>
        <time>2021-09-07T05:23:16Z</time>
      </trkpt>
      <trkpt lat="43.28383" lon="2.44214">
        <ele>144.9</ele>
        <time>2021-09-07T05:23:17Z</time>
      </trkpt>
      <trkpt lat="43.28386" lon="2.44218">
        <ele>145.1</ele>
        <time>2021-09-07T05:23:19Z</time>
      </trkpt>
      <trkpt lat="43.28388" lon="2.44222">
        <ele>145</ele>
        <time>2021-09-07T05:23:21Z</time>
      </trkpt>
      <trkpt lat="43.28391" lon="2.44227">
        <ele>145</ele>
        <time>2021-09-07T05:23:23Z</time>
      </trkpt>
      <trkpt lat="43.28393" lon="2.44231">
        <ele>144.7</ele>
        <time>2021-09-07T05:23:24Z</time>
      </trkpt>
      <trkpt lat="43.28396" lon="2.44237">
        <ele>144.6</ele>
        <time>2021-09-07T05:23:26Z</time>
      </trkpt>
      <trkpt lat="43.28398" lon="2.44244">
        <ele>144.8</ele>
        <time>2021-09-07T05:23:28Z</time>
      </trkpt>
      <trkpt lat="43.28399" lon="2.44249">
        <ele>144.8</ele>
        <time>2021-09-07T05:23:29Z</time>
      </trkpt>
      <trkpt lat="43.28399" lon="2.44251">
        <ele>144.8</ele>
        <time>2021-09-07T05:23:30Z</time>
      </trkpt>
      <trkpt lat="43.28401" lon="2.44258">
        <ele>145.2</ele>
        <time>2021-09-07T05:23:32Z</time>
      </trkpt>
      <trkpt lat="43.28402" lon="2.44261">
        <ele>145.2</ele>
        <time>2021-09-07T05:23:33Z</time>
      </trkpt>
      <trkpt lat="43.28403" lon="2.44268">
        <ele>145.3</ele>
        <time>2021-09-07T05:23:35Z</time>
      </trkpt>
      <trkpt lat="43.28405" lon="2.44276">
        <ele>145.5</ele>
        <time>2021-09-07T05:23:37Z</time>
      </trkpt>
      <trkpt lat="43.28407" lon="2.44283">
        <ele>146</ele>
        <time>2021-09-07T05:23:39Z</time>
      </trkpt>
      <trkpt lat="43.28408" lon="2.4429">
        <ele>146</ele>
        <time>2021-09-07T05:23:41Z</time>
      </trkpt>
      <trkpt lat="43.28409" lon="2.44296">
        <ele>146.7</ele>
        <time>2021-09-07T05:23:43Z</time>
      </trkpt>
      <trkpt lat="43.28409" lon="2.443">
        <ele>147</ele>
        <time>2021-09-07T05:23:44Z</time>
      </trkpt>
      <trkpt lat="43.2841" lon="2.44307">
        <ele>147.3</ele>
        <time>2021-09-07T05:23:46Z</time>
      </trkpt>
      <trkpt lat="43.2841" lon="2.44311">
        <ele>147.6</ele>
        <time>2021-09-07T05:23:47Z</time>
      </trkpt>
      <trkpt lat="43.2841" lon="2.44319">
        <ele>148.2</ele>
        <time>2021-09-07T05:23:49Z</time>
      </trkpt>
      <trkpt lat="43.2841" lon="2.44323">
        <ele>148.5</ele>
        <time>2021-09-07T05:23:50Z</time>
      </trkpt>
      <trkpt lat="43.28411" lon="2.44329">
        <ele>148.8</ele>
        <time>2021-09-07T05:23:52Z</time>
      </trkpt>
      <trkpt lat="43.28412" lon="2.44336">
        <ele>149</ele>
        <time>2021-09-07T05:23:54Z</time>
      </trkpt>
      <trkpt lat="43.28413" lon="2.44341">
        <ele>149.2</ele>
        <time>2021-09-07T05:23:56Z</time>
      </trkpt>
      <trkpt lat="43.28414" lon="2.44343">
        <ele>149.2</ele>
        <time>2021-09-07T05:23:57Z</time>
      </trkpt>
      <trkpt lat="43.28416" lon="2.44347">
        <ele>149.4</ele>
        <time>2021-09-07T05:23:59Z</time>
      </trkpt>
      <trkpt lat="43.28419" lon="2.44351">
        <ele>149.2</ele>
        <time>2021-09-07T05:24:00Z</time>
      </trkpt>
      <trkpt lat="43.2842" lon="2.44352">
        <ele>149.4</ele>
        <time>2021-09-07T05:24:01Z</time>
      </trkpt>
      <trkpt lat="43.28424" lon="2.44358">
        <ele>149</ele>
        <time>2021-09-07T05:24:03Z</time>
      </trkpt>
      <trkpt lat="43.28427" lon="2.44363">
        <ele>149</ele>
        <time>2021-09-07T05:24:05Z</time>
      </trkpt>
      <trkpt lat="43.2843" lon="2.44367">
        <ele>148.9</ele>
        <time>2021-09-07T05:24:07Z</time>
      </trkpt>
      <trkpt lat="43.28433" lon="2.44368">
        <ele>148.6</ele>
        <time>2021-09-07T05:24:09Z</time>
      </trkpt>
      <trkpt lat="43.28434" lon="2.44368">
        <ele>148.6</ele>
        <time>2021-09-07T05:24:10Z</time>
      </trkpt>
      <trkpt lat="43.28435" lon="2.4437">
        <ele>148.9</ele>
        <time>2021-09-07T05:24:12Z</time>
      </trkpt>
      <trkpt lat="43.28438" lon="2.44371">
        <ele>148.5</ele>
        <time>2021-09-07T05:24:14Z</time>
      </trkpt>
      <trkpt lat="43.28443" lon="2.44372">
        <ele>147.6</ele>
        <time>2021-09-07T05:24:16Z</time>
      </trkpt>
      <trkpt lat="43.28447" lon="2.44374">
        <ele>147.4</ele>
        <time>2021-09-07T05:24:18Z</time>
      </trkpt>
      <trkpt lat="43.28449" lon="2.44376">
        <ele>146.9</ele>
        <time>2021-09-07T05:24:19Z</time>
      </trkpt>
      <trkpt lat="43.28452" lon="2.44382">
        <ele>146.9</ele>
        <time>2021-09-07T05:24:21Z</time>
      </trkpt>
      <trkpt lat="43.28455" lon="2.44388">
        <ele>147.1</ele>
        <time>2021-09-07T05:24:23Z</time>
      </trkpt>
      <trkpt lat="43.28456" lon="2.44393">
        <ele>146.9</ele>
        <time>2021-09-07T05:24:25Z</time>
      </trkpt>
      <trkpt lat="43.28459" lon="2.44397">
        <ele>146.7</ele>
        <time>2021-09-07T05:24:27Z</time>
      </trkpt>
      <trkpt lat="43.28462" lon="2.44401">
        <ele>146.5</ele>
        <time>2021-09-07T05:24:29Z</time>
      </trkpt>
      <trkpt lat="43.28463" lon="2.44403">
        <ele>146.6</ele>
        <time>2021-09-07T05:24:30Z</time>
      </trkpt>
      <trkpt lat="43.28466" lon="2.44405">
        <ele>146.4</ele>
        <time>2021-09-07T05:24:32Z</time>
      </trkpt>
      <trkpt lat="43.28468" lon="2.44407">
        <ele>146.3</ele>
        <time>2021-09-07T05:24:34Z</time>
      </trkpt>
      <trkpt lat="43.28472" lon="2.44409">
        <ele>145.9</ele>
        <time>2021-09-07T05:24:36Z</time>
      </trkpt>
      <trkpt lat="43.28475" lon="2.44412">
        <ele>145.8</ele>
        <time>2021-09-07T05:24:38Z</time>
      </trkpt>
      <trkpt lat="43.28479" lon="2.44413">
        <ele>145.5</ele>
        <time>2021-09-07T05:24:39Z</time>
      </trkpt>
      <trkpt lat="43.2848" lon="2.44413">
        <ele>145.3</ele>
        <time>2021-09-07T05:24:40Z</time>
      </trkpt>
      <trkpt lat="43.28484" lon="2.44414">
        <ele>145.1</ele>
        <time>2021-09-07T05:24:41Z</time>
      </trkpt>
      <trkpt lat="43.28485" lon="2.44415">
        <ele>145.1</ele>
        <time>2021-09-07T05:24:42Z</time>
      </trkpt>
      <trkpt lat="43.28491" lon="2.44416">
        <ele>145</ele>
        <time>2021-09-07T05:24:44Z</time>
      </trkpt>
      <trkpt lat="43.28494" lon="2.44417">
        <ele>144.8</ele>
        <time>2021-09-07T05:24:45Z</time>
      </trkpt>
      <trkpt lat="43.28499" lon="2.44418">
        <ele>144.6</ele>
        <time>2021-09-07T05:24:47Z</time>
      </trkpt>
      <trkpt lat="43.28505" lon="2.44419">
        <ele>144.5</ele>
        <time>2021-09-07T05:24:49Z</time>
      </trkpt>
      <trkpt lat="43.28508" lon="2.44419">
        <ele>144.5</ele>
        <time>2021-09-07T05:24:50Z</time>
      </trkpt>
      <trkpt lat="43.28512" lon="2.44419">
        <ele>144.5</ele>
        <time>2021-09-07T05:24:52Z</time>
      </trkpt>
      <trkpt lat="43.28515" lon="2.4442">
        <ele>144.6</ele>
        <time>2021-09-07T05:24:53Z</time>
      </trkpt>
      <trkpt lat="43.28516" lon="2.4442">
        <ele>144.7</ele>
        <time>2021-09-07T05:24:54Z</time>
      </trkpt>
      <trkpt lat="43.28521" lon="2.44421">
        <ele>144.6</ele>
        <time>2021-09-07T05:24:56Z</time>
      </trkpt>
      <trkpt lat="43.28523" lon="2.44421">
        <ele>144.6</ele>
        <time>2021-09-07T05:24:57Z</time>
      </trkpt>
      <trkpt lat="43.28527" lon="2.44422">
        <ele>144.5</ele>
        <time>2021-09-07T05:24:59Z</time>
      </trkpt>
      <trkpt lat="43.2853" lon="2.44423">
        <ele>144.5</ele>
        <time>2021-09-07T05:25:00Z</time>
      </trkpt>
      <trkpt lat="43.28531" lon="2.44424">
        <ele>144.5</ele>
        <time>2021-09-07T05:25:01Z</time>
      </trkpt>
      <trkpt lat="43.28535" lon="2.44428">
        <ele>144.6</ele>
        <time>2021-09-07T05:25:03Z</time>
      </trkpt>
      <trkpt lat="43.28537" lon="2.44429">
        <ele>144.7</ele>
        <time>2021-09-07T05:25:04Z</time>
      </trkpt>
      <trkpt lat="43.2854" lon="2.44432">
        <ele>144.7</ele>
        <time>2021-09-07T05:25:06Z</time>
      </trkpt>
      <trkpt lat="43.28542" lon="2.44435">
        <ele>144.9</ele>
        <time>2021-09-07T05:25:08Z</time>
      </trkpt>
      <trkpt lat="43.28543" lon="2.44437">
        <ele>144.9</ele>
        <time>2021-09-07T05:25:09Z</time>
      </trkpt>
      <trkpt lat="43.28544" lon="2.44439">
        <ele>145.1</ele>
        <time>2021-09-07T05:25:10Z</time>
      </trkpt>
      <trkpt lat="43.28546" lon="2.44441">
        <ele>145.1</ele>
        <time>2021-09-07T05:25:12Z</time>
      </trkpt>
      <trkpt lat="43.28547" lon="2.44442">
        <ele>145.3</ele>
        <time>2021-09-07T05:25:14Z</time>
      </trkpt>
      <trkpt lat="43.28548" lon="2.44443">
        <ele>145.3</ele>
        <time>2021-09-07T05:25:16Z</time>
      </trkpt>
      <trkpt lat="43.28548" lon="2.44445">
        <ele>145.4</ele>
        <time>2021-09-07T05:25:17Z</time>
      </trkpt>
      <trkpt lat="43.28548" lon="2.44448">
        <ele>145.6</ele>
        <time>2021-09-07T05:25:19Z</time>
      </trkpt>
      <trkpt lat="43.28549" lon="2.44452">
        <ele>145.9</ele>
        <time>2021-09-07T05:25:21Z</time>
      </trkpt>
      <trkpt lat="43.28549" lon="2.44455">
        <ele>146.2</ele>
        <time>2021-09-07T05:25:23Z</time>
      </trkpt>
      <trkpt lat="43.2855" lon="2.44458">
        <ele>146.2</ele>
        <time>2021-09-07T05:25:25Z</time>
      </trkpt>
      <trkpt lat="43.28551" lon="2.44459">
        <ele>146.2</ele>
        <time>2021-09-07T05:25:26Z</time>
      </trkpt>
      <trkpt lat="43.28552" lon="2.4446">
        <ele>146.5</ele>
        <time>2021-09-07T05:25:27Z</time>
      </trkpt>
      <trkpt lat="43.28554" lon="2.44461">
        <ele>146.5</ele>
        <time>2021-09-07T05:25:29Z</time>
      </trkpt>
      <trkpt lat="43.28556" lon="2.44462">
        <ele>146.6</ele>
        <time>2021-09-07T05:25:31Z</time>
      </trkpt>
      <trkpt lat="43.28557" lon="2.44462">
        <ele>146.6</ele>
        <time>2021-09-07T05:25:32Z</time>
      </trkpt>
      <trkpt lat="43.28557" lon="2.44463">
        <ele>146.8</ele>
        <time>2021-09-07T05:25:33Z</time>
      </trkpt>
      <trkpt lat="43.28559" lon="2.44465">
        <ele>146.9</ele>
        <time>2021-09-07T05:25:34Z</time>
      </trkpt>
      <trkpt lat="43.28561" lon="2.44466">
        <ele>146.9</ele>
        <time>2021-09-07T05:25:36Z</time>
      </trkpt>
      <trkpt lat="43.28564" lon="2.44467">
        <ele>146.9</ele>
        <time>2021-09-07T05:25:38Z</time>
      </trkpt>
      <trkpt lat="43.28565" lon="2.44468">
        <ele>147.2</ele>
        <time>2021-09-07T05:25:40Z</time>
      </trkpt>
      <trkpt lat="43.28568" lon="2.44469">
        <ele>147.2</ele>
        <time>2021-09-07T05:25:42Z</time>
      </trkpt>
      <trkpt lat="43.28569" lon="2.44469">
        <ele>147.2</ele>
        <time>2021-09-07T05:25:43Z</time>
      </trkpt>
      <trkpt lat="43.2857" lon="2.4447">
        <ele>147.3</ele>
        <time>2021-09-07T05:25:44Z</time>
      </trkpt>
      <trkpt lat="43.28573" lon="2.44471">
        <ele>147.3</ele>
        <time>2021-09-07T05:25:46Z</time>
      </trkpt>
      <trkpt lat="43.28575" lon="2.44471">
        <ele>147.3</ele>
        <time>2021-09-07T05:25:47Z</time>
      </trkpt>
      <trkpt lat="43.28578" lon="2.44473">
        <ele>147.6</ele>
        <time>2021-09-07T05:25:49Z</time>
      </trkpt>
      <trkpt lat="43.28579" lon="2.44474">
        <ele>147.6</ele>
        <time>2021-09-07T05:25:50Z</time>
      </trkpt>
      <trkpt lat="43.28582" lon="2.44476">
        <ele>147.8</ele>
        <time>2021-09-07T05:25:52Z</time>
      </trkpt>
      <trkpt lat="43.28585" lon="2.44476">
        <ele>147.9</ele>
        <time>2021-09-07T05:25:54Z</time>
      </trkpt>
      <trkpt lat="43.28586" lon="2.44475">
        <ele>147.7</ele>
        <time>2021-09-07T05:25:55Z</time>
      </trkpt>
      <trkpt lat="43.28587" lon="2.44474">
        <ele>147.7</ele>
        <time>2021-09-07T05:25:57Z</time>
      </trkpt>
      <trkpt lat="43.28588" lon="2.44471">
        <ele>147.6</ele>
        <time>2021-09-07T05:25:59Z</time>
      </trkpt>
      <trkpt lat="43.28591" lon="2.4447">
        <ele>147.6</ele>
        <time>2021-09-07T05:26:01Z</time>
      </trkpt>
      <trkpt lat="43.28592" lon="2.44469">
        <ele>147.6</ele>
        <time>2021-09-07T05:26:02Z</time>
      </trkpt>
      <trkpt lat="43.28595" lon="2.44468">
        <ele>147.7</ele>
        <time>2021-09-07T05:26:04Z</time>
      </trkpt>
      <trkpt lat="43.28596" lon="2.44467">
        <ele>147.6</ele>
        <time>2021-09-07T05:26:05Z</time>
      </trkpt>
      <trkpt lat="43.28599" lon="2.44465">
        <ele>147.6</ele>
        <time>2021-09-07T05:26:07Z</time>
      </trkpt>
      <trkpt lat="43.286" lon="2.44464">
        <ele>147.7</ele>
        <time>2021-09-07T05:26:08Z</time>
      </trkpt>
      <trkpt lat="43.28602" lon="2.44463">
        <ele>147.7</ele>
        <time>2021-09-07T05:26:09Z</time>
      </trkpt>
      <trkpt lat="43.28604" lon="2.44462">
        <ele>147.5</ele>
        <time>2021-09-07T05:26:10Z</time>
      </trkpt>
      <trkpt lat="43.28607" lon="2.4446">
        <ele>147.6</ele>
        <time>2021-09-07T05:26:12Z</time>
      </trkpt>
      <trkpt lat="43.2861" lon="2.44458">
        <ele>147.5</ele>
        <time>2021-09-07T05:26:14Z</time>
      </trkpt>
      <trkpt lat="43.28614" lon="2.44455">
        <ele>147.6</ele>
        <time>2021-09-07T05:26:16Z</time>
      </trkpt>
      <trkpt lat="43.28619" lon="2.44453">
        <ele>147.5</ele>
        <time>2021-09-07T05:26:18Z</time>
      </trkpt>
      <trkpt lat="43.28622" lon="2.44452">
        <ele>147.6</ele>
        <time>2021-09-07T05:26:19Z</time>
      </trkpt>
      <trkpt lat="43.28623" lon="2.44452">
        <ele>147.6</ele>
        <time>2021-09-07T05:26:20Z</time>
      </trkpt>
      <trkpt lat="43.28625" lon="2.44451">
        <ele>147.7</ele>
        <time>2021-09-07T05:26:21Z</time>
      </trkpt>
      <trkpt lat="43.28626" lon="2.44451">
        <ele>147.7</ele>
        <time>2021-09-07T05:26:22Z</time>
      </trkpt>
      <trkpt lat="43.2863" lon="2.4445">
        <ele>147.6</ele>
        <time>2021-09-07T05:26:24Z</time>
      </trkpt>
      <trkpt lat="43.28632" lon="2.44449">
        <ele>147.7</ele>
        <time>2021-09-07T05:26:25Z</time>
      </trkpt>
      <trkpt lat="43.28636" lon="2.44449">
        <ele>147.7</ele>
        <time>2021-09-07T05:26:27Z</time>
      </trkpt>
      <trkpt lat="43.28637" lon="2.4445">
        <ele>147.8</ele>
        <time>2021-09-07T05:26:28Z</time>
      </trkpt>
      <trkpt lat="43.2864" lon="2.44451">
        <ele>148.1</ele>
        <time>2021-09-07T05:26:30Z</time>
      </trkpt>
      <trkpt lat="43.28643" lon="2.44453">
        <ele>148.2</ele>
        <time>2021-09-07T05:26:31Z</time>
      </trkpt>
      <trkpt lat="43.28644" lon="2.44454">
        <ele>148.2</ele>
        <time>2021-09-07T05:26:32Z</time>
      </trkpt>
      <trkpt lat="43.28647" lon="2.44457">
        <ele>148.5</ele>
        <time>2021-09-07T05:26:34Z</time>
      </trkpt>
      <trkpt lat="43.28649" lon="2.4446">
        <ele>148.7</ele>
        <time>2021-09-07T05:26:36Z</time>
      </trkpt>
      <trkpt lat="43.2865" lon="2.44463">
        <ele>149</ele>
        <time>2021-09-07T05:26:38Z</time>
      </trkpt>
      <trkpt lat="43.2865" lon="2.44467">
        <ele>149.3</ele>
        <time>2021-09-07T05:26:40Z</time>
      </trkpt>
      <trkpt lat="43.2865" lon="2.44469">
        <ele>149.4</ele>
        <time>2021-09-07T05:26:41Z</time>
      </trkpt>
      <trkpt lat="43.28649" lon="2.44473">
        <ele>149.8</ele>
        <time>2021-09-07T05:26:43Z</time>
      </trkpt>
      <trkpt lat="43.28647" lon="2.44477">
        <ele>150.1</ele>
        <time>2021-09-07T05:26:45Z</time>
      </trkpt>
      <trkpt lat="43.28646" lon="2.44482">
        <ele>150.5</ele>
        <time>2021-09-07T05:26:47Z</time>
      </trkpt>
      <trkpt lat="43.28645" lon="2.44484">
        <ele>150.7</ele>
        <time>2021-09-07T05:26:48Z</time>
      </trkpt>
      <trkpt lat="43.28644" lon="2.44488">
        <ele>151.1</ele>
        <time>2021-09-07T05:26:50Z</time>
      </trkpt>
      <trkpt lat="43.28643" lon="2.44493">
        <ele>151.4</ele>
        <time>2021-09-07T05:26:52Z</time>
      </trkpt>
      <trkpt lat="43.28642" lon="2.44495">
        <ele>151.6</ele>
        <time>2021-09-07T05:26:53Z</time>
      </trkpt>
      <trkpt lat="43.2864" lon="2.44499">
        <ele>152</ele>
        <time>2021-09-07T05:26:55Z</time>
      </trkpt>
      <trkpt lat="43.28639" lon="2.44501">
        <ele>152.3</ele>
        <time>2021-09-07T05:26:56Z</time>
      </trkpt>
      <trkpt lat="43.28637" lon="2.44505">
        <ele>152.7</ele>
        <time>2021-09-07T05:26:58Z</time>
      </trkpt>
      <trkpt lat="43.28636" lon="2.44509">
        <ele>153</ele>
        <time>2021-09-07T05:27:00Z</time>
      </trkpt>
      <trkpt lat="43.28634" lon="2.44513">
        <ele>153.5</ele>
        <time>2021-09-07T05:27:02Z</time>
      </trkpt>
      <trkpt lat="43.28632" lon="2.44517">
        <ele>154</ele>
        <time>2021-09-07T05:27:04Z</time>
      </trkpt>
      <trkpt lat="43.28631" lon="2.4452">
        <ele>154.2</ele>
        <time>2021-09-07T05:27:05Z</time>
      </trkpt>
      <trkpt lat="43.28629" lon="2.44525">
        <ele>154.7</ele>
        <time>2021-09-07T05:27:07Z</time>
      </trkpt>
      <trkpt lat="43.28627" lon="2.4453">
        <ele>155.3</ele>
        <time>2021-09-07T05:27:09Z</time>
      </trkpt>
      <trkpt lat="43.28625" lon="2.44536">
        <ele>155.9</ele>
        <time>2021-09-07T05:27:11Z</time>
      </trkpt>
      <trkpt lat="43.28624" lon="2.4454">
        <ele>156.2</ele>
        <time>2021-09-07T05:27:12Z</time>
      </trkpt>
      <trkpt lat="43.28623" lon="2.44545">
        <ele>156.8</ele>
        <time>2021-09-07T05:27:14Z</time>
      </trkpt>
      <trkpt lat="43.28623" lon="2.44548">
        <ele>157.1</ele>
        <time>2021-09-07T05:27:15Z</time>
      </trkpt>
      <trkpt lat="43.28621" lon="2.44553">
        <ele>157.5</ele>
        <time>2021-09-07T05:27:17Z</time>
      </trkpt>
      <trkpt lat="43.28621" lon="2.44555">
        <ele>157.7</ele>
        <time>2021-09-07T05:27:18Z</time>
      </trkpt>
      <trkpt lat="43.28621" lon="2.4456">
        <ele>158.2</ele>
        <time>2021-09-07T05:27:20Z</time>
      </trkpt>
      <trkpt lat="43.2862" lon="2.44561">
        <ele>158.4</ele>
        <time>2021-09-07T05:27:21Z</time>
      </trkpt>
      <trkpt lat="43.2862" lon="2.44563">
        <ele>158.5</ele>
        <time>2021-09-07T05:27:22Z</time>
      </trkpt>
      <trkpt lat="43.28617" lon="2.44566">
        <ele>158.9</ele>
        <time>2021-09-07T05:27:24Z</time>
      </trkpt>
      <trkpt lat="43.28616" lon="2.44568">
        <ele>159.2</ele>
        <time>2021-09-07T05:27:25Z</time>
      </trkpt>
      <trkpt lat="43.28614" lon="2.44574">
        <ele>159.7</ele>
        <time>2021-09-07T05:27:27Z</time>
      </trkpt>
      <trkpt lat="43.28613" lon="2.44579">
        <ele>160.1</ele>
        <time>2021-09-07T05:27:29Z</time>
      </trkpt>
      <trkpt lat="43.28611" lon="2.44584">
        <ele>160.6</ele>
        <time>2021-09-07T05:27:31Z</time>
      </trkpt>
      <trkpt lat="43.2861" lon="2.44585">
        <ele>160.7</ele>
        <time>2021-09-07T05:27:32Z</time>
      </trkpt>
      <trkpt lat="43.28609" lon="2.44587">
        <ele>160.9</ele>
        <time>2021-09-07T05:27:33Z</time>
      </trkpt>
      <trkpt lat="43.28605" lon="2.44592">
        <ele>161.4</ele>
        <time>2021-09-07T05:27:35Z</time>
      </trkpt>
      <trkpt lat="43.28602" lon="2.44599">
        <ele>161.8</ele>
        <time>2021-09-07T05:27:37Z</time>
      </trkpt>
      <trkpt lat="43.28601" lon="2.44601">
        <ele>162</ele>
        <time>2021-09-07T05:27:38Z</time>
      </trkpt>
      <trkpt lat="43.286" lon="2.44607">
        <ele>162.3</ele>
        <time>2021-09-07T05:27:40Z</time>
      </trkpt>
      <trkpt lat="43.286" lon="2.44614">
        <ele>162.7</ele>
        <time>2021-09-07T05:27:42Z</time>
      </trkpt>
      <trkpt lat="43.286" lon="2.4462">
        <ele>163</ele>
        <time>2021-09-07T05:27:44Z</time>
      </trkpt>
      <trkpt lat="43.286" lon="2.44626">
        <ele>163.3</ele>
        <time>2021-09-07T05:27:46Z</time>
      </trkpt>
      <trkpt lat="43.286" lon="2.44628">
        <ele>163.5</ele>
        <time>2021-09-07T05:27:47Z</time>
      </trkpt>
      <trkpt lat="43.286" lon="2.4463">
        <ele>163.6</ele>
        <time>2021-09-07T05:27:48Z</time>
      </trkpt>
      <trkpt lat="43.286" lon="2.44633">
        <ele>163.7</ele>
        <time>2021-09-07T05:27:49Z</time>
      </trkpt>
      <trkpt lat="43.286" lon="2.44638">
        <ele>164</ele>
        <time>2021-09-07T05:27:51Z</time>
      </trkpt>
      <trkpt lat="43.286" lon="2.4464">
        <ele>164.2</ele>
        <time>2021-09-07T05:27:52Z</time>
      </trkpt>
      <trkpt lat="43.28599" lon="2.44645">
        <ele>164.5</ele>
        <time>2021-09-07T05:27:54Z</time>
      </trkpt>
      <trkpt lat="43.28598" lon="2.44651">
        <ele>164.9</ele>
        <time>2021-09-07T05:27:56Z</time>
      </trkpt>
      <trkpt lat="43.28598" lon="2.44658">
        <ele>165.3</ele>
        <time>2021-09-07T05:27:58Z</time>
      </trkpt>
      <trkpt lat="43.28599" lon="2.44663">
        <ele>165.6</ele>
        <time>2021-09-07T05:28:00Z</time>
      </trkpt>
      <trkpt lat="43.28598" lon="2.44668">
        <ele>165.9</ele>
        <time>2021-09-07T05:28:02Z</time>
      </trkpt>
      <trkpt lat="43.28597" lon="2.44673">
        <ele>166.2</ele>
        <time>2021-09-07T05:28:03Z</time>
      </trkpt>
      <trkpt lat="43.28596" lon="2.44674">
        <ele>166.3</ele>
        <time>2021-09-07T05:28:04Z</time>
      </trkpt>
      <trkpt lat="43.28594" lon="2.4468">
        <ele>166.6</ele>
        <time>2021-09-07T05:28:06Z</time>
      </trkpt>
      <trkpt lat="43.28593" lon="2.44686">
        <ele>166.8</ele>
        <time>2021-09-07T05:28:08Z</time>
      </trkpt>
      <trkpt lat="43.28593" lon="2.44692">
        <ele>167</ele>
        <time>2021-09-07T05:28:10Z</time>
      </trkpt>
      <trkpt lat="43.28592" lon="2.44696">
        <ele>167.1</ele>
        <time>2021-09-07T05:28:11Z</time>
      </trkpt>
      <trkpt lat="43.28592" lon="2.44697">
        <ele>167.2</ele>
        <time>2021-09-07T05:28:12Z</time>
      </trkpt>
      <trkpt lat="43.28592" lon="2.44699">
        <ele>167.2</ele>
        <time>2021-09-07T05:28:13Z</time>
      </trkpt>
      <trkpt lat="43.28591" lon="2.44702">
        <ele>167.3</ele>
        <time>2021-09-07T05:28:15Z</time>
      </trkpt>
      <trkpt lat="43.28591" lon="2.44704">
        <ele>167.4</ele>
        <time>2021-09-07T05:28:16Z</time>
      </trkpt>
      <trkpt lat="43.28589" lon="2.44708">
        <ele>167.5</ele>
        <time>2021-09-07T05:28:18Z</time>
      </trkpt>
      <trkpt lat="43.28589" lon="2.44709">
        <ele>167.6</ele>
        <time>2021-09-07T05:28:19Z</time>
      </trkpt>
      <trkpt lat="43.28588" lon="2.44711">
        <ele>167.6</ele>
        <time>2021-09-07T05:28:21Z</time>
      </trkpt>
      <trkpt lat="43.28588" lon="2.44714">
        <ele>167.7</ele>
        <time>2021-09-07T05:28:23Z</time>
      </trkpt>
      <trkpt lat="43.28588" lon="2.44718">
        <ele>167.7</ele>
        <time>2021-09-07T05:28:24Z</time>
      </trkpt>
      <trkpt lat="43.28588" lon="2.44719">
        <ele>167.7</ele>
        <time>2021-09-07T05:28:25Z</time>
      </trkpt>
      <trkpt lat="43.28588" lon="2.44726">
        <ele>167.7</ele>
        <time>2021-09-07T05:28:27Z</time>
      </trkpt>
      <trkpt lat="43.28588" lon="2.44733">
        <ele>167.7</ele>
        <time>2021-09-07T05:28:29Z</time>
      </trkpt>
      <trkpt lat="43.28588" lon="2.44736">
        <ele>167.7</ele>
        <time>2021-09-07T05:28:30Z</time>
      </trkpt>
      <trkpt lat="43.28588" lon="2.44741">
        <ele>167.7</ele>
        <time>2021-09-07T05:28:32Z</time>
      </trkpt>
      <trkpt lat="43.28588" lon="2.44743">
        <ele>167.7</ele>
        <time>2021-09-07T05:28:33Z</time>
      </trkpt>
      <trkpt lat="43.28589" lon="2.44745">
        <ele>167.7</ele>
        <time>2021-09-07T05:28:34Z</time>
      </trkpt>
      <trkpt lat="43.28589" lon="2.44748">
        <ele>167.7</ele>
        <time>2021-09-07T05:28:35Z</time>
      </trkpt>
      <trkpt lat="43.28589" lon="2.44753">
        <ele>167.7</ele>
        <time>2021-09-07T05:28:37Z</time>
      </trkpt>
      <trkpt lat="43.28589" lon="2.44756">
        <ele>167.7</ele>
        <time>2021-09-07T05:28:38Z</time>
      </trkpt>
      <trkpt lat="43.28589" lon="2.44762">
        <ele>167.7</ele>
        <time>2021-09-07T05:28:40Z</time>
      </trkpt>
      <trkpt lat="43.28588" lon="2.44767">
        <ele>167.7</ele>
        <time>2021-09-07T05:28:41Z</time>
      </trkpt>
      <trkpt lat="43.28588" lon="2.44768">
        <ele>167.7</ele>
        <time>2021-09-07T05:28:42Z</time>
      </trkpt>
      <trkpt lat="43.28587" lon="2.44774">
        <ele>167.7</ele>
        <time>2021-09-07T05:28:44Z</time>
      </trkpt>
      <trkpt lat="43.28585" lon="2.44781">
        <ele>167.7</ele>
        <time>2021-09-07T05:28:46Z</time>
      </trkpt>
      <trkpt lat="43.28585" lon="2.44785">
        <ele>167.7</ele>
        <time>2021-09-07T05:28:47Z</time>
      </trkpt>
      <trkpt lat="43.28583" lon="2.44792">
        <ele>167.8</ele>
        <time>2021-09-07T05:28:49Z</time>
      </trkpt>
      <trkpt lat="43.28582" lon="2.44798">
        <ele>167.8</ele>
        <time>2021-09-07T05:28:51Z</time>
      </trkpt>
      <trkpt lat="43.2858" lon="2.44802">
        <ele>167.9</ele>
        <time>2021-09-07T05:28:52Z</time>
      </trkpt>
      <trkpt lat="43.28579" lon="2.44805">
        <ele>167.9</ele>
        <time>2021-09-07T05:28:53Z</time>
      </trkpt>
      <trkpt lat="43.28576" lon="2.44811">
        <ele>168.1</ele>
        <time>2021-09-07T05:28:55Z</time>
      </trkpt>
      <trkpt lat="43.28574" lon="2.44814">
        <ele>168.1</ele>
        <time>2021-09-07T05:28:56Z</time>
      </trkpt>
      <trkpt lat="43.28572" lon="2.44821">
        <ele>168.3</ele>
        <time>2021-09-07T05:28:58Z</time>
      </trkpt>
      <trkpt lat="43.28571" lon="2.44825">
        <ele>168.5</ele>
        <time>2021-09-07T05:28:59Z</time>
      </trkpt>
      <trkpt lat="43.2857" lon="2.44828">
        <ele>168.6</ele>
        <time>2021-09-07T05:29:00Z</time>
      </trkpt>
      <trkpt lat="43.28568" lon="2.44834">
        <ele>168.9</ele>
        <time>2021-09-07T05:29:02Z</time>
      </trkpt>
      <trkpt lat="43.28566" lon="2.44839">
        <ele>169.1</ele>
        <time>2021-09-07T05:29:03Z</time>
      </trkpt>
      <trkpt lat="43.28566" lon="2.44841">
        <ele>169.2</ele>
        <time>2021-09-07T05:29:04Z</time>
      </trkpt>
      <trkpt lat="43.28564" lon="2.44848">
        <ele>169.6</ele>
        <time>2021-09-07T05:29:06Z</time>
      </trkpt>
      <trkpt lat="43.28563" lon="2.44853">
        <ele>169.9</ele>
        <time>2021-09-07T05:29:07Z</time>
      </trkpt>
      <trkpt lat="43.28563" lon="2.44855">
        <ele>169.9</ele>
        <time>2021-09-07T05:29:08Z</time>
      </trkpt>
      <trkpt lat="43.28561" lon="2.44862">
        <ele>170.3</ele>
        <time>2021-09-07T05:29:10Z</time>
      </trkpt>
      <trkpt lat="43.28561" lon="2.44866">
        <ele>170.5</ele>
        <time>2021-09-07T05:29:11Z</time>
      </trkpt>
      <trkpt lat="43.28559" lon="2.44872">
        <ele>170.8</ele>
        <time>2021-09-07T05:29:13Z</time>
      </trkpt>
      <trkpt lat="43.28559" lon="2.44878">
        <ele>171.1</ele>
        <time>2021-09-07T05:29:14Z</time>
      </trkpt>
      <trkpt lat="43.28559" lon="2.44879">
        <ele>171.2</ele>
        <time>2021-09-07T05:29:15Z</time>
      </trkpt>
      <trkpt lat="43.28558" lon="2.44885">
        <ele>171.5</ele>
        <time>2021-09-07T05:29:17Z</time>
      </trkpt>
      <trkpt lat="43.28558" lon="2.44888">
        <ele>171.6</ele>
        <time>2021-09-07T05:29:18Z</time>
      </trkpt>
      <trkpt lat="43.28558" lon="2.44892">
        <ele>171.8</ele>
        <time>2021-09-07T05:29:20Z</time>
      </trkpt>
      <trkpt lat="43.28558" lon="2.44893">
        <ele>171.9</ele>
        <time>2021-09-07T05:29:21Z</time>
      </trkpt>
      <trkpt lat="43.28558" lon="2.44895">
        <ele>172</ele>
        <time>2021-09-07T05:29:23Z</time>
      </trkpt>
      <trkpt lat="43.28559" lon="2.44899">
        <ele>172.2</ele>
        <time>2021-09-07T05:29:25Z</time>
      </trkpt>
      <trkpt lat="43.28558" lon="2.44907">
        <ele>172.6</ele>
        <time>2021-09-07T05:29:27Z</time>
      </trkpt>
      <trkpt lat="43.28557" lon="2.44912">
        <ele>172.9</ele>
        <time>2021-09-07T05:29:29Z</time>
      </trkpt>
      <trkpt lat="43.28556" lon="2.44917">
        <ele>173.1</ele>
        <time>2021-09-07T05:29:30Z</time>
      </trkpt>
      <trkpt lat="43.28555" lon="2.44918">
        <ele>173.2</ele>
        <time>2021-09-07T05:29:31Z</time>
      </trkpt>
      <trkpt lat="43.28553" lon="2.44925">
        <ele>173.5</ele>
        <time>2021-09-07T05:29:33Z</time>
      </trkpt>
      <trkpt lat="43.28553" lon="2.44928">
        <ele>173.6</ele>
        <time>2021-09-07T05:29:34Z</time>
      </trkpt>
      <trkpt lat="43.28552" lon="2.44935">
        <ele>174.4</ele>
        <time>2021-09-07T05:29:36Z</time>
      </trkpt>
      <trkpt lat="43.28553" lon="2.4494">
        <ele>174.7</ele>
        <time>2021-09-07T05:29:38Z</time>
      </trkpt>
      <trkpt lat="43.28555" lon="2.44944">
        <ele>175</ele>
        <time>2021-09-07T05:29:40Z</time>
      </trkpt>
      <trkpt lat="43.28557" lon="2.44947">
        <ele>175.2</ele>
        <time>2021-09-07T05:29:41Z</time>
      </trkpt>
      <trkpt lat="43.2856" lon="2.44952">
        <ele>175.7</ele>
        <time>2021-09-07T05:29:43Z</time>
      </trkpt>
      <trkpt lat="43.28564" lon="2.44956">
        <ele>176.1</ele>
        <time>2021-09-07T05:29:45Z</time>
      </trkpt>
      <trkpt lat="43.28567" lon="2.44958">
        <ele>176.5</ele>
        <time>2021-09-07T05:29:46Z</time>
      </trkpt>
      <trkpt lat="43.28568" lon="2.44959">
        <ele>176.6</ele>
        <time>2021-09-07T05:29:47Z</time>
      </trkpt>
      <trkpt lat="43.2857" lon="2.44961">
        <ele>176.9</ele>
        <time>2021-09-07T05:29:48Z</time>
      </trkpt>
      <trkpt lat="43.28571" lon="2.44962">
        <ele>177</ele>
        <time>2021-09-07T05:29:49Z</time>
      </trkpt>
      <trkpt lat="43.28575" lon="2.44964">
        <ele>177.4</ele>
        <time>2021-09-07T05:29:51Z</time>
      </trkpt>
      <trkpt lat="43.28577" lon="2.44965">
        <ele>177.6</ele>
        <time>2021-09-07T05:29:52Z</time>
      </trkpt>
      <trkpt lat="43.2858" lon="2.44966">
        <ele>177.9</ele>
        <time>2021-09-07T05:29:54Z</time>
      </trkpt>
      <trkpt lat="43.28582" lon="2.44966">
        <ele>178.1</ele>
        <time>2021-09-07T05:29:55Z</time>
      </trkpt>
      <trkpt lat="43.28586" lon="2.44968">
        <ele>178.4</ele>
        <time>2021-09-07T05:29:57Z</time>
      </trkpt>
      <trkpt lat="43.2859" lon="2.44968">
        <ele>178.7</ele>
        <time>2021-09-07T05:29:59Z</time>
      </trkpt>
      <trkpt lat="43.28592" lon="2.44968">
        <ele>178.8</ele>
        <time>2021-09-07T05:30:00Z</time>
      </trkpt>
      <trkpt lat="43.28597" lon="2.44969">
        <ele>179.1</ele>
        <time>2021-09-07T05:30:02Z</time>
      </trkpt>
      <trkpt lat="43.28601" lon="2.4497">
        <ele>179.3</ele>
        <time>2021-09-07T05:30:04Z</time>
      </trkpt>
      <trkpt lat="43.28604" lon="2.4497">
        <ele>179.4</ele>
        <time>2021-09-07T05:30:05Z</time>
      </trkpt>
      <trkpt lat="43.28605" lon="2.4497">
        <ele>179.4</ele>
        <time>2021-09-07T05:30:06Z</time>
      </trkpt>
      <trkpt lat="43.28609" lon="2.44971">
        <ele>179.6</ele>
        <time>2021-09-07T05:30:08Z</time>
      </trkpt>
      <trkpt lat="43.28611" lon="2.44972">
        <ele>179.7</ele>
        <time>2021-09-07T05:30:09Z</time>
      </trkpt>
      <trkpt lat="43.28615" lon="2.44972">
        <ele>179.8</ele>
        <time>2021-09-07T05:30:11Z</time>
      </trkpt>
      <trkpt lat="43.28619" lon="2.44973">
        <ele>180</ele>
        <time>2021-09-07T05:30:13Z</time>
      </trkpt>
      <trkpt lat="43.28622" lon="2.44973">
        <ele>180.1</ele>
        <time>2021-09-07T05:30:14Z</time>
      </trkpt>
      <trkpt lat="43.28623" lon="2.44974">
        <ele>180.2</ele>
        <time>2021-09-07T05:30:15Z</time>
      </trkpt>
      <trkpt lat="43.28627" lon="2.44974">
        <ele>180.4</ele>
        <time>2021-09-07T05:30:17Z</time>
      </trkpt>
      <trkpt lat="43.2863" lon="2.44974">
        <ele>180.5</ele>
        <time>2021-09-07T05:30:18Z</time>
      </trkpt>
      <trkpt lat="43.28634" lon="2.44973">
        <ele>180.7</ele>
        <time>2021-09-07T05:30:20Z</time>
      </trkpt>
      <trkpt lat="43.28637" lon="2.44972">
        <ele>180.8</ele>
        <time>2021-09-07T05:30:21Z</time>
      </trkpt>
      <trkpt lat="43.28642" lon="2.44971">
        <ele>181</ele>
        <time>2021-09-07T05:30:23Z</time>
      </trkpt>
      <trkpt lat="43.28645" lon="2.44971">
        <ele>181.1</ele>
        <time>2021-09-07T05:30:24Z</time>
      </trkpt>
      <trkpt lat="43.28646" lon="2.44971">
        <ele>181.1</ele>
        <time>2021-09-07T05:30:25Z</time>
      </trkpt>
      <trkpt lat="43.2865" lon="2.44971">
        <ele>181.3</ele>
        <time>2021-09-07T05:30:27Z</time>
      </trkpt>
      <trkpt lat="43.28652" lon="2.44972">
        <ele>181.4</ele>
        <time>2021-09-07T05:30:28Z</time>
      </trkpt>
      <trkpt lat="43.28657" lon="2.44973">
        <ele>181.7</ele>
        <time>2021-09-07T05:30:30Z</time>
      </trkpt>
      <trkpt lat="43.28661" lon="2.44975">
        <ele>182</ele>
        <time>2021-09-07T05:30:32Z</time>
      </trkpt>
      <trkpt lat="43.28665" lon="2.44977">
        <ele>182.3</ele>
        <time>2021-09-07T05:30:34Z</time>
      </trkpt>
      <trkpt lat="43.28669" lon="2.4498">
        <ele>182.6</ele>
        <time>2021-09-07T05:30:36Z</time>
      </trkpt>
      <trkpt lat="43.2867" lon="2.44981">
        <ele>182.8</ele>
        <time>2021-09-07T05:30:37Z</time>
      </trkpt>
      <trkpt lat="43.28672" lon="2.44983">
        <ele>183</ele>
        <time>2021-09-07T05:30:38Z</time>
      </trkpt>
      <trkpt lat="43.28675" lon="2.44986">
        <ele>183.3</ele>
        <time>2021-09-07T05:30:40Z</time>
      </trkpt>
      <trkpt lat="43.28677" lon="2.44989">
        <ele>183.7</ele>
        <time>2021-09-07T05:30:42Z</time>
      </trkpt>
      <trkpt lat="43.2868" lon="2.44991">
        <ele>184</ele>
        <time>2021-09-07T05:30:44Z</time>
      </trkpt>
      <trkpt lat="43.28681" lon="2.44991">
        <ele>184.2</ele>
        <time>2021-09-07T05:30:45Z</time>
      </trkpt>
      <trkpt lat="43.28685" lon="2.44993">
        <ele>184.6</ele>
        <time>2021-09-07T05:30:47Z</time>
      </trkpt>
      <trkpt lat="43.28688" lon="2.44997">
        <ele>185</ele>
        <time>2021-09-07T05:30:49Z</time>
      </trkpt>
      <trkpt lat="43.28689" lon="2.44998">
        <ele>185.2</ele>
        <time>2021-09-07T05:30:50Z</time>
      </trkpt>
      <trkpt lat="43.28692" lon="2.45001">
        <ele>185.6</ele>
        <time>2021-09-07T05:30:52Z</time>
      </trkpt>
      <trkpt lat="43.28694" lon="2.45004">
        <ele>186</ele>
        <time>2021-09-07T05:30:53Z</time>
      </trkpt>
      <trkpt lat="43.28695" lon="2.45004">
        <ele>186.1</ele>
        <time>2021-09-07T05:30:54Z</time>
      </trkpt>
      <trkpt lat="43.28696" lon="2.45006">
        <ele>186.3</ele>
        <time>2021-09-07T05:30:55Z</time>
      </trkpt>
      <trkpt lat="43.28699" lon="2.45009">
        <ele>186.6</ele>
        <time>2021-09-07T05:30:57Z</time>
      </trkpt>
      <trkpt lat="43.28701" lon="2.45012">
        <ele>186.9</ele>
        <time>2021-09-07T05:30:59Z</time>
      </trkpt>
      <trkpt lat="43.28703" lon="2.45015">
        <ele>187.3</ele>
        <time>2021-09-07T05:31:01Z</time>
      </trkpt>
      <trkpt lat="43.28705" lon="2.45019">
        <ele>187.7</ele>
        <time>2021-09-07T05:31:03Z</time>
      </trkpt>
      <trkpt lat="43.28707" lon="2.45023">
        <ele>188</ele>
        <time>2021-09-07T05:31:04Z</time>
      </trkpt>
      <trkpt lat="43.28707" lon="2.45024">
        <ele>188.2</ele>
        <time>2021-09-07T05:31:05Z</time>
      </trkpt>
      <trkpt lat="43.28709" lon="2.4503">
        <ele>188.7</ele>
        <time>2021-09-07T05:31:07Z</time>
      </trkpt>
      <trkpt lat="43.28709" lon="2.45032">
        <ele>188.9</ele>
        <time>2021-09-07T05:31:09Z</time>
      </trkpt>
      <trkpt lat="43.28709" lon="2.45034">
        <ele>189</ele>
        <time>2021-09-07T05:31:10Z</time>
      </trkpt>
      <trkpt lat="43.2871" lon="2.45036">
        <ele>189</ele>
        <time>2021-09-07T05:31:11Z</time>
      </trkpt>
      <trkpt lat="43.2871" lon="2.45037">
        <ele>189</ele>
        <time>2021-09-07T05:31:12Z</time>
      </trkpt>
      <trkpt lat="43.28713" lon="2.45042">
        <ele>189.1</ele>
        <time>2021-09-07T05:31:14Z</time>
      </trkpt>
      <trkpt lat="43.28716" lon="2.45046">
        <ele>189.1</ele>
        <time>2021-09-07T05:31:16Z</time>
      </trkpt>
      <trkpt lat="43.28718" lon="2.45047">
        <ele>189.1</ele>
        <time>2021-09-07T05:31:17Z</time>
      </trkpt>
      <trkpt lat="43.28722" lon="2.45048">
        <ele>189</ele>
        <time>2021-09-07T05:31:19Z</time>
      </trkpt>
      <trkpt lat="43.28723" lon="2.45048">
        <ele>189</ele>
        <time>2021-09-07T05:31:20Z</time>
      </trkpt>
      <trkpt lat="43.28725" lon="2.45049">
        <ele>189</ele>
        <time>2021-09-07T05:31:21Z</time>
      </trkpt>
      <trkpt lat="43.28729" lon="2.4505">
        <ele>188.9</ele>
        <time>2021-09-07T05:31:23Z</time>
      </trkpt>
      <trkpt lat="43.28732" lon="2.4505">
        <ele>188.8</ele>
        <time>2021-09-07T05:31:24Z</time>
      </trkpt>
      <trkpt lat="43.28739" lon="2.45052">
        <ele>188.5</ele>
        <time>2021-09-07T05:31:26Z</time>
      </trkpt>
      <trkpt lat="43.28743" lon="2.45053">
        <ele>188.3</ele>
        <time>2021-09-07T05:31:28Z</time>
      </trkpt>
      <trkpt lat="43.28746" lon="2.45053">
        <ele>188.2</ele>
        <time>2021-09-07T05:31:29Z</time>
      </trkpt>
      <trkpt lat="43.28751" lon="2.45053">
        <ele>188</ele>
        <time>2021-09-07T05:31:31Z</time>
      </trkpt>
      <trkpt lat="43.28754" lon="2.45053">
        <ele>187.8</ele>
        <time>2021-09-07T05:31:32Z</time>
      </trkpt>
      <trkpt lat="43.28755" lon="2.45053">
        <ele>187.7</ele>
        <time>2021-09-07T05:31:33Z</time>
      </trkpt>
      <trkpt lat="43.2876" lon="2.45053">
        <ele>187.4</ele>
        <time>2021-09-07T05:31:35Z</time>
      </trkpt>
      <trkpt lat="43.28762" lon="2.45053">
        <ele>187.3</ele>
        <time>2021-09-07T05:31:36Z</time>
      </trkpt>
      <trkpt lat="43.28766" lon="2.45053">
        <ele>186.9</ele>
        <time>2021-09-07T05:31:38Z</time>
      </trkpt>
      <trkpt lat="43.28771" lon="2.45053">
        <ele>186.5</ele>
        <time>2021-09-07T05:31:40Z</time>
      </trkpt>
      <trkpt lat="43.28774" lon="2.45052">
        <ele>186.3</ele>
        <time>2021-09-07T05:31:41Z</time>
      </trkpt>
      <trkpt lat="43.28779" lon="2.45053">
        <ele>185.8</ele>
        <time>2021-09-07T05:31:43Z</time>
      </trkpt>
      <trkpt lat="43.28783" lon="2.45054">
        <ele>185.5</ele>
        <time>2021-09-07T05:31:45Z</time>
      </trkpt>
      <trkpt lat="43.28786" lon="2.45055">
        <ele>185.3</ele>
        <time>2021-09-07T05:31:46Z</time>
      </trkpt>
      <trkpt lat="43.2879" lon="2.45056">
        <ele>185</ele>
        <time>2021-09-07T05:31:48Z</time>
      </trkpt>
      <trkpt lat="43.28794" lon="2.45057">
        <ele>184.8</ele>
        <time>2021-09-07T05:31:50Z</time>
      </trkpt>
      <trkpt lat="43.28799" lon="2.45058">
        <ele>184.5</ele>
        <time>2021-09-07T05:31:52Z</time>
      </trkpt>
      <trkpt lat="43.28804" lon="2.45059">
        <ele>184.3</ele>
        <time>2021-09-07T05:31:54Z</time>
      </trkpt>
      <trkpt lat="43.28807" lon="2.4506">
        <ele>184.1</ele>
        <time>2021-09-07T05:31:55Z</time>
      </trkpt>
      <trkpt lat="43.28813" lon="2.45061">
        <ele>183.9</ele>
        <time>2021-09-07T05:31:57Z</time>
      </trkpt>
      <trkpt lat="43.28818" lon="2.45062">
        <ele>183.8</ele>
        <time>2021-09-07T05:31:59Z</time>
      </trkpt>
      <trkpt lat="43.2882" lon="2.45062">
        <ele>183.7</ele>
        <time>2021-09-07T05:32:00Z</time>
      </trkpt>
      <trkpt lat="43.28826" lon="2.45061">
        <ele>183.5</ele>
        <time>2021-09-07T05:32:02Z</time>
      </trkpt>
      <trkpt lat="43.2883" lon="2.4506">
        <ele>183.4</ele>
        <time>2021-09-07T05:32:03Z</time>
      </trkpt>
      <trkpt lat="43.28831" lon="2.4506">
        <ele>183.4</ele>
        <time>2021-09-07T05:32:04Z</time>
      </trkpt>
      <trkpt lat="43.28833" lon="2.45059">
        <ele>183.3</ele>
        <time>2021-09-07T05:32:05Z</time>
      </trkpt>
      <trkpt lat="43.28838" lon="2.45057">
        <ele>182.9</ele>
        <time>2021-09-07T05:32:07Z</time>
      </trkpt>
      <trkpt lat="43.28842" lon="2.45055">
        <ele>182.6</ele>
        <time>2021-09-07T05:32:08Z</time>
      </trkpt>
      <trkpt lat="43.28843" lon="2.45054">
        <ele>182.5</ele>
        <time>2021-09-07T05:32:09Z</time>
      </trkpt>
      <trkpt lat="43.28847" lon="2.45052">
        <ele>182.1</ele>
        <time>2021-09-07T05:32:11Z</time>
      </trkpt>
      <trkpt lat="43.28849" lon="2.45051">
        <ele>181.8</ele>
        <time>2021-09-07T05:32:12Z</time>
      </trkpt>
      <trkpt lat="43.28852" lon="2.45049">
        <ele>181.3</ele>
        <time>2021-09-07T05:32:14Z</time>
      </trkpt>
      <trkpt lat="43.28856" lon="2.45049">
        <ele>180.8</ele>
        <time>2021-09-07T05:32:15Z</time>
      </trkpt>
      <trkpt lat="43.28857" lon="2.45049">
        <ele>180.7</ele>
        <time>2021-09-07T05:32:16Z</time>
      </trkpt>
      <trkpt lat="43.28859" lon="2.45049">
        <ele>180.4</ele>
        <time>2021-09-07T05:32:17Z</time>
      </trkpt>
      <trkpt lat="43.28864" lon="2.45049">
        <ele>179.7</ele>
        <time>2021-09-07T05:32:19Z</time>
      </trkpt>
      <trkpt lat="43.28868" lon="2.45049">
        <ele>179.3</ele>
        <time>2021-09-07T05:32:20Z</time>
      </trkpt>
      <trkpt lat="43.28869" lon="2.4505">
        <ele>179.1</ele>
        <time>2021-09-07T05:32:21Z</time>
      </trkpt>
      <trkpt lat="43.2887" lon="2.45051">
        <ele>178.9</ele>
        <time>2021-09-07T05:32:22Z</time>
      </trkpt>
      <trkpt lat="43.28872" lon="2.45054">
        <ele>178.7</ele>
        <time>2021-09-07T05:32:24Z</time>
      </trkpt>
      <trkpt lat="43.28873" lon="2.45055">
        <ele>178.6</ele>
        <time>2021-09-07T05:32:25Z</time>
      </trkpt>
      <trkpt lat="43.28874" lon="2.45057">
        <ele>178.5</ele>
        <time>2021-09-07T05:32:26Z</time>
      </trkpt>
      <trkpt lat="43.28876" lon="2.45062">
        <ele>178.2</ele>
        <time>2021-09-07T05:32:28Z</time>
      </trkpt>
      <trkpt lat="43.28877" lon="2.45064">
        <ele>178.2</ele>
        <time>2021-09-07T05:32:29Z</time>
      </trkpt>
      <trkpt lat="43.2888" lon="2.45068">
        <ele>178</ele>
        <time>2021-09-07T05:32:31Z</time>
      </trkpt>
      <trkpt lat="43.28884" lon="2.45071">
        <ele>177.9</ele>
        <time>2021-09-07T05:32:32Z</time>
      </trkpt>
      <trkpt lat="43.28885" lon="2.45072">
        <ele>177.9</ele>
        <time>2021-09-07T05:32:33Z</time>
      </trkpt>
      <trkpt lat="43.2889" lon="2.45075">
        <ele>178</ele>
        <time>2021-09-07T05:32:35Z</time>
      </trkpt>
      <trkpt lat="43.28893" lon="2.45077">
        <ele>178</ele>
        <time>2021-09-07T05:32:36Z</time>
      </trkpt>
      <trkpt lat="43.28896" lon="2.45078">
        <ele>178</ele>
        <time>2021-09-07T05:32:37Z</time>
      </trkpt>
      <trkpt lat="43.28898" lon="2.45079">
        <ele>178.1</ele>
        <time>2021-09-07T05:32:38Z</time>
      </trkpt>
      <trkpt lat="43.28903" lon="2.45081">
        <ele>178.2</ele>
        <time>2021-09-07T05:32:40Z</time>
      </trkpt>
      <trkpt lat="43.28909" lon="2.45083">
        <ele>178.3</ele>
        <time>2021-09-07T05:32:42Z</time>
      </trkpt>
      <trkpt lat="43.28911" lon="2.45085">
        <ele>178.4</ele>
        <time>2021-09-07T05:32:43Z</time>
      </trkpt>
      <trkpt lat="43.28916" lon="2.45088">
        <ele>178.5</ele>
        <time>2021-09-07T05:32:45Z</time>
      </trkpt>
      <trkpt lat="43.28919" lon="2.45092">
        <ele>178.3</ele>
        <time>2021-09-07T05:32:47Z</time>
      </trkpt>
      <trkpt lat="43.28922" lon="2.45096">
        <ele>178.1</ele>
        <time>2021-09-07T05:32:48Z</time>
      </trkpt>
      <trkpt lat="43.28923" lon="2.45097">
        <ele>178.1</ele>
        <time>2021-09-07T05:32:49Z</time>
      </trkpt>
      <trkpt lat="43.28926" lon="2.45103">
        <ele>177.8</ele>
        <time>2021-09-07T05:32:51Z</time>
      </trkpt>
      <trkpt lat="43.2893" lon="2.4511">
        <ele>177.5</ele>
        <time>2021-09-07T05:32:53Z</time>
      </trkpt>
      <trkpt lat="43.28935" lon="2.45115">
        <ele>177.3</ele>
        <time>2021-09-07T05:32:55Z</time>
      </trkpt>
      <trkpt lat="43.28937" lon="2.45118">
        <ele>177</ele>
        <time>2021-09-07T05:32:56Z</time>
      </trkpt>
      <trkpt lat="43.2894" lon="2.4512">
        <ele>176.7</ele>
        <time>2021-09-07T05:32:57Z</time>
      </trkpt>
      <trkpt lat="43.28944" lon="2.45126">
        <ele>176.4</ele>
        <time>2021-09-07T05:32:59Z</time>
      </trkpt>
      <trkpt lat="43.28946" lon="2.45129">
        <ele>176.1</ele>
        <time>2021-09-07T05:33:00Z</time>
      </trkpt>
      <trkpt lat="43.28949" lon="2.45135">
        <ele>175.7</ele>
        <time>2021-09-07T05:33:02Z</time>
      </trkpt>
      <trkpt lat="43.28951" lon="2.45142">
        <ele>175.5</ele>
        <time>2021-09-07T05:33:04Z</time>
      </trkpt>
      <trkpt lat="43.28952" lon="2.45146">
        <ele>175.1</ele>
        <time>2021-09-07T05:33:05Z</time>
      </trkpt>
      <trkpt lat="43.28954" lon="2.45153">
        <ele>175</ele>
        <time>2021-09-07T05:33:07Z</time>
      </trkpt>
      <trkpt lat="43.28954" lon="2.45161">
        <ele>174.9</ele>
        <time>2021-09-07T05:33:09Z</time>
      </trkpt>
      <trkpt lat="43.28955" lon="2.45164">
        <ele>174.7</ele>
        <time>2021-09-07T05:33:10Z</time>
      </trkpt>
      <trkpt lat="43.28956" lon="2.45172">
        <ele>174.6</ele>
        <time>2021-09-07T05:33:12Z</time>
      </trkpt>
      <trkpt lat="43.28958" lon="2.4518">
        <ele>174.5</ele>
        <time>2021-09-07T05:33:14Z</time>
      </trkpt>
      <trkpt lat="43.28958" lon="2.45183">
        <ele>174.4</ele>
        <time>2021-09-07T05:33:15Z</time>
      </trkpt>
      <trkpt lat="43.28957" lon="2.4519">
        <ele>174.4</ele>
        <time>2021-09-07T05:33:17Z</time>
      </trkpt>
      <trkpt lat="43.28954" lon="2.45195">
        <ele>174.5</ele>
        <time>2021-09-07T05:33:19Z</time>
      </trkpt>
      <trkpt lat="43.2895" lon="2.45198">
        <ele>174.5</ele>
        <time>2021-09-07T05:33:21Z</time>
      </trkpt>
      <trkpt lat="43.28948" lon="2.45198">
        <ele>174.6</ele>
        <time>2021-09-07T05:33:22Z</time>
      </trkpt>
      <trkpt lat="43.28943" lon="2.45199">
        <ele>174.6</ele>
        <time>2021-09-07T05:33:24Z</time>
      </trkpt>
      <trkpt lat="43.28941" lon="2.45199">
        <ele>174.7</ele>
        <time>2021-09-07T05:33:25Z</time>
      </trkpt>
      <trkpt lat="43.28937" lon="2.45201">
        <ele>174.7</ele>
        <time>2021-09-07T05:33:27Z</time>
      </trkpt>
      <trkpt lat="43.28935" lon="2.45205">
        <ele>174.6</ele>
        <time>2021-09-07T05:33:28Z</time>
      </trkpt>
      <trkpt lat="43.28935" lon="2.45207">
        <ele>174.5</ele>
        <time>2021-09-07T05:33:29Z</time>
      </trkpt>
      <trkpt lat="43.28935" lon="2.45214">
        <ele>174.4</ele>
        <time>2021-09-07T05:33:31Z</time>
      </trkpt>
      <trkpt lat="43.28935" lon="2.45221">
        <ele>174.2</ele>
        <time>2021-09-07T05:33:33Z</time>
      </trkpt>
      <trkpt lat="43.28936" lon="2.45228">
        <ele>174</ele>
        <time>2021-09-07T05:33:35Z</time>
      </trkpt>
      <trkpt lat="43.28937" lon="2.45232">
        <ele>173.9</ele>
        <time>2021-09-07T05:33:36Z</time>
      </trkpt>
      <trkpt lat="43.28937" lon="2.45239">
        <ele>173.9</ele>
        <time>2021-09-07T05:33:38Z</time>
      </trkpt>
      <trkpt lat="43.28938" lon="2.45246">
        <ele>173.7</ele>
        <time>2021-09-07T05:33:40Z</time>
      </trkpt>
      <trkpt lat="43.28938" lon="2.45249">
        <ele>173.6</ele>
        <time>2021-09-07T05:33:41Z</time>
      </trkpt>
      <trkpt lat="43.28939" lon="2.45257">
        <ele>173.5</ele>
        <time>2021-09-07T05:33:43Z</time>
      </trkpt>
      <trkpt lat="43.2894" lon="2.45264">
        <ele>173.4</ele>
        <time>2021-09-07T05:33:45Z</time>
      </trkpt>
      <trkpt lat="43.28941" lon="2.45269">
        <ele>173.3</ele>
        <time>2021-09-07T05:33:46Z</time>
      </trkpt>
      <trkpt lat="43.28942" lon="2.4527">
        <ele>173.2</ele>
        <time>2021-09-07T05:33:47Z</time>
      </trkpt>
      <trkpt lat="43.28943" lon="2.45277">
        <ele>173.2</ele>
        <time>2021-09-07T05:33:49Z</time>
      </trkpt>
      <trkpt lat="43.28945" lon="2.45285">
        <ele>173</ele>
        <time>2021-09-07T05:33:51Z</time>
      </trkpt>
      <trkpt lat="43.28946" lon="2.45289">
        <ele>173</ele>
        <time>2021-09-07T05:33:52Z</time>
      </trkpt>
      <trkpt lat="43.28948" lon="2.45297">
        <ele>172.9</ele>
        <time>2021-09-07T05:33:54Z</time>
      </trkpt>
      <trkpt lat="43.28949" lon="2.45305">
        <ele>172.7</ele>
        <time>2021-09-07T05:33:56Z</time>
      </trkpt>
      <trkpt lat="43.2895" lon="2.45309">
        <ele>172.6</ele>
        <time>2021-09-07T05:33:57Z</time>
      </trkpt>
      <trkpt lat="43.28951" lon="2.45313">
        <ele>172.6</ele>
        <time>2021-09-07T05:33:58Z</time>
      </trkpt>
      <trkpt lat="43.28953" lon="2.45321">
        <ele>172.5</ele>
        <time>2021-09-07T05:34:00Z</time>
      </trkpt>
      <trkpt lat="43.28955" lon="2.4533">
        <ele>172.4</ele>
        <time>2021-09-07T05:34:02Z</time>
      </trkpt>
      <trkpt lat="43.28956" lon="2.45334">
        <ele>172.4</ele>
        <time>2021-09-07T05:34:03Z</time>
      </trkpt>
      <trkpt lat="43.28957" lon="2.45341">
        <ele>172.3</ele>
        <time>2021-09-07T05:34:05Z</time>
      </trkpt>
      <trkpt lat="43.28958" lon="2.45344">
        <ele>172.3</ele>
        <time>2021-09-07T05:34:06Z</time>
      </trkpt>
      <trkpt lat="43.28959" lon="2.45352">
        <ele>172.2</ele>
        <time>2021-09-07T05:34:08Z</time>
      </trkpt>
      <trkpt lat="43.2896" lon="2.45355">
        <ele>172.2</ele>
        <time>2021-09-07T05:34:09Z</time>
      </trkpt>
      <trkpt lat="43.28961" lon="2.45359">
        <ele>172.1</ele>
        <time>2021-09-07T05:34:10Z</time>
      </trkpt>
      <trkpt lat="43.28962" lon="2.45367">
        <ele>172</ele>
        <time>2021-09-07T05:34:12Z</time>
      </trkpt>
      <trkpt lat="43.28964" lon="2.45374">
        <ele>171.9</ele>
        <time>2021-09-07T05:34:14Z</time>
      </trkpt>
      <trkpt lat="43.28966" lon="2.45382">
        <ele>171.7</ele>
        <time>2021-09-07T05:34:16Z</time>
      </trkpt>
      <trkpt lat="43.28968" lon="2.4539">
        <ele>171.5</ele>
        <time>2021-09-07T05:34:18Z</time>
      </trkpt>
      <trkpt lat="43.2897" lon="2.45397">
        <ele>171.2</ele>
        <time>2021-09-07T05:34:20Z</time>
      </trkpt>
      <trkpt lat="43.28972" lon="2.45403">
        <ele>171.1</ele>
        <time>2021-09-07T05:34:22Z</time>
      </trkpt>
      <trkpt lat="43.28975" lon="2.4541">
        <ele>170.8</ele>
        <time>2021-09-07T05:34:24Z</time>
      </trkpt>
      <trkpt lat="43.28975" lon="2.45414">
        <ele>170.8</ele>
        <time>2021-09-07T05:34:25Z</time>
      </trkpt>
      <trkpt lat="43.28976" lon="2.45416">
        <ele>170.7</ele>
        <time>2021-09-07T05:34:26Z</time>
      </trkpt>
      <trkpt lat="43.28975" lon="2.45424">
        <ele>170.6</ele>
        <time>2021-09-07T05:34:28Z</time>
      </trkpt>
      <trkpt lat="43.28974" lon="2.45431">
        <ele>170.5</ele>
        <time>2021-09-07T05:34:30Z</time>
      </trkpt>
      <trkpt lat="43.28973" lon="2.45435">
        <ele>170.5</ele>
        <time>2021-09-07T05:34:31Z</time>
      </trkpt>
      <trkpt lat="43.28973" lon="2.4544">
        <ele>170.4</ele>
        <time>2021-09-07T05:34:32Z</time>
      </trkpt>
      <trkpt lat="43.28972" lon="2.45442">
        <ele>170.4</ele>
        <time>2021-09-07T05:34:33Z</time>
      </trkpt>
      <trkpt lat="43.28973" lon="2.45448">
        <ele>170.4</ele>
        <time>2021-09-07T05:34:35Z</time>
      </trkpt>
      <trkpt lat="43.28974" lon="2.45454">
        <ele>170.4</ele>
        <time>2021-09-07T05:34:37Z</time>
      </trkpt>
      <trkpt lat="43.28974" lon="2.45456">
        <ele>170.4</ele>
        <time>2021-09-07T05:34:38Z</time>
      </trkpt>
      <trkpt lat="43.28975" lon="2.45462">
        <ele>170.4</ele>
        <time>2021-09-07T05:34:40Z</time>
      </trkpt>
      <trkpt lat="43.28975" lon="2.45468">
        <ele>170.5</ele>
        <time>2021-09-07T05:34:42Z</time>
      </trkpt>
      <trkpt lat="43.28974" lon="2.45475">
        <ele>170.6</ele>
        <time>2021-09-07T05:34:44Z</time>
      </trkpt>
      <trkpt lat="43.28974" lon="2.45478">
        <ele>170.7</ele>
        <time>2021-09-07T05:34:45Z</time>
      </trkpt>
      <trkpt lat="43.28974" lon="2.45482">
        <ele>170.7</ele>
        <time>2021-09-07T05:34:47Z</time>
      </trkpt>
      <trkpt lat="43.28975" lon="2.45483">
        <ele>170.8</ele>
        <time>2021-09-07T05:34:48Z</time>
      </trkpt>
      <trkpt lat="43.28974" lon="2.45485">
        <ele>170.8</ele>
        <time>2021-09-07T05:34:49Z</time>
      </trkpt>
      <trkpt lat="43.28974" lon="2.45486">
        <ele>170.9</ele>
        <time>2021-09-07T05:34:51Z</time>
      </trkpt>
      <trkpt lat="43.28974" lon="2.45488">
        <ele>170.9</ele>
        <time>2021-09-07T05:34:53Z</time>
      </trkpt>
      <trkpt lat="43.28973" lon="2.45489">
        <ele>170.9</ele>
        <time>2021-09-07T05:34:54Z</time>
      </trkpt>
      <trkpt lat="43.28974" lon="2.45491">
        <ele>171</ele>
        <time>2021-09-07T05:34:56Z</time>
      </trkpt>
      <trkpt lat="43.28974" lon="2.45492">
        <ele>171</ele>
        <time>2021-09-07T05:34:58Z</time>
      </trkpt>
      <trkpt lat="43.28973" lon="2.45497">
        <ele>171.4</ele>
        <time>2021-09-07T05:35:00Z</time>
      </trkpt>
      <trkpt lat="43.2897" lon="2.45501">
        <ele>171.6</ele>
        <time>2021-09-07T05:35:02Z</time>
      </trkpt>
      <trkpt lat="43.28969" lon="2.45502">
        <ele>171.7</ele>
        <time>2021-09-07T05:35:03Z</time>
      </trkpt>
      <trkpt lat="43.28965" lon="2.45504">
        <ele>171.9</ele>
        <time>2021-09-07T05:35:05Z</time>
      </trkpt>
      <trkpt lat="43.28964" lon="2.45505">
        <ele>172</ele>
        <time>2021-09-07T05:35:06Z</time>
      </trkpt>
      <trkpt lat="43.28962" lon="2.45506">
        <ele>172.1</ele>
        <time>2021-09-07T05:35:07Z</time>
      </trkpt>
      <trkpt lat="43.28958" lon="2.45507">
        <ele>172.4</ele>
        <time>2021-09-07T05:35:09Z</time>
      </trkpt>
      <trkpt lat="43.28956" lon="2.45507">
        <ele>172.5</ele>
        <time>2021-09-07T05:35:10Z</time>
      </trkpt>
      <trkpt lat="43.28953" lon="2.45507">
        <ele>172.6</ele>
        <time>2021-09-07T05:35:12Z</time>
      </trkpt>
      <trkpt lat="43.2895" lon="2.45509">
        <ele>172.8</ele>
        <time>2021-09-07T05:35:14Z</time>
      </trkpt>
      <trkpt lat="43.28945" lon="2.45512">
        <ele>173.1</ele>
        <time>2021-09-07T05:35:16Z</time>
      </trkpt>
      <trkpt lat="43.28943" lon="2.45513">
        <ele>173.2</ele>
        <time>2021-09-07T05:35:17Z</time>
      </trkpt>
      <trkpt lat="43.2894" lon="2.45514">
        <ele>173.4</ele>
        <time>2021-09-07T05:35:19Z</time>
      </trkpt>
      <trkpt lat="43.28938" lon="2.45515">
        <ele>173.5</ele>
        <time>2021-09-07T05:35:20Z</time>
      </trkpt>
      <trkpt lat="43.28937" lon="2.45517">
        <ele>173.6</ele>
        <time>2021-09-07T05:35:22Z</time>
      </trkpt>
      <trkpt lat="43.28934" lon="2.45517">
        <ele>173.7</ele>
        <time>2021-09-07T05:35:24Z</time>
      </trkpt>
      <trkpt lat="43.2893" lon="2.45517">
        <ele>173.9</ele>
        <time>2021-09-07T05:35:26Z</time>
      </trkpt>
      <trkpt lat="43.28929" lon="2.45517">
        <ele>174</ele>
        <time>2021-09-07T05:35:27Z</time>
      </trkpt>
      <trkpt lat="43.28926" lon="2.45518">
        <ele>174.2</ele>
        <time>2021-09-07T05:35:29Z</time>
      </trkpt>
      <trkpt lat="43.28925" lon="2.45519">
        <ele>174.3</ele>
        <time>2021-09-07T05:35:30Z</time>
      </trkpt>
      <trkpt lat="43.28923" lon="2.45519">
        <ele>174.5</ele>
        <time>2021-09-07T05:35:32Z</time>
      </trkpt>
      <trkpt lat="43.28922" lon="2.45519">
        <ele>174.6</ele>
        <time>2021-09-07T05:35:33Z</time>
      </trkpt>
      <trkpt lat="43.28919" lon="2.45521">
        <ele>174.8</ele>
        <time>2021-09-07T05:35:35Z</time>
      </trkpt>
      <trkpt lat="43.28917" lon="2.45522">
        <ele>175.1</ele>
        <time>2021-09-07T05:35:36Z</time>
      </trkpt>
      <trkpt lat="43.28916" lon="2.45523">
        <ele>175.2</ele>
        <time>2021-09-07T05:35:37Z</time>
      </trkpt>
      <trkpt lat="43.28911" lon="2.45525">
        <ele>175.6</ele>
        <time>2021-09-07T05:35:39Z</time>
      </trkpt>
      <trkpt lat="43.28909" lon="2.45526">
        <ele>175.8</ele>
        <time>2021-09-07T05:35:40Z</time>
      </trkpt>
      <trkpt lat="43.28908" lon="2.45527">
        <ele>176</ele>
        <time>2021-09-07T05:35:41Z</time>
      </trkpt>
      <trkpt lat="43.28905" lon="2.45528">
        <ele>176.3</ele>
        <time>2021-09-07T05:35:43Z</time>
      </trkpt>
      <trkpt lat="43.289" lon="2.4553">
        <ele>176.8</ele>
        <time>2021-09-07T05:35:45Z</time>
      </trkpt>
      <trkpt lat="43.28895" lon="2.4553">
        <ele>177.4</ele>
        <time>2021-09-07T05:35:47Z</time>
      </trkpt>
      <trkpt lat="43.2889" lon="2.45531">
        <ele>178</ele>
        <time>2021-09-07T05:35:49Z</time>
      </trkpt>
      <trkpt lat="43.28888" lon="2.45531">
        <ele>178.3</ele>
        <time>2021-09-07T05:35:50Z</time>
      </trkpt>
      <trkpt lat="43.28883" lon="2.45532">
        <ele>178.8</ele>
        <time>2021-09-07T05:35:52Z</time>
      </trkpt>
      <trkpt lat="43.28879" lon="2.45531">
        <ele>179.2</ele>
        <time>2021-09-07T05:35:53Z</time>
      </trkpt>
      <trkpt lat="43.28878" lon="2.45531">
        <ele>179.4</ele>
        <time>2021-09-07T05:35:54Z</time>
      </trkpt>
      <trkpt lat="43.28875" lon="2.45531">
        <ele>179.8</ele>
        <time>2021-09-07T05:35:56Z</time>
      </trkpt>
      <trkpt lat="43.28873" lon="2.45531">
        <ele>180</ele>
        <time>2021-09-07T05:35:57Z</time>
      </trkpt>
      <trkpt lat="43.2887" lon="2.45534">
        <ele>180.3</ele>
        <time>2021-09-07T05:35:59Z</time>
      </trkpt>
      <trkpt lat="43.28869" lon="2.45537">
        <ele>180.7</ele>
        <time>2021-09-07T05:36:00Z</time>
      </trkpt>
      <trkpt lat="43.28869" lon="2.45538">
        <ele>180.8</ele>
        <time>2021-09-07T05:36:01Z</time>
      </trkpt>
      <trkpt lat="43.28867" lon="2.45541">
        <ele>181.1</ele>
        <time>2021-09-07T05:36:03Z</time>
      </trkpt>
      <trkpt lat="43.28866" lon="2.45541">
        <ele>181.3</ele>
        <time>2021-09-07T05:36:04Z</time>
      </trkpt>
      <trkpt lat="43.28864" lon="2.45541">
        <ele>181.4</ele>
        <time>2021-09-07T05:36:05Z</time>
      </trkpt>
      <trkpt lat="43.28864" lon="2.45541">
        <ele>181.5</ele>
        <time>2021-09-07T05:36:06Z</time>
      </trkpt>
      <trkpt lat="43.28863" lon="2.45543">
        <ele>181.8</ele>
        <time>2021-09-07T05:36:08Z</time>
      </trkpt>
      <trkpt lat="43.28862" lon="2.45544">
        <ele>181.9</ele>
        <time>2021-09-07T05:36:09Z</time>
      </trkpt>
      <trkpt lat="43.28861" lon="2.45546">
        <ele>182.1</ele>
        <time>2021-09-07T05:36:11Z</time>
      </trkpt>
      <trkpt lat="43.2886" lon="2.4555">
        <ele>182.6</ele>
        <time>2021-09-07T05:36:13Z</time>
      </trkpt>
      <trkpt lat="43.28859" lon="2.4555">
        <ele>182.7</ele>
        <time>2021-09-07T05:36:14Z</time>
      </trkpt>
      <trkpt lat="43.28857" lon="2.45554">
        <ele>183.2</ele>
        <time>2021-09-07T05:36:16Z</time>
      </trkpt>
      <trkpt lat="43.28856" lon="2.45555">
        <ele>183.4</ele>
        <time>2021-09-07T05:36:17Z</time>
      </trkpt>
      <trkpt lat="43.28855" lon="2.45556">
        <ele>183.7</ele>
        <time>2021-09-07T05:36:18Z</time>
      </trkpt>
      <trkpt lat="43.28852" lon="2.45558">
        <ele>184.2</ele>
        <time>2021-09-07T05:36:20Z</time>
      </trkpt>
      <trkpt lat="43.2885" lon="2.4556">
        <ele>184.6</ele>
        <time>2021-09-07T05:36:22Z</time>
      </trkpt>
      <trkpt lat="43.28849" lon="2.45561">
        <ele>184.8</ele>
        <time>2021-09-07T05:36:24Z</time>
      </trkpt>
      <trkpt lat="43.28848" lon="2.45561">
        <ele>185</ele>
        <time>2021-09-07T05:36:26Z</time>
      </trkpt>
      <trkpt lat="43.28847" lon="2.45561">
        <ele>185.1</ele>
        <time>2021-09-07T05:36:27Z</time>
      </trkpt>
      <trkpt lat="43.28845" lon="2.45563">
        <ele>185.5</ele>
        <time>2021-09-07T05:36:29Z</time>
      </trkpt>
      <trkpt lat="43.28843" lon="2.45564">
        <ele>185.8</ele>
        <time>2021-09-07T05:36:31Z</time>
      </trkpt>
      <trkpt lat="43.28842" lon="2.45564">
        <ele>186</ele>
        <time>2021-09-07T05:36:32Z</time>
      </trkpt>
      <trkpt lat="43.28839" lon="2.45566">
        <ele>186.3</ele>
        <time>2021-09-07T05:36:34Z</time>
      </trkpt>
      <trkpt lat="43.28837" lon="2.45567">
        <ele>186.5</ele>
        <time>2021-09-07T05:36:35Z</time>
      </trkpt>
      <trkpt lat="43.28835" lon="2.45568">
        <ele>186.8</ele>
        <time>2021-09-07T05:36:37Z</time>
      </trkpt>
      <trkpt lat="43.28834" lon="2.45569">
        <ele>187</ele>
        <time>2021-09-07T05:36:38Z</time>
      </trkpt>
      <trkpt lat="43.28833" lon="2.4557">
        <ele>187</ele>
        <time>2021-09-07T05:36:39Z</time>
      </trkpt>
      <trkpt lat="43.28831" lon="2.45572">
        <ele>188.1</ele>
        <time>2021-09-07T05:36:41Z</time>
      </trkpt>
      <trkpt lat="43.2883" lon="2.45577">
        <ele>188.7</ele>
        <time>2021-09-07T05:36:43Z</time>
      </trkpt>
      <trkpt lat="43.2883" lon="2.45578">
        <ele>188.8</ele>
        <time>2021-09-07T05:36:44Z</time>
      </trkpt>
      <trkpt lat="43.28827" lon="2.45582">
        <ele>189.9</ele>
        <time>2021-09-07T05:36:46Z</time>
      </trkpt>
      <trkpt lat="43.28826" lon="2.45584">
        <ele>191</ele>
        <time>2021-09-07T05:36:47Z</time>
      </trkpt>
      <trkpt lat="43.28823" lon="2.45587">
        <ele>191.6</ele>
        <time>2021-09-07T05:36:49Z</time>
      </trkpt>
      <trkpt lat="43.28821" lon="2.4559">
        <ele>192.2</ele>
        <time>2021-09-07T05:36:51Z</time>
      </trkpt>
      <trkpt lat="43.2882" lon="2.45592">
        <ele>193.3</ele>
        <time>2021-09-07T05:36:52Z</time>
      </trkpt>
      <trkpt lat="43.28818" lon="2.45595">
        <ele>193.4</ele>
        <time>2021-09-07T05:36:54Z</time>
      </trkpt>
      <trkpt lat="43.28816" lon="2.45597">
        <ele>194.5</ele>
        <time>2021-09-07T05:36:56Z</time>
      </trkpt>
      <trkpt lat="43.28816" lon="2.45598">
        <ele>194.5</ele>
        <time>2021-09-07T05:36:57Z</time>
      </trkpt>
      <trkpt lat="43.28815" lon="2.45599">
        <ele>194.6</ele>
        <time>2021-09-07T05:36:58Z</time>
      </trkpt>
      <trkpt lat="43.28813" lon="2.45602">
        <ele>195.8</ele>
        <time>2021-09-07T05:37:00Z</time>
      </trkpt>
      <trkpt lat="43.28812" lon="2.45605">
        <ele>196.5</ele>
        <time>2021-09-07T05:37:02Z</time>
      </trkpt>
      <trkpt lat="43.28811" lon="2.45606">
        <ele>196.5</ele>
        <time>2021-09-07T05:37:03Z</time>
      </trkpt>
      <trkpt lat="43.2881" lon="2.45607">
        <ele>197.2</ele>
        <time>2021-09-07T05:37:04Z</time>
      </trkpt>
      <trkpt lat="43.28809" lon="2.45609">
        <ele>197.9</ele>
        <time>2021-09-07T05:37:06Z</time>
      </trkpt>
      <trkpt lat="43.28807" lon="2.45611">
        <ele>198.6</ele>
        <time>2021-09-07T05:37:08Z</time>
      </trkpt>
      <trkpt lat="43.28805" lon="2.45615">
        <ele>199.4</ele>
        <time>2021-09-07T05:37:10Z</time>
      </trkpt>
      <trkpt lat="43.28804" lon="2.45617">
        <ele>200</ele>
        <time>2021-09-07T05:37:12Z</time>
      </trkpt>
      <trkpt lat="43.28803" lon="2.45618">
        <ele>200.8</ele>
        <time>2021-09-07T05:37:14Z</time>
      </trkpt>
      <trkpt lat="43.28802" lon="2.45619">
        <ele>200.9</ele>
        <time>2021-09-07T05:37:15Z</time>
      </trkpt>
      <trkpt lat="43.288" lon="2.4562">
        <ele>201.5</ele>
        <time>2021-09-07T05:37:17Z</time>
      </trkpt>
      <trkpt lat="43.28798" lon="2.45621">
        <ele>202.2</ele>
        <time>2021-09-07T05:37:19Z</time>
      </trkpt>
      <trkpt lat="43.28795" lon="2.45621">
        <ele>202.8</ele>
        <time>2021-09-07T05:37:21Z</time>
      </trkpt>
      <trkpt lat="43.28794" lon="2.45621">
        <ele>202.8</ele>
        <time>2021-09-07T05:37:22Z</time>
      </trkpt>
      <trkpt lat="43.28792" lon="2.45621">
        <ele>202.9</ele>
        <time>2021-09-07T05:37:23Z</time>
      </trkpt>
      <trkpt lat="43.2879" lon="2.45621">
        <ele>203.5</ele>
        <time>2021-09-07T05:37:25Z</time>
      </trkpt>
      <trkpt lat="43.28788" lon="2.45621">
        <ele>204.2</ele>
        <time>2021-09-07T05:37:27Z</time>
      </trkpt>
      <trkpt lat="43.28787" lon="2.45621">
        <ele>204.2</ele>
        <time>2021-09-07T05:37:29Z</time>
      </trkpt>
      <trkpt lat="43.28787" lon="2.45621">
        <ele>204.3</ele>
        <time>2021-09-07T05:37:30Z</time>
      </trkpt>
      <trkpt lat="43.28785" lon="2.4562">
        <ele>205</ele>
        <time>2021-09-07T05:37:32Z</time>
      </trkpt>
      <trkpt lat="43.28784" lon="2.45619">
        <ele>205</ele>
        <time>2021-09-07T05:37:34Z</time>
      </trkpt>
      <trkpt lat="43.28782" lon="2.45618">
        <ele>205.8</ele>
        <time>2021-09-07T05:37:35Z</time>
      </trkpt>
      <trkpt lat="43.2878" lon="2.45619">
        <ele>205.8</ele>
        <time>2021-09-07T05:37:37Z</time>
      </trkpt>
      <trkpt lat="43.28779" lon="2.4562">
        <ele>206.5</ele>
        <time>2021-09-07T05:37:39Z</time>
      </trkpt>
      <trkpt lat="43.28777" lon="2.45621">
        <ele>206.6</ele>
        <time>2021-09-07T05:37:41Z</time>
      </trkpt>
      <trkpt lat="43.28776" lon="2.45621">
        <ele>207.3</ele>
        <time>2021-09-07T05:37:42Z</time>
      </trkpt>
      <trkpt lat="43.28774" lon="2.45621">
        <ele>207.4</ele>
        <time>2021-09-07T05:37:44Z</time>
      </trkpt>
      <trkpt lat="43.28773" lon="2.45621">
        <ele>208.1</ele>
        <time>2021-09-07T05:37:45Z</time>
      </trkpt>
      <trkpt lat="43.28772" lon="2.45622">
        <ele>209</ele>
        <time>2021-09-07T05:37:47Z</time>
      </trkpt>
      <trkpt lat="43.28771" lon="2.45623">
        <ele>209</ele>
        <time>2021-09-07T05:37:48Z</time>
      </trkpt>
      <trkpt lat="43.28769" lon="2.45624">
        <ele>209.8</ele>
        <time>2021-09-07T05:37:50Z</time>
      </trkpt>
      <trkpt lat="43.28768" lon="2.45625">
        <ele>209.8</ele>
        <time>2021-09-07T05:37:51Z</time>
      </trkpt>
      <trkpt lat="43.28768" lon="2.45625">
        <ele>209.8</ele>
        <time>2021-09-07T05:37:52Z</time>
      </trkpt>
      <trkpt lat="43.28767" lon="2.45626">
        <ele>209.9</ele>
        <time>2021-09-07T05:37:53Z</time>
      </trkpt>
      <trkpt lat="43.28766" lon="2.45627">
        <ele>211.4</ele>
        <time>2021-09-07T05:37:55Z</time>
      </trkpt>
      <trkpt lat="43.28765" lon="2.45628">
        <ele>211.4</ele>
        <time>2021-09-07T05:37:56Z</time>
      </trkpt>
      <trkpt lat="43.28764" lon="2.45628">
        <ele>212.2</ele>
        <time>2021-09-07T05:37:57Z</time>
      </trkpt>
      <trkpt lat="43.28764" lon="2.45628">
        <ele>212.2</ele>
        <time>2021-09-07T05:37:58Z</time>
      </trkpt>
      <trkpt lat="43.28763" lon="2.45629">
        <ele>212.3</ele>
        <time>2021-09-07T05:38:00Z</time>
      </trkpt>
      <trkpt lat="43.28761" lon="2.4563">
        <ele>213.1</ele>
        <time>2021-09-07T05:38:02Z</time>
      </trkpt>
      <trkpt lat="43.28761" lon="2.45631">
        <ele>213.1</ele>
        <time>2021-09-07T05:38:03Z</time>
      </trkpt>
      <trkpt lat="43.2876" lon="2.45631">
        <ele>213.9</ele>
        <time>2021-09-07T05:38:04Z</time>
      </trkpt>
      <trkpt lat="43.2876" lon="2.45633">
        <ele>213.9</ele>
        <time>2021-09-07T05:38:06Z</time>
      </trkpt>
      <trkpt lat="43.28759" lon="2.45634">
        <ele>214</ele>
        <time>2021-09-07T05:38:07Z</time>
      </trkpt>
      <trkpt lat="43.28759" lon="2.45635">
        <ele>214.8</ele>
        <time>2021-09-07T05:38:08Z</time>
      </trkpt>
      <trkpt lat="43.28758" lon="2.45637">
        <ele>214.8</ele>
        <time>2021-09-07T05:38:09Z</time>
      </trkpt>
      <trkpt lat="43.28758" lon="2.4564">
        <ele>216.3</ele>
        <time>2021-09-07T05:38:11Z</time>
      </trkpt>
      <trkpt lat="43.28757" lon="2.45642">
        <ele>216.3</ele>
        <time>2021-09-07T05:38:13Z</time>
      </trkpt>
      <trkpt lat="43.28755" lon="2.45644">
        <ele>217.1</ele>
        <time>2021-09-07T05:38:15Z</time>
      </trkpt>
      <trkpt lat="43.28754" lon="2.45646">
        <ele>217.9</ele>
        <time>2021-09-07T05:38:17Z</time>
      </trkpt>
      <trkpt lat="43.28753" lon="2.45648">
        <ele>218.7</ele>
        <time>2021-09-07T05:38:19Z</time>
      </trkpt>
      <trkpt lat="43.28751" lon="2.45649">
        <ele>219.4</ele>
        <time>2021-09-07T05:38:21Z</time>
      </trkpt>
      <trkpt lat="43.28751" lon="2.4565">
        <ele>219.5</ele>
        <time>2021-09-07T05:38:22Z</time>
      </trkpt>
      <trkpt lat="43.2875" lon="2.45651">
        <ele>219.5</ele>
        <time>2021-09-07T05:38:23Z</time>
      </trkpt>
      <trkpt lat="43.28749" lon="2.45653">
        <ele>220.3</ele>
        <time>2021-09-07T05:38:25Z</time>
      </trkpt>
      <trkpt lat="43.28748" lon="2.45653">
        <ele>221</ele>
        <time>2021-09-07T05:38:26Z</time>
      </trkpt>
      <trkpt lat="43.28748" lon="2.45653">
        <ele>221.1</ele>
        <time>2021-09-07T05:38:27Z</time>
      </trkpt>
      <trkpt lat="43.28746" lon="2.45655">
        <ele>221.1</ele>
        <time>2021-09-07T05:38:29Z</time>
      </trkpt>
      <trkpt lat="43.28746" lon="2.45657">
        <ele>221.9</ele>
        <time>2021-09-07T05:38:31Z</time>
      </trkpt>
      <trkpt lat="43.28745" lon="2.45659">
        <ele>222</ele>
        <time>2021-09-07T05:38:32Z</time>
      </trkpt>
      <trkpt lat="43.28745" lon="2.45661">
        <ele>223.4</ele>
        <time>2021-09-07T05:38:34Z</time>
      </trkpt>
      <trkpt lat="43.28744" lon="2.45662">
        <ele>223.5</ele>
        <time>2021-09-07T05:38:35Z</time>
      </trkpt>
      <trkpt lat="43.28744" lon="2.45663">
        <ele>223.5</ele>
        <time>2021-09-07T05:38:36Z</time>
      </trkpt>
      <trkpt lat="43.28743" lon="2.45665">
        <ele>224.2</ele>
        <time>2021-09-07T05:38:38Z</time>
      </trkpt>
      <trkpt lat="43.28743" lon="2.45666">
        <ele>224.3</ele>
        <time>2021-09-07T05:38:39Z</time>
      </trkpt>
      <trkpt lat="43.28743" lon="2.45668">
        <ele>224.3</ele>
        <time>2021-09-07T05:38:41Z</time>
      </trkpt>
      <trkpt lat="43.28743" lon="2.45669">
        <ele>224.4</ele>
        <time>2021-09-07T05:38:43Z</time>
      </trkpt>
      <trkpt lat="43.28743" lon="2.45669">
        <ele>225.1</ele>
        <time>2021-09-07T05:38:44Z</time>
      </trkpt>
      <trkpt lat="43.28743" lon="2.4567">
        <ele>225.1</ele>
        <time>2021-09-07T05:38:46Z</time>
      </trkpt>
      <trkpt lat="43.28743" lon="2.4567">
        <ele>225.2</ele>
        <time>2021-09-07T05:38:47Z</time>
      </trkpt>
      <trkpt lat="43.28742" lon="2.45671">
        <ele>225.8</ele>
        <time>2021-09-07T05:38:48Z</time>
      </trkpt>
      <trkpt lat="43.28741" lon="2.45673">
        <ele>225.9</ele>
        <time>2021-09-07T05:38:49Z</time>
      </trkpt>
      <trkpt lat="43.28739" lon="2.45676">
        <ele>226.5</ele>
        <time>2021-09-07T05:38:51Z</time>
      </trkpt>
      <trkpt lat="43.28739" lon="2.45679">
        <ele>227.7</ele>
        <time>2021-09-07T05:38:53Z</time>
      </trkpt>
      <trkpt lat="43.28739" lon="2.45681">
        <ele>227.7</ele>
        <time>2021-09-07T05:38:54Z</time>
      </trkpt>
      <trkpt lat="43.28739" lon="2.45684">
        <ele>227.7</ele>
        <time>2021-09-07T05:38:56Z</time>
      </trkpt>
      <trkpt lat="43.28739" lon="2.45685">
        <ele>227.8</ele>
        <time>2021-09-07T05:38:57Z</time>
      </trkpt>
      <trkpt lat="43.2874" lon="2.45687">
        <ele>227.8</ele>
        <time>2021-09-07T05:38:59Z</time>
      </trkpt>
      <trkpt lat="43.28742" lon="2.45689">
        <ele>227.9</ele>
        <time>2021-09-07T05:39:01Z</time>
      </trkpt>
      <trkpt lat="43.28743" lon="2.4569">
        <ele>228</ele>
        <time>2021-09-07T05:39:02Z</time>
      </trkpt>
      <trkpt lat="43.28746" lon="2.45692">
        <ele>228.2</ele>
        <time>2021-09-07T05:39:04Z</time>
      </trkpt>
      <trkpt lat="43.28749" lon="2.45693">
        <ele>228.3</ele>
        <time>2021-09-07T05:39:06Z</time>
      </trkpt>
      <trkpt lat="43.28751" lon="2.45695">
        <ele>228.4</ele>
        <time>2021-09-07T05:39:08Z</time>
      </trkpt>
      <trkpt lat="43.28752" lon="2.45696">
        <ele>228.5</ele>
        <time>2021-09-07T05:39:09Z</time>
      </trkpt>
      <trkpt lat="43.28753" lon="2.45697">
        <ele>228.6</ele>
        <time>2021-09-07T05:39:10Z</time>
      </trkpt>
      <trkpt lat="43.28755" lon="2.45699">
        <ele>228.7</ele>
        <time>2021-09-07T05:39:12Z</time>
      </trkpt>
      <trkpt lat="43.28756" lon="2.457">
        <ele>228.7</ele>
        <time>2021-09-07T05:39:13Z</time>
      </trkpt>
      <trkpt lat="43.28756" lon="2.45702">
        <ele>228.8</ele>
        <time>2021-09-07T05:39:14Z</time>
      </trkpt>
      <trkpt lat="43.28757" lon="2.45707">
        <ele>228.8</ele>
        <time>2021-09-07T05:39:16Z</time>
      </trkpt>
      <trkpt lat="43.2876" lon="2.45711">
        <ele>228.9</ele>
        <time>2021-09-07T05:39:18Z</time>
      </trkpt>
      <trkpt lat="43.28761" lon="2.45712">
        <ele>228.9</ele>
        <time>2021-09-07T05:39:19Z</time>
      </trkpt>
      <trkpt lat="43.28762" lon="2.45713">
        <ele>229</ele>
        <time>2021-09-07T05:39:20Z</time>
      </trkpt>
      <trkpt lat="43.28763" lon="2.45715">
        <ele>229</ele>
        <time>2021-09-07T05:39:21Z</time>
      </trkpt>
      <trkpt lat="43.28766" lon="2.45718">
        <ele>229.1</ele>
        <time>2021-09-07T05:39:23Z</time>
      </trkpt>
      <trkpt lat="43.28769" lon="2.45723">
        <ele>229.1</ele>
        <time>2021-09-07T05:39:25Z</time>
      </trkpt>
      <trkpt lat="43.2877" lon="2.45727">
        <ele>229.2</ele>
        <time>2021-09-07T05:39:26Z</time>
      </trkpt>
      <trkpt lat="43.28771" lon="2.45733">
        <ele>229.3</ele>
        <time>2021-09-07T05:39:28Z</time>
      </trkpt>
      <trkpt lat="43.28772" lon="2.45735">
        <ele>229.3</ele>
        <time>2021-09-07T05:39:29Z</time>
      </trkpt>
      <trkpt lat="43.28775" lon="2.4574">
        <ele>229.4</ele>
        <time>2021-09-07T05:39:31Z</time>
      </trkpt>
      <trkpt lat="43.28776" lon="2.45741">
        <ele>229.4</ele>
        <time>2021-09-07T05:39:32Z</time>
      </trkpt>
      <trkpt lat="43.28778" lon="2.45742">
        <ele>229.5</ele>
        <time>2021-09-07T05:39:33Z</time>
      </trkpt>
      <trkpt lat="43.28781" lon="2.45745">
        <ele>229.6</ele>
        <time>2021-09-07T05:39:35Z</time>
      </trkpt>
      <trkpt lat="43.28782" lon="2.45746">
        <ele>229.7</ele>
        <time>2021-09-07T05:39:37Z</time>
      </trkpt>
      <trkpt lat="43.28783" lon="2.45747">
        <ele>229.7</ele>
        <time>2021-09-07T05:39:38Z</time>
      </trkpt>
      <trkpt lat="43.28786" lon="2.45748">
        <ele>229.9</ele>
        <time>2021-09-07T05:39:40Z</time>
      </trkpt>
      <trkpt lat="43.28787" lon="2.45749">
        <ele>230</ele>
        <time>2021-09-07T05:39:41Z</time>
      </trkpt>
      <trkpt lat="43.28791" lon="2.45752">
        <ele>230.2</ele>
        <time>2021-09-07T05:39:43Z</time>
      </trkpt>
      <trkpt lat="43.28795" lon="2.45756">
        <ele>230.5</ele>
        <time>2021-09-07T05:39:45Z</time>
      </trkpt>
      <trkpt lat="43.28798" lon="2.4576">
        <ele>230.8</ele>
        <time>2021-09-07T05:39:47Z</time>
      </trkpt>
      <trkpt lat="43.28802" lon="2.45762">
        <ele>231.1</ele>
        <time>2021-09-07T05:39:49Z</time>
      </trkpt>
      <trkpt lat="43.28804" lon="2.45763">
        <ele>231.3</ele>
        <time>2021-09-07T05:39:50Z</time>
      </trkpt>
      <trkpt lat="43.28808" lon="2.45765">
        <ele>231.6</ele>
        <time>2021-09-07T05:39:52Z</time>
      </trkpt>
      <trkpt lat="43.2881" lon="2.45766">
        <ele>231.7</ele>
        <time>2021-09-07T05:39:53Z</time>
      </trkpt>
      <trkpt lat="43.28814" lon="2.45768">
        <ele>232</ele>
        <time>2021-09-07T05:39:55Z</time>
      </trkpt>
      <trkpt lat="43.28815" lon="2.4577">
        <ele>232.2</ele>
        <time>2021-09-07T05:39:56Z</time>
      </trkpt>
      <trkpt lat="43.28818" lon="2.45774">
        <ele>232.5</ele>
        <time>2021-09-07T05:39:58Z</time>
      </trkpt>
      <trkpt lat="43.28822" lon="2.45778">
        <ele>232.8</ele>
        <time>2021-09-07T05:40:00Z</time>
      </trkpt>
      <trkpt lat="43.28826" lon="2.45781">
        <ele>233.2</ele>
        <time>2021-09-07T05:40:02Z</time>
      </trkpt>
      <trkpt lat="43.28827" lon="2.45784">
        <ele>233.4</ele>
        <time>2021-09-07T05:40:03Z</time>
      </trkpt>
      <trkpt lat="43.28828" lon="2.45786">
        <ele>233.5</ele>
        <time>2021-09-07T05:40:04Z</time>
      </trkpt>
      <trkpt lat="43.28829" lon="2.45793">
        <ele>233.9</ele>
        <time>2021-09-07T05:40:06Z</time>
      </trkpt>
      <trkpt lat="43.28829" lon="2.45802">
        <ele>234.3</ele>
        <time>2021-09-07T05:40:08Z</time>
      </trkpt>
      <trkpt lat="43.28828" lon="2.45809">
        <ele>234.5</ele>
        <time>2021-09-07T05:40:10Z</time>
      </trkpt>
      <trkpt lat="43.28829" lon="2.45815">
        <ele>234.6</ele>
        <time>2021-09-07T05:40:12Z</time>
      </trkpt>
      <trkpt lat="43.28829" lon="2.45817">
        <ele>234.7</ele>
        <time>2021-09-07T05:40:13Z</time>
      </trkpt>
      <trkpt lat="43.2883" lon="2.4582">
        <ele>234.7</ele>
        <time>2021-09-07T05:40:14Z</time>
      </trkpt>
      <trkpt lat="43.28833" lon="2.45824">
        <ele>234.7</ele>
        <time>2021-09-07T05:40:16Z</time>
      </trkpt>
      <trkpt lat="43.28834" lon="2.45829">
        <ele>234.7</ele>
        <time>2021-09-07T05:40:17Z</time>
      </trkpt>
      <trkpt lat="43.28834" lon="2.4583">
        <ele>234.7</ele>
        <time>2021-09-07T05:40:18Z</time>
      </trkpt>
      <trkpt lat="43.28836" lon="2.45836">
        <ele>234.7</ele>
        <time>2021-09-07T05:40:20Z</time>
      </trkpt>
      <trkpt lat="43.28836" lon="2.4584">
        <ele>234.6</ele>
        <time>2021-09-07T05:40:22Z</time>
      </trkpt>
      <trkpt lat="43.28834" lon="2.45847">
        <ele>234.6</ele>
        <time>2021-09-07T05:40:24Z</time>
      </trkpt>
      <trkpt lat="43.28833" lon="2.4585">
        <ele>234.5</ele>
        <time>2021-09-07T05:40:25Z</time>
      </trkpt>
      <trkpt lat="43.28831" lon="2.45854">
        <ele>234.4</ele>
        <time>2021-09-07T05:40:26Z</time>
      </trkpt>
      <trkpt lat="43.28829" lon="2.45858">
        <ele>234.3</ele>
        <time>2021-09-07T05:40:27Z</time>
      </trkpt>
      <trkpt lat="43.28826" lon="2.45865">
        <ele>234.1</ele>
        <time>2021-09-07T05:40:29Z</time>
      </trkpt>
      <trkpt lat="43.28824" lon="2.45871">
        <ele>233.9</ele>
        <time>2021-09-07T05:40:31Z</time>
      </trkpt>
      <trkpt lat="43.28821" lon="2.45877">
        <ele>233.6</ele>
        <time>2021-09-07T05:40:33Z</time>
      </trkpt>
      <trkpt lat="43.2882" lon="2.4588">
        <ele>233.5</ele>
        <time>2021-09-07T05:40:34Z</time>
      </trkpt>
      <trkpt lat="43.28818" lon="2.45886">
        <ele>233.3</ele>
        <time>2021-09-07T05:40:36Z</time>
      </trkpt>
      <trkpt lat="43.28816" lon="2.45894">
        <ele>233</ele>
        <time>2021-09-07T05:40:38Z</time>
      </trkpt>
      <trkpt lat="43.28814" lon="2.45901">
        <ele>232.7</ele>
        <time>2021-09-07T05:40:40Z</time>
      </trkpt>
      <trkpt lat="43.28814" lon="2.45904">
        <ele>232.6</ele>
        <time>2021-09-07T05:40:41Z</time>
      </trkpt>
      <trkpt lat="43.28815" lon="2.45908">
        <ele>232.5</ele>
        <time>2021-09-07T05:40:43Z</time>
      </trkpt>
      <trkpt lat="43.28815" lon="2.4591">
        <ele>232.5</ele>
        <time>2021-09-07T05:40:44Z</time>
      </trkpt>
      <trkpt lat="43.28816" lon="2.4591">
        <ele>232.4</ele>
        <time>2021-09-07T05:40:46Z</time>
      </trkpt>
      <trkpt lat="43.28816" lon="2.45913">
        <ele>232.4</ele>
        <time>2021-09-07T05:40:47Z</time>
      </trkpt>
      <trkpt lat="43.28814" lon="2.45918">
        <ele>232.2</ele>
        <time>2021-09-07T05:40:49Z</time>
      </trkpt>
      <trkpt lat="43.28814" lon="2.45919">
        <ele>232.2</ele>
        <time>2021-09-07T05:40:50Z</time>
      </trkpt>
      <trkpt lat="43.28813" lon="2.4592">
        <ele>232.1</ele>
        <time>2021-09-07T05:40:52Z</time>
      </trkpt>
      <trkpt lat="43.28813" lon="2.45921">
        <ele>231.9</ele>
        <time>2021-09-07T05:40:53Z</time>
      </trkpt>
      <trkpt lat="43.28812" lon="2.45927">
        <ele>231.6</ele>
        <time>2021-09-07T05:40:55Z</time>
      </trkpt>
      <trkpt lat="43.28812" lon="2.45933">
        <ele>231.4</ele>
        <time>2021-09-07T05:40:57Z</time>
      </trkpt>
      <trkpt lat="43.28812" lon="2.45939">
        <ele>231.1</ele>
        <time>2021-09-07T05:40:59Z</time>
      </trkpt>
      <trkpt lat="43.28811" lon="2.45942">
        <ele>230.9</ele>
        <time>2021-09-07T05:41:00Z</time>
      </trkpt>
      <trkpt lat="43.2881" lon="2.45949">
        <ele>230.5</ele>
        <time>2021-09-07T05:41:02Z</time>
      </trkpt>
      <trkpt lat="43.2881" lon="2.45952">
        <ele>230.4</ele>
        <time>2021-09-07T05:41:03Z</time>
      </trkpt>
      <trkpt lat="43.2881" lon="2.45958">
        <ele>230.1</ele>
        <time>2021-09-07T05:41:05Z</time>
      </trkpt>
      <trkpt lat="43.28811" lon="2.45961">
        <ele>229.9</ele>
        <time>2021-09-07T05:41:06Z</time>
      </trkpt>
      <trkpt lat="43.28811" lon="2.45967">
        <ele>229.6</ele>
        <time>2021-09-07T05:41:08Z</time>
      </trkpt>
      <trkpt lat="43.28811" lon="2.45974">
        <ele>229.2</ele>
        <time>2021-09-07T05:41:10Z</time>
      </trkpt>
      <trkpt lat="43.2881" lon="2.45978">
        <ele>228.9</ele>
        <time>2021-09-07T05:41:11Z</time>
      </trkpt>
      <trkpt lat="43.2881" lon="2.4598">
        <ele>228.8</ele>
        <time>2021-09-07T05:41:12Z</time>
      </trkpt>
      <trkpt lat="43.28809" lon="2.45986">
        <ele>228.5</ele>
        <time>2021-09-07T05:41:14Z</time>
      </trkpt>
      <trkpt lat="43.28808" lon="2.45991">
        <ele>228.1</ele>
        <time>2021-09-07T05:41:16Z</time>
      </trkpt>
      <trkpt lat="43.28808" lon="2.45994">
        <ele>228</ele>
        <time>2021-09-07T05:41:17Z</time>
      </trkpt>
      <trkpt lat="43.28808" lon="2.45999">
        <ele>227.7</ele>
        <time>2021-09-07T05:41:19Z</time>
      </trkpt>
      <trkpt lat="43.28808" lon="2.46001">
        <ele>227.6</ele>
        <time>2021-09-07T05:41:20Z</time>
      </trkpt>
      <trkpt lat="43.28809" lon="2.46007">
        <ele>227.3</ele>
        <time>2021-09-07T05:41:22Z</time>
      </trkpt>
      <trkpt lat="43.2881" lon="2.46009">
        <ele>227.2</ele>
        <time>2021-09-07T05:41:23Z</time>
      </trkpt>
      <trkpt lat="43.28811" lon="2.46014">
        <ele>227</ele>
        <time>2021-09-07T05:41:25Z</time>
      </trkpt>
      <trkpt lat="43.28811" lon="2.4602">
        <ele>226.8</ele>
        <time>2021-09-07T05:41:27Z</time>
      </trkpt>
      <trkpt lat="43.28811" lon="2.46025">
        <ele>226.6</ele>
        <time>2021-09-07T05:41:29Z</time>
      </trkpt>
      <trkpt lat="43.28811" lon="2.46027">
        <ele>226.5</ele>
        <time>2021-09-07T05:41:30Z</time>
      </trkpt>
      <trkpt lat="43.2881" lon="2.46031">
        <ele>226.4</ele>
        <time>2021-09-07T05:41:32Z</time>
      </trkpt>
      <trkpt lat="43.28809" lon="2.46038">
        <ele>226.3</ele>
        <time>2021-09-07T05:41:34Z</time>
      </trkpt>
      <trkpt lat="43.28809" lon="2.46042">
        <ele>226.2</ele>
        <time>2021-09-07T05:41:35Z</time>
      </trkpt>
      <trkpt lat="43.28809" lon="2.4605">
        <ele>226</ele>
        <time>2021-09-07T05:41:37Z</time>
      </trkpt>
      <trkpt lat="43.28808" lon="2.46057">
        <ele>225.9</ele>
        <time>2021-09-07T05:41:39Z</time>
      </trkpt>
      <trkpt lat="43.28808" lon="2.4606">
        <ele>225.8</ele>
        <time>2021-09-07T05:41:40Z</time>
      </trkpt>
      <trkpt lat="43.28807" lon="2.46067">
        <ele>225.6</ele>
        <time>2021-09-07T05:41:42Z</time>
      </trkpt>
      <trkpt lat="43.28808" lon="2.4607">
        <ele>225.5</ele>
        <time>2021-09-07T05:41:43Z</time>
      </trkpt>
      <trkpt lat="43.28807" lon="2.46074">
        <ele>225.3</ele>
        <time>2021-09-07T05:41:45Z</time>
      </trkpt>
      <trkpt lat="43.28807" lon="2.46077">
        <ele>225.2</ele>
        <time>2021-09-07T05:41:47Z</time>
      </trkpt>
      <trkpt lat="43.28807" lon="2.46077">
        <ele>225.2</ele>
        <time>2021-09-07T05:41:48Z</time>
      </trkpt>
      <trkpt lat="43.28807" lon="2.46077">
        <ele>225.2</ele>
        <time>2021-09-07T05:41:50Z</time>
      </trkpt>
      <trkpt lat="43.28807" lon="2.46077">
        <ele>225.2</ele>
        <time>2021-09-07T05:41:52Z</time>
      </trkpt>
      <trkpt lat="43.28805" lon="2.4608">
        <ele>225.1</ele>
        <time>2021-09-07T05:41:54Z</time>
      </trkpt>
      <trkpt lat="43.28804" lon="2.46081">
        <ele>225</ele>
        <time>2021-09-07T05:41:56Z</time>
      </trkpt>
      <trkpt lat="43.28804" lon="2.46082">
        <ele>225</ele>
        <time>2021-09-07T05:41:57Z</time>
      </trkpt>
      <trkpt lat="43.28804" lon="2.46082">
        <ele>225</ele>
        <time>2021-09-07T05:41:58Z</time>
      </trkpt>
      <trkpt lat="43.28803" lon="2.46082">
        <ele>225</ele>
        <time>2021-09-07T05:41:59Z</time>
      </trkpt>
      <trkpt lat="43.28803" lon="2.46085">
        <ele>224.9</ele>
        <time>2021-09-07T05:42:01Z</time>
      </trkpt>
      <trkpt lat="43.28802" lon="2.46086">
        <ele>224.9</ele>
        <time>2021-09-07T05:42:02Z</time>
      </trkpt>
      <trkpt lat="43.28801" lon="2.46087">
        <ele>224.8</ele>
        <time>2021-09-07T05:42:04Z</time>
      </trkpt>
      <trkpt lat="43.28801" lon="2.46088">
        <ele>224.8</ele>
        <time>2021-09-07T05:42:05Z</time>
      </trkpt>
      <trkpt lat="43.28801" lon="2.4609">
        <ele>224.8</ele>
        <time>2021-09-07T05:42:07Z</time>
      </trkpt>
      <trkpt lat="43.28802" lon="2.4609">
        <ele>224.7</ele>
        <time>2021-09-07T05:42:08Z</time>
      </trkpt>
      <trkpt lat="43.28803" lon="2.46092">
        <ele>224.7</ele>
        <time>2021-09-07T05:42:10Z</time>
      </trkpt>
      <trkpt lat="43.28804" lon="2.46093">
        <ele>224.7</ele>
        <time>2021-09-07T05:42:11Z</time>
      </trkpt>
      <trkpt lat="43.28805" lon="2.46095">
        <ele>224.7</ele>
        <time>2021-09-07T05:42:13Z</time>
      </trkpt>
      <trkpt lat="43.28806" lon="2.46098">
        <ele>223.8</ele>
        <time>2021-09-07T05:42:15Z</time>
      </trkpt>
      <trkpt lat="43.28808" lon="2.46101">
        <ele>223.4</ele>
        <time>2021-09-07T05:42:17Z</time>
      </trkpt>
      <trkpt lat="43.28809" lon="2.46103">
        <ele>223.2</ele>
        <time>2021-09-07T05:42:18Z</time>
      </trkpt>
      <trkpt lat="43.2881" lon="2.46104">
        <ele>223</ele>
        <time>2021-09-07T05:42:19Z</time>
      </trkpt>
      <trkpt lat="43.28812" lon="2.46106">
        <ele>222.6</ele>
        <time>2021-09-07T05:42:21Z</time>
      </trkpt>
      <trkpt lat="43.28814" lon="2.46107">
        <ele>222.2</ele>
        <time>2021-09-07T05:42:23Z</time>
      </trkpt>
      <trkpt lat="43.28815" lon="2.46108">
        <ele>222</ele>
        <time>2021-09-07T05:42:24Z</time>
      </trkpt>
      <trkpt lat="43.28818" lon="2.46109">
        <ele>221.5</ele>
        <time>2021-09-07T05:42:26Z</time>
      </trkpt>
      <trkpt lat="43.28822" lon="2.46111">
        <ele>220.9</ele>
        <time>2021-09-07T05:42:28Z</time>
      </trkpt>
      <trkpt lat="43.28826" lon="2.46112">
        <ele>220.1</ele>
        <time>2021-09-07T05:42:30Z</time>
      </trkpt>
      <trkpt lat="43.28831" lon="2.46113">
        <ele>219.4</ele>
        <time>2021-09-07T05:42:32Z</time>
      </trkpt>
      <trkpt lat="43.28836" lon="2.46114">
        <ele>218.8</ele>
        <time>2021-09-07T05:42:34Z</time>
      </trkpt>
      <trkpt lat="43.28838" lon="2.46115">
        <ele>218.5</ele>
        <time>2021-09-07T05:42:35Z</time>
      </trkpt>
      <trkpt lat="43.28843" lon="2.46115">
        <ele>218</ele>
        <time>2021-09-07T05:42:37Z</time>
      </trkpt>
      <trkpt lat="43.28846" lon="2.46116">
        <ele>217.7</ele>
        <time>2021-09-07T05:42:38Z</time>
      </trkpt>
      <trkpt lat="43.28851" lon="2.46117">
        <ele>217.2</ele>
        <time>2021-09-07T05:42:40Z</time>
      </trkpt>
      <trkpt lat="43.28853" lon="2.46117">
        <ele>217.1</ele>
        <time>2021-09-07T05:42:41Z</time>
      </trkpt>
      <trkpt lat="43.28858" lon="2.46119">
        <ele>217</ele>
        <time>2021-09-07T05:42:43Z</time>
      </trkpt>
      <trkpt lat="43.28861" lon="2.46119">
        <ele>217</ele>
        <time>2021-09-07T05:42:44Z</time>
      </trkpt>
      <trkpt lat="43.28867" lon="2.4612">
        <ele>217.1</ele>
        <time>2021-09-07T05:42:46Z</time>
      </trkpt>
      <trkpt lat="43.28871" lon="2.46122">
        <ele>217.4</ele>
        <time>2021-09-07T05:42:48Z</time>
      </trkpt>
      <trkpt lat="43.28876" lon="2.46126">
        <ele>217.7</ele>
        <time>2021-09-07T05:42:50Z</time>
      </trkpt>
      <trkpt lat="43.28879" lon="2.4613">
        <ele>218</ele>
        <time>2021-09-07T05:42:52Z</time>
      </trkpt>
      <trkpt lat="43.28881" lon="2.46133">
        <ele>218.4</ele>
        <time>2021-09-07T05:42:54Z</time>
      </trkpt>
      <trkpt lat="43.28884" lon="2.46137">
        <ele>218.7</ele>
        <time>2021-09-07T05:42:56Z</time>
      </trkpt>
      <trkpt lat="43.28886" lon="2.46138">
        <ele>218.8</ele>
        <time>2021-09-07T05:42:57Z</time>
      </trkpt>
      <trkpt lat="43.28889" lon="2.4614">
        <ele>219.1</ele>
        <time>2021-09-07T05:42:59Z</time>
      </trkpt>
      <trkpt lat="43.28891" lon="2.46145">
        <ele>219.5</ele>
        <time>2021-09-07T05:43:01Z</time>
      </trkpt>
      <trkpt lat="43.28892" lon="2.46147">
        <ele>219.7</ele>
        <time>2021-09-07T05:43:02Z</time>
      </trkpt>
      <trkpt lat="43.28894" lon="2.46152">
        <ele>220.2</ele>
        <time>2021-09-07T05:43:04Z</time>
      </trkpt>
      <trkpt lat="43.28895" lon="2.46155">
        <ele>220.5</ele>
        <time>2021-09-07T05:43:05Z</time>
      </trkpt>
      <trkpt lat="43.28896" lon="2.4616">
        <ele>221</ele>
        <time>2021-09-07T05:43:07Z</time>
      </trkpt>
      <trkpt lat="43.28897" lon="2.46162">
        <ele>221.3</ele>
        <time>2021-09-07T05:43:08Z</time>
      </trkpt>
      <trkpt lat="43.28899" lon="2.46166">
        <ele>221.7</ele>
        <time>2021-09-07T05:43:10Z</time>
      </trkpt>
      <trkpt lat="43.289" lon="2.46171">
        <ele>222.1</ele>
        <time>2021-09-07T05:43:12Z</time>
      </trkpt>
      <trkpt lat="43.28901" lon="2.46174">
        <ele>222.4</ele>
        <time>2021-09-07T05:43:14Z</time>
      </trkpt>
      <trkpt lat="43.28903" lon="2.46177">
        <ele>222.7</ele>
        <time>2021-09-07T05:43:16Z</time>
      </trkpt>
      <trkpt lat="43.28906" lon="2.46178">
        <ele>223.1</ele>
        <time>2021-09-07T05:43:18Z</time>
      </trkpt>
      <trkpt lat="43.28908" lon="2.46178">
        <ele>223.3</ele>
        <time>2021-09-07T05:43:20Z</time>
      </trkpt>
      <trkpt lat="43.28909" lon="2.46182">
        <ele>223.7</ele>
        <time>2021-09-07T05:43:22Z</time>
      </trkpt>
      <trkpt lat="43.28912" lon="2.46186">
        <ele>224.2</ele>
        <time>2021-09-07T05:43:24Z</time>
      </trkpt>
      <trkpt lat="43.28914" lon="2.46191">
        <ele>224.7</ele>
        <time>2021-09-07T05:43:26Z</time>
      </trkpt>
      <trkpt lat="43.28915" lon="2.46193">
        <ele>224.9</ele>
        <time>2021-09-07T05:43:27Z</time>
      </trkpt>
      <trkpt lat="43.28917" lon="2.46195">
        <ele>225.1</ele>
        <time>2021-09-07T05:43:28Z</time>
      </trkpt>
      <trkpt lat="43.28918" lon="2.46196">
        <ele>225.3</ele>
        <time>2021-09-07T05:43:29Z</time>
      </trkpt>
      <trkpt lat="43.28919" lon="2.46198">
        <ele>225.4</ele>
        <time>2021-09-07T05:43:30Z</time>
      </trkpt>
      <trkpt lat="43.2892" lon="2.46199">
        <ele>225.7</ele>
        <time>2021-09-07T05:43:32Z</time>
      </trkpt>
      <trkpt lat="43.28921" lon="2.462">
        <ele>225.8</ele>
        <time>2021-09-07T05:43:33Z</time>
      </trkpt>
      <trkpt lat="43.28922" lon="2.462">
        <ele>225.9</ele>
        <time>2021-09-07T05:43:34Z</time>
      </trkpt>
      <trkpt lat="43.28925" lon="2.462">
        <ele>226.1</ele>
        <time>2021-09-07T05:43:36Z</time>
      </trkpt>
      <trkpt lat="43.28927" lon="2.46201">
        <ele>226.4</ele>
        <time>2021-09-07T05:43:38Z</time>
      </trkpt>
      <trkpt lat="43.28928" lon="2.46202">
        <ele>226.5</ele>
        <time>2021-09-07T05:43:39Z</time>
      </trkpt>
      <trkpt lat="43.28931" lon="2.46204">
        <ele>226.7</ele>
        <time>2021-09-07T05:43:41Z</time>
      </trkpt>
      <trkpt lat="43.28933" lon="2.46208">
        <ele>227</ele>
        <time>2021-09-07T05:43:43Z</time>
      </trkpt>
      <trkpt lat="43.28935" lon="2.4621">
        <ele>227.2</ele>
        <time>2021-09-07T05:43:44Z</time>
      </trkpt>
      <trkpt lat="43.28936" lon="2.46212">
        <ele>227.3</ele>
        <time>2021-09-07T05:43:45Z</time>
      </trkpt>
      <trkpt lat="43.28937" lon="2.46215">
        <ele>227.5</ele>
        <time>2021-09-07T05:43:47Z</time>
      </trkpt>
      <trkpt lat="43.28938" lon="2.46217">
        <ele>227.6</ele>
        <time>2021-09-07T05:43:48Z</time>
      </trkpt>
      <trkpt lat="43.28939" lon="2.46222">
        <ele>227.8</ele>
        <time>2021-09-07T05:43:50Z</time>
      </trkpt>
      <trkpt lat="43.2894" lon="2.46225">
        <ele>227.9</ele>
        <time>2021-09-07T05:43:51Z</time>
      </trkpt>
      <trkpt lat="43.28942" lon="2.4623">
        <ele>228.1</ele>
        <time>2021-09-07T05:43:53Z</time>
      </trkpt>
      <trkpt lat="43.28943" lon="2.46233">
        <ele>228.2</ele>
        <time>2021-09-07T05:43:54Z</time>
      </trkpt>
      <trkpt lat="43.28946" lon="2.46238">
        <ele>228.4</ele>
        <time>2021-09-07T05:43:56Z</time>
      </trkpt>
      <trkpt lat="43.28948" lon="2.46243">
        <ele>228.5</ele>
        <time>2021-09-07T05:43:58Z</time>
      </trkpt>
      <trkpt lat="43.28949" lon="2.46245">
        <ele>228.6</ele>
        <time>2021-09-07T05:43:59Z</time>
      </trkpt>
      <trkpt lat="43.28951" lon="2.46246">
        <ele>228.6</ele>
        <time>2021-09-07T05:44:00Z</time>
      </trkpt>
      <trkpt lat="43.28955" lon="2.4625">
        <ele>228.8</ele>
        <time>2021-09-07T05:44:02Z</time>
      </trkpt>
      <trkpt lat="43.28956" lon="2.46252">
        <ele>228.8</ele>
        <time>2021-09-07T05:44:04Z</time>
      </trkpt>
      <trkpt lat="43.28958" lon="2.46253">
        <ele>228.9</ele>
        <time>2021-09-07T05:44:06Z</time>
      </trkpt>
      <trkpt lat="43.2896" lon="2.46255">
        <ele>229</ele>
        <time>2021-09-07T05:44:07Z</time>
      </trkpt>
      <trkpt lat="43.28962" lon="2.46257">
        <ele>229</ele>
        <time>2021-09-07T05:44:08Z</time>
      </trkpt>
      <trkpt lat="43.28965" lon="2.4626">
        <ele>229.1</ele>
        <time>2021-09-07T05:44:10Z</time>
      </trkpt>
      <trkpt lat="43.28967" lon="2.46264">
        <ele>229.2</ele>
        <time>2021-09-07T05:44:12Z</time>
      </trkpt>
      <trkpt lat="43.28968" lon="2.46266">
        <ele>229.3</ele>
        <time>2021-09-07T05:44:13Z</time>
      </trkpt>
      <trkpt lat="43.28969" lon="2.46269">
        <ele>229.3</ele>
        <time>2021-09-07T05:44:15Z</time>
      </trkpt>
      <trkpt lat="43.28969" lon="2.46271">
        <ele>229.4</ele>
        <time>2021-09-07T05:44:16Z</time>
      </trkpt>
      <trkpt lat="43.28971" lon="2.46276">
        <ele>229.5</ele>
        <time>2021-09-07T05:44:18Z</time>
      </trkpt>
      <trkpt lat="43.28971" lon="2.46279">
        <ele>229.5</ele>
        <time>2021-09-07T05:44:19Z</time>
      </trkpt>
      <trkpt lat="43.28971" lon="2.46285">
        <ele>229.6</ele>
        <time>2021-09-07T05:44:21Z</time>
      </trkpt>
      <trkpt lat="43.28972" lon="2.46291">
        <ele>229.7</ele>
        <time>2021-09-07T05:44:23Z</time>
      </trkpt>
      <trkpt lat="43.28972" lon="2.46295">
        <ele>229.7</ele>
        <time>2021-09-07T05:44:24Z</time>
      </trkpt>
      <trkpt lat="43.28972" lon="2.46297">
        <ele>229.7</ele>
        <time>2021-09-07T05:44:25Z</time>
      </trkpt>
      <trkpt lat="43.28972" lon="2.463">
        <ele>229.7</ele>
        <time>2021-09-07T05:44:26Z</time>
      </trkpt>
      <trkpt lat="43.28972" lon="2.46305">
        <ele>229.8</ele>
        <time>2021-09-07T05:44:28Z</time>
      </trkpt>
      <trkpt lat="43.28972" lon="2.46307">
        <ele>229.8</ele>
        <time>2021-09-07T05:44:29Z</time>
      </trkpt>
      <trkpt lat="43.28972" lon="2.46314">
        <ele>229.8</ele>
        <time>2021-09-07T05:44:31Z</time>
      </trkpt>
      <trkpt lat="43.28973" lon="2.4632">
        <ele>229.8</ele>
        <time>2021-09-07T05:44:33Z</time>
      </trkpt>
      <trkpt lat="43.28973" lon="2.46323">
        <ele>229.8</ele>
        <time>2021-09-07T05:44:34Z</time>
      </trkpt>
      <trkpt lat="43.28974" lon="2.4633">
        <ele>229.8</ele>
        <time>2021-09-07T05:44:36Z</time>
      </trkpt>
      <trkpt lat="43.28975" lon="2.46336">
        <ele>229.8</ele>
        <time>2021-09-07T05:44:38Z</time>
      </trkpt>
      <trkpt lat="43.28977" lon="2.46341">
        <ele>229.8</ele>
        <time>2021-09-07T05:44:40Z</time>
      </trkpt>
      <trkpt lat="43.28978" lon="2.46343">
        <ele>229.9</ele>
        <time>2021-09-07T05:44:41Z</time>
      </trkpt>
      <trkpt lat="43.2898" lon="2.46348">
        <ele>229.9</ele>
        <time>2021-09-07T05:44:43Z</time>
      </trkpt>
      <trkpt lat="43.28981" lon="2.46352">
        <ele>230</ele>
        <time>2021-09-07T05:44:44Z</time>
      </trkpt>
      <trkpt lat="43.28981" lon="2.46353">
        <ele>230</ele>
        <time>2021-09-07T05:44:45Z</time>
      </trkpt>
      <trkpt lat="43.28983" lon="2.46358">
        <ele>230</ele>
        <time>2021-09-07T05:44:47Z</time>
      </trkpt>
      <trkpt lat="43.28984" lon="2.46361">
        <ele>230.1</ele>
        <time>2021-09-07T05:44:48Z</time>
      </trkpt>
      <trkpt lat="43.28986" lon="2.46368">
        <ele>230.1</ele>
        <time>2021-09-07T05:44:50Z</time>
      </trkpt>
      <trkpt lat="43.28987" lon="2.46371">
        <ele>230.1</ele>
        <time>2021-09-07T05:44:51Z</time>
      </trkpt>
      <trkpt lat="43.28987" lon="2.46378">
        <ele>230.1</ele>
        <time>2021-09-07T05:44:53Z</time>
      </trkpt>
      <trkpt lat="43.28988" lon="2.46386">
        <ele>230.1</ele>
        <time>2021-09-07T05:44:55Z</time>
      </trkpt>
      <trkpt lat="43.28988" lon="2.46394">
        <ele>229.9</ele>
        <time>2021-09-07T05:44:57Z</time>
      </trkpt>
      <trkpt lat="43.28988" lon="2.46402">
        <ele>229.8</ele>
        <time>2021-09-07T05:44:59Z</time>
      </trkpt>
      <trkpt lat="43.28988" lon="2.46406">
        <ele>229.7</ele>
        <time>2021-09-07T05:45:00Z</time>
      </trkpt>
      <trkpt lat="43.28989" lon="2.46412">
        <ele>229.4</ele>
        <time>2021-09-07T05:45:02Z</time>
      </trkpt>
      <trkpt lat="43.2899" lon="2.46419">
        <ele>229.1</ele>
        <time>2021-09-07T05:45:04Z</time>
      </trkpt>
      <trkpt lat="43.28991" lon="2.46422">
        <ele>229</ele>
        <time>2021-09-07T05:45:05Z</time>
      </trkpt>
      <trkpt lat="43.28991" lon="2.4643">
        <ele>228.6</ele>
        <time>2021-09-07T05:45:07Z</time>
      </trkpt>
      <trkpt lat="43.28991" lon="2.46434">
        <ele>228.5</ele>
        <time>2021-09-07T05:45:08Z</time>
      </trkpt>
      <trkpt lat="43.28991" lon="2.46441">
        <ele>228.1</ele>
        <time>2021-09-07T05:45:10Z</time>
      </trkpt>
      <trkpt lat="43.28991" lon="2.46448">
        <ele>227.8</ele>
        <time>2021-09-07T05:45:12Z</time>
      </trkpt>
      <trkpt lat="43.28991" lon="2.46454">
        <ele>227.3</ele>
        <time>2021-09-07T05:45:14Z</time>
      </trkpt>
      <trkpt lat="43.28991" lon="2.4646">
        <ele>226.9</ele>
        <time>2021-09-07T05:45:16Z</time>
      </trkpt>
      <trkpt lat="43.28993" lon="2.46465">
        <ele>226.3</ele>
        <time>2021-09-07T05:45:18Z</time>
      </trkpt>
      <trkpt lat="43.28993" lon="2.46468">
        <ele>225.8</ele>
        <time>2021-09-07T05:45:20Z</time>
      </trkpt>
      <trkpt lat="43.28994" lon="2.46472">
        <ele>225.3</ele>
        <time>2021-09-07T05:45:22Z</time>
      </trkpt>
      <trkpt lat="43.28994" lon="2.46474">
        <ele>225</ele>
        <time>2021-09-07T05:45:23Z</time>
      </trkpt>
      <trkpt lat="43.28997" lon="2.46478">
        <ele>224.1</ele>
        <time>2021-09-07T05:45:25Z</time>
      </trkpt>
      <trkpt lat="43.28998" lon="2.46481">
        <ele>223.6</ele>
        <time>2021-09-07T05:45:26Z</time>
      </trkpt>
      <trkpt lat="43.29" lon="2.46487">
        <ele>222.6</ele>
        <time>2021-09-07T05:45:28Z</time>
      </trkpt>
      <trkpt lat="43.29" lon="2.46492">
        <ele>221.7</ele>
        <time>2021-09-07T05:45:30Z</time>
      </trkpt>
      <trkpt lat="43.29" lon="2.46497">
        <ele>221</ele>
        <time>2021-09-07T05:45:31Z</time>
      </trkpt>
      <trkpt lat="43.29" lon="2.46499">
        <ele>220.8</ele>
        <time>2021-09-07T05:45:32Z</time>
      </trkpt>
      <trkpt lat="43.29002" lon="2.46504">
        <ele>219.9</ele>
        <time>2021-09-07T05:45:34Z</time>
      </trkpt>
      <trkpt lat="43.29004" lon="2.46511">
        <ele>219</ele>
        <time>2021-09-07T05:45:36Z</time>
      </trkpt>
      <trkpt lat="43.29005" lon="2.46513">
        <ele>218.7</ele>
        <time>2021-09-07T05:45:38Z</time>
      </trkpt>
      <trkpt lat="43.29006" lon="2.46515">
        <ele>218.4</ele>
        <time>2021-09-07T05:45:40Z</time>
      </trkpt>
      <trkpt lat="43.29007" lon="2.46517">
        <ele>218</ele>
        <time>2021-09-07T05:45:42Z</time>
      </trkpt>
      <trkpt lat="43.29008" lon="2.46519">
        <ele>217.7</ele>
        <time>2021-09-07T05:45:43Z</time>
      </trkpt>
      <trkpt lat="43.2901" lon="2.46523">
        <ele>217.4</ele>
        <time>2021-09-07T05:45:45Z</time>
      </trkpt>
      <trkpt lat="43.29011" lon="2.46528">
        <ele>217</ele>
        <time>2021-09-07T05:45:47Z</time>
      </trkpt>
      <trkpt lat="43.29011" lon="2.4653">
        <ele>216.8</ele>
        <time>2021-09-07T05:45:48Z</time>
      </trkpt>
      <trkpt lat="43.29012" lon="2.46531">
        <ele>216.6</ele>
        <time>2021-09-07T05:45:49Z</time>
      </trkpt>
      <trkpt lat="43.29014" lon="2.46534">
        <ele>216.1</ele>
        <time>2021-09-07T05:45:51Z</time>
      </trkpt>
      <trkpt lat="43.29015" lon="2.46539">
        <ele>215.3</ele>
        <time>2021-09-07T05:45:53Z</time>
      </trkpt>
      <trkpt lat="43.29015" lon="2.46542">
        <ele>214.8</ele>
        <time>2021-09-07T05:45:54Z</time>
      </trkpt>
      <trkpt lat="43.29016" lon="2.46548">
        <ele>213.9</ele>
        <time>2021-09-07T05:45:56Z</time>
      </trkpt>
      <trkpt lat="43.29017" lon="2.46551">
        <ele>213.5</ele>
        <time>2021-09-07T05:45:57Z</time>
      </trkpt>
      <trkpt lat="43.29018" lon="2.46556">
        <ele>212.8</ele>
        <time>2021-09-07T05:45:59Z</time>
      </trkpt>
      <trkpt lat="43.29018" lon="2.46561">
        <ele>212.2</ele>
        <time>2021-09-07T05:46:01Z</time>
      </trkpt>
      <trkpt lat="43.29018" lon="2.46564">
        <ele>211.9</ele>
        <time>2021-09-07T05:46:02Z</time>
      </trkpt>
      <trkpt lat="43.29019" lon="2.4657">
        <ele>211.3</ele>
        <time>2021-09-07T05:46:04Z</time>
      </trkpt>
      <trkpt lat="43.29019" lon="2.46573">
        <ele>211</ele>
        <time>2021-09-07T05:46:05Z</time>
      </trkpt>
      <trkpt lat="43.2902" lon="2.46579">
        <ele>210.4</ele>
        <time>2021-09-07T05:46:07Z</time>
      </trkpt>
      <trkpt lat="43.29021" lon="2.46585">
        <ele>209.6</ele>
        <time>2021-09-07T05:46:09Z</time>
      </trkpt>
      <trkpt lat="43.29021" lon="2.46592">
        <ele>208.9</ele>
        <time>2021-09-07T05:46:11Z</time>
      </trkpt>
      <trkpt lat="43.29021" lon="2.46596">
        <ele>208.7</ele>
        <time>2021-09-07T05:46:12Z</time>
      </trkpt>
      <trkpt lat="43.29021" lon="2.46598">
        <ele>208.6</ele>
        <time>2021-09-07T05:46:13Z</time>
      </trkpt>
      <trkpt lat="43.29021" lon="2.46605">
        <ele>208.1</ele>
        <time>2021-09-07T05:46:15Z</time>
      </trkpt>
      <trkpt lat="43.2902" lon="2.46609">
        <ele>207.8</ele>
        <time>2021-09-07T05:46:16Z</time>
      </trkpt>
      <trkpt lat="43.2902" lon="2.46611">
        <ele>207.7</ele>
        <time>2021-09-07T05:46:17Z</time>
      </trkpt>
      <trkpt lat="43.29019" lon="2.46615">
        <ele>207.5</ele>
        <time>2021-09-07T05:46:18Z</time>
      </trkpt>
      <trkpt lat="43.29018" lon="2.46617">
        <ele>207.4</ele>
        <time>2021-09-07T05:46:19Z</time>
      </trkpt>
      <trkpt lat="43.29018" lon="2.46622">
        <ele>207</ele>
        <time>2021-09-07T05:46:21Z</time>
      </trkpt>
      <trkpt lat="43.29017" lon="2.46625">
        <ele>206.9</ele>
        <time>2021-09-07T05:46:22Z</time>
      </trkpt>
      <trkpt lat="43.29016" lon="2.46631">
        <ele>206.6</ele>
        <time>2021-09-07T05:46:24Z</time>
      </trkpt>
      <trkpt lat="43.29016" lon="2.46633">
        <ele>206.5</ele>
        <time>2021-09-07T05:46:25Z</time>
      </trkpt>
      <trkpt lat="43.29016" lon="2.46635">
        <ele>206.3</ele>
        <time>2021-09-07T05:46:26Z</time>
      </trkpt>
      <trkpt lat="43.29015" lon="2.46637">
        <ele>206.2</ele>
        <time>2021-09-07T05:46:27Z</time>
      </trkpt>
      <trkpt lat="43.29014" lon="2.46643">
        <ele>205.9</ele>
        <time>2021-09-07T05:46:29Z</time>
      </trkpt>
      <trkpt lat="43.29013" lon="2.46648">
        <ele>205.7</ele>
        <time>2021-09-07T05:46:31Z</time>
      </trkpt>
      <trkpt lat="43.29011" lon="2.46653">
        <ele>205.5</ele>
        <time>2021-09-07T05:46:32Z</time>
      </trkpt>
      <trkpt lat="43.29011" lon="2.46654">
        <ele>205.4</ele>
        <time>2021-09-07T05:46:33Z</time>
      </trkpt>
      <trkpt lat="43.2901" lon="2.4666">
        <ele>205.2</ele>
        <time>2021-09-07T05:46:35Z</time>
      </trkpt>
      <trkpt lat="43.29008" lon="2.46664">
        <ele>205.1</ele>
        <time>2021-09-07T05:46:36Z</time>
      </trkpt>
      <trkpt lat="43.29008" lon="2.46665">
        <ele>205.1</ele>
        <time>2021-09-07T05:46:37Z</time>
      </trkpt>
      <trkpt lat="43.29006" lon="2.4667">
        <ele>204.9</ele>
        <time>2021-09-07T05:46:39Z</time>
      </trkpt>
      <trkpt lat="43.29006" lon="2.46675">
        <ele>204.8</ele>
        <time>2021-09-07T05:46:41Z</time>
      </trkpt>
      <trkpt lat="43.29005" lon="2.46679">
        <ele>204.8</ele>
        <time>2021-09-07T05:46:43Z</time>
      </trkpt>
      <trkpt lat="43.29004" lon="2.46684">
        <ele>204.7</ele>
        <time>2021-09-07T05:46:45Z</time>
      </trkpt>
      <trkpt lat="43.29003" lon="2.46688">
        <ele>204.6</ele>
        <time>2021-09-07T05:46:47Z</time>
      </trkpt>
      <trkpt lat="43.29004" lon="2.46691">
        <ele>204.6</ele>
        <time>2021-09-07T05:46:49Z</time>
      </trkpt>
      <trkpt lat="43.29004" lon="2.4669">
        <ele>204.6</ele>
        <time>2021-09-07T05:46:51Z</time>
      </trkpt>
      <trkpt lat="43.29004" lon="2.4669">
        <ele>204.6</ele>
        <time>2021-09-07T05:46:53Z</time>
      </trkpt>
      <trkpt lat="43.29004" lon="2.4669">
        <ele>204.6</ele>
        <time>2021-09-07T05:46:54Z</time>
      </trkpt>
      <trkpt lat="43.29004" lon="2.4669">
        <ele>204.6</ele>
        <time>2021-09-07T05:46:55Z</time>
      </trkpt>
      <trkpt lat="43.29004" lon="2.46691">
        <ele>204.5</ele>
        <time>2021-09-07T05:46:57Z</time>
      </trkpt>
      <trkpt lat="43.29004" lon="2.46692">
        <ele>204.5</ele>
        <time>2021-09-07T05:46:59Z</time>
      </trkpt>
      <trkpt lat="43.29003" lon="2.46693">
        <ele>204.5</ele>
        <time>2021-09-07T05:47:00Z</time>
      </trkpt>
      <trkpt lat="43.29001" lon="2.46696">
        <ele>204.5</ele>
        <time>2021-09-07T05:47:02Z</time>
      </trkpt>
      <trkpt lat="43.29" lon="2.46697">
        <ele>204.5</ele>
        <time>2021-09-07T05:47:03Z</time>
      </trkpt>
      <trkpt lat="43.28998" lon="2.46698">
        <ele>204.4</ele>
        <time>2021-09-07T05:47:04Z</time>
      </trkpt>
      <trkpt lat="43.28995" lon="2.467">
        <ele>204.4</ele>
        <time>2021-09-07T05:47:06Z</time>
      </trkpt>
      <trkpt lat="43.28993" lon="2.46701">
        <ele>204.4</ele>
        <time>2021-09-07T05:47:08Z</time>
      </trkpt>
      <trkpt lat="43.28993" lon="2.46701">
        <ele>204.4</ele>
        <time>2021-09-07T05:47:09Z</time>
      </trkpt>
      <trkpt lat="43.28992" lon="2.46702">
        <ele>204.3</ele>
        <time>2021-09-07T05:47:11Z</time>
      </trkpt>
      <trkpt lat="43.2899" lon="2.46704">
        <ele>204.5</ele>
        <time>2021-09-07T05:47:12Z</time>
      </trkpt>
      <trkpt lat="43.28989" lon="2.46705">
        <ele>204.5</ele>
        <time>2021-09-07T05:47:13Z</time>
      </trkpt>
      <trkpt lat="43.28987" lon="2.46708">
        <ele>204.6</ele>
        <time>2021-09-07T05:47:15Z</time>
      </trkpt>
      <trkpt lat="43.28985" lon="2.46714">
        <ele>204.8</ele>
        <time>2021-09-07T05:47:17Z</time>
      </trkpt>
      <trkpt lat="43.28985" lon="2.46715">
        <ele>204.8</ele>
        <time>2021-09-07T05:47:19Z</time>
      </trkpt>
      <trkpt lat="43.28984" lon="2.46717">
        <ele>204.9</ele>
        <time>2021-09-07T05:47:20Z</time>
      </trkpt>
      <trkpt lat="43.28984" lon="2.46719">
        <ele>204.9</ele>
        <time>2021-09-07T05:47:21Z</time>
      </trkpt>
      <trkpt lat="43.28984" lon="2.46721">
        <ele>205.1</ele>
        <time>2021-09-07T05:47:22Z</time>
      </trkpt>
      <trkpt lat="43.28984" lon="2.46724">
        <ele>205.1</ele>
        <time>2021-09-07T05:47:24Z</time>
      </trkpt>
      <trkpt lat="43.28983" lon="2.46725">
        <ele>205.3</ele>
        <time>2021-09-07T05:47:25Z</time>
      </trkpt>
      <trkpt lat="43.28982" lon="2.46727">
        <ele>205.2</ele>
        <time>2021-09-07T05:47:27Z</time>
      </trkpt>
      <trkpt lat="43.28979" lon="2.46729">
        <ele>205.4</ele>
        <time>2021-09-07T05:47:29Z</time>
      </trkpt>
      <trkpt lat="43.28976" lon="2.46731">
        <ele>205.3</ele>
        <time>2021-09-07T05:47:31Z</time>
      </trkpt>
      <trkpt lat="43.28972" lon="2.46731">
        <ele>205.2</ele>
        <time>2021-09-07T05:47:33Z</time>
      </trkpt>
      <trkpt lat="43.2897" lon="2.46732">
        <ele>205.2</ele>
        <time>2021-09-07T05:47:34Z</time>
      </trkpt>
      <trkpt lat="43.28968" lon="2.46734">
        <ele>205.3</ele>
        <time>2021-09-07T05:47:36Z</time>
      </trkpt>
      <trkpt lat="43.28968" lon="2.46736">
        <ele>205.3</ele>
        <time>2021-09-07T05:47:37Z</time>
      </trkpt>
      <trkpt lat="43.28968" lon="2.46741">
        <ele>205.4</ele>
        <time>2021-09-07T05:47:39Z</time>
      </trkpt>
      <trkpt lat="43.28968" lon="2.46742">
        <ele>205.6</ele>
        <time>2021-09-07T05:47:40Z</time>
      </trkpt>
      <trkpt lat="43.28968" lon="2.46744">
        <ele>205.6</ele>
        <time>2021-09-07T05:47:41Z</time>
      </trkpt>
      <trkpt lat="43.28969" lon="2.46748">
        <ele>205.7</ele>
        <time>2021-09-07T05:47:43Z</time>
      </trkpt>
      <trkpt lat="43.28969" lon="2.4675">
        <ele>205.7</ele>
        <time>2021-09-07T05:47:44Z</time>
      </trkpt>
      <trkpt lat="43.2897" lon="2.46754">
        <ele>206</ele>
        <time>2021-09-07T05:47:46Z</time>
      </trkpt>
      <trkpt lat="43.28971" lon="2.46758">
        <ele>206.1</ele>
        <time>2021-09-07T05:47:48Z</time>
      </trkpt>
      <trkpt lat="43.28972" lon="2.4676">
        <ele>206.2</ele>
        <time>2021-09-07T05:47:49Z</time>
      </trkpt>
      <trkpt lat="43.28974" lon="2.46763">
        <ele>206.4</ele>
        <time>2021-09-07T05:47:51Z</time>
      </trkpt>
      <trkpt lat="43.28974" lon="2.46765">
        <ele>206.5</ele>
        <time>2021-09-07T05:47:53Z</time>
      </trkpt>
      <trkpt lat="43.28975" lon="2.46767">
        <ele>206.6</ele>
        <time>2021-09-07T05:47:55Z</time>
      </trkpt>
      <trkpt lat="43.28976" lon="2.46768">
        <ele>206.6</ele>
        <time>2021-09-07T05:47:56Z</time>
      </trkpt>
      <trkpt lat="43.28976" lon="2.46769">
        <ele>206.7</ele>
        <time>2021-09-07T05:47:57Z</time>
      </trkpt>
      <trkpt lat="43.28978" lon="2.46771">
        <ele>206.7</ele>
        <time>2021-09-07T05:47:59Z</time>
      </trkpt>
      <trkpt lat="43.28978" lon="2.46773">
        <ele>206.8</ele>
        <time>2021-09-07T05:48:00Z</time>
      </trkpt>
      <trkpt lat="43.28978" lon="2.46775">
        <ele>206.8</ele>
        <time>2021-09-07T05:48:02Z</time>
      </trkpt>
      <trkpt lat="43.28979" lon="2.46775">
        <ele>206.9</ele>
        <time>2021-09-07T05:48:03Z</time>
      </trkpt>
      <trkpt lat="43.2898" lon="2.46777">
        <ele>206.9</ele>
        <time>2021-09-07T05:48:05Z</time>
      </trkpt>
      <trkpt lat="43.28981" lon="2.46778">
        <ele>207</ele>
        <time>2021-09-07T05:48:06Z</time>
      </trkpt>
      <trkpt lat="43.28983" lon="2.46779">
        <ele>207.1</ele>
        <time>2021-09-07T05:48:08Z</time>
      </trkpt>
      <trkpt lat="43.28985" lon="2.46782">
        <ele>207.2</ele>
        <time>2021-09-07T05:48:10Z</time>
      </trkpt>
      <trkpt lat="43.28987" lon="2.46783">
        <ele>207.3</ele>
        <time>2021-09-07T05:48:11Z</time>
      </trkpt>
      <trkpt lat="43.28991" lon="2.46787">
        <ele>207.5</ele>
        <time>2021-09-07T05:48:13Z</time>
      </trkpt>
      <trkpt lat="43.28992" lon="2.46789">
        <ele>207.5</ele>
        <time>2021-09-07T05:48:14Z</time>
      </trkpt>
      <trkpt lat="43.28996" lon="2.46792">
        <ele>207.7</ele>
        <time>2021-09-07T05:48:16Z</time>
      </trkpt>
      <trkpt lat="43.28997" lon="2.46794">
        <ele>207.8</ele>
        <time>2021-09-07T05:48:17Z</time>
      </trkpt>
      <trkpt lat="43.29001" lon="2.46797">
        <ele>208</ele>
        <time>2021-09-07T05:48:19Z</time>
      </trkpt>
      <trkpt lat="43.29004" lon="2.46799">
        <ele>208.2</ele>
        <time>2021-09-07T05:48:20Z</time>
      </trkpt>
      <trkpt lat="43.29005" lon="2.46799">
        <ele>208.2</ele>
        <time>2021-09-07T05:48:21Z</time>
      </trkpt>
      <trkpt lat="43.29007" lon="2.46801">
        <ele>208.3</ele>
        <time>2021-09-07T05:48:22Z</time>
      </trkpt>
      <trkpt lat="43.29011" lon="2.46804">
        <ele>208.5</ele>
        <time>2021-09-07T05:48:24Z</time>
      </trkpt>
      <trkpt lat="43.29014" lon="2.46808">
        <ele>208.7</ele>
        <time>2021-09-07T05:48:26Z</time>
      </trkpt>
      <trkpt lat="43.29018" lon="2.46811">
        <ele>208.9</ele>
        <time>2021-09-07T05:48:28Z</time>
      </trkpt>
      <trkpt lat="43.29018" lon="2.46812">
        <ele>208.9</ele>
        <time>2021-09-07T05:48:29Z</time>
      </trkpt>
      <trkpt lat="43.29019" lon="2.46813">
        <ele>209</ele>
        <time>2021-09-07T05:48:30Z</time>
      </trkpt>
      <trkpt lat="43.29021" lon="2.46815">
        <ele>209.1</ele>
        <time>2021-09-07T05:48:32Z</time>
      </trkpt>
      <trkpt lat="43.29023" lon="2.46816">
        <ele>209.2</ele>
        <time>2021-09-07T05:48:33Z</time>
      </trkpt>
      <trkpt lat="43.29026" lon="2.46818">
        <ele>209.3</ele>
        <time>2021-09-07T05:48:35Z</time>
      </trkpt>
      <trkpt lat="43.29028" lon="2.46821">
        <ele>209.5</ele>
        <time>2021-09-07T05:48:37Z</time>
      </trkpt>
      <trkpt lat="43.29029" lon="2.46822">
        <ele>209.5</ele>
        <time>2021-09-07T05:48:38Z</time>
      </trkpt>
      <trkpt lat="43.2903" lon="2.46824">
        <ele>209.6</ele>
        <time>2021-09-07T05:48:39Z</time>
      </trkpt>
      <trkpt lat="43.29031" lon="2.46828">
        <ele>209.7</ele>
        <time>2021-09-07T05:48:41Z</time>
      </trkpt>
      <trkpt lat="43.29034" lon="2.46834">
        <ele>209.8</ele>
        <time>2021-09-07T05:48:43Z</time>
      </trkpt>
      <trkpt lat="43.29037" lon="2.4684">
        <ele>210</ele>
        <time>2021-09-07T05:48:45Z</time>
      </trkpt>
      <trkpt lat="43.29041" lon="2.46847">
        <ele>210.1</ele>
        <time>2021-09-07T05:48:47Z</time>
      </trkpt>
      <trkpt lat="43.29043" lon="2.46851">
        <ele>210.2</ele>
        <time>2021-09-07T05:48:48Z</time>
      </trkpt>
      <trkpt lat="43.29045" lon="2.46854">
        <ele>210.3</ele>
        <time>2021-09-07T05:48:49Z</time>
      </trkpt>
      <trkpt lat="43.29047" lon="2.46861">
        <ele>210.5</ele>
        <time>2021-09-07T05:48:51Z</time>
      </trkpt>
      <trkpt lat="43.29049" lon="2.46864">
        <ele>210.6</ele>
        <time>2021-09-07T05:48:52Z</time>
      </trkpt>
      <trkpt lat="43.29051" lon="2.46869">
        <ele>210.7</ele>
        <time>2021-09-07T05:48:54Z</time>
      </trkpt>
      <trkpt lat="43.29051" lon="2.46872">
        <ele>210.8</ele>
        <time>2021-09-07T05:48:55Z</time>
      </trkpt>
      <trkpt lat="43.29053" lon="2.46878">
        <ele>210.9</ele>
        <time>2021-09-07T05:48:57Z</time>
      </trkpt>
      <trkpt lat="43.29054" lon="2.46883">
        <ele>211</ele>
        <time>2021-09-07T05:48:58Z</time>
      </trkpt>
      <trkpt lat="43.29054" lon="2.46884">
        <ele>211</ele>
        <time>2021-09-07T05:48:59Z</time>
      </trkpt>
      <trkpt lat="43.29055" lon="2.46888">
        <ele>211.1</ele>
        <time>2021-09-07T05:49:00Z</time>
      </trkpt>
      <trkpt lat="43.29057" lon="2.46894">
        <ele>211.1</ele>
        <time>2021-09-07T05:49:02Z</time>
      </trkpt>
      <trkpt lat="43.29059" lon="2.46899">
        <ele>211.1</ele>
        <time>2021-09-07T05:49:03Z</time>
      </trkpt>
      <trkpt lat="43.2906" lon="2.469">
        <ele>211.1</ele>
        <time>2021-09-07T05:49:04Z</time>
      </trkpt>
      <trkpt lat="43.29062" lon="2.46904">
        <ele>211.1</ele>
        <time>2021-09-07T05:49:05Z</time>
      </trkpt>
      <trkpt lat="43.29066" lon="2.4691">
        <ele>211.1</ele>
        <time>2021-09-07T05:49:07Z</time>
      </trkpt>
      <trkpt lat="43.2907" lon="2.46916">
        <ele>211</ele>
        <time>2021-09-07T05:49:09Z</time>
      </trkpt>
      <trkpt lat="43.29072" lon="2.46919">
        <ele>211</ele>
        <time>2021-09-07T05:49:10Z</time>
      </trkpt>
      <trkpt lat="43.29075" lon="2.46926">
        <ele>210.9</ele>
        <time>2021-09-07T05:49:12Z</time>
      </trkpt>
      <trkpt lat="43.29076" lon="2.46929">
        <ele>210.9</ele>
        <time>2021-09-07T05:49:13Z</time>
      </trkpt>
      <trkpt lat="43.29079" lon="2.46935">
        <ele>210.8</ele>
        <time>2021-09-07T05:49:15Z</time>
      </trkpt>
      <trkpt lat="43.29083" lon="2.4694">
        <ele>210.8</ele>
        <time>2021-09-07T05:49:17Z</time>
      </trkpt>
      <trkpt lat="43.29086" lon="2.46943">
        <ele>210.8</ele>
        <time>2021-09-07T05:49:19Z</time>
      </trkpt>
      <trkpt lat="43.29089" lon="2.46947">
        <ele>210.8</ele>
        <time>2021-09-07T05:49:21Z</time>
      </trkpt>
      <trkpt lat="43.29092" lon="2.4695">
        <ele>210.8</ele>
        <time>2021-09-07T05:49:22Z</time>
      </trkpt>
      <trkpt lat="43.29093" lon="2.46951">
        <ele>210.9</ele>
        <time>2021-09-07T05:49:23Z</time>
      </trkpt>
      <trkpt lat="43.29096" lon="2.46957">
        <ele>210.9</ele>
        <time>2021-09-07T05:49:25Z</time>
      </trkpt>
      <trkpt lat="43.29096" lon="2.46963">
        <ele>210.9</ele>
        <time>2021-09-07T05:49:26Z</time>
      </trkpt>
      <trkpt lat="43.29096" lon="2.46965">
        <ele>210.9</ele>
        <time>2021-09-07T05:49:27Z</time>
      </trkpt>
      <trkpt lat="43.29096" lon="2.46972">
        <ele>210.9</ele>
        <time>2021-09-07T05:49:29Z</time>
      </trkpt>
      <trkpt lat="43.29095" lon="2.46976">
        <ele>210.9</ele>
        <time>2021-09-07T05:49:30Z</time>
      </trkpt>
      <trkpt lat="43.29094" lon="2.46979">
        <ele>210.8</ele>
        <time>2021-09-07T05:49:31Z</time>
      </trkpt>
      <trkpt lat="43.29092" lon="2.46987">
        <ele>210.8</ele>
        <time>2021-09-07T05:49:33Z</time>
      </trkpt>
      <trkpt lat="43.29091" lon="2.4699">
        <ele>210.9</ele>
        <time>2021-09-07T05:49:34Z</time>
      </trkpt>
      <trkpt lat="43.29089" lon="2.46996">
        <ele>210.9</ele>
        <time>2021-09-07T05:49:36Z</time>
      </trkpt>
      <trkpt lat="43.29088" lon="2.46999">
        <ele>211</ele>
        <time>2021-09-07T05:49:37Z</time>
      </trkpt>
      <trkpt lat="43.29084" lon="2.47004">
        <ele>211</ele>
        <time>2021-09-07T05:49:39Z</time>
      </trkpt>
      <trkpt lat="43.29083" lon="2.47006">
        <ele>211.1</ele>
        <time>2021-09-07T05:49:40Z</time>
      </trkpt>
      <trkpt lat="43.2908" lon="2.47011">
        <ele>211.1</ele>
        <time>2021-09-07T05:49:42Z</time>
      </trkpt>
      <trkpt lat="43.29079" lon="2.47016">
        <ele>211.2</ele>
        <time>2021-09-07T05:49:44Z</time>
      </trkpt>
      <trkpt lat="43.29078" lon="2.47022">
        <ele>211.3</ele>
        <time>2021-09-07T05:49:46Z</time>
      </trkpt>
      <trkpt lat="43.29078" lon="2.47024">
        <ele>211.3</ele>
        <time>2021-09-07T05:49:47Z</time>
      </trkpt>
      <trkpt lat="43.29078" lon="2.47029">
        <ele>211.4</ele>
        <time>2021-09-07T05:49:49Z</time>
      </trkpt>
      <trkpt lat="43.29079" lon="2.47033">
        <ele>211.4</ele>
        <time>2021-09-07T05:49:50Z</time>
      </trkpt>
      <trkpt lat="43.29079" lon="2.47035">
        <ele>211.5</ele>
        <time>2021-09-07T05:49:51Z</time>
      </trkpt>
      <trkpt lat="43.2908" lon="2.47039">
        <ele>211.5</ele>
        <time>2021-09-07T05:49:53Z</time>
      </trkpt>
      <trkpt lat="43.2908" lon="2.47042">
        <ele>211.6</ele>
        <time>2021-09-07T05:49:54Z</time>
      </trkpt>
      <trkpt lat="43.29081" lon="2.47046">
        <ele>211.6</ele>
        <time>2021-09-07T05:49:56Z</time>
      </trkpt>
      <trkpt lat="43.29081" lon="2.47048">
        <ele>211.7</ele>
        <time>2021-09-07T05:49:57Z</time>
      </trkpt>
      <trkpt lat="43.29082" lon="2.47052">
        <ele>211.7</ele>
        <time>2021-09-07T05:49:59Z</time>
      </trkpt>
      <trkpt lat="43.29082" lon="2.47057">
        <ele>211.8</ele>
        <time>2021-09-07T05:50:01Z</time>
      </trkpt>
      <trkpt lat="43.29083" lon="2.47063">
        <ele>211.8</ele>
        <time>2021-09-07T05:50:03Z</time>
      </trkpt>
      <trkpt lat="43.29083" lon="2.47067">
        <ele>211.8</ele>
        <time>2021-09-07T05:50:04Z</time>
      </trkpt>
      <trkpt lat="43.29084" lon="2.47068">
        <ele>211.8</ele>
        <time>2021-09-07T05:50:05Z</time>
      </trkpt>
      <trkpt lat="43.29084" lon="2.47074">
        <ele>211.8</ele>
        <time>2021-09-07T05:50:07Z</time>
      </trkpt>
      <trkpt lat="43.29085" lon="2.4708">
        <ele>211.8</ele>
        <time>2021-09-07T05:50:09Z</time>
      </trkpt>
      <trkpt lat="43.29086" lon="2.47086">
        <ele>211.8</ele>
        <time>2021-09-07T05:50:11Z</time>
      </trkpt>
      <trkpt lat="43.29086" lon="2.47091">
        <ele>211.8</ele>
        <time>2021-09-07T05:50:12Z</time>
      </trkpt>
      <trkpt lat="43.29086" lon="2.47092">
        <ele>211.8</ele>
        <time>2021-09-07T05:50:13Z</time>
      </trkpt>
      <trkpt lat="43.29086" lon="2.47097">
        <ele>211.8</ele>
        <time>2021-09-07T05:50:15Z</time>
      </trkpt>
      <trkpt lat="43.29086" lon="2.471">
        <ele>211.8</ele>
        <time>2021-09-07T05:50:17Z</time>
      </trkpt>
      <trkpt lat="43.29087" lon="2.47104">
        <ele>211.8</ele>
        <time>2021-09-07T05:50:19Z</time>
      </trkpt>
      <trkpt lat="43.29088" lon="2.47108">
        <ele>211.8</ele>
        <time>2021-09-07T05:50:21Z</time>
      </trkpt>
      <trkpt lat="43.29089" lon="2.47111">
        <ele>211.9</ele>
        <time>2021-09-07T05:50:22Z</time>
      </trkpt>
      <trkpt lat="43.2909" lon="2.47116">
        <ele>211.9</ele>
        <time>2021-09-07T05:50:24Z</time>
      </trkpt>
      <trkpt lat="43.29092" lon="2.4712">
        <ele>211.9</ele>
        <time>2021-09-07T05:50:25Z</time>
      </trkpt>
      <trkpt lat="43.29092" lon="2.47122">
        <ele>211.9</ele>
        <time>2021-09-07T05:50:26Z</time>
      </trkpt>
      <trkpt lat="43.29093" lon="2.47125">
        <ele>211.9</ele>
        <time>2021-09-07T05:50:27Z</time>
      </trkpt>
      <trkpt lat="43.29096" lon="2.4713">
        <ele>212</ele>
        <time>2021-09-07T05:50:29Z</time>
      </trkpt>
      <trkpt lat="43.29099" lon="2.47136">
        <ele>212.1</ele>
        <time>2021-09-07T05:50:31Z</time>
      </trkpt>
      <trkpt lat="43.291" lon="2.47139">
        <ele>212.1</ele>
        <time>2021-09-07T05:50:32Z</time>
      </trkpt>
      <trkpt lat="43.29102" lon="2.47145">
        <ele>212.2</ele>
        <time>2021-09-07T05:50:34Z</time>
      </trkpt>
      <trkpt lat="43.29104" lon="2.4715">
        <ele>212.4</ele>
        <time>2021-09-07T05:50:35Z</time>
      </trkpt>
      <trkpt lat="43.29104" lon="2.47151">
        <ele>212.4</ele>
        <time>2021-09-07T05:50:36Z</time>
      </trkpt>
      <trkpt lat="43.29105" lon="2.47154">
        <ele>212.5</ele>
        <time>2021-09-07T05:50:37Z</time>
      </trkpt>
      <trkpt lat="43.29107" lon="2.47161">
        <ele>212.7</ele>
        <time>2021-09-07T05:50:39Z</time>
      </trkpt>
      <trkpt lat="43.29109" lon="2.47166">
        <ele>212.9</ele>
        <time>2021-09-07T05:50:41Z</time>
      </trkpt>
      <trkpt lat="43.29112" lon="2.47171">
        <ele>213.1</ele>
        <time>2021-09-07T05:50:43Z</time>
      </trkpt>
      <trkpt lat="43.29113" lon="2.47173">
        <ele>213.2</ele>
        <time>2021-09-07T05:50:44Z</time>
      </trkpt>
      <trkpt lat="43.29116" lon="2.47178">
        <ele>213.3</ele>
        <time>2021-09-07T05:50:46Z</time>
      </trkpt>
      <trkpt lat="43.2912" lon="2.47183">
        <ele>213.3</ele>
        <time>2021-09-07T05:50:48Z</time>
      </trkpt>
      <trkpt lat="43.29122" lon="2.47185">
        <ele>213.3</ele>
        <time>2021-09-07T05:50:49Z</time>
      </trkpt>
      <trkpt lat="43.29125" lon="2.47189">
        <ele>213.3</ele>
        <time>2021-09-07T05:50:51Z</time>
      </trkpt>
      <trkpt lat="43.29129" lon="2.47192">
        <ele>213.3</ele>
        <time>2021-09-07T05:50:52Z</time>
      </trkpt>
      <trkpt lat="43.2913" lon="2.47193">
        <ele>213.3</ele>
        <time>2021-09-07T05:50:53Z</time>
      </trkpt>
      <trkpt lat="43.29134" lon="2.47197">
        <ele>213.2</ele>
        <time>2021-09-07T05:50:55Z</time>
      </trkpt>
      <trkpt lat="43.29136" lon="2.47199">
        <ele>213.2</ele>
        <time>2021-09-07T05:50:56Z</time>
      </trkpt>
      <trkpt lat="43.2914" lon="2.47202">
        <ele>213.2</ele>
        <time>2021-09-07T05:50:58Z</time>
      </trkpt>
      <trkpt lat="43.29142" lon="2.47204">
        <ele>213.2</ele>
        <time>2021-09-07T05:50:59Z</time>
      </trkpt>
      <trkpt lat="43.29145" lon="2.47208">
        <ele>213.1</ele>
        <time>2021-09-07T05:51:01Z</time>
      </trkpt>
      <trkpt lat="43.29146" lon="2.4721">
        <ele>213</ele>
        <time>2021-09-07T05:51:02Z</time>
      </trkpt>
      <trkpt lat="43.29146" lon="2.47212">
        <ele>213</ele>
        <time>2021-09-07T05:51:03Z</time>
      </trkpt>
      <trkpt lat="43.29146" lon="2.47215">
        <ele>212.9</ele>
        <time>2021-09-07T05:51:04Z</time>
      </trkpt>
      <trkpt lat="43.29144" lon="2.47218">
        <ele>212.8</ele>
        <time>2021-09-07T05:51:06Z</time>
      </trkpt>
      <trkpt lat="43.29143" lon="2.4722">
        <ele>212.8</ele>
        <time>2021-09-07T05:51:07Z</time>
      </trkpt>
      <trkpt lat="43.29141" lon="2.47221">
        <ele>212.7</ele>
        <time>2021-09-07T05:51:08Z</time>
      </trkpt>
      <trkpt lat="43.29138" lon="2.47223">
        <ele>212.6</ele>
        <time>2021-09-07T05:51:10Z</time>
      </trkpt>
      <trkpt lat="43.29135" lon="2.47225">
        <ele>212.5</ele>
        <time>2021-09-07T05:51:12Z</time>
      </trkpt>
      <trkpt lat="43.29133" lon="2.47227">
        <ele>212.4</ele>
        <time>2021-09-07T05:51:13Z</time>
      </trkpt>
      <trkpt lat="43.29132" lon="2.47228">
        <ele>212.4</ele>
        <time>2021-09-07T05:51:14Z</time>
      </trkpt>
      <trkpt lat="43.2913" lon="2.47229">
        <ele>212.3</ele>
        <time>2021-09-07T05:51:15Z</time>
      </trkpt>
      <trkpt lat="43.29128" lon="2.47232">
        <ele>212.2</ele>
        <time>2021-09-07T05:51:17Z</time>
      </trkpt>
      <trkpt lat="43.29125" lon="2.47235">
        <ele>212.1</ele>
        <time>2021-09-07T05:51:18Z</time>
      </trkpt>
      <trkpt lat="43.29124" lon="2.47236">
        <ele>212.1</ele>
        <time>2021-09-07T05:51:19Z</time>
      </trkpt>
      <trkpt lat="43.29121" lon="2.4724">
        <ele>211.9</ele>
        <time>2021-09-07T05:51:21Z</time>
      </trkpt>
      <trkpt lat="43.29118" lon="2.47242">
        <ele>211.8</ele>
        <time>2021-09-07T05:51:22Z</time>
      </trkpt>
      <trkpt lat="43.29117" lon="2.47243">
        <ele>211.7</ele>
        <time>2021-09-07T05:51:23Z</time>
      </trkpt>
      <trkpt lat="43.29113" lon="2.47246">
        <ele>211.5</ele>
        <time>2021-09-07T05:51:25Z</time>
      </trkpt>
      <trkpt lat="43.29109" lon="2.47248">
        <ele>211.3</ele>
        <time>2021-09-07T05:51:27Z</time>
      </trkpt>
      <trkpt lat="43.29106" lon="2.47249">
        <ele>211.2</ele>
        <time>2021-09-07T05:51:28Z</time>
      </trkpt>
      <trkpt lat="43.29105" lon="2.47249">
        <ele>211.1</ele>
        <time>2021-09-07T05:51:29Z</time>
      </trkpt>
      <trkpt lat="43.29101" lon="2.47248">
        <ele>210.9</ele>
        <time>2021-09-07T05:51:31Z</time>
      </trkpt>
      <trkpt lat="43.29098" lon="2.47248">
        <ele>210.8</ele>
        <time>2021-09-07T05:51:32Z</time>
      </trkpt>
      <trkpt lat="43.29093" lon="2.47248">
        <ele>210.5</ele>
        <time>2021-09-07T05:51:34Z</time>
      </trkpt>
      <trkpt lat="43.29089" lon="2.47249">
        <ele>210.3</ele>
        <time>2021-09-07T05:51:36Z</time>
      </trkpt>
      <trkpt lat="43.29086" lon="2.4725">
        <ele>210.2</ele>
        <time>2021-09-07T05:51:37Z</time>
      </trkpt>
      <trkpt lat="43.29082" lon="2.47252">
        <ele>209.9</ele>
        <time>2021-09-07T05:51:39Z</time>
      </trkpt>
      <trkpt lat="43.2908" lon="2.47254">
        <ele>209.8</ele>
        <time>2021-09-07T05:51:40Z</time>
      </trkpt>
      <trkpt lat="43.29076" lon="2.47258">
        <ele>209.6</ele>
        <time>2021-09-07T05:51:42Z</time>
      </trkpt>
      <trkpt lat="43.29074" lon="2.47259">
        <ele>209.4</ele>
        <time>2021-09-07T05:51:43Z</time>
      </trkpt>
      <trkpt lat="43.2907" lon="2.47263">
        <ele>209.2</ele>
        <time>2021-09-07T05:51:45Z</time>
      </trkpt>
      <trkpt lat="43.29067" lon="2.47265">
        <ele>209</ele>
        <time>2021-09-07T05:51:46Z</time>
      </trkpt>
      <trkpt lat="43.29063" lon="2.47267">
        <ele>208.9</ele>
        <time>2021-09-07T05:51:48Z</time>
      </trkpt>
      <trkpt lat="43.29059" lon="2.47269">
        <ele>208.7</ele>
        <time>2021-09-07T05:51:50Z</time>
      </trkpt>
      <trkpt lat="43.29056" lon="2.47271">
        <ele>208.5</ele>
        <time>2021-09-07T05:51:52Z</time>
      </trkpt>
      <trkpt lat="43.29053" lon="2.47272">
        <ele>208.5</ele>
        <time>2021-09-07T05:51:53Z</time>
      </trkpt>
      <trkpt lat="43.29049" lon="2.47273">
        <ele>208.3</ele>
        <time>2021-09-07T05:51:55Z</time>
      </trkpt>
      <trkpt lat="43.29047" lon="2.47272">
        <ele>208.3</ele>
        <time>2021-09-07T05:51:56Z</time>
      </trkpt>
      <trkpt lat="43.29043" lon="2.47274">
        <ele>208.1</ele>
        <time>2021-09-07T05:51:58Z</time>
      </trkpt>
      <trkpt lat="43.29041" lon="2.47274">
        <ele>208</ele>
        <time>2021-09-07T05:51:59Z</time>
      </trkpt>
      <trkpt lat="43.2904" lon="2.47275">
        <ele>208</ele>
        <time>2021-09-07T05:52:00Z</time>
      </trkpt>
      <trkpt lat="43.29036" lon="2.47276">
        <ele>207.9</ele>
        <time>2021-09-07T05:52:02Z</time>
      </trkpt>
      <trkpt lat="43.29034" lon="2.47277">
        <ele>207.8</ele>
        <time>2021-09-07T05:52:03Z</time>
      </trkpt>
      <trkpt lat="43.29032" lon="2.47281">
        <ele>207.6</ele>
        <time>2021-09-07T05:52:05Z</time>
      </trkpt>
      <trkpt lat="43.2903" lon="2.47286">
        <ele>207.5</ele>
        <time>2021-09-07T05:52:07Z</time>
      </trkpt>
      <trkpt lat="43.29028" lon="2.47292">
        <ele>207.3</ele>
        <time>2021-09-07T05:52:09Z</time>
      </trkpt>
      <trkpt lat="43.29027" lon="2.47298">
        <ele>207</ele>
        <time>2021-09-07T05:52:11Z</time>
      </trkpt>
      <trkpt lat="43.29025" lon="2.47302">
        <ele>206.9</ele>
        <time>2021-09-07T05:52:12Z</time>
      </trkpt>
      <trkpt lat="43.29025" lon="2.47303">
        <ele>206.8</ele>
        <time>2021-09-07T05:52:13Z</time>
      </trkpt>
      <trkpt lat="43.29023" lon="2.47307">
        <ele>206.6</ele>
        <time>2021-09-07T05:52:14Z</time>
      </trkpt>
      <trkpt lat="43.29023" lon="2.47308">
        <ele>206.5</ele>
        <time>2021-09-07T05:52:15Z</time>
      </trkpt>
      <trkpt lat="43.2902" lon="2.47314">
        <ele>206.2</ele>
        <time>2021-09-07T05:52:17Z</time>
      </trkpt>
      <trkpt lat="43.29016" lon="2.4732">
        <ele>205.9</ele>
        <time>2021-09-07T05:52:19Z</time>
      </trkpt>
      <trkpt lat="43.29013" lon="2.47324">
        <ele>205.6</ele>
        <time>2021-09-07T05:52:21Z</time>
      </trkpt>
      <trkpt lat="43.29008" lon="2.47324">
        <ele>205.3</ele>
        <time>2021-09-07T05:52:23Z</time>
      </trkpt>
      <trkpt lat="43.29004" lon="2.47323">
        <ele>205</ele>
        <time>2021-09-07T05:52:25Z</time>
      </trkpt>
      <trkpt lat="43.29" lon="2.47323">
        <ele>204.8</ele>
        <time>2021-09-07T05:52:27Z</time>
      </trkpt>
      <trkpt lat="43.28998" lon="2.47324">
        <ele>204.7</ele>
        <time>2021-09-07T05:52:28Z</time>
      </trkpt>
      <trkpt lat="43.28995" lon="2.47327">
        <ele>204.4</ele>
        <time>2021-09-07T05:52:30Z</time>
      </trkpt>
      <trkpt lat="43.28992" lon="2.47332">
        <ele>204.1</ele>
        <time>2021-09-07T05:52:32Z</time>
      </trkpt>
      <trkpt lat="43.2899" lon="2.47334">
        <ele>203.9</ele>
        <time>2021-09-07T05:52:33Z</time>
      </trkpt>
      <trkpt lat="43.28986" lon="2.47337">
        <ele>203.6</ele>
        <time>2021-09-07T05:52:35Z</time>
      </trkpt>
      <trkpt lat="43.28981" lon="2.4734">
        <ele>203.2</ele>
        <time>2021-09-07T05:52:37Z</time>
      </trkpt>
      <trkpt lat="43.28977" lon="2.47345">
        <ele>202.8</ele>
        <time>2021-09-07T05:52:39Z</time>
      </trkpt>
      <trkpt lat="43.28975" lon="2.47349">
        <ele>201.1</ele>
        <time>2021-09-07T05:52:41Z</time>
      </trkpt>
      <trkpt lat="43.28974" lon="2.47355">
        <ele>201</ele>
        <time>2021-09-07T05:52:43Z</time>
      </trkpt>
      <trkpt lat="43.28974" lon="2.4736">
        <ele>201</ele>
        <time>2021-09-07T05:52:45Z</time>
      </trkpt>
      <trkpt lat="43.28974" lon="2.47363">
        <ele>200.9</ele>
        <time>2021-09-07T05:52:46Z</time>
      </trkpt>
      <trkpt lat="43.28975" lon="2.47368">
        <ele>200.9</ele>
        <time>2021-09-07T05:52:48Z</time>
      </trkpt>
      <trkpt lat="43.28976" lon="2.47373">
        <ele>200.9</ele>
        <time>2021-09-07T05:52:50Z</time>
      </trkpt>
      <trkpt lat="43.28976" lon="2.47375">
        <ele>200.9</ele>
        <time>2021-09-07T05:52:51Z</time>
      </trkpt>
      <trkpt lat="43.28978" lon="2.47378">
        <ele>200.9</ele>
        <time>2021-09-07T05:52:53Z</time>
      </trkpt>
      <trkpt lat="43.28979" lon="2.47382">
        <ele>200.9</ele>
        <time>2021-09-07T05:52:55Z</time>
      </trkpt>
      <trkpt lat="43.2898" lon="2.47384">
        <ele>200.9</ele>
        <time>2021-09-07T05:52:56Z</time>
      </trkpt>
      <trkpt lat="43.28982" lon="2.47389">
        <ele>201</ele>
        <time>2021-09-07T05:52:58Z</time>
      </trkpt>
      <trkpt lat="43.28983" lon="2.47392">
        <ele>201</ele>
        <time>2021-09-07T05:53:00Z</time>
      </trkpt>
      <trkpt lat="43.28983" lon="2.47394">
        <ele>201</ele>
        <time>2021-09-07T05:53:01Z</time>
      </trkpt>
      <trkpt lat="43.28983" lon="2.47396">
        <ele>201.1</ele>
        <time>2021-09-07T05:53:02Z</time>
      </trkpt>
      <trkpt lat="43.28984" lon="2.474">
        <ele>201.1</ele>
        <time>2021-09-07T05:53:04Z</time>
      </trkpt>
      <trkpt lat="43.28985" lon="2.47403">
        <ele>201.2</ele>
        <time>2021-09-07T05:53:05Z</time>
      </trkpt>
      <trkpt lat="43.28987" lon="2.47408">
        <ele>201.2</ele>
        <time>2021-09-07T05:53:07Z</time>
      </trkpt>
      <trkpt lat="43.2899" lon="2.47414">
        <ele>201.4</ele>
        <time>2021-09-07T05:53:09Z</time>
      </trkpt>
      <trkpt lat="43.28992" lon="2.47418">
        <ele>201.4</ele>
        <time>2021-09-07T05:53:10Z</time>
      </trkpt>
      <trkpt lat="43.28992" lon="2.47419">
        <ele>201.5</ele>
        <time>2021-09-07T05:53:11Z</time>
      </trkpt>
      <trkpt lat="43.28994" lon="2.47424">
        <ele>201.6</ele>
        <time>2021-09-07T05:53:13Z</time>
      </trkpt>
      <trkpt lat="43.28995" lon="2.47426">
        <ele>201.6</ele>
        <time>2021-09-07T05:53:14Z</time>
      </trkpt>
      <trkpt lat="43.28997" lon="2.47431">
        <ele>201.7</ele>
        <time>2021-09-07T05:53:16Z</time>
      </trkpt>
      <trkpt lat="43.28998" lon="2.47434">
        <ele>201.7</ele>
        <time>2021-09-07T05:53:17Z</time>
      </trkpt>
      <trkpt lat="43.29" lon="2.47439">
        <ele>201.8</ele>
        <time>2021-09-07T05:53:19Z</time>
      </trkpt>
      <trkpt lat="43.29002" lon="2.47444">
        <ele>201.9</ele>
        <time>2021-09-07T05:53:21Z</time>
      </trkpt>
      <trkpt lat="43.29004" lon="2.4745">
        <ele>201.9</ele>
        <time>2021-09-07T05:53:23Z</time>
      </trkpt>
      <trkpt lat="43.29005" lon="2.47454">
        <ele>201.9</ele>
        <time>2021-09-07T05:53:24Z</time>
      </trkpt>
      <trkpt lat="43.29006" lon="2.47455">
        <ele>201.9</ele>
        <time>2021-09-07T05:53:25Z</time>
      </trkpt>
      <trkpt lat="43.29007" lon="2.47461">
        <ele>201.8</ele>
        <time>2021-09-07T05:53:27Z</time>
      </trkpt>
      <trkpt lat="43.2901" lon="2.47468">
        <ele>201.8</ele>
        <time>2021-09-07T05:53:29Z</time>
      </trkpt>
      <trkpt lat="43.29011" lon="2.47474">
        <ele>201.8</ele>
        <time>2021-09-07T05:53:31Z</time>
      </trkpt>
      <trkpt lat="43.29013" lon="2.47479">
        <ele>201.8</ele>
        <time>2021-09-07T05:53:33Z</time>
      </trkpt>
      <trkpt lat="43.29015" lon="2.47484">
        <ele>201.8</ele>
        <time>2021-09-07T05:53:34Z</time>
      </trkpt>
      <trkpt lat="43.29015" lon="2.47485">
        <ele>201.8</ele>
        <time>2021-09-07T05:53:35Z</time>
      </trkpt>
      <trkpt lat="43.29017" lon="2.47491">
        <ele>201.7</ele>
        <time>2021-09-07T05:53:37Z</time>
      </trkpt>
      <trkpt lat="43.29018" lon="2.47496">
        <ele>201.7</ele>
        <time>2021-09-07T05:53:38Z</time>
      </trkpt>
      <trkpt lat="43.29019" lon="2.47497">
        <ele>201.7</ele>
        <time>2021-09-07T05:53:39Z</time>
      </trkpt>
      <trkpt lat="43.2902" lon="2.47501">
        <ele>201.6</ele>
        <time>2021-09-07T05:53:40Z</time>
      </trkpt>
      <trkpt lat="43.29022" lon="2.47507">
        <ele>201.5</ele>
        <time>2021-09-07T05:53:42Z</time>
      </trkpt>
      <trkpt lat="43.29023" lon="2.47512">
        <ele>201.4</ele>
        <time>2021-09-07T05:53:43Z</time>
      </trkpt>
      <trkpt lat="43.29024" lon="2.47514">
        <ele>201.4</ele>
        <time>2021-09-07T05:53:44Z</time>
      </trkpt>
      <trkpt lat="43.29026" lon="2.47521">
        <ele>201.2</ele>
        <time>2021-09-07T05:53:46Z</time>
      </trkpt>
      <trkpt lat="43.29027" lon="2.47525">
        <ele>201.1</ele>
        <time>2021-09-07T05:53:47Z</time>
      </trkpt>
      <trkpt lat="43.29028" lon="2.47531">
        <ele>200.9</ele>
        <time>2021-09-07T05:53:49Z</time>
      </trkpt>
      <trkpt lat="43.2903" lon="2.47538">
        <ele>200.8</ele>
        <time>2021-09-07T05:53:51Z</time>
      </trkpt>
      <trkpt lat="43.29031" lon="2.47542">
        <ele>200.8</ele>
        <time>2021-09-07T05:53:52Z</time>
      </trkpt>
      <trkpt lat="43.29031" lon="2.47544">
        <ele>200.7</ele>
        <time>2021-09-07T05:53:53Z</time>
      </trkpt>
      <trkpt lat="43.29032" lon="2.47549">
        <ele>200.7</ele>
        <time>2021-09-07T05:53:54Z</time>
      </trkpt>
      <trkpt lat="43.29033" lon="2.4755">
        <ele>200.7</ele>
        <time>2021-09-07T05:53:55Z</time>
      </trkpt>
      <trkpt lat="43.29034" lon="2.47553">
        <ele>200.6</ele>
        <time>2021-09-07T05:53:56Z</time>
      </trkpt>
      <trkpt lat="43.29035" lon="2.4756">
        <ele>200.6</ele>
        <time>2021-09-07T05:53:58Z</time>
      </trkpt>
      <trkpt lat="43.29036" lon="2.47564">
        <ele>200.6</ele>
        <time>2021-09-07T05:53:59Z</time>
      </trkpt>
      <trkpt lat="43.29039" lon="2.47571">
        <ele>200.6</ele>
        <time>2021-09-07T05:54:01Z</time>
      </trkpt>
      <trkpt lat="43.2904" lon="2.47577">
        <ele>200.5</ele>
        <time>2021-09-07T05:54:03Z</time>
      </trkpt>
      <trkpt lat="43.29042" lon="2.47581">
        <ele>200.5</ele>
        <time>2021-09-07T05:54:05Z</time>
      </trkpt>
      <trkpt lat="43.29044" lon="2.47584">
        <ele>200.5</ele>
        <time>2021-09-07T05:54:07Z</time>
      </trkpt>
      <trkpt lat="43.29048" lon="2.47584">
        <ele>200.7</ele>
        <time>2021-09-07T05:54:09Z</time>
      </trkpt>
      <trkpt lat="43.2905" lon="2.47585">
        <ele>200.8</ele>
        <time>2021-09-07T05:54:10Z</time>
      </trkpt>
      <trkpt lat="43.29054" lon="2.47585">
        <ele>201</ele>
        <time>2021-09-07T05:54:12Z</time>
      </trkpt>
      <trkpt lat="43.29056" lon="2.47584">
        <ele>201.1</ele>
        <time>2021-09-07T05:54:13Z</time>
      </trkpt>
      <trkpt lat="43.29061" lon="2.47584">
        <ele>201.3</ele>
        <time>2021-09-07T05:54:15Z</time>
      </trkpt>
      <trkpt lat="43.29065" lon="2.47583">
        <ele>201.6</ele>
        <time>2021-09-07T05:54:17Z</time>
      </trkpt>
      <trkpt lat="43.29068" lon="2.47581">
        <ele>201.7</ele>
        <time>2021-09-07T05:54:19Z</time>
      </trkpt>
      <trkpt lat="43.29069" lon="2.4758">
        <ele>201.8</ele>
        <time>2021-09-07T05:54:21Z</time>
      </trkpt>
      <trkpt lat="43.2907" lon="2.4758">
        <ele>201.8</ele>
        <time>2021-09-07T05:54:23Z</time>
      </trkpt>
      <trkpt lat="43.29071" lon="2.47579">
        <ele>201.9</ele>
        <time>2021-09-07T05:54:25Z</time>
      </trkpt>
      <trkpt lat="43.29071" lon="2.47579">
        <ele>201.9</ele>
        <time>2021-09-07T05:54:26Z</time>
      </trkpt>
      <trkpt lat="43.29071" lon="2.47579">
        <ele>201.9</ele>
        <time>2021-09-07T05:54:28Z</time>
      </trkpt>
      <trkpt lat="43.29072" lon="2.47579">
        <ele>201.9</ele>
        <time>2021-09-07T05:54:29Z</time>
      </trkpt>
      <trkpt lat="43.29072" lon="2.4758">
        <ele>202</ele>
        <time>2021-09-07T05:54:31Z</time>
      </trkpt>
      <trkpt lat="43.29072" lon="2.4758">
        <ele>202</ele>
        <time>2021-09-07T05:54:33Z</time>
      </trkpt>
      <trkpt lat="43.29072" lon="2.4758">
        <ele>202</ele>
        <time>2021-09-07T05:54:34Z</time>
      </trkpt>
      <trkpt lat="43.29072" lon="2.4758">
        <ele>202</ele>
        <time>2021-09-07T05:54:36Z</time>
      </trkpt>
      <trkpt lat="43.29072" lon="2.4758">
        <ele>202</ele>
        <time>2021-09-07T05:54:38Z</time>
      </trkpt>
      <trkpt lat="43.29072" lon="2.4758">
        <ele>202</ele>
        <time>2021-09-07T05:54:39Z</time>
      </trkpt>
      <trkpt lat="43.29072" lon="2.4758">
        <ele>202</ele>
        <time>2021-09-07T05:54:40Z</time>
      </trkpt>
      <trkpt lat="43.29072" lon="2.4758">
        <ele>202</ele>
        <time>2021-09-07T05:54:42Z</time>
      </trkpt>
      <trkpt lat="43.29072" lon="2.4758">
        <ele>202</ele>
        <time>2021-09-07T05:54:44Z</time>
      </trkpt>
      <trkpt lat="43.29072" lon="2.4758">
        <ele>202</ele>
        <time>2021-09-07T05:54:45Z</time>
      </trkpt>
      <trkpt lat="43.29072" lon="2.4758">
        <ele>202</ele>
        <time>2021-09-07T05:54:46Z</time>
      </trkpt>
      <trkpt lat="43.29071" lon="2.4758">
        <ele>202</ele>
        <time>2021-09-07T05:54:48Z</time>
      </trkpt>
      <trkpt lat="43.29071" lon="2.4758">
        <ele>202</ele>
        <time>2021-09-07T05:54:50Z</time>
      </trkpt>
      <trkpt lat="43.29071" lon="2.4758">
        <ele>202</ele>
        <time>2021-09-07T05:54:51Z</time>
      </trkpt>
      <trkpt lat="43.29071" lon="2.4758">
        <ele>202</ele>
        <time>2021-09-07T05:54:52Z</time>
      </trkpt>
      <trkpt lat="43.29072" lon="2.4758">
        <ele>202</ele>
        <time>2021-09-07T05:54:54Z</time>
      </trkpt>
      <trkpt lat="43.29072" lon="2.47581">
        <ele>202.1</ele>
        <time>2021-09-07T05:54:56Z</time>
      </trkpt>
      <trkpt lat="43.29071" lon="2.47583">
        <ele>202.1</ele>
        <time>2021-09-07T05:54:58Z</time>
      </trkpt>
      <trkpt lat="43.29072" lon="2.47585">
        <ele>202.2</ele>
        <time>2021-09-07T05:54:59Z</time>
      </trkpt>
      <trkpt lat="43.29073" lon="2.47586">
        <ele>202.2</ele>
        <time>2021-09-07T05:55:00Z</time>
      </trkpt>
      <trkpt lat="43.29074" lon="2.47588">
        <ele>202.3</ele>
        <time>2021-09-07T05:55:02Z</time>
      </trkpt>
      <trkpt lat="43.29075" lon="2.4759">
        <ele>202.4</ele>
        <time>2021-09-07T05:55:04Z</time>
      </trkpt>
      <trkpt lat="43.29076" lon="2.47592">
        <ele>202.5</ele>
        <time>2021-09-07T05:55:05Z</time>
      </trkpt>
      <trkpt lat="43.29076" lon="2.47592">
        <ele>202.5</ele>
        <time>2021-09-07T05:55:06Z</time>
      </trkpt>
      <trkpt lat="43.29078" lon="2.47593">
        <ele>202.6</ele>
        <time>2021-09-07T05:55:08Z</time>
      </trkpt>
      <trkpt lat="43.29081" lon="2.47595">
        <ele>202.7</ele>
        <time>2021-09-07T05:55:10Z</time>
      </trkpt>
      <trkpt lat="43.29083" lon="2.47595">
        <ele>202.8</ele>
        <time>2021-09-07T05:55:12Z</time>
      </trkpt>
      <trkpt lat="43.29086" lon="2.47593">
        <ele>203</ele>
        <time>2021-09-07T05:55:14Z</time>
      </trkpt>
      <trkpt lat="43.29087" lon="2.47592">
        <ele>203</ele>
        <time>2021-09-07T05:55:15Z</time>
      </trkpt>
      <trkpt lat="43.29089" lon="2.47589">
        <ele>203.2</ele>
        <time>2021-09-07T05:55:17Z</time>
      </trkpt>
      <trkpt lat="43.29091" lon="2.47588">
        <ele>203.3</ele>
        <time>2021-09-07T05:55:18Z</time>
      </trkpt>
      <trkpt lat="43.29093" lon="2.47586">
        <ele>203.4</ele>
        <time>2021-09-07T05:55:20Z</time>
      </trkpt>
      <trkpt lat="43.29094" lon="2.47585">
        <ele>203.5</ele>
        <time>2021-09-07T05:55:21Z</time>
      </trkpt>
      <trkpt lat="43.29097" lon="2.47583">
        <ele>203.7</ele>
        <time>2021-09-07T05:55:23Z</time>
      </trkpt>
      <trkpt lat="43.29098" lon="2.47583">
        <ele>203.7</ele>
        <time>2021-09-07T05:55:24Z</time>
      </trkpt>
      <trkpt lat="43.29101" lon="2.47583">
        <ele>204</ele>
        <time>2021-09-07T05:55:26Z</time>
      </trkpt>
      <trkpt lat="43.29103" lon="2.47583">
        <ele>204.1</ele>
        <time>2021-09-07T05:55:27Z</time>
      </trkpt>
      <trkpt lat="43.29105" lon="2.47582">
        <ele>204.3</ele>
        <time>2021-09-07T05:55:29Z</time>
      </trkpt>
      <trkpt lat="43.29107" lon="2.4758">
        <ele>204.5</ele>
        <time>2021-09-07T05:55:31Z</time>
      </trkpt>
      <trkpt lat="43.2911" lon="2.4758">
        <ele>204.7</ele>
        <time>2021-09-07T05:55:33Z</time>
      </trkpt>
      <trkpt lat="43.29113" lon="2.47579">
        <ele>205</ele>
        <time>2021-09-07T05:55:35Z</time>
      </trkpt>
      <trkpt lat="43.29115" lon="2.47577">
        <ele>205.2</ele>
        <time>2021-09-07T05:55:37Z</time>
      </trkpt>
      <trkpt lat="43.29118" lon="2.47577">
        <ele>205.5</ele>
        <time>2021-09-07T05:55:39Z</time>
      </trkpt>
      <trkpt lat="43.2912" lon="2.47578">
        <ele>205.6</ele>
        <time>2021-09-07T05:55:40Z</time>
      </trkpt>
      <trkpt lat="43.29123" lon="2.4758">
        <ele>206</ele>
        <time>2021-09-07T05:55:42Z</time>
      </trkpt>
      <trkpt lat="43.29125" lon="2.4758">
        <ele>206.1</ele>
        <time>2021-09-07T05:55:43Z</time>
      </trkpt>
      <trkpt lat="43.29126" lon="2.47583">
        <ele>206.3</ele>
        <time>2021-09-07T05:55:45Z</time>
      </trkpt>
      <trkpt lat="43.29127" lon="2.47587">
        <ele>206.5</ele>
        <time>2021-09-07T05:55:46Z</time>
      </trkpt>
      <trkpt lat="43.29127" lon="2.47588">
        <ele>206.5</ele>
        <time>2021-09-07T05:55:47Z</time>
      </trkpt>
      <trkpt lat="43.29128" lon="2.47594">
        <ele>206.8</ele>
        <time>2021-09-07T05:55:49Z</time>
      </trkpt>
      <trkpt lat="43.29129" lon="2.476">
        <ele>207</ele>
        <time>2021-09-07T05:55:51Z</time>
      </trkpt>
      <trkpt lat="43.2913" lon="2.47602">
        <ele>207.1</ele>
        <time>2021-09-07T05:55:52Z</time>
      </trkpt>
      <trkpt lat="43.29131" lon="2.47607">
        <ele>207.3</ele>
        <time>2021-09-07T05:55:54Z</time>
      </trkpt>
      <trkpt lat="43.29132" lon="2.47613">
        <ele>207.4</ele>
        <time>2021-09-07T05:55:56Z</time>
      </trkpt>
      <trkpt lat="43.29132" lon="2.47619">
        <ele>207.5</ele>
        <time>2021-09-07T05:55:58Z</time>
      </trkpt>
      <trkpt lat="43.29131" lon="2.47623">
        <ele>207.5</ele>
        <time>2021-09-07T05:55:59Z</time>
      </trkpt>
      <trkpt lat="43.29131" lon="2.47624">
        <ele>207.5</ele>
        <time>2021-09-07T05:56:00Z</time>
      </trkpt>
      <trkpt lat="43.2913" lon="2.47629">
        <ele>207.6</ele>
        <time>2021-09-07T05:56:02Z</time>
      </trkpt>
      <trkpt lat="43.29129" lon="2.47631">
        <ele>207.6</ele>
        <time>2021-09-07T05:56:03Z</time>
      </trkpt>
      <trkpt lat="43.29129" lon="2.47634">
        <ele>207.6</ele>
        <time>2021-09-07T05:56:04Z</time>
      </trkpt>
      <trkpt lat="43.29129" lon="2.47638">
        <ele>207.7</ele>
        <time>2021-09-07T05:56:06Z</time>
      </trkpt>
      <trkpt lat="43.29129" lon="2.4764">
        <ele>207.7</ele>
        <time>2021-09-07T05:56:07Z</time>
      </trkpt>
      <trkpt lat="43.2913" lon="2.47644">
        <ele>207.7</ele>
        <time>2021-09-07T05:56:09Z</time>
      </trkpt>
      <trkpt lat="43.2913" lon="2.47646">
        <ele>207.7</ele>
        <time>2021-09-07T05:56:10Z</time>
      </trkpt>
      <trkpt lat="43.29131" lon="2.47651">
        <ele>207.7</ele>
        <time>2021-09-07T05:56:12Z</time>
      </trkpt>
      <trkpt lat="43.29131" lon="2.47653">
        <ele>207.7</ele>
        <time>2021-09-07T05:56:13Z</time>
      </trkpt>
      <trkpt lat="43.29131" lon="2.47655">
        <ele>207.7</ele>
        <time>2021-09-07T05:56:14Z</time>
      </trkpt>
      <trkpt lat="43.29132" lon="2.47659">
        <ele>207.8</ele>
        <time>2021-09-07T05:56:16Z</time>
      </trkpt>
      <trkpt lat="43.29132" lon="2.47661">
        <ele>207.8</ele>
        <time>2021-09-07T05:56:17Z</time>
      </trkpt>
      <trkpt lat="43.29133" lon="2.47662">
        <ele>207.8</ele>
        <time>2021-09-07T05:56:18Z</time>
      </trkpt>
      <trkpt lat="43.29135" lon="2.47664">
        <ele>207.9</ele>
        <time>2021-09-07T05:56:20Z</time>
      </trkpt>
      <trkpt lat="43.29136" lon="2.47665">
        <ele>207.9</ele>
        <time>2021-09-07T05:56:21Z</time>
      </trkpt>
      <trkpt lat="43.2914" lon="2.47667">
        <ele>207.9</ele>
        <time>2021-09-07T05:56:23Z</time>
      </trkpt>
      <trkpt lat="43.29142" lon="2.47667">
        <ele>207.9</ele>
        <time>2021-09-07T05:56:24Z</time>
      </trkpt>
      <trkpt lat="43.29146" lon="2.47669">
        <ele>208</ele>
        <time>2021-09-07T05:56:26Z</time>
      </trkpt>
      <trkpt lat="43.29151" lon="2.47671">
        <ele>208.1</ele>
        <time>2021-09-07T05:56:28Z</time>
      </trkpt>
      <trkpt lat="43.29155" lon="2.47672">
        <ele>208.2</ele>
        <time>2021-09-07T05:56:29Z</time>
      </trkpt>
      <trkpt lat="43.29156" lon="2.47672">
        <ele>208.2</ele>
        <time>2021-09-07T05:56:30Z</time>
      </trkpt>
      <trkpt lat="43.29158" lon="2.47672">
        <ele>208.3</ele>
        <time>2021-09-07T05:56:31Z</time>
      </trkpt>
      <trkpt lat="43.29163" lon="2.47673">
        <ele>208.5</ele>
        <time>2021-09-07T05:56:33Z</time>
      </trkpt>
      <trkpt lat="43.29167" lon="2.47674">
        <ele>208.7</ele>
        <time>2021-09-07T05:56:35Z</time>
      </trkpt>
      <trkpt lat="43.29172" lon="2.47675">
        <ele>208.9</ele>
        <time>2021-09-07T05:56:37Z</time>
      </trkpt>
      <trkpt lat="43.29174" lon="2.47675">
        <ele>209</ele>
        <time>2021-09-07T05:56:38Z</time>
      </trkpt>
      <trkpt lat="43.29178" lon="2.47675">
        <ele>209.3</ele>
        <time>2021-09-07T05:56:40Z</time>
      </trkpt>
      <trkpt lat="43.29182" lon="2.47675">
        <ele>209.6</ele>
        <time>2021-09-07T05:56:42Z</time>
      </trkpt>
      <trkpt lat="43.29186" lon="2.47675">
        <ele>209.9</ele>
        <time>2021-09-07T05:56:44Z</time>
      </trkpt>
      <trkpt lat="43.2919" lon="2.47676">
        <ele>210.2</ele>
        <time>2021-09-07T05:56:46Z</time>
      </trkpt>
      <trkpt lat="43.29194" lon="2.47678">
        <ele>210.5</ele>
        <time>2021-09-07T05:56:48Z</time>
      </trkpt>
      <trkpt lat="43.29197" lon="2.47681">
        <ele>210.8</ele>
        <time>2021-09-07T05:56:50Z</time>
      </trkpt>
      <trkpt lat="43.29199" lon="2.47682">
        <ele>211</ele>
        <time>2021-09-07T05:56:51Z</time>
      </trkpt>
      <trkpt lat="43.29202" lon="2.47687">
        <ele>211.3</ele>
        <time>2021-09-07T05:56:53Z</time>
      </trkpt>
      <trkpt lat="43.29203" lon="2.47689">
        <ele>211.5</ele>
        <time>2021-09-07T05:56:54Z</time>
      </trkpt>
      <trkpt lat="43.29206" lon="2.47691">
        <ele>211.7</ele>
        <time>2021-09-07T05:56:56Z</time>
      </trkpt>
      <trkpt lat="43.29209" lon="2.47692">
        <ele>211.9</ele>
        <time>2021-09-07T05:56:58Z</time>
      </trkpt>
      <trkpt lat="43.29211" lon="2.47692">
        <ele>212</ele>
        <time>2021-09-07T05:57:00Z</time>
      </trkpt>
      <trkpt lat="43.29213" lon="2.47691">
        <ele>212.1</ele>
        <time>2021-09-07T05:57:02Z</time>
      </trkpt>
      <trkpt lat="43.29214" lon="2.4769">
        <ele>212.1</ele>
        <time>2021-09-07T05:57:03Z</time>
      </trkpt>
      <trkpt lat="43.29214" lon="2.47689">
        <ele>212.2</ele>
        <time>2021-09-07T05:57:04Z</time>
      </trkpt>
      <trkpt lat="43.29216" lon="2.47687">
        <ele>212.3</ele>
        <time>2021-09-07T05:57:06Z</time>
      </trkpt>
      <trkpt lat="43.29216" lon="2.47686">
        <ele>212.4</ele>
        <time>2021-09-07T05:57:08Z</time>
      </trkpt>
      <trkpt lat="43.29217" lon="2.47684">
        <ele>212.5</ele>
        <time>2021-09-07T05:57:10Z</time>
      </trkpt>
      <trkpt lat="43.29217" lon="2.47684">
        <ele>212.5</ele>
        <time>2021-09-07T05:57:11Z</time>
      </trkpt>
      <trkpt lat="43.29218" lon="2.47682">
        <ele>212.6</ele>
        <time>2021-09-07T05:57:13Z</time>
      </trkpt>
      <trkpt lat="43.29218" lon="2.47682">
        <ele>212.6</ele>
        <time>2021-09-07T05:57:14Z</time>
      </trkpt>
      <trkpt lat="43.29218" lon="2.47681">
        <ele>212.6</ele>
        <time>2021-09-07T05:57:15Z</time>
      </trkpt>
      <trkpt lat="43.29218" lon="2.4768">
        <ele>212.7</ele>
        <time>2021-09-07T05:57:16Z</time>
      </trkpt>
      <trkpt lat="43.29219" lon="2.47678">
        <ele>212.8</ele>
        <time>2021-09-07T05:57:18Z</time>
      </trkpt>
      <trkpt lat="43.2922" lon="2.47677">
        <ele>212.8</ele>
        <time>2021-09-07T05:57:19Z</time>
      </trkpt>
      <trkpt lat="43.29222" lon="2.47673">
        <ele>213</ele>
        <time>2021-09-07T05:57:21Z</time>
      </trkpt>
      <trkpt lat="43.29224" lon="2.47669">
        <ele>213.2</ele>
        <time>2021-09-07T05:57:23Z</time>
      </trkpt>
      <trkpt lat="43.29226" lon="2.47665">
        <ele>213.5</ele>
        <time>2021-09-07T05:57:25Z</time>
      </trkpt>
      <trkpt lat="43.29228" lon="2.47663">
        <ele>213.6</ele>
        <time>2021-09-07T05:57:26Z</time>
      </trkpt>
      <trkpt lat="43.29231" lon="2.47659">
        <ele>213.8</ele>
        <time>2021-09-07T05:57:28Z</time>
      </trkpt>
      <trkpt lat="43.29233" lon="2.47655">
        <ele>214</ele>
        <time>2021-09-07T05:57:30Z</time>
      </trkpt>
      <trkpt lat="43.29235" lon="2.47652">
        <ele>214.1</ele>
        <time>2021-09-07T05:57:31Z</time>
      </trkpt>
      <trkpt lat="43.29236" lon="2.47651">
        <ele>214.2</ele>
        <time>2021-09-07T05:57:32Z</time>
      </trkpt>
      <trkpt lat="43.29238" lon="2.47646">
        <ele>214.4</ele>
        <time>2021-09-07T05:57:34Z</time>
      </trkpt>
      <trkpt lat="43.2924" lon="2.47643">
        <ele>214.5</ele>
        <time>2021-09-07T05:57:35Z</time>
      </trkpt>
      <trkpt lat="43.29243" lon="2.47638">
        <ele>214.6</ele>
        <time>2021-09-07T05:57:37Z</time>
      </trkpt>
      <trkpt lat="43.29245" lon="2.47634">
        <ele>214.7</ele>
        <time>2021-09-07T05:57:38Z</time>
      </trkpt>
      <trkpt lat="43.29245" lon="2.47633">
        <ele>214.8</ele>
        <time>2021-09-07T05:57:39Z</time>
      </trkpt>
      <trkpt lat="43.29248" lon="2.47627">
        <ele>214.9</ele>
        <time>2021-09-07T05:57:41Z</time>
      </trkpt>
      <trkpt lat="43.29251" lon="2.47622">
        <ele>215.1</ele>
        <time>2021-09-07T05:57:43Z</time>
      </trkpt>
      <trkpt lat="43.29255" lon="2.47616">
        <ele>215.3</ele>
        <time>2021-09-07T05:57:45Z</time>
      </trkpt>
      <trkpt lat="43.29257" lon="2.47613">
        <ele>215.4</ele>
        <time>2021-09-07T05:57:46Z</time>
      </trkpt>
      <trkpt lat="43.2926" lon="2.47606">
        <ele>215.7</ele>
        <time>2021-09-07T05:57:48Z</time>
      </trkpt>
      <trkpt lat="43.29263" lon="2.47598">
        <ele>216.2</ele>
        <time>2021-09-07T05:57:50Z</time>
      </trkpt>
      <trkpt lat="43.29265" lon="2.47594">
        <ele>216.4</ele>
        <time>2021-09-07T05:57:51Z</time>
      </trkpt>
      <trkpt lat="43.29267" lon="2.47589">
        <ele>216.6</ele>
        <time>2021-09-07T05:57:52Z</time>
      </trkpt>
      <trkpt lat="43.29267" lon="2.47588">
        <ele>216.7</ele>
        <time>2021-09-07T05:57:53Z</time>
      </trkpt>
      <trkpt lat="43.29269" lon="2.47582">
        <ele>217</ele>
        <time>2021-09-07T05:57:55Z</time>
      </trkpt>
      <trkpt lat="43.29271" lon="2.47576">
        <ele>217.3</ele>
        <time>2021-09-07T05:57:57Z</time>
      </trkpt>
      <trkpt lat="43.29274" lon="2.4757">
        <ele>217.6</ele>
        <time>2021-09-07T05:57:59Z</time>
      </trkpt>
      <trkpt lat="43.29277" lon="2.47565">
        <ele>217.9</ele>
        <time>2021-09-07T05:58:01Z</time>
      </trkpt>
      <trkpt lat="43.2928" lon="2.47561">
        <ele>218.1</ele>
        <time>2021-09-07T05:58:03Z</time>
      </trkpt>
      <trkpt lat="43.29283" lon="2.47557">
        <ele>218.2</ele>
        <time>2021-09-07T05:58:05Z</time>
      </trkpt>
      <trkpt lat="43.29284" lon="2.47555">
        <ele>218.3</ele>
        <time>2021-09-07T05:58:06Z</time>
      </trkpt>
      <trkpt lat="43.29287" lon="2.47552">
        <ele>218.5</ele>
        <time>2021-09-07T05:58:08Z</time>
      </trkpt>
      <trkpt lat="43.2929" lon="2.47548">
        <ele>218.7</ele>
        <time>2021-09-07T05:58:10Z</time>
      </trkpt>
      <trkpt lat="43.29293" lon="2.47546">
        <ele>218.9</ele>
        <time>2021-09-07T05:58:11Z</time>
      </trkpt>
      <trkpt lat="43.29293" lon="2.47545">
        <ele>219</ele>
        <time>2021-09-07T05:58:12Z</time>
      </trkpt>
      <trkpt lat="43.29294" lon="2.47543">
        <ele>219.1</ele>
        <time>2021-09-07T05:58:13Z</time>
      </trkpt>
      <trkpt lat="43.29297" lon="2.4754">
        <ele>219.4</ele>
        <time>2021-09-07T05:58:15Z</time>
      </trkpt>
      <trkpt lat="43.293" lon="2.47537">
        <ele>219.6</ele>
        <time>2021-09-07T05:58:16Z</time>
      </trkpt>
      <trkpt lat="43.29301" lon="2.47536">
        <ele>219.7</ele>
        <time>2021-09-07T05:58:17Z</time>
      </trkpt>
      <trkpt lat="43.29303" lon="2.47534">
        <ele>219.9</ele>
        <time>2021-09-07T05:58:18Z</time>
      </trkpt>
      <trkpt lat="43.29307" lon="2.47531">
        <ele>220.2</ele>
        <time>2021-09-07T05:58:20Z</time>
      </trkpt>
      <trkpt lat="43.29309" lon="2.47529">
        <ele>220.4</ele>
        <time>2021-09-07T05:58:21Z</time>
      </trkpt>
      <trkpt lat="43.29313" lon="2.47528">
        <ele>220.7</ele>
        <time>2021-09-07T05:58:23Z</time>
      </trkpt>
      <trkpt lat="43.29316" lon="2.47526">
        <ele>220.9</ele>
        <time>2021-09-07T05:58:24Z</time>
      </trkpt>
      <trkpt lat="43.29316" lon="2.47526">
        <ele>221</ele>
        <time>2021-09-07T05:58:25Z</time>
      </trkpt>
      <trkpt lat="43.29319" lon="2.47524">
        <ele>221.2</ele>
        <time>2021-09-07T05:58:27Z</time>
      </trkpt>
      <trkpt lat="43.2932" lon="2.47522">
        <ele>221.3</ele>
        <time>2021-09-07T05:58:29Z</time>
      </trkpt>
      <trkpt lat="43.2932" lon="2.47521">
        <ele>221.4</ele>
        <time>2021-09-07T05:58:30Z</time>
      </trkpt>
      <trkpt lat="43.2932" lon="2.47521">
        <ele>221.4</ele>
        <time>2021-09-07T05:58:31Z</time>
      </trkpt>
      <trkpt lat="43.29322" lon="2.47519">
        <ele>221.5</ele>
        <time>2021-09-07T05:58:33Z</time>
      </trkpt>
      <trkpt lat="43.29323" lon="2.47518">
        <ele>221.7</ele>
        <time>2021-09-07T05:58:34Z</time>
      </trkpt>
      <trkpt lat="43.29327" lon="2.47514">
        <ele>221.9</ele>
        <time>2021-09-07T05:58:36Z</time>
      </trkpt>
      <trkpt lat="43.29331" lon="2.47513">
        <ele>222.2</ele>
        <time>2021-09-07T05:58:38Z</time>
      </trkpt>
      <trkpt lat="43.29334" lon="2.47511">
        <ele>222.3</ele>
        <time>2021-09-07T05:58:40Z</time>
      </trkpt>
      <trkpt lat="43.29336" lon="2.47509">
        <ele>222.4</ele>
        <time>2021-09-07T05:58:41Z</time>
      </trkpt>
      <trkpt lat="43.29339" lon="2.47506">
        <ele>222.5</ele>
        <time>2021-09-07T05:58:43Z</time>
      </trkpt>
      <trkpt lat="43.29341" lon="2.47504">
        <ele>222.5</ele>
        <time>2021-09-07T05:58:45Z</time>
      </trkpt>
      <trkpt lat="43.29343" lon="2.47501">
        <ele>222.6</ele>
        <time>2021-09-07T05:58:47Z</time>
      </trkpt>
      <trkpt lat="43.29345" lon="2.47497">
        <ele>222.6</ele>
        <time>2021-09-07T05:58:49Z</time>
      </trkpt>
      <trkpt lat="43.29346" lon="2.47496">
        <ele>222.6</ele>
        <time>2021-09-07T05:58:50Z</time>
      </trkpt>
      <trkpt lat="43.29348" lon="2.47493">
        <ele>222.6</ele>
        <time>2021-09-07T05:58:52Z</time>
      </trkpt>
      <trkpt lat="43.29349" lon="2.47491">
        <ele>222.6</ele>
        <time>2021-09-07T05:58:53Z</time>
      </trkpt>
      <trkpt lat="43.2935" lon="2.47488">
        <ele>222.7</ele>
        <time>2021-09-07T05:58:55Z</time>
      </trkpt>
      <trkpt lat="43.29352" lon="2.47484">
        <ele>222.7</ele>
        <time>2021-09-07T05:58:57Z</time>
      </trkpt>
      <trkpt lat="43.29353" lon="2.47483">
        <ele>222.7</ele>
        <time>2021-09-07T05:58:58Z</time>
      </trkpt>
      <trkpt lat="43.29355" lon="2.47482">
        <ele>222.7</ele>
        <time>2021-09-07T05:59:00Z</time>
      </trkpt>
      <trkpt lat="43.29356" lon="2.47481">
        <ele>222.7</ele>
        <time>2021-09-07T05:59:01Z</time>
      </trkpt>
      <trkpt lat="43.29357" lon="2.4748">
        <ele>222.7</ele>
        <time>2021-09-07T05:59:03Z</time>
      </trkpt>
      <trkpt lat="43.29358" lon="2.47479">
        <ele>222.8</ele>
        <time>2021-09-07T05:59:05Z</time>
      </trkpt>
      <trkpt lat="43.29358" lon="2.47478">
        <ele>222.8</ele>
        <time>2021-09-07T05:59:06Z</time>
      </trkpt>
      <trkpt lat="43.29359" lon="2.47478">
        <ele>222.8</ele>
        <time>2021-09-07T05:59:08Z</time>
      </trkpt>
      <trkpt lat="43.29359" lon="2.47478">
        <ele>222.8</ele>
        <time>2021-09-07T05:59:09Z</time>
      </trkpt>
      <trkpt lat="43.2936" lon="2.47478">
        <ele>222.9</ele>
        <time>2021-09-07T05:59:10Z</time>
      </trkpt>
      <trkpt lat="43.2936" lon="2.47478">
        <ele>222.9</ele>
        <time>2021-09-07T05:59:12Z</time>
      </trkpt>
      <trkpt lat="43.29361" lon="2.47477">
        <ele>222.9</ele>
        <time>2021-09-07T05:59:14Z</time>
      </trkpt>
      <trkpt lat="43.29362" lon="2.47477">
        <ele>222.9</ele>
        <time>2021-09-07T05:59:16Z</time>
      </trkpt>
      <trkpt lat="43.29362" lon="2.47476">
        <ele>222.9</ele>
        <time>2021-09-07T05:59:17Z</time>
      </trkpt>
      <trkpt lat="43.29362" lon="2.47477">
        <ele>222.9</ele>
        <time>2021-09-07T05:59:19Z</time>
      </trkpt>
      <trkpt lat="43.29362" lon="2.47476">
        <ele>222.9</ele>
        <time>2021-09-07T05:59:21Z</time>
      </trkpt>
      <trkpt lat="43.29362" lon="2.47476">
        <ele>222.9</ele>
        <time>2021-09-07T05:59:22Z</time>
      </trkpt>
      <trkpt lat="43.29363" lon="2.47475">
        <ele>222.9</ele>
        <time>2021-09-07T05:59:24Z</time>
      </trkpt>
      <trkpt lat="43.29362" lon="2.47474">
        <ele>222.9</ele>
        <time>2021-09-07T05:59:25Z</time>
      </trkpt>
      <trkpt lat="43.29361" lon="2.47472">
        <ele>223</ele>
        <time>2021-09-07T05:59:27Z</time>
      </trkpt>
      <trkpt lat="43.29359" lon="2.47471">
        <ele>223</ele>
        <time>2021-09-07T05:59:29Z</time>
      </trkpt>
      <trkpt lat="43.29357" lon="2.47469">
        <ele>223</ele>
        <time>2021-09-07T05:59:30Z</time>
      </trkpt>
      <trkpt lat="43.29357" lon="2.47468">
        <ele>223</ele>
        <time>2021-09-07T05:59:31Z</time>
      </trkpt>
      <trkpt lat="43.29357" lon="2.47467">
        <ele>223</ele>
        <time>2021-09-07T05:59:32Z</time>
      </trkpt>
      <trkpt lat="43.29355" lon="2.47464">
        <ele>223</ele>
        <time>2021-09-07T05:59:34Z</time>
      </trkpt>
      <trkpt lat="43.29354" lon="2.47462">
        <ele>223</ele>
        <time>2021-09-07T05:59:36Z</time>
      </trkpt>
      <trkpt lat="43.29352" lon="2.4746">
        <ele>223</ele>
        <time>2021-09-07T05:59:38Z</time>
      </trkpt>
      <trkpt lat="43.29351" lon="2.47455">
        <ele>223</ele>
        <time>2021-09-07T05:59:40Z</time>
      </trkpt>
      <trkpt lat="43.29351" lon="2.47452">
        <ele>223.1</ele>
        <time>2021-09-07T05:59:41Z</time>
      </trkpt>
      <trkpt lat="43.29349" lon="2.47448">
        <ele>223.1</ele>
        <time>2021-09-07T05:59:43Z</time>
      </trkpt>
      <trkpt lat="43.29347" lon="2.47445">
        <ele>223</ele>
        <time>2021-09-07T05:59:45Z</time>
      </trkpt>
      <trkpt lat="43.29345" lon="2.47443">
        <ele>223</ele>
        <time>2021-09-07T05:59:47Z</time>
      </trkpt>
      <trkpt lat="43.29345" lon="2.47442">
        <ele>223</ele>
        <time>2021-09-07T05:59:48Z</time>
      </trkpt>
      <trkpt lat="43.29345" lon="2.4744">
        <ele>223</ele>
        <time>2021-09-07T05:59:50Z</time>
      </trkpt>
      <trkpt lat="43.29342" lon="2.47438">
        <ele>222.9</ele>
        <time>2021-09-07T05:59:52Z</time>
      </trkpt>
      <trkpt lat="43.29339" lon="2.47434">
        <ele>222.7</ele>
        <time>2021-09-07T05:59:54Z</time>
      </trkpt>
      <trkpt lat="43.29337" lon="2.47432">
        <ele>222.5</ele>
        <time>2021-09-07T05:59:55Z</time>
      </trkpt>
      <trkpt lat="43.29334" lon="2.47428">
        <ele>222.3</ele>
        <time>2021-09-07T05:59:57Z</time>
      </trkpt>
      <trkpt lat="43.29333" lon="2.47426">
        <ele>222.1</ele>
        <time>2021-09-07T05:59:58Z</time>
      </trkpt>
      <trkpt lat="43.2933" lon="2.47422">
        <ele>221.9</ele>
        <time>2021-09-07T06:00:00Z</time>
      </trkpt>
      <trkpt lat="43.29329" lon="2.4742">
        <ele>221.7</ele>
        <time>2021-09-07T06:00:01Z</time>
      </trkpt>
      <trkpt lat="43.29326" lon="2.47415">
        <ele>221.4</ele>
        <time>2021-09-07T06:00:03Z</time>
      </trkpt>
      <trkpt lat="43.29323" lon="2.47411">
        <ele>221</ele>
        <time>2021-09-07T06:00:05Z</time>
      </trkpt>
      <trkpt lat="43.29322" lon="2.47409">
        <ele>220.9</ele>
        <time>2021-09-07T06:00:06Z</time>
      </trkpt>
      <trkpt lat="43.29319" lon="2.47407">
        <ele>220.6</ele>
        <time>2021-09-07T06:00:08Z</time>
      </trkpt>
      <trkpt lat="43.29317" lon="2.47404">
        <ele>220.4</ele>
        <time>2021-09-07T06:00:10Z</time>
      </trkpt>
      <trkpt lat="43.29314" lon="2.47402">
        <ele>220.1</ele>
        <time>2021-09-07T06:00:12Z</time>
      </trkpt>
      <trkpt lat="43.2931" lon="2.47398">
        <ele>219.7</ele>
        <time>2021-09-07T06:00:14Z</time>
      </trkpt>
      <trkpt lat="43.29306" lon="2.47393">
        <ele>219.2</ele>
        <time>2021-09-07T06:00:16Z</time>
      </trkpt>
      <trkpt lat="43.29304" lon="2.47391">
        <ele>219</ele>
        <time>2021-09-07T06:00:17Z</time>
      </trkpt>
      <trkpt lat="43.293" lon="2.47387">
        <ele>218.6</ele>
        <time>2021-09-07T06:00:19Z</time>
      </trkpt>
      <trkpt lat="43.29297" lon="2.47382">
        <ele>218.2</ele>
        <time>2021-09-07T06:00:21Z</time>
      </trkpt>
      <trkpt lat="43.29293" lon="2.47377">
        <ele>217.8</ele>
        <time>2021-09-07T06:00:23Z</time>
      </trkpt>
      <trkpt lat="43.29291" lon="2.47375">
        <ele>217.6</ele>
        <time>2021-09-07T06:00:24Z</time>
      </trkpt>
      <trkpt lat="43.29287" lon="2.4737">
        <ele>217.3</ele>
        <time>2021-09-07T06:00:26Z</time>
      </trkpt>
      <trkpt lat="43.29284" lon="2.47365">
        <ele>216.9</ele>
        <time>2021-09-07T06:00:28Z</time>
      </trkpt>
      <trkpt lat="43.2928" lon="2.4736">
        <ele>216.6</ele>
        <time>2021-09-07T06:00:30Z</time>
      </trkpt>
      <trkpt lat="43.29278" lon="2.47358">
        <ele>216.4</ele>
        <time>2021-09-07T06:00:31Z</time>
      </trkpt>
      <trkpt lat="43.29274" lon="2.47352">
        <ele>216.1</ele>
        <time>2021-09-07T06:00:33Z</time>
      </trkpt>
      <trkpt lat="43.29271" lon="2.47346">
        <ele>215.8</ele>
        <time>2021-09-07T06:00:35Z</time>
      </trkpt>
      <trkpt lat="43.29269" lon="2.47343">
        <ele>215.6</ele>
        <time>2021-09-07T06:00:36Z</time>
      </trkpt>
      <trkpt lat="43.29266" lon="2.47338">
        <ele>215.3</ele>
        <time>2021-09-07T06:00:38Z</time>
      </trkpt>
      <trkpt lat="43.29263" lon="2.47333">
        <ele>215.1</ele>
        <time>2021-09-07T06:00:39Z</time>
      </trkpt>
      <trkpt lat="43.29262" lon="2.47332">
        <ele>215.1</ele>
        <time>2021-09-07T06:00:40Z</time>
      </trkpt>
      <trkpt lat="43.29259" lon="2.47326">
        <ele>214.8</ele>
        <time>2021-09-07T06:00:42Z</time>
      </trkpt>
      <trkpt lat="43.29257" lon="2.47323">
        <ele>214.7</ele>
        <time>2021-09-07T06:00:43Z</time>
      </trkpt>
      <trkpt lat="43.29255" lon="2.4732">
        <ele>214.6</ele>
        <time>2021-09-07T06:00:44Z</time>
      </trkpt>
      <trkpt lat="43.2925" lon="2.47314">
        <ele>214.4</ele>
        <time>2021-09-07T06:00:46Z</time>
      </trkpt>
      <trkpt lat="43.29248" lon="2.47311">
        <ele>214.3</ele>
        <time>2021-09-07T06:00:47Z</time>
      </trkpt>
      <trkpt lat="43.29244" lon="2.47306">
        <ele>214.1</ele>
        <time>2021-09-07T06:00:49Z</time>
      </trkpt>
      <trkpt lat="43.2924" lon="2.47301">
        <ele>214</ele>
        <time>2021-09-07T06:00:51Z</time>
      </trkpt>
      <trkpt lat="43.29237" lon="2.47296">
        <ele>213.8</ele>
        <time>2021-09-07T06:00:53Z</time>
      </trkpt>
      <trkpt lat="43.29234" lon="2.47294">
        <ele>213.8</ele>
        <time>2021-09-07T06:00:54Z</time>
      </trkpt>
      <trkpt lat="43.29231" lon="2.47289">
        <ele>213.7</ele>
        <time>2021-09-07T06:00:56Z</time>
      </trkpt>
      <trkpt lat="43.29229" lon="2.47287">
        <ele>213.6</ele>
        <time>2021-09-07T06:00:57Z</time>
      </trkpt>
      <trkpt lat="43.29225" lon="2.47283">
        <ele>213.5</ele>
        <time>2021-09-07T06:00:59Z</time>
      </trkpt>
      <trkpt lat="43.29221" lon="2.47279">
        <ele>213.5</ele>
        <time>2021-09-07T06:01:01Z</time>
      </trkpt>
      <trkpt lat="43.29218" lon="2.47277">
        <ele>213.5</ele>
        <time>2021-09-07T06:01:02Z</time>
      </trkpt>
      <trkpt lat="43.29215" lon="2.47274">
        <ele>213.4</ele>
        <time>2021-09-07T06:01:04Z</time>
      </trkpt>
      <trkpt lat="43.29213" lon="2.47272">
        <ele>213.4</ele>
        <time>2021-09-07T06:01:05Z</time>
      </trkpt>
      <trkpt lat="43.29209" lon="2.47268">
        <ele>213.3</ele>
        <time>2021-09-07T06:01:07Z</time>
      </trkpt>
      <trkpt lat="43.29206" lon="2.47265">
        <ele>213.3</ele>
        <time>2021-09-07T06:01:08Z</time>
      </trkpt>
      <trkpt lat="43.29205" lon="2.47265">
        <ele>213.3</ele>
        <time>2021-09-07T06:01:09Z</time>
      </trkpt>
      <trkpt lat="43.29201" lon="2.47261">
        <ele>213.2</ele>
        <time>2021-09-07T06:01:11Z</time>
      </trkpt>
      <trkpt lat="43.29197" lon="2.47258">
        <ele>213.1</ele>
        <time>2021-09-07T06:01:13Z</time>
      </trkpt>
      <trkpt lat="43.29194" lon="2.47255">
        <ele>213.1</ele>
        <time>2021-09-07T06:01:14Z</time>
      </trkpt>
      <trkpt lat="43.29193" lon="2.47255">
        <ele>213.1</ele>
        <time>2021-09-07T06:01:15Z</time>
      </trkpt>
      <trkpt lat="43.29191" lon="2.47253">
        <ele>213</ele>
        <time>2021-09-07T06:01:16Z</time>
      </trkpt>
      <trkpt lat="43.29186" lon="2.4725">
        <ele>213</ele>
        <time>2021-09-07T06:01:18Z</time>
      </trkpt>
      <trkpt lat="43.29184" lon="2.47249">
        <ele>213</ele>
        <time>2021-09-07T06:01:19Z</time>
      </trkpt>
      <trkpt lat="43.2918" lon="2.47246">
        <ele>213</ele>
        <time>2021-09-07T06:01:21Z</time>
      </trkpt>
      <trkpt lat="43.29175" lon="2.47243">
        <ele>213</ele>
        <time>2021-09-07T06:01:23Z</time>
      </trkpt>
      <trkpt lat="43.29173" lon="2.47241">
        <ele>213</ele>
        <time>2021-09-07T06:01:24Z</time>
      </trkpt>
      <trkpt lat="43.29169" lon="2.47237">
        <ele>213</ele>
        <time>2021-09-07T06:01:26Z</time>
      </trkpt>
      <trkpt lat="43.29167" lon="2.47235">
        <ele>213</ele>
        <time>2021-09-07T06:01:27Z</time>
      </trkpt>
      <trkpt lat="43.29164" lon="2.47231">
        <ele>213</ele>
        <time>2021-09-07T06:01:29Z</time>
      </trkpt>
      <trkpt lat="43.29162" lon="2.47229">
        <ele>213</ele>
        <time>2021-09-07T06:01:30Z</time>
      </trkpt>
      <trkpt lat="43.29159" lon="2.47225">
        <ele>213</ele>
        <time>2021-09-07T06:01:32Z</time>
      </trkpt>
      <trkpt lat="43.29158" lon="2.47223">
        <ele>213</ele>
        <time>2021-09-07T06:01:34Z</time>
      </trkpt>
      <trkpt lat="43.29157" lon="2.47221">
        <ele>213</ele>
        <time>2021-09-07T06:01:35Z</time>
      </trkpt>
      <trkpt lat="43.29156" lon="2.47218">
        <ele>213</ele>
        <time>2021-09-07T06:01:37Z</time>
      </trkpt>
      <trkpt lat="43.29155" lon="2.47216">
        <ele>213</ele>
        <time>2021-09-07T06:01:38Z</time>
      </trkpt>
      <trkpt lat="43.29155" lon="2.47213">
        <ele>213</ele>
        <time>2021-09-07T06:01:40Z</time>
      </trkpt>
      <trkpt lat="43.29155" lon="2.47212">
        <ele>213</ele>
        <time>2021-09-07T06:01:41Z</time>
      </trkpt>
      <trkpt lat="43.29156" lon="2.47212">
        <ele>213</ele>
        <time>2021-09-07T06:01:42Z</time>
      </trkpt>
      <trkpt lat="43.29156" lon="2.47214">
        <ele>213</ele>
        <time>2021-09-07T06:01:44Z</time>
      </trkpt>
      <trkpt lat="43.29157" lon="2.47214">
        <ele>213</ele>
        <time>2021-09-07T06:01:46Z</time>
      </trkpt>
      <trkpt lat="43.29157" lon="2.47214">
        <ele>213</ele>
        <time>2021-09-07T06:01:48Z</time>
      </trkpt>
      <trkpt lat="43.29157" lon="2.47213">
        <ele>213</ele>
        <time>2021-09-07T06:01:49Z</time>
      </trkpt>
      <trkpt lat="43.29157" lon="2.47213">
        <ele>213</ele>
        <time>2021-09-07T06:01:51Z</time>
      </trkpt>
      <trkpt lat="43.29157" lon="2.47213">
        <ele>213</ele>
        <time>2021-09-07T06:01:52Z</time>
      </trkpt>
      <trkpt lat="43.29157" lon="2.47213">
        <ele>213</ele>
        <time>2021-09-07T06:01:54Z</time>
      </trkpt>
      <trkpt lat="43.29157" lon="2.47213">
        <ele>213</ele>
        <time>2021-09-07T06:01:55Z</time>
      </trkpt>
      <trkpt lat="43.29158" lon="2.47213">
        <ele>213</ele>
        <time>2021-09-07T06:01:57Z</time>
      </trkpt>
      <trkpt lat="43.29158" lon="2.47213">
        <ele>213</ele>
        <time>2021-09-07T06:01:58Z</time>
      </trkpt>
      <trkpt lat="43.29158" lon="2.47213">
        <ele>213</ele>
        <time>2021-09-07T06:02:00Z</time>
      </trkpt>
      <trkpt lat="43.29158" lon="2.47213">
        <ele>213</ele>
        <time>2021-09-07T06:02:01Z</time>
      </trkpt>
      <trkpt lat="43.29158" lon="2.47213">
        <ele>213</ele>
        <time>2021-09-07T06:02:03Z</time>
      </trkpt>
      <trkpt lat="43.29158" lon="2.47213">
        <ele>213</ele>
        <time>2021-09-07T06:02:05Z</time>
      </trkpt>
      <trkpt lat="43.29158" lon="2.47213">
        <ele>213</ele>
        <time>2021-09-07T06:02:06Z</time>
      </trkpt>
      <trkpt lat="43.29158" lon="2.47213">
        <ele>213</ele>
        <time>2021-09-07T06:02:08Z</time>
      </trkpt>
      <trkpt lat="43.29158" lon="2.47213">
        <ele>213</ele>
        <time>2021-09-07T06:02:09Z</time>
      </trkpt>
      <trkpt lat="43.29158" lon="2.47213">
        <ele>213</ele>
        <time>2021-09-07T06:02:11Z</time>
      </trkpt>
      <trkpt lat="43.29158" lon="2.47213">
        <ele>213</ele>
        <time>2021-09-07T06:02:12Z</time>
      </trkpt>
      <trkpt lat="43.29158" lon="2.47213">
        <ele>213</ele>
        <time>2021-09-07T06:02:14Z</time>
      </trkpt>
      <trkpt lat="43.29158" lon="2.47213">
        <ele>213</ele>
        <time>2021-09-07T06:02:15Z</time>
      </trkpt>
      <trkpt lat="43.29158" lon="2.47213">
        <ele>213</ele>
        <time>2021-09-07T06:02:16Z</time>
      </trkpt>
      <trkpt lat="43.29158" lon="2.47212">
        <ele>213</ele>
        <time>2021-09-07T06:02:18Z</time>
      </trkpt>
      <trkpt lat="43.29157" lon="2.47211">
        <ele>213</ele>
        <time>2021-09-07T06:02:20Z</time>
      </trkpt>
      <trkpt lat="43.29157" lon="2.47211">
        <ele>213</ele>
        <time>2021-09-07T06:02:22Z</time>
      </trkpt>
      <trkpt lat="43.29157" lon="2.47212">
        <ele>213.1</ele>
        <time>2021-09-07T06:02:24Z</time>
      </trkpt>
      <trkpt lat="43.29157" lon="2.47213">
        <ele>213.1</ele>
        <time>2021-09-07T06:02:25Z</time>
      </trkpt>
      <trkpt lat="43.29157" lon="2.47213">
        <ele>213.1</ele>
        <time>2021-09-07T06:02:26Z</time>
      </trkpt>
      <trkpt lat="43.29157" lon="2.47214">
        <ele>213.1</ele>
        <time>2021-09-07T06:02:27Z</time>
      </trkpt>
      <trkpt lat="43.29156" lon="2.47214">
        <ele>213.1</ele>
        <time>2021-09-07T06:02:29Z</time>
      </trkpt>
      <trkpt lat="43.29155" lon="2.47214">
        <ele>213.1</ele>
        <time>2021-09-07T06:02:31Z</time>
      </trkpt>
      <trkpt lat="43.29153" lon="2.47214">
        <ele>213.1</ele>
        <time>2021-09-07T06:02:33Z</time>
      </trkpt>
      <trkpt lat="43.29152" lon="2.47213">
        <ele>213.1</ele>
        <time>2021-09-07T06:02:34Z</time>
      </trkpt>
      <trkpt lat="43.2915" lon="2.47211">
        <ele>213.1</ele>
        <time>2021-09-07T06:02:36Z</time>
      </trkpt>
      <trkpt lat="43.29148" lon="2.47209">
        <ele>213.1</ele>
        <time>2021-09-07T06:02:38Z</time>
      </trkpt>
      <trkpt lat="43.29147" lon="2.47208">
        <ele>213.1</ele>
        <time>2021-09-07T06:02:40Z</time>
      </trkpt>
      <trkpt lat="43.29146" lon="2.47208">
        <ele>213.1</ele>
        <time>2021-09-07T06:02:41Z</time>
      </trkpt>
      <trkpt lat="43.29146" lon="2.47208">
        <ele>213.1</ele>
        <time>2021-09-07T06:02:43Z</time>
      </trkpt>
      <trkpt lat="43.29146" lon="2.47208">
        <ele>213.1</ele>
        <time>2021-09-07T06:02:45Z</time>
      </trkpt>
      <trkpt lat="43.29146" lon="2.47209">
        <ele>213.1</ele>
        <time>2021-09-07T06:02:47Z</time>
      </trkpt>
      <trkpt lat="43.29146" lon="2.47209">
        <ele>213</ele>
        <time>2021-09-07T06:02:49Z</time>
      </trkpt>
      <trkpt lat="43.29145" lon="2.47209">
        <ele>213</ele>
        <time>2021-09-07T06:02:51Z</time>
      </trkpt>
      <trkpt lat="43.29145" lon="2.47209">
        <ele>213</ele>
        <time>2021-09-07T06:02:52Z</time>
      </trkpt>
      <trkpt lat="43.29145" lon="2.4721">
        <ele>213</ele>
        <time>2021-09-07T06:02:54Z</time>
      </trkpt>
      <trkpt lat="43.29145" lon="2.4721">
        <ele>213</ele>
        <time>2021-09-07T06:02:56Z</time>
      </trkpt>
      <trkpt lat="43.29145" lon="2.4721">
        <ele>213</ele>
        <time>2021-09-07T06:02:58Z</time>
      </trkpt>
      <trkpt lat="43.29145" lon="2.47211">
        <ele>213</ele>
        <time>2021-09-07T06:03:00Z</time>
      </trkpt>
      <trkpt lat="43.29145" lon="2.47211">
        <ele>213</ele>
        <time>2021-09-07T06:03:01Z</time>
      </trkpt>
      <trkpt lat="43.29145" lon="2.47211">
        <ele>213</ele>
        <time>2021-09-07T06:03:03Z</time>
      </trkpt>
      <trkpt lat="43.29145" lon="2.47212">
        <ele>213</ele>
        <time>2021-09-07T06:03:05Z</time>
      </trkpt>
      <trkpt lat="43.29145" lon="2.47212">
        <ele>213</ele>
        <time>2021-09-07T06:03:06Z</time>
      </trkpt>
      <trkpt lat="43.29145" lon="2.47212">
        <ele>213</ele>
        <time>2021-09-07T06:03:07Z</time>
      </trkpt>
      <trkpt lat="43.29145" lon="2.47212">
        <ele>213</ele>
        <time>2021-09-07T06:03:08Z</time>
      </trkpt>
      <trkpt lat="43.29144" lon="2.47215">
        <ele>212.9</ele>
        <time>2021-09-07T06:03:09Z</time>
      </trkpt>
      <trkpt lat="43.29141" lon="2.47218">
        <ele>212.8</ele>
        <time>2021-09-07T06:03:11Z</time>
      </trkpt>
      <trkpt lat="43.29137" lon="2.47221">
        <ele>212.6</ele>
        <time>2021-09-07T06:03:13Z</time>
      </trkpt>
      <trkpt lat="43.29135" lon="2.47223">
        <ele>212.5</ele>
        <time>2021-09-07T06:03:14Z</time>
      </trkpt>
      <trkpt lat="43.29131" lon="2.47227">
        <ele>212.4</ele>
        <time>2021-09-07T06:03:16Z</time>
      </trkpt>
      <trkpt lat="43.29128" lon="2.47232">
        <ele>212.2</ele>
        <time>2021-09-07T06:03:18Z</time>
      </trkpt>
      <trkpt lat="43.29125" lon="2.47236">
        <ele>212.1</ele>
        <time>2021-09-07T06:03:20Z</time>
      </trkpt>
      <trkpt lat="43.29123" lon="2.47238">
        <ele>212</ele>
        <time>2021-09-07T06:03:21Z</time>
      </trkpt>
      <trkpt lat="43.29118" lon="2.47242">
        <ele>211.8</ele>
        <time>2021-09-07T06:03:23Z</time>
      </trkpt>
      <trkpt lat="43.29115" lon="2.47245">
        <ele>211.6</ele>
        <time>2021-09-07T06:03:24Z</time>
      </trkpt>
      <trkpt lat="43.29114" lon="2.47246">
        <ele>211.6</ele>
        <time>2021-09-07T06:03:25Z</time>
      </trkpt>
      <trkpt lat="43.29112" lon="2.47247">
        <ele>211.4</ele>
        <time>2021-09-07T06:03:26Z</time>
      </trkpt>
      <trkpt lat="43.29108" lon="2.47249">
        <ele>211.2</ele>
        <time>2021-09-07T06:03:28Z</time>
      </trkpt>
      <trkpt lat="43.29104" lon="2.4725">
        <ele>211</ele>
        <time>2021-09-07T06:03:30Z</time>
      </trkpt>
      <trkpt lat="43.29099" lon="2.47251">
        <ele>210.8</ele>
        <time>2021-09-07T06:03:32Z</time>
      </trkpt>
      <trkpt lat="43.29094" lon="2.4725">
        <ele>210.5</ele>
        <time>2021-09-07T06:03:34Z</time>
      </trkpt>
      <trkpt lat="43.2909" lon="2.47251">
        <ele>210.3</ele>
        <time>2021-09-07T06:03:35Z</time>
      </trkpt>
      <trkpt lat="43.29089" lon="2.47251">
        <ele>210.2</ele>
        <time>2021-09-07T06:03:36Z</time>
      </trkpt>
      <trkpt lat="43.29086" lon="2.47252">
        <ele>210.1</ele>
        <time>2021-09-07T06:03:37Z</time>
      </trkpt>
      <trkpt lat="43.29081" lon="2.47255">
        <ele>209.8</ele>
        <time>2021-09-07T06:03:39Z</time>
      </trkpt>
      <trkpt lat="43.29076" lon="2.47258">
        <ele>209.5</ele>
        <time>2021-09-07T06:03:41Z</time>
      </trkpt>
      <trkpt lat="43.29074" lon="2.4726">
        <ele>209.3</ele>
        <time>2021-09-07T06:03:42Z</time>
      </trkpt>
      <trkpt lat="43.29071" lon="2.47263">
        <ele>209.1</ele>
        <time>2021-09-07T06:03:44Z</time>
      </trkpt>
      <trkpt lat="43.29072" lon="2.47263">
        <ele>209.1</ele>
        <time>2021-09-07T06:03:46Z</time>
      </trkpt>
      <trkpt lat="43.29072" lon="2.47263">
        <ele>209.1</ele>
        <time>2021-09-07T06:03:47Z</time>
      </trkpt>
      <trkpt lat="43.29072" lon="2.47263">
        <ele>209.1</ele>
        <time>2021-09-07T06:03:49Z</time>
      </trkpt>
      <trkpt lat="43.29071" lon="2.47264">
        <ele>209</ele>
        <time>2021-09-07T06:03:50Z</time>
      </trkpt>
      <trkpt lat="43.29067" lon="2.47267">
        <ele>208.9</ele>
        <time>2021-09-07T06:03:52Z</time>
      </trkpt>
      <trkpt lat="43.29064" lon="2.47269">
        <ele>208.7</ele>
        <time>2021-09-07T06:03:53Z</time>
      </trkpt>
      <trkpt lat="43.29063" lon="2.47269">
        <ele>208.7</ele>
        <time>2021-09-07T06:03:54Z</time>
      </trkpt>
      <trkpt lat="43.29061" lon="2.47271">
        <ele>208.6</ele>
        <time>2021-09-07T06:03:55Z</time>
      </trkpt>
      <trkpt lat="43.29056" lon="2.47273">
        <ele>208.4</ele>
        <time>2021-09-07T06:03:57Z</time>
      </trkpt>
      <trkpt lat="43.29052" lon="2.47275">
        <ele>208.3</ele>
        <time>2021-09-07T06:03:59Z</time>
      </trkpt>
      <trkpt lat="43.2905" lon="2.47275">
        <ele>208.2</ele>
        <time>2021-09-07T06:04:00Z</time>
      </trkpt>
      <trkpt lat="43.29045" lon="2.47275">
        <ele>208</ele>
        <time>2021-09-07T06:04:02Z</time>
      </trkpt>
      <trkpt lat="43.2904" lon="2.47276">
        <ele>207.8</ele>
        <time>2021-09-07T06:04:04Z</time>
      </trkpt>
      <trkpt lat="43.29036" lon="2.47277">
        <ele>207.6</ele>
        <time>2021-09-07T06:04:06Z</time>
      </trkpt>
      <trkpt lat="43.2903" lon="2.47278">
        <ele>207.4</ele>
        <time>2021-09-07T06:04:08Z</time>
      </trkpt>
      <trkpt lat="43.29026" lon="2.47278">
        <ele>207.2</ele>
        <time>2021-09-07T06:04:10Z</time>
      </trkpt>
      <trkpt lat="43.29023" lon="2.47279">
        <ele>207</ele>
        <time>2021-09-07T06:04:11Z</time>
      </trkpt>
      <trkpt lat="43.29022" lon="2.47279">
        <ele>207</ele>
        <time>2021-09-07T06:04:12Z</time>
      </trkpt>
      <trkpt lat="43.2902" lon="2.4728">
        <ele>206.8</ele>
        <time>2021-09-07T06:04:13Z</time>
      </trkpt>
      <trkpt lat="43.29014" lon="2.47282">
        <ele>206.5</ele>
        <time>2021-09-07T06:04:15Z</time>
      </trkpt>
      <trkpt lat="43.29009" lon="2.47285">
        <ele>206.1</ele>
        <time>2021-09-07T06:04:17Z</time>
      </trkpt>
      <trkpt lat="43.29006" lon="2.47286">
        <ele>205.9</ele>
        <time>2021-09-07T06:04:18Z</time>
      </trkpt>
      <trkpt lat="43.29001" lon="2.47289">
        <ele>205.5</ele>
        <time>2021-09-07T06:04:20Z</time>
      </trkpt>
      <trkpt lat="43.28997" lon="2.47291">
        <ele>205.3</ele>
        <time>2021-09-07T06:04:21Z</time>
      </trkpt>
      <trkpt lat="43.28996" lon="2.47292">
        <ele>205.2</ele>
        <time>2021-09-07T06:04:22Z</time>
      </trkpt>
      <trkpt lat="43.28992" lon="2.47294">
        <ele>204.9</ele>
        <time>2021-09-07T06:04:24Z</time>
      </trkpt>
      <trkpt lat="43.28989" lon="2.47297">
        <ele>204.7</ele>
        <time>2021-09-07T06:04:25Z</time>
      </trkpt>
      <trkpt lat="43.28988" lon="2.47297">
        <ele>204.6</ele>
        <time>2021-09-07T06:04:26Z</time>
      </trkpt>
      <trkpt lat="43.28984" lon="2.47301">
        <ele>204.3</ele>
        <time>2021-09-07T06:04:28Z</time>
      </trkpt>
      <trkpt lat="43.28981" lon="2.47302">
        <ele>204.1</ele>
        <time>2021-09-07T06:04:29Z</time>
      </trkpt>
      <trkpt lat="43.28977" lon="2.47305">
        <ele>203.8</ele>
        <time>2021-09-07T06:04:31Z</time>
      </trkpt>
      <trkpt lat="43.28972" lon="2.47308">
        <ele>203.3</ele>
        <time>2021-09-07T06:04:33Z</time>
      </trkpt>
      <trkpt lat="43.28966" lon="2.4731">
        <ele>202.9</ele>
        <time>2021-09-07T06:04:35Z</time>
      </trkpt>
      <trkpt lat="43.2896" lon="2.4731">
        <ele>202.6</ele>
        <time>2021-09-07T06:04:37Z</time>
      </trkpt>
      <trkpt lat="43.28957" lon="2.47311">
        <ele>202.4</ele>
        <time>2021-09-07T06:04:38Z</time>
      </trkpt>
      <trkpt lat="43.28954" lon="2.47311">
        <ele>202.3</ele>
        <time>2021-09-07T06:04:39Z</time>
      </trkpt>
      <trkpt lat="43.28951" lon="2.47312">
        <ele>202.1</ele>
        <time>2021-09-07T06:04:40Z</time>
      </trkpt>
      <trkpt lat="43.28945" lon="2.47312">
        <ele>201.7</ele>
        <time>2021-09-07T06:04:42Z</time>
      </trkpt>
      <trkpt lat="43.28939" lon="2.47312">
        <ele>201.4</ele>
        <time>2021-09-07T06:04:44Z</time>
      </trkpt>
      <trkpt lat="43.28934" lon="2.47311">
        <ele>201</ele>
        <time>2021-09-07T06:04:46Z</time>
      </trkpt>
      <trkpt lat="43.28929" lon="2.47308">
        <ele>200.7</ele>
        <time>2021-09-07T06:04:48Z</time>
      </trkpt>
      <trkpt lat="43.28927" lon="2.47307">
        <ele>200.5</ele>
        <time>2021-09-07T06:04:49Z</time>
      </trkpt>
      <trkpt lat="43.28926" lon="2.47306">
        <ele>200.4</ele>
        <time>2021-09-07T06:04:50Z</time>
      </trkpt>
      <trkpt lat="43.28926" lon="2.47306">
        <ele>200.3</ele>
        <time>2021-09-07T06:04:52Z</time>
      </trkpt>
      <trkpt lat="43.28925" lon="2.47305">
        <ele>200.3</ele>
        <time>2021-09-07T06:04:54Z</time>
      </trkpt>
      <trkpt lat="43.28925" lon="2.47305">
        <ele>200.3</ele>
        <time>2021-09-07T06:04:55Z</time>
      </trkpt>
      <trkpt lat="43.28925" lon="2.47305">
        <ele>200.3</ele>
        <time>2021-09-07T06:04:57Z</time>
      </trkpt>
      <trkpt lat="43.28925" lon="2.47305">
        <ele>200.3</ele>
        <time>2021-09-07T06:04:59Z</time>
      </trkpt>
      <trkpt lat="43.28925" lon="2.47305">
        <ele>200.3</ele>
        <time>2021-09-07T06:05:01Z</time>
      </trkpt>
      <trkpt lat="43.28923" lon="2.47304">
        <ele>200.1</ele>
        <time>2021-09-07T06:05:03Z</time>
      </trkpt>
      <trkpt lat="43.2892" lon="2.47302">
        <ele>199.9</ele>
        <time>2021-09-07T06:05:04Z</time>
      </trkpt>
      <trkpt lat="43.28917" lon="2.473">
        <ele>199.6</ele>
        <time>2021-09-07T06:05:05Z</time>
      </trkpt>
      <trkpt lat="43.28915" lon="2.47298">
        <ele>199.4</ele>
        <time>2021-09-07T06:05:06Z</time>
      </trkpt>
      <trkpt lat="43.28911" lon="2.47295">
        <ele>199</ele>
        <time>2021-09-07T06:05:07Z</time>
      </trkpt>
      <trkpt lat="43.2891" lon="2.47294">
        <ele>198.9</ele>
        <time>2021-09-07T06:05:08Z</time>
      </trkpt>
      <trkpt lat="43.28905" lon="2.47291">
        <ele>198.4</ele>
        <time>2021-09-07T06:05:10Z</time>
      </trkpt>
      <trkpt lat="43.28902" lon="2.47289">
        <ele>198.1</ele>
        <time>2021-09-07T06:05:11Z</time>
      </trkpt>
      <trkpt lat="43.28899" lon="2.47288">
        <ele>197.9</ele>
        <time>2021-09-07T06:05:12Z</time>
      </trkpt>
      <trkpt lat="43.28895" lon="2.47287">
        <ele>197.5</ele>
        <time>2021-09-07T06:05:14Z</time>
      </trkpt>
      <trkpt lat="43.2889" lon="2.47284">
        <ele>197.2</ele>
        <time>2021-09-07T06:05:16Z</time>
      </trkpt>
      <trkpt lat="43.28885" lon="2.47281">
        <ele>196.8</ele>
        <time>2021-09-07T06:05:18Z</time>
      </trkpt>
      <trkpt lat="43.28879" lon="2.47279">
        <ele>196.3</ele>
        <time>2021-09-07T06:05:20Z</time>
      </trkpt>
      <trkpt lat="43.28872" lon="2.47277">
        <ele>195.9</ele>
        <time>2021-09-07T06:05:22Z</time>
      </trkpt>
      <trkpt lat="43.28866" lon="2.47275">
        <ele>195.5</ele>
        <time>2021-09-07T06:05:24Z</time>
      </trkpt>
      <trkpt lat="43.28864" lon="2.47274">
        <ele>195.4</ele>
        <time>2021-09-07T06:05:25Z</time>
      </trkpt>
      <trkpt lat="43.28858" lon="2.47272">
        <ele>195.1</ele>
        <time>2021-09-07T06:05:27Z</time>
      </trkpt>
      <trkpt lat="43.28856" lon="2.47271">
        <ele>195</ele>
        <time>2021-09-07T06:05:28Z</time>
      </trkpt>
      <trkpt lat="43.28851" lon="2.47269">
        <ele>194.7</ele>
        <time>2021-09-07T06:05:30Z</time>
      </trkpt>
      <trkpt lat="43.28847" lon="2.47267">
        <ele>194.6</ele>
        <time>2021-09-07T06:05:31Z</time>
      </trkpt>
      <trkpt lat="43.28846" lon="2.47267">
        <ele>194.5</ele>
        <time>2021-09-07T06:05:32Z</time>
      </trkpt>
      <trkpt lat="43.28844" lon="2.47266">
        <ele>194.4</ele>
        <time>2021-09-07T06:05:33Z</time>
      </trkpt>
      <trkpt lat="43.28839" lon="2.47263">
        <ele>194.2</ele>
        <time>2021-09-07T06:05:35Z</time>
      </trkpt>
      <trkpt lat="43.28834" lon="2.4726">
        <ele>194</ele>
        <time>2021-09-07T06:05:37Z</time>
      </trkpt>
      <trkpt lat="43.28831" lon="2.47258">
        <ele>193.9</ele>
        <time>2021-09-07T06:05:38Z</time>
      </trkpt>
      <trkpt lat="43.28827" lon="2.47256">
        <ele>193.7</ele>
        <time>2021-09-07T06:05:40Z</time>
      </trkpt>
      <trkpt lat="43.28822" lon="2.47254">
        <ele>193.5</ele>
        <time>2021-09-07T06:05:42Z</time>
      </trkpt>
      <trkpt lat="43.28819" lon="2.47253">
        <ele>193.4</ele>
        <time>2021-09-07T06:05:43Z</time>
      </trkpt>
      <trkpt lat="43.28814" lon="2.47252">
        <ele>193.2</ele>
        <time>2021-09-07T06:05:45Z</time>
      </trkpt>
      <trkpt lat="43.28811" lon="2.47251">
        <ele>193.1</ele>
        <time>2021-09-07T06:05:46Z</time>
      </trkpt>
      <trkpt lat="43.28808" lon="2.47249">
        <ele>193</ele>
        <time>2021-09-07T06:05:48Z</time>
      </trkpt>
      <trkpt lat="43.28805" lon="2.4725">
        <ele>192.9</ele>
        <time>2021-09-07T06:05:50Z</time>
      </trkpt>
      <trkpt lat="43.28801" lon="2.4725">
        <ele>192.7</ele>
        <time>2021-09-07T06:05:52Z</time>
      </trkpt>
      <trkpt lat="43.28797" lon="2.47252">
        <ele>192.6</ele>
        <time>2021-09-07T06:05:54Z</time>
      </trkpt>
      <trkpt lat="43.28794" lon="2.47252">
        <ele>192.5</ele>
        <time>2021-09-07T06:05:55Z</time>
      </trkpt>
      <trkpt lat="43.28788" lon="2.47253">
        <ele>192.3</ele>
        <time>2021-09-07T06:05:57Z</time>
      </trkpt>
      <trkpt lat="43.28782" lon="2.47253">
        <ele>192.1</ele>
        <time>2021-09-07T06:05:59Z</time>
      </trkpt>
      <trkpt lat="43.28779" lon="2.47253">
        <ele>192</ele>
        <time>2021-09-07T06:06:00Z</time>
      </trkpt>
      <trkpt lat="43.28776" lon="2.47253">
        <ele>191.9</ele>
        <time>2021-09-07T06:06:01Z</time>
      </trkpt>
      <trkpt lat="43.28771" lon="2.47252">
        <ele>191.7</ele>
        <time>2021-09-07T06:06:03Z</time>
      </trkpt>
      <trkpt lat="43.28768" lon="2.47252">
        <ele>191.6</ele>
        <time>2021-09-07T06:06:04Z</time>
      </trkpt>
      <trkpt lat="43.28765" lon="2.47251">
        <ele>191.5</ele>
        <time>2021-09-07T06:06:05Z</time>
      </trkpt>
      <trkpt lat="43.28759" lon="2.47248">
        <ele>191.2</ele>
        <time>2021-09-07T06:06:07Z</time>
      </trkpt>
      <trkpt lat="43.28756" lon="2.47247">
        <ele>191.1</ele>
        <time>2021-09-07T06:06:08Z</time>
      </trkpt>
      <trkpt lat="43.2875" lon="2.47244">
        <ele>190.9</ele>
        <time>2021-09-07T06:06:10Z</time>
      </trkpt>
      <trkpt lat="43.28747" lon="2.47242">
        <ele>190.8</ele>
        <time>2021-09-07T06:06:11Z</time>
      </trkpt>
      <trkpt lat="43.28744" lon="2.4724">
        <ele>190.7</ele>
        <time>2021-09-07T06:06:12Z</time>
      </trkpt>
      <trkpt lat="43.28739" lon="2.47236">
        <ele>190.5</ele>
        <time>2021-09-07T06:06:14Z</time>
      </trkpt>
      <trkpt lat="43.28736" lon="2.47235">
        <ele>190.4</ele>
        <time>2021-09-07T06:06:15Z</time>
      </trkpt>
      <trkpt lat="43.28731" lon="2.47233">
        <ele>190.2</ele>
        <time>2021-09-07T06:06:17Z</time>
      </trkpt>
      <trkpt lat="43.28728" lon="2.47232">
        <ele>190.1</ele>
        <time>2021-09-07T06:06:18Z</time>
      </trkpt>
      <trkpt lat="43.28726" lon="2.47232">
        <ele>190</ele>
        <time>2021-09-07T06:06:19Z</time>
      </trkpt>
      <trkpt lat="43.28723" lon="2.4723">
        <ele>189.9</ele>
        <time>2021-09-07T06:06:20Z</time>
      </trkpt>
      <trkpt lat="43.28717" lon="2.47228">
        <ele>189.7</ele>
        <time>2021-09-07T06:06:22Z</time>
      </trkpt>
      <trkpt lat="43.28711" lon="2.47226">
        <ele>189.5</ele>
        <time>2021-09-07T06:06:24Z</time>
      </trkpt>
      <trkpt lat="43.28705" lon="2.47224">
        <ele>189.3</ele>
        <time>2021-09-07T06:06:26Z</time>
      </trkpt>
      <trkpt lat="43.28703" lon="2.47222">
        <ele>189.2</ele>
        <time>2021-09-07T06:06:27Z</time>
      </trkpt>
      <trkpt lat="43.28698" lon="2.47219">
        <ele>189</ele>
        <time>2021-09-07T06:06:29Z</time>
      </trkpt>
      <trkpt lat="43.28696" lon="2.47218">
        <ele>188.9</ele>
        <time>2021-09-07T06:06:30Z</time>
      </trkpt>
      <trkpt lat="43.28691" lon="2.47215">
        <ele>188.7</ele>
        <time>2021-09-07T06:06:32Z</time>
      </trkpt>
      <trkpt lat="43.28686" lon="2.47212">
        <ele>188.5</ele>
        <time>2021-09-07T06:06:34Z</time>
      </trkpt>
      <trkpt lat="43.28683" lon="2.47209">
        <ele>188.4</ele>
        <time>2021-09-07T06:06:36Z</time>
      </trkpt>
      <trkpt lat="43.28678" lon="2.47209">
        <ele>188.2</ele>
        <time>2021-09-07T06:06:38Z</time>
      </trkpt>
      <trkpt lat="43.28674" lon="2.4721">
        <ele>188.1</ele>
        <time>2021-09-07T06:06:40Z</time>
      </trkpt>
      <trkpt lat="43.28672" lon="2.47212">
        <ele>188</ele>
        <time>2021-09-07T06:06:41Z</time>
      </trkpt>
      <trkpt lat="43.28668" lon="2.47217">
        <ele>187.8</ele>
        <time>2021-09-07T06:06:43Z</time>
      </trkpt>
      <trkpt lat="43.28666" lon="2.47219">
        <ele>187.7</ele>
        <time>2021-09-07T06:06:44Z</time>
      </trkpt>
      <trkpt lat="43.28663" lon="2.47222">
        <ele>187.6</ele>
        <time>2021-09-07T06:06:46Z</time>
      </trkpt>
      <trkpt lat="43.28659" lon="2.47226">
        <ele>187.4</ele>
        <time>2021-09-07T06:06:48Z</time>
      </trkpt>
      <trkpt lat="43.28656" lon="2.47229">
        <ele>187.3</ele>
        <time>2021-09-07T06:06:50Z</time>
      </trkpt>
      <trkpt lat="43.28651" lon="2.47231">
        <ele>187.1</ele>
        <time>2021-09-07T06:06:52Z</time>
      </trkpt>
      <trkpt lat="43.28649" lon="2.47233">
        <ele>187</ele>
        <time>2021-09-07T06:06:53Z</time>
      </trkpt>
      <trkpt lat="43.28645" lon="2.47235">
        <ele>186.9</ele>
        <time>2021-09-07T06:06:55Z</time>
      </trkpt>
      <trkpt lat="43.28642" lon="2.47237">
        <ele>186.7</ele>
        <time>2021-09-07T06:06:57Z</time>
      </trkpt>
      <trkpt lat="43.28639" lon="2.4724">
        <ele>186.6</ele>
        <time>2021-09-07T06:06:59Z</time>
      </trkpt>
      <trkpt lat="43.28637" lon="2.47242">
        <ele>186.5</ele>
        <time>2021-09-07T06:07:00Z</time>
      </trkpt>
      <trkpt lat="43.28633" lon="2.47244">
        <ele>186.4</ele>
        <time>2021-09-07T06:07:02Z</time>
      </trkpt>
      <trkpt lat="43.28629" lon="2.47246">
        <ele>186.2</ele>
        <time>2021-09-07T06:07:04Z</time>
      </trkpt>
      <trkpt lat="43.28625" lon="2.47249">
        <ele>186.1</ele>
        <time>2021-09-07T06:07:06Z</time>
      </trkpt>
      <trkpt lat="43.28622" lon="2.47252">
        <ele>185.9</ele>
        <time>2021-09-07T06:07:08Z</time>
      </trkpt>
      <trkpt lat="43.28619" lon="2.47254">
        <ele>185.8</ele>
        <time>2021-09-07T06:07:09Z</time>
      </trkpt>
      <trkpt lat="43.28618" lon="2.47254">
        <ele>185.8</ele>
        <time>2021-09-07T06:07:10Z</time>
      </trkpt>
      <trkpt lat="43.28613" lon="2.47257">
        <ele>185.6</ele>
        <time>2021-09-07T06:07:12Z</time>
      </trkpt>
      <trkpt lat="43.28608" lon="2.4726">
        <ele>185.4</ele>
        <time>2021-09-07T06:07:14Z</time>
      </trkpt>
      <trkpt lat="43.28605" lon="2.47262">
        <ele>185.3</ele>
        <time>2021-09-07T06:07:15Z</time>
      </trkpt>
      <trkpt lat="43.286" lon="2.47265">
        <ele>185.1</ele>
        <time>2021-09-07T06:07:17Z</time>
      </trkpt>
      <trkpt lat="43.28597" lon="2.47267">
        <ele>185</ele>
        <time>2021-09-07T06:07:18Z</time>
      </trkpt>
      <trkpt lat="43.28592" lon="2.47269">
        <ele>184.8</ele>
        <time>2021-09-07T06:07:20Z</time>
      </trkpt>
      <trkpt lat="43.2859" lon="2.47269">
        <ele>184.7</ele>
        <time>2021-09-07T06:07:21Z</time>
      </trkpt>
      <trkpt lat="43.28584" lon="2.4727">
        <ele>184.5</ele>
        <time>2021-09-07T06:07:23Z</time>
      </trkpt>
      <trkpt lat="43.28578" lon="2.47268">
        <ele>184.3</ele>
        <time>2021-09-07T06:07:25Z</time>
      </trkpt>
      <trkpt lat="43.28572" lon="2.47266">
        <ele>184.1</ele>
        <time>2021-09-07T06:07:27Z</time>
      </trkpt>
      <trkpt lat="43.28569" lon="2.47264">
        <ele>184</ele>
        <time>2021-09-07T06:07:28Z</time>
      </trkpt>
      <trkpt lat="43.28564" lon="2.47262">
        <ele>183.8</ele>
        <time>2021-09-07T06:07:30Z</time>
      </trkpt>
      <trkpt lat="43.28561" lon="2.47262">
        <ele>183.7</ele>
        <time>2021-09-07T06:07:31Z</time>
      </trkpt>
      <trkpt lat="43.28555" lon="2.47261">
        <ele>183.5</ele>
        <time>2021-09-07T06:07:33Z</time>
      </trkpt>
      <trkpt lat="43.2855" lon="2.47261">
        <ele>183.3</ele>
        <time>2021-09-07T06:07:35Z</time>
      </trkpt>
      <trkpt lat="43.28543" lon="2.47261">
        <ele>183.1</ele>
        <time>2021-09-07T06:07:37Z</time>
      </trkpt>
      <trkpt lat="43.2854" lon="2.47261">
        <ele>183</ele>
        <time>2021-09-07T06:07:38Z</time>
      </trkpt>
      <trkpt lat="43.28535" lon="2.47259">
        <ele>182.8</ele>
        <time>2021-09-07T06:07:40Z</time>
      </trkpt>
      <trkpt lat="43.28532" lon="2.47258">
        <ele>182.4</ele>
        <time>2021-09-07T06:07:41Z</time>
      </trkpt>
      <trkpt lat="43.28531" lon="2.47257">
        <ele>182.3</ele>
        <time>2021-09-07T06:07:42Z</time>
      </trkpt>
      <trkpt lat="43.28527" lon="2.47259">
        <ele>182.2</ele>
        <time>2021-09-07T06:07:44Z</time>
      </trkpt>
      <trkpt lat="43.28525" lon="2.47262">
        <ele>182</ele>
        <time>2021-09-07T06:07:45Z</time>
      </trkpt>
      <trkpt lat="43.28521" lon="2.47268">
        <ele>181.8</ele>
        <time>2021-09-07T06:07:47Z</time>
      </trkpt>
      <trkpt lat="43.28518" lon="2.47273">
        <ele>181.6</ele>
        <time>2021-09-07T06:07:49Z</time>
      </trkpt>
      <trkpt lat="43.28516" lon="2.47276">
        <ele>181.5</ele>
        <time>2021-09-07T06:07:50Z</time>
      </trkpt>
      <trkpt lat="43.28513" lon="2.4728">
        <ele>181.4</ele>
        <time>2021-09-07T06:07:52Z</time>
      </trkpt>
      <trkpt lat="43.28513" lon="2.47281">
        <ele>181.3</ele>
        <time>2021-09-07T06:07:53Z</time>
      </trkpt>
      <trkpt lat="43.28511" lon="2.47282">
        <ele>181.3</ele>
        <time>2021-09-07T06:07:55Z</time>
      </trkpt>
      <trkpt lat="43.28511" lon="2.47282">
        <ele>181.3</ele>
        <time>2021-09-07T06:07:56Z</time>
      </trkpt>
      <trkpt lat="43.2851" lon="2.47282">
        <ele>181.3</ele>
        <time>2021-09-07T06:07:58Z</time>
      </trkpt>
      <trkpt lat="43.2851" lon="2.47282">
        <ele>181.3</ele>
        <time>2021-09-07T06:07:59Z</time>
      </trkpt>
      <trkpt lat="43.2851" lon="2.47281">
        <ele>181.3</ele>
        <time>2021-09-07T06:08:00Z</time>
      </trkpt>
      <trkpt lat="43.2851" lon="2.47281">
        <ele>181.3</ele>
        <time>2021-09-07T06:08:02Z</time>
      </trkpt>
      <trkpt lat="43.2851" lon="2.47281">
        <ele>181.2</ele>
        <time>2021-09-07T06:08:03Z</time>
      </trkpt>
      <trkpt lat="43.2851" lon="2.47281">
        <ele>181.2</ele>
        <time>2021-09-07T06:08:05Z</time>
      </trkpt>
      <trkpt lat="43.2851" lon="2.47281">
        <ele>181.2</ele>
        <time>2021-09-07T06:08:07Z</time>
      </trkpt>
      <trkpt lat="43.28509" lon="2.47282">
        <ele>181.2</ele>
        <time>2021-09-07T06:08:09Z</time>
      </trkpt>
      <trkpt lat="43.28507" lon="2.47283">
        <ele>181.2</ele>
        <time>2021-09-07T06:08:10Z</time>
      </trkpt>
      <trkpt lat="43.28505" lon="2.47286">
        <ele>181.1</ele>
        <time>2021-09-07T06:08:11Z</time>
      </trkpt>
      <trkpt lat="43.28504" lon="2.47287">
        <ele>181</ele>
        <time>2021-09-07T06:08:12Z</time>
      </trkpt>
      <trkpt lat="43.285" lon="2.47293">
        <ele>180.9</ele>
        <time>2021-09-07T06:08:14Z</time>
      </trkpt>
      <trkpt lat="43.28498" lon="2.47295">
        <ele>180.8</ele>
        <time>2021-09-07T06:08:15Z</time>
      </trkpt>
      <trkpt lat="43.28495" lon="2.47301">
        <ele>180.7</ele>
        <time>2021-09-07T06:08:17Z</time>
      </trkpt>
      <trkpt lat="43.28492" lon="2.47306">
        <ele>180.6</ele>
        <time>2021-09-07T06:08:19Z</time>
      </trkpt>
      <trkpt lat="43.28489" lon="2.47312">
        <ele>180.5</ele>
        <time>2021-09-07T06:08:21Z</time>
      </trkpt>
      <trkpt lat="43.28487" lon="2.47316">
        <ele>180.4</ele>
        <time>2021-09-07T06:08:22Z</time>
      </trkpt>
      <trkpt lat="43.28486" lon="2.47317">
        <ele>180.4</ele>
        <time>2021-09-07T06:08:23Z</time>
      </trkpt>
      <trkpt lat="43.28485" lon="2.4732">
        <ele>180.3</ele>
        <time>2021-09-07T06:08:24Z</time>
      </trkpt>
      <trkpt lat="43.28481" lon="2.47326">
        <ele>180.2</ele>
        <time>2021-09-07T06:08:26Z</time>
      </trkpt>
      <trkpt lat="43.2848" lon="2.47328">
        <ele>180.2</ele>
        <time>2021-09-07T06:08:27Z</time>
      </trkpt>
      <trkpt lat="43.28476" lon="2.47333">
        <ele>180.1</ele>
        <time>2021-09-07T06:08:29Z</time>
      </trkpt>
      <trkpt lat="43.28474" lon="2.47335">
        <ele>180</ele>
        <time>2021-09-07T06:08:30Z</time>
      </trkpt>
      <trkpt lat="43.28471" lon="2.4734">
        <ele>179.9</ele>
        <time>2021-09-07T06:08:32Z</time>
      </trkpt>
      <trkpt lat="43.28468" lon="2.47346">
        <ele>179.8</ele>
        <time>2021-09-07T06:08:34Z</time>
      </trkpt>
      <trkpt lat="43.28465" lon="2.47352">
        <ele>179.7</ele>
        <time>2021-09-07T06:08:36Z</time>
      </trkpt>
      <trkpt lat="43.28464" lon="2.47355">
        <ele>179.6</ele>
        <time>2021-09-07T06:08:37Z</time>
      </trkpt>
      <trkpt lat="43.28461" lon="2.47361">
        <ele>179.5</ele>
        <time>2021-09-07T06:08:39Z</time>
      </trkpt>
      <trkpt lat="43.2846" lon="2.47364">
        <ele>179.4</ele>
        <time>2021-09-07T06:08:40Z</time>
      </trkpt>
      <trkpt lat="43.28457" lon="2.47371">
        <ele>179.2</ele>
        <time>2021-09-07T06:08:42Z</time>
      </trkpt>
      <trkpt lat="43.28454" lon="2.47377">
        <ele>179.1</ele>
        <time>2021-09-07T06:08:44Z</time>
      </trkpt>
      <trkpt lat="43.28452" lon="2.4738">
        <ele>179</ele>
        <time>2021-09-07T06:08:45Z</time>
      </trkpt>
      <trkpt lat="43.28449" lon="2.47386">
        <ele>178.8</ele>
        <time>2021-09-07T06:08:47Z</time>
      </trkpt>
      <trkpt lat="43.28446" lon="2.47393">
        <ele>178.6</ele>
        <time>2021-09-07T06:08:49Z</time>
      </trkpt>
      <trkpt lat="43.28444" lon="2.474">
        <ele>178.5</ele>
        <time>2021-09-07T06:08:51Z</time>
      </trkpt>
      <trkpt lat="43.28441" lon="2.47406">
        <ele>178.3</ele>
        <time>2021-09-07T06:08:53Z</time>
      </trkpt>
      <trkpt lat="43.2844" lon="2.4741">
        <ele>178.2</ele>
        <time>2021-09-07T06:08:54Z</time>
      </trkpt>
      <trkpt lat="43.28439" lon="2.47412">
        <ele>178.2</ele>
        <time>2021-09-07T06:08:55Z</time>
      </trkpt>
      <trkpt lat="43.28438" lon="2.47418">
        <ele>178</ele>
        <time>2021-09-07T06:08:57Z</time>
      </trkpt>
      <trkpt lat="43.28437" lon="2.47421">
        <ele>177.9</ele>
        <time>2021-09-07T06:08:58Z</time>
      </trkpt>
      <trkpt lat="43.28435" lon="2.47426">
        <ele>177.7</ele>
        <time>2021-09-07T06:09:00Z</time>
      </trkpt>
      <trkpt lat="43.28433" lon="2.4743">
        <ele>177.5</ele>
        <time>2021-09-07T06:09:02Z</time>
      </trkpt>
      <trkpt lat="43.28432" lon="2.47432">
        <ele>177.5</ele>
        <time>2021-09-07T06:09:03Z</time>
      </trkpt>
      <trkpt lat="43.2843" lon="2.47437">
        <ele>177.3</ele>
        <time>2021-09-07T06:09:05Z</time>
      </trkpt>
      <trkpt lat="43.28428" lon="2.4744">
        <ele>177.1</ele>
        <time>2021-09-07T06:09:07Z</time>
      </trkpt>
      <trkpt lat="43.28427" lon="2.47442">
        <ele>177</ele>
        <time>2021-09-07T06:09:09Z</time>
      </trkpt>
      <trkpt lat="43.28426" lon="2.47442">
        <ele>177</ele>
        <time>2021-09-07T06:09:11Z</time>
      </trkpt>
      <trkpt lat="43.28426" lon="2.47439">
        <ele>176.9</ele>
        <time>2021-09-07T06:09:13Z</time>
      </trkpt>
      <trkpt lat="43.28426" lon="2.47439">
        <ele>176.9</ele>
        <time>2021-09-07T06:09:15Z</time>
      </trkpt>
      <trkpt lat="43.28426" lon="2.47439">
        <ele>176.9</ele>
        <time>2021-09-07T06:09:16Z</time>
      </trkpt>
      <trkpt lat="43.28427" lon="2.47438">
        <ele>176.8</ele>
        <time>2021-09-07T06:09:18Z</time>
      </trkpt>
      <trkpt lat="43.28428" lon="2.47438">
        <ele>176.8</ele>
        <time>2021-09-07T06:09:20Z</time>
      </trkpt>
      <trkpt lat="43.28428" lon="2.47438">
        <ele>176.8</ele>
        <time>2021-09-07T06:09:21Z</time>
      </trkpt>
      <trkpt lat="43.28428" lon="2.47438">
        <ele>176.8</ele>
        <time>2021-09-07T06:09:23Z</time>
      </trkpt>
      <trkpt lat="43.28426" lon="2.47439">
        <ele>176.6</ele>
        <time>2021-09-07T06:09:25Z</time>
      </trkpt>
      <trkpt lat="43.28424" lon="2.47442">
        <ele>176.5</ele>
        <time>2021-09-07T06:09:27Z</time>
      </trkpt>
      <trkpt lat="43.28423" lon="2.47444">
        <ele>176.4</ele>
        <time>2021-09-07T06:09:29Z</time>
      </trkpt>
      <trkpt lat="43.28422" lon="2.47445">
        <ele>176.3</ele>
        <time>2021-09-07T06:09:30Z</time>
      </trkpt>
      <trkpt lat="43.28421" lon="2.47447">
        <ele>176.3</ele>
        <time>2021-09-07T06:09:32Z</time>
      </trkpt>
      <trkpt lat="43.28421" lon="2.47447">
        <ele>176.2</ele>
        <time>2021-09-07T06:09:34Z</time>
      </trkpt>
      <trkpt lat="43.28422" lon="2.47447">
        <ele>176.2</ele>
        <time>2021-09-07T06:09:35Z</time>
      </trkpt>
      <trkpt lat="43.28422" lon="2.47446">
        <ele>176.2</ele>
        <time>2021-09-07T06:09:36Z</time>
      </trkpt>
      <trkpt lat="43.28421" lon="2.47447">
        <ele>176.2</ele>
        <time>2021-09-07T06:09:38Z</time>
      </trkpt>
      <trkpt lat="43.28418" lon="2.4745">
        <ele>176</ele>
        <time>2021-09-07T06:09:40Z</time>
      </trkpt>
      <trkpt lat="43.28416" lon="2.47452">
        <ele>175.9</ele>
        <time>2021-09-07T06:09:41Z</time>
      </trkpt>
      <trkpt lat="43.28412" lon="2.47457">
        <ele>175.6</ele>
        <time>2021-09-07T06:09:43Z</time>
      </trkpt>
      <trkpt lat="43.28408" lon="2.47462">
        <ele>175.3</ele>
        <time>2021-09-07T06:09:45Z</time>
      </trkpt>
      <trkpt lat="43.28406" lon="2.47465">
        <ele>175.1</ele>
        <time>2021-09-07T06:09:46Z</time>
      </trkpt>
      <trkpt lat="43.28403" lon="2.47471">
        <ele>174.9</ele>
        <time>2021-09-07T06:09:48Z</time>
      </trkpt>
      <trkpt lat="43.284" lon="2.47475">
        <ele>174.7</ele>
        <time>2021-09-07T06:09:49Z</time>
      </trkpt>
      <trkpt lat="43.28399" lon="2.47476">
        <ele>174.6</ele>
        <time>2021-09-07T06:09:50Z</time>
      </trkpt>
      <trkpt lat="43.28396" lon="2.4748">
        <ele>174.4</ele>
        <time>2021-09-07T06:09:52Z</time>
      </trkpt>
      <trkpt lat="43.28395" lon="2.47482">
        <ele>174.3</ele>
        <time>2021-09-07T06:09:53Z</time>
      </trkpt>
      <trkpt lat="43.28392" lon="2.47486">
        <ele>174.1</ele>
        <time>2021-09-07T06:09:55Z</time>
      </trkpt>
      <trkpt lat="43.28391" lon="2.47489">
        <ele>174</ele>
        <time>2021-09-07T06:09:56Z</time>
      </trkpt>
      <trkpt lat="43.28388" lon="2.47493">
        <ele>173.8</ele>
        <time>2021-09-07T06:09:58Z</time>
      </trkpt>
      <trkpt lat="43.28387" lon="2.47495">
        <ele>173.7</ele>
        <time>2021-09-07T06:09:59Z</time>
      </trkpt>
      <trkpt lat="43.28384" lon="2.475">
        <ele>173.4</ele>
        <time>2021-09-07T06:10:01Z</time>
      </trkpt>
      <trkpt lat="43.28381" lon="2.47503">
        <ele>173.2</ele>
        <time>2021-09-07T06:10:02Z</time>
      </trkpt>
      <trkpt lat="43.2838" lon="2.47504">
        <ele>173.2</ele>
        <time>2021-09-07T06:10:03Z</time>
      </trkpt>
      <trkpt lat="43.28375" lon="2.47508">
        <ele>172.9</ele>
        <time>2021-09-07T06:10:05Z</time>
      </trkpt>
      <trkpt lat="43.28373" lon="2.47511">
        <ele>172.7</ele>
        <time>2021-09-07T06:10:06Z</time>
      </trkpt>
      <trkpt lat="43.28372" lon="2.47512">
        <ele>172.7</ele>
        <time>2021-09-07T06:10:07Z</time>
      </trkpt>
      <trkpt lat="43.2837" lon="2.47514">
        <ele>172.6</ele>
        <time>2021-09-07T06:10:08Z</time>
      </trkpt>
      <trkpt lat="43.28367" lon="2.47518">
        <ele>172.3</ele>
        <time>2021-09-07T06:10:10Z</time>
      </trkpt>
      <trkpt lat="43.28363" lon="2.47523">
        <ele>172</ele>
        <time>2021-09-07T06:10:12Z</time>
      </trkpt>
      <trkpt lat="43.28359" lon="2.47528">
        <ele>171.8</ele>
        <time>2021-09-07T06:10:14Z</time>
      </trkpt>
      <trkpt lat="43.28358" lon="2.4753">
        <ele>171.7</ele>
        <time>2021-09-07T06:10:15Z</time>
      </trkpt>
      <trkpt lat="43.28354" lon="2.47534">
        <ele>171.4</ele>
        <time>2021-09-07T06:10:17Z</time>
      </trkpt>
      <trkpt lat="43.2835" lon="2.47539">
        <ele>171.2</ele>
        <time>2021-09-07T06:10:19Z</time>
      </trkpt>
      <trkpt lat="43.28348" lon="2.47542">
        <ele>171</ele>
        <time>2021-09-07T06:10:20Z</time>
      </trkpt>
      <trkpt lat="43.28347" lon="2.47544">
        <ele>170.9</ele>
        <time>2021-09-07T06:10:21Z</time>
      </trkpt>
      <trkpt lat="43.28344" lon="2.47548">
        <ele>170.7</ele>
        <time>2021-09-07T06:10:23Z</time>
      </trkpt>
      <trkpt lat="43.28342" lon="2.4755">
        <ele>170.6</ele>
        <time>2021-09-07T06:10:24Z</time>
      </trkpt>
      <trkpt lat="43.28338" lon="2.47555">
        <ele>170.3</ele>
        <time>2021-09-07T06:10:26Z</time>
      </trkpt>
      <trkpt lat="43.28337" lon="2.47558">
        <ele>170.2</ele>
        <time>2021-09-07T06:10:27Z</time>
      </trkpt>
      <trkpt lat="43.28334" lon="2.47563">
        <ele>169.9</ele>
        <time>2021-09-07T06:10:29Z</time>
      </trkpt>
      <trkpt lat="43.2833" lon="2.47568">
        <ele>169.6</ele>
        <time>2021-09-07T06:10:31Z</time>
      </trkpt>
      <trkpt lat="43.28328" lon="2.47571">
        <ele>169.5</ele>
        <time>2021-09-07T06:10:32Z</time>
      </trkpt>
      <trkpt lat="43.28325" lon="2.47574">
        <ele>169.3</ele>
        <time>2021-09-07T06:10:33Z</time>
      </trkpt>
      <trkpt lat="43.28324" lon="2.47575">
        <ele>169.2</ele>
        <time>2021-09-07T06:10:34Z</time>
      </trkpt>
      <trkpt lat="43.2832" lon="2.47581">
        <ele>169</ele>
        <time>2021-09-07T06:10:36Z</time>
      </trkpt>
      <trkpt lat="43.28317" lon="2.47585">
        <ele>168.7</ele>
        <time>2021-09-07T06:10:38Z</time>
      </trkpt>
      <trkpt lat="43.28314" lon="2.47589">
        <ele>168.5</ele>
        <time>2021-09-07T06:10:40Z</time>
      </trkpt>
      <trkpt lat="43.28313" lon="2.4759">
        <ele>168.5</ele>
        <time>2021-09-07T06:10:41Z</time>
      </trkpt>
      <trkpt lat="43.28312" lon="2.47592">
        <ele>168.4</ele>
        <time>2021-09-07T06:10:42Z</time>
      </trkpt>
      <trkpt lat="43.28311" lon="2.47593">
        <ele>168.3</ele>
        <time>2021-09-07T06:10:43Z</time>
      </trkpt>
      <trkpt lat="43.28309" lon="2.47594">
        <ele>168.2</ele>
        <time>2021-09-07T06:10:45Z</time>
      </trkpt>
      <trkpt lat="43.28308" lon="2.47596">
        <ele>168.1</ele>
        <time>2021-09-07T06:10:46Z</time>
      </trkpt>
      <trkpt lat="43.28305" lon="2.476">
        <ele>167.9</ele>
        <time>2021-09-07T06:10:48Z</time>
      </trkpt>
      <trkpt lat="43.28303" lon="2.47604">
        <ele>167.7</ele>
        <time>2021-09-07T06:10:50Z</time>
      </trkpt>
      <trkpt lat="43.28301" lon="2.47605">
        <ele>167.6</ele>
        <time>2021-09-07T06:10:51Z</time>
      </trkpt>
      <trkpt lat="43.283" lon="2.47606">
        <ele>167.6</ele>
        <time>2021-09-07T06:10:52Z</time>
      </trkpt>
      <trkpt lat="43.28298" lon="2.47607">
        <ele>167.5</ele>
        <time>2021-09-07T06:10:54Z</time>
      </trkpt>
      <trkpt lat="43.28298" lon="2.47608">
        <ele>167.4</ele>
        <time>2021-09-07T06:10:55Z</time>
      </trkpt>
      <trkpt lat="43.28297" lon="2.47608">
        <ele>167.4</ele>
        <time>2021-09-07T06:10:57Z</time>
      </trkpt>
      <trkpt lat="43.28297" lon="2.47609">
        <ele>167.4</ele>
        <time>2021-09-07T06:10:59Z</time>
      </trkpt>
      <trkpt lat="43.28296" lon="2.4761">
        <ele>167.3</ele>
        <time>2021-09-07T06:11:01Z</time>
      </trkpt>
      <trkpt lat="43.28294" lon="2.47611">
        <ele>167.2</ele>
        <time>2021-09-07T06:11:03Z</time>
      </trkpt>
      <trkpt lat="43.28292" lon="2.47612">
        <ele>167.1</ele>
        <time>2021-09-07T06:11:04Z</time>
      </trkpt>
      <trkpt lat="43.28289" lon="2.47612">
        <ele>166.9</ele>
        <time>2021-09-07T06:11:06Z</time>
      </trkpt>
      <trkpt lat="43.28287" lon="2.47612">
        <ele>166.8</ele>
        <time>2021-09-07T06:11:08Z</time>
      </trkpt>
      <trkpt lat="43.28286" lon="2.47612">
        <ele>166.8</ele>
        <time>2021-09-07T06:11:10Z</time>
      </trkpt>
      <trkpt lat="43.28286" lon="2.47613">
        <ele>166.8</ele>
        <time>2021-09-07T06:11:11Z</time>
      </trkpt>
      <trkpt lat="43.28284" lon="2.47614">
        <ele>166.6</ele>
        <time>2021-09-07T06:11:13Z</time>
      </trkpt>
      <trkpt lat="43.28282" lon="2.47617">
        <ele>166.5</ele>
        <time>2021-09-07T06:11:15Z</time>
      </trkpt>
      <trkpt lat="43.28281" lon="2.47618">
        <ele>166.4</ele>
        <time>2021-09-07T06:11:16Z</time>
      </trkpt>
      <trkpt lat="43.28278" lon="2.47621">
        <ele>166.2</ele>
        <time>2021-09-07T06:11:18Z</time>
      </trkpt>
      <trkpt lat="43.28276" lon="2.47624">
        <ele>166.1</ele>
        <time>2021-09-07T06:11:20Z</time>
      </trkpt>
      <trkpt lat="43.28274" lon="2.47626">
        <ele>166</ele>
        <time>2021-09-07T06:11:22Z</time>
      </trkpt>
      <trkpt lat="43.28272" lon="2.47629">
        <ele>165.8</ele>
        <time>2021-09-07T06:11:24Z</time>
      </trkpt>
      <trkpt lat="43.2827" lon="2.47631">
        <ele>165.7</ele>
        <time>2021-09-07T06:11:25Z</time>
      </trkpt>
      <trkpt lat="43.28268" lon="2.47634">
        <ele>165.5</ele>
        <time>2021-09-07T06:11:27Z</time>
      </trkpt>
      <trkpt lat="43.28268" lon="2.47638">
        <ele>165.4</ele>
        <time>2021-09-07T06:11:29Z</time>
      </trkpt>
      <trkpt lat="43.28267" lon="2.4764">
        <ele>165.3</ele>
        <time>2021-09-07T06:11:30Z</time>
      </trkpt>
      <trkpt lat="43.28264" lon="2.47643">
        <ele>165.1</ele>
        <time>2021-09-07T06:11:32Z</time>
      </trkpt>
      <trkpt lat="43.2826" lon="2.47647">
        <ele>164.9</ele>
        <time>2021-09-07T06:11:34Z</time>
      </trkpt>
      <trkpt lat="43.28257" lon="2.47651">
        <ele>164.7</ele>
        <time>2021-09-07T06:11:36Z</time>
      </trkpt>
      <trkpt lat="43.28254" lon="2.47656">
        <ele>164.4</ele>
        <time>2021-09-07T06:11:38Z</time>
      </trkpt>
      <trkpt lat="43.28251" lon="2.47661">
        <ele>164.2</ele>
        <time>2021-09-07T06:11:40Z</time>
      </trkpt>
      <trkpt lat="43.28248" lon="2.47664">
        <ele>164</ele>
        <time>2021-09-07T06:11:42Z</time>
      </trkpt>
      <trkpt lat="43.28246" lon="2.47665">
        <ele>163.9</ele>
        <time>2021-09-07T06:11:43Z</time>
      </trkpt>
      <trkpt lat="43.28242" lon="2.47668">
        <ele>163.7</ele>
        <time>2021-09-07T06:11:45Z</time>
      </trkpt>
      <trkpt lat="43.28238" lon="2.4767">
        <ele>163.4</ele>
        <time>2021-09-07T06:11:47Z</time>
      </trkpt>
      <trkpt lat="43.28236" lon="2.47671">
        <ele>163.4</ele>
        <time>2021-09-07T06:11:48Z</time>
      </trkpt>
      <trkpt lat="43.28233" lon="2.47674">
        <ele>163.4</ele>
        <time>2021-09-07T06:11:50Z</time>
      </trkpt>
      <trkpt lat="43.28231" lon="2.47675">
        <ele>163.4</ele>
        <time>2021-09-07T06:11:51Z</time>
      </trkpt>
      <trkpt lat="43.28228" lon="2.47677">
        <ele>163.4</ele>
        <time>2021-09-07T06:11:53Z</time>
      </trkpt>
      <trkpt lat="43.28224" lon="2.47678">
        <ele>163.4</ele>
        <time>2021-09-07T06:11:55Z</time>
      </trkpt>
      <trkpt lat="43.28223" lon="2.47679">
        <ele>163.4</ele>
        <time>2021-09-07T06:11:56Z</time>
      </trkpt>
      <trkpt lat="43.28219" lon="2.4768">
        <ele>163.4</ele>
        <time>2021-09-07T06:11:58Z</time>
      </trkpt>
      <trkpt lat="43.28215" lon="2.47682">
        <ele>163.4</ele>
        <time>2021-09-07T06:12:00Z</time>
      </trkpt>
      <trkpt lat="43.28211" lon="2.47683">
        <ele>163.4</ele>
        <time>2021-09-07T06:12:02Z</time>
      </trkpt>
      <trkpt lat="43.28205" lon="2.47684">
        <ele>163.4</ele>
        <time>2021-09-07T06:12:04Z</time>
      </trkpt>
      <trkpt lat="43.28203" lon="2.47685">
        <ele>163.4</ele>
        <time>2021-09-07T06:12:05Z</time>
      </trkpt>
      <trkpt lat="43.28197" lon="2.47687">
        <ele>163.5</ele>
        <time>2021-09-07T06:12:07Z</time>
      </trkpt>
      <trkpt lat="43.28193" lon="2.4769">
        <ele>163.6</ele>
        <time>2021-09-07T06:12:09Z</time>
      </trkpt>
      <trkpt lat="43.28191" lon="2.4769">
        <ele>163.6</ele>
        <time>2021-09-07T06:12:10Z</time>
      </trkpt>
      <trkpt lat="43.28186" lon="2.4769">
        <ele>163.7</ele>
        <time>2021-09-07T06:12:12Z</time>
      </trkpt>
      <trkpt lat="43.28181" lon="2.47688">
        <ele>163.9</ele>
        <time>2021-09-07T06:12:14Z</time>
      </trkpt>
      <trkpt lat="43.28177" lon="2.47685">
        <ele>164</ele>
        <time>2021-09-07T06:12:15Z</time>
      </trkpt>
      <trkpt lat="43.28176" lon="2.47684">
        <ele>164.1</ele>
        <time>2021-09-07T06:12:16Z</time>
      </trkpt>
      <trkpt lat="43.28174" lon="2.47682">
        <ele>164.2</ele>
        <time>2021-09-07T06:12:17Z</time>
      </trkpt>
      <trkpt lat="43.28171" lon="2.47678">
        <ele>164.3</ele>
        <time>2021-09-07T06:12:19Z</time>
      </trkpt>
      <trkpt lat="43.28169" lon="2.47673">
        <ele>164.4</ele>
        <time>2021-09-07T06:12:21Z</time>
      </trkpt>
      <trkpt lat="43.28169" lon="2.47671">
        <ele>164.5</ele>
        <time>2021-09-07T06:12:22Z</time>
      </trkpt>
      <trkpt lat="43.28168" lon="2.47669">
        <ele>164.5</ele>
        <time>2021-09-07T06:12:23Z</time>
      </trkpt>
      <trkpt lat="43.28167" lon="2.47666">
        <ele>164.6</ele>
        <time>2021-09-07T06:12:25Z</time>
      </trkpt>
      <trkpt lat="43.28165" lon="2.47661">
        <ele>164.6</ele>
        <time>2021-09-07T06:12:27Z</time>
      </trkpt>
      <trkpt lat="43.28165" lon="2.47659">
        <ele>164.7</ele>
        <time>2021-09-07T06:12:28Z</time>
      </trkpt>
      <trkpt lat="43.28164" lon="2.47656">
        <ele>164.7</ele>
        <time>2021-09-07T06:12:29Z</time>
      </trkpt>
      <trkpt lat="43.28164" lon="2.47652">
        <ele>164.7</ele>
        <time>2021-09-07T06:12:31Z</time>
      </trkpt>
      <trkpt lat="43.28164" lon="2.47647">
        <ele>164.8</ele>
        <time>2021-09-07T06:12:33Z</time>
      </trkpt>
      <trkpt lat="43.28164" lon="2.47644">
        <ele>164.9</ele>
        <time>2021-09-07T06:12:34Z</time>
      </trkpt>
      <trkpt lat="43.28164" lon="2.47637">
        <ele>165</ele>
        <time>2021-09-07T06:12:36Z</time>
      </trkpt>
      <trkpt lat="43.28164" lon="2.47631">
        <ele>165.2</ele>
        <time>2021-09-07T06:12:38Z</time>
      </trkpt>
      <trkpt lat="43.28164" lon="2.47626">
        <ele>165.3</ele>
        <time>2021-09-07T06:12:39Z</time>
      </trkpt>
      <trkpt lat="43.28163" lon="2.47625">
        <ele>165.3</ele>
        <time>2021-09-07T06:12:40Z</time>
      </trkpt>
      <trkpt lat="43.28163" lon="2.4762">
        <ele>165.4</ele>
        <time>2021-09-07T06:12:42Z</time>
      </trkpt>
      <trkpt lat="43.28163" lon="2.47617">
        <ele>165.5</ele>
        <time>2021-09-07T06:12:43Z</time>
      </trkpt>
      <trkpt lat="43.28162" lon="2.47612">
        <ele>165.6</ele>
        <time>2021-09-07T06:12:45Z</time>
      </trkpt>
      <trkpt lat="43.28162" lon="2.4761">
        <ele>165.7</ele>
        <time>2021-09-07T06:12:46Z</time>
      </trkpt>
      <trkpt lat="43.28162" lon="2.47608">
        <ele>165.8</ele>
        <time>2021-09-07T06:12:47Z</time>
      </trkpt>
      <trkpt lat="43.28161" lon="2.47603">
        <ele>165.9</ele>
        <time>2021-09-07T06:12:49Z</time>
      </trkpt>
      <trkpt lat="43.28161" lon="2.476">
        <ele>166</ele>
        <time>2021-09-07T06:12:50Z</time>
      </trkpt>
      <trkpt lat="43.28161" lon="2.47594">
        <ele>166.2</ele>
        <time>2021-09-07T06:12:52Z</time>
      </trkpt>
      <trkpt lat="43.2816" lon="2.47589">
        <ele>166.4</ele>
        <time>2021-09-07T06:12:54Z</time>
      </trkpt>
      <trkpt lat="43.2816" lon="2.47586">
        <ele>166.5</ele>
        <time>2021-09-07T06:12:55Z</time>
      </trkpt>
      <trkpt lat="43.2816" lon="2.4758">
        <ele>166.7</ele>
        <time>2021-09-07T06:12:57Z</time>
      </trkpt>
      <trkpt lat="43.2816" lon="2.47574">
        <ele>166.9</ele>
        <time>2021-09-07T06:12:59Z</time>
      </trkpt>
      <trkpt lat="43.2816" lon="2.4757">
        <ele>167</ele>
        <time>2021-09-07T06:13:00Z</time>
      </trkpt>
      <trkpt lat="43.28158" lon="2.47565">
        <ele>167.2</ele>
        <time>2021-09-07T06:13:02Z</time>
      </trkpt>
      <trkpt lat="43.28156" lon="2.47561">
        <ele>167.3</ele>
        <time>2021-09-07T06:13:04Z</time>
      </trkpt>
      <trkpt lat="43.28154" lon="2.47558">
        <ele>167.4</ele>
        <time>2021-09-07T06:13:05Z</time>
      </trkpt>
      <trkpt lat="43.28152" lon="2.47553">
        <ele>167.5</ele>
        <time>2021-09-07T06:13:07Z</time>
      </trkpt>
      <trkpt lat="43.2815" lon="2.47548">
        <ele>167.7</ele>
        <time>2021-09-07T06:13:09Z</time>
      </trkpt>
      <trkpt lat="43.28149" lon="2.47545">
        <ele>167.7</ele>
        <time>2021-09-07T06:13:10Z</time>
      </trkpt>
      <trkpt lat="43.28149" lon="2.47541">
        <ele>167.8</ele>
        <time>2021-09-07T06:13:12Z</time>
      </trkpt>
      <trkpt lat="43.28148" lon="2.47538">
        <ele>167.9</ele>
        <time>2021-09-07T06:13:14Z</time>
      </trkpt>
      <trkpt lat="43.28147" lon="2.47537">
        <ele>167.9</ele>
        <time>2021-09-07T06:13:15Z</time>
      </trkpt>
      <trkpt lat="43.28148" lon="2.47536">
        <ele>168</ele>
        <time>2021-09-07T06:13:17Z</time>
      </trkpt>
      <trkpt lat="43.28149" lon="2.47536">
        <ele>168.1</ele>
        <time>2021-09-07T06:13:18Z</time>
      </trkpt>
      <trkpt lat="43.2815" lon="2.47536">
        <ele>168.1</ele>
        <time>2021-09-07T06:13:19Z</time>
      </trkpt>
      <trkpt lat="43.28151" lon="2.47535">
        <ele>168.2</ele>
        <time>2021-09-07T06:13:20Z</time>
      </trkpt>
      <trkpt lat="43.28155" lon="2.47536">
        <ele>168.5</ele>
        <time>2021-09-07T06:13:22Z</time>
      </trkpt>
      <trkpt lat="43.28159" lon="2.47537">
        <ele>168.7</ele>
        <time>2021-09-07T06:13:24Z</time>
      </trkpt>
      <trkpt lat="43.28163" lon="2.47538">
        <ele>168.9</ele>
        <time>2021-09-07T06:13:26Z</time>
      </trkpt>
      <trkpt lat="43.28165" lon="2.47536">
        <ele>169.1</ele>
        <time>2021-09-07T06:13:28Z</time>
      </trkpt>
      <trkpt lat="43.28165" lon="2.47534">
        <ele>169.2</ele>
        <time>2021-09-07T06:13:29Z</time>
      </trkpt>
      <trkpt lat="43.28166" lon="2.47528">
        <ele>169.5</ele>
        <time>2021-09-07T06:13:31Z</time>
      </trkpt>
      <trkpt lat="43.28166" lon="2.47526">
        <ele>169.6</ele>
        <time>2021-09-07T06:13:32Z</time>
      </trkpt>
      <trkpt lat="43.28165" lon="2.47521">
        <ele>169.8</ele>
        <time>2021-09-07T06:13:34Z</time>
      </trkpt>
      <trkpt lat="43.28164" lon="2.47519">
        <ele>169.9</ele>
        <time>2021-09-07T06:13:35Z</time>
      </trkpt>
      <trkpt lat="43.28164" lon="2.47514">
        <ele>170.2</ele>
        <time>2021-09-07T06:13:37Z</time>
      </trkpt>
      <trkpt lat="43.28163" lon="2.4751">
        <ele>170.5</ele>
        <time>2021-09-07T06:13:38Z</time>
      </trkpt>
      <trkpt lat="43.28163" lon="2.47508">
        <ele>170.5</ele>
        <time>2021-09-07T06:13:39Z</time>
      </trkpt>
      <trkpt lat="43.28163" lon="2.47502">
        <ele>170.9</ele>
        <time>2021-09-07T06:13:41Z</time>
      </trkpt>
      <trkpt lat="43.28163" lon="2.47495">
        <ele>171.3</ele>
        <time>2021-09-07T06:13:43Z</time>
      </trkpt>
      <trkpt lat="43.28164" lon="2.4749">
        <ele>171.6</ele>
        <time>2021-09-07T06:13:44Z</time>
      </trkpt>
      <trkpt lat="43.28164" lon="2.47488">
        <ele>171.7</ele>
        <time>2021-09-07T06:13:45Z</time>
      </trkpt>
      <trkpt lat="43.28164" lon="2.47482">
        <ele>172.1</ele>
        <time>2021-09-07T06:13:47Z</time>
      </trkpt>
      <trkpt lat="43.28164" lon="2.47479">
        <ele>172.4</ele>
        <time>2021-09-07T06:13:48Z</time>
      </trkpt>
      <trkpt lat="43.28164" lon="2.47472">
        <ele>172.8</ele>
        <time>2021-09-07T06:13:50Z</time>
      </trkpt>
      <trkpt lat="43.28164" lon="2.47466">
        <ele>173.2</ele>
        <time>2021-09-07T06:13:52Z</time>
      </trkpt>
      <trkpt lat="43.28164" lon="2.47461">
        <ele>173.6</ele>
        <time>2021-09-07T06:13:53Z</time>
      </trkpt>
      <trkpt lat="43.28164" lon="2.47459">
        <ele>173.7</ele>
        <time>2021-09-07T06:13:54Z</time>
      </trkpt>
      <trkpt lat="43.28164" lon="2.47456">
        <ele>173.9</ele>
        <time>2021-09-07T06:13:55Z</time>
      </trkpt>
      <trkpt lat="43.28164" lon="2.47449">
        <ele>174.4</ele>
        <time>2021-09-07T06:13:57Z</time>
      </trkpt>
      <trkpt lat="43.28164" lon="2.47446">
        <ele>174.5</ele>
        <time>2021-09-07T06:13:58Z</time>
      </trkpt>
      <trkpt lat="43.28164" lon="2.47441">
        <ele>174.9</ele>
        <time>2021-09-07T06:14:00Z</time>
      </trkpt>
      <trkpt lat="43.28164" lon="2.47436">
        <ele>175.2</ele>
        <time>2021-09-07T06:14:01Z</time>
      </trkpt>
      <trkpt lat="43.28165" lon="2.47435">
        <ele>175.3</ele>
        <time>2021-09-07T06:14:02Z</time>
      </trkpt>
      <trkpt lat="43.28165" lon="2.47432">
        <ele>175.5</ele>
        <time>2021-09-07T06:14:03Z</time>
      </trkpt>
      <trkpt lat="43.28165" lon="2.47425">
        <ele>175.9</ele>
        <time>2021-09-07T06:14:05Z</time>
      </trkpt>
      <trkpt lat="43.28165" lon="2.47418">
        <ele>176.4</ele>
        <time>2021-09-07T06:14:07Z</time>
      </trkpt>
      <trkpt lat="43.28165" lon="2.47415">
        <ele>176.6</ele>
        <time>2021-09-07T06:14:08Z</time>
      </trkpt>
      <trkpt lat="43.28165" lon="2.47408">
        <ele>177</ele>
        <time>2021-09-07T06:14:10Z</time>
      </trkpt>
      <trkpt lat="43.28165" lon="2.47402">
        <ele>177.3</ele>
        <time>2021-09-07T06:14:12Z</time>
      </trkpt>
      <trkpt lat="43.28165" lon="2.47399">
        <ele>177.4</ele>
        <time>2021-09-07T06:14:13Z</time>
      </trkpt>
      <trkpt lat="43.28165" lon="2.47393">
        <ele>177.7</ele>
        <time>2021-09-07T06:14:15Z</time>
      </trkpt>
      <trkpt lat="43.28165" lon="2.47388">
        <ele>177.9</ele>
        <time>2021-09-07T06:14:17Z</time>
      </trkpt>
      <trkpt lat="43.28165" lon="2.47384">
        <ele>178</ele>
        <time>2021-09-07T06:14:18Z</time>
      </trkpt>
      <trkpt lat="43.28165" lon="2.47382">
        <ele>178.1</ele>
        <time>2021-09-07T06:14:19Z</time>
      </trkpt>
      <trkpt lat="43.28165" lon="2.47377">
        <ele>178.2</ele>
        <time>2021-09-07T06:14:21Z</time>
      </trkpt>
      <trkpt lat="43.28165" lon="2.47374">
        <ele>178.2</ele>
        <time>2021-09-07T06:14:22Z</time>
      </trkpt>
      <trkpt lat="43.28165" lon="2.47369">
        <ele>178.3</ele>
        <time>2021-09-07T06:14:24Z</time>
      </trkpt>
      <trkpt lat="43.28165" lon="2.47363">
        <ele>178.3</ele>
        <time>2021-09-07T06:14:26Z</time>
      </trkpt>
      <trkpt lat="43.28166" lon="2.47358">
        <ele>178.4</ele>
        <time>2021-09-07T06:14:28Z</time>
      </trkpt>
      <trkpt lat="43.28166" lon="2.47353">
        <ele>178.4</ele>
        <time>2021-09-07T06:14:30Z</time>
      </trkpt>
      <trkpt lat="43.28167" lon="2.4735">
        <ele>178.4</ele>
        <time>2021-09-07T06:14:31Z</time>
      </trkpt>
      <trkpt lat="43.28167" lon="2.47345">
        <ele>178.4</ele>
        <time>2021-09-07T06:14:33Z</time>
      </trkpt>
      <trkpt lat="43.28167" lon="2.47341">
        <ele>178.4</ele>
        <time>2021-09-07T06:14:34Z</time>
      </trkpt>
      <trkpt lat="43.28167" lon="2.47339">
        <ele>178.4</ele>
        <time>2021-09-07T06:14:35Z</time>
      </trkpt>
      <trkpt lat="43.28167" lon="2.47333">
        <ele>178.4</ele>
        <time>2021-09-07T06:14:37Z</time>
      </trkpt>
      <trkpt lat="43.28168" lon="2.47328">
        <ele>178.4</ele>
        <time>2021-09-07T06:14:39Z</time>
      </trkpt>
      <trkpt lat="43.28168" lon="2.47325">
        <ele>178.4</ele>
        <time>2021-09-07T06:14:40Z</time>
      </trkpt>
      <trkpt lat="43.28168" lon="2.47318">
        <ele>178.5</ele>
        <time>2021-09-07T06:14:42Z</time>
      </trkpt>
      <trkpt lat="43.28169" lon="2.47311">
        <ele>178.5</ele>
        <time>2021-09-07T06:14:44Z</time>
      </trkpt>
      <trkpt lat="43.28169" lon="2.47308">
        <ele>178.6</ele>
        <time>2021-09-07T06:14:45Z</time>
      </trkpt>
      <trkpt lat="43.28169" lon="2.47301">
        <ele>178.6</ele>
        <time>2021-09-07T06:14:47Z</time>
      </trkpt>
      <trkpt lat="43.28169" lon="2.47294">
        <ele>178.7</ele>
        <time>2021-09-07T06:14:49Z</time>
      </trkpt>
      <trkpt lat="43.28168" lon="2.4729">
        <ele>178.8</ele>
        <time>2021-09-07T06:14:50Z</time>
      </trkpt>
      <trkpt lat="43.28168" lon="2.47287">
        <ele>178.9</ele>
        <time>2021-09-07T06:14:51Z</time>
      </trkpt>
      <trkpt lat="43.28168" lon="2.4728">
        <ele>179</ele>
        <time>2021-09-07T06:14:53Z</time>
      </trkpt>
      <trkpt lat="43.28168" lon="2.47277">
        <ele>179.1</ele>
        <time>2021-09-07T06:14:54Z</time>
      </trkpt>
      <trkpt lat="43.28168" lon="2.4727">
        <ele>179.3</ele>
        <time>2021-09-07T06:14:56Z</time>
      </trkpt>
      <trkpt lat="43.28167" lon="2.47265">
        <ele>179.4</ele>
        <time>2021-09-07T06:14:57Z</time>
      </trkpt>
      <trkpt lat="43.28167" lon="2.47264">
        <ele>179.5</ele>
        <time>2021-09-07T06:14:58Z</time>
      </trkpt>
      <trkpt lat="43.28167" lon="2.4726">
        <ele>179.6</ele>
        <time>2021-09-07T06:14:59Z</time>
      </trkpt>
      <trkpt lat="43.28167" lon="2.47254">
        <ele>179.8</ele>
        <time>2021-09-07T06:15:01Z</time>
      </trkpt>
      <trkpt lat="43.28167" lon="2.47249">
        <ele>180</ele>
        <time>2021-09-07T06:15:03Z</time>
      </trkpt>
      <trkpt lat="43.28167" lon="2.47246">
        <ele>180.1</ele>
        <time>2021-09-07T06:15:04Z</time>
      </trkpt>
      <trkpt lat="43.28167" lon="2.4724">
        <ele>180.3</ele>
        <time>2021-09-07T06:15:06Z</time>
      </trkpt>
      <trkpt lat="43.28167" lon="2.47236">
        <ele>180.5</ele>
        <time>2021-09-07T06:15:07Z</time>
      </trkpt>
      <trkpt lat="43.28167" lon="2.47229">
        <ele>180.8</ele>
        <time>2021-09-07T06:15:09Z</time>
      </trkpt>
      <trkpt lat="43.28167" lon="2.47225">
        <ele>180.9</ele>
        <time>2021-09-07T06:15:10Z</time>
      </trkpt>
      <trkpt lat="43.28167" lon="2.47223">
        <ele>181</ele>
        <time>2021-09-07T06:15:11Z</time>
      </trkpt>
      <trkpt lat="43.28167" lon="2.4722">
        <ele>181.2</ele>
        <time>2021-09-07T06:15:12Z</time>
      </trkpt>
      <trkpt lat="43.28167" lon="2.47216">
        <ele>181.4</ele>
        <time>2021-09-07T06:15:13Z</time>
      </trkpt>
      <trkpt lat="43.28168" lon="2.47208">
        <ele>181.8</ele>
        <time>2021-09-07T06:15:15Z</time>
      </trkpt>
      <trkpt lat="43.28168" lon="2.47202">
        <ele>182.1</ele>
        <time>2021-09-07T06:15:16Z</time>
      </trkpt>
      <trkpt lat="43.28168" lon="2.47201">
        <ele>182.2</ele>
        <time>2021-09-07T06:15:17Z</time>
      </trkpt>
      <trkpt lat="43.28168" lon="2.47195">
        <ele>182.6</ele>
        <time>2021-09-07T06:15:19Z</time>
      </trkpt>
      <trkpt lat="43.28168" lon="2.47189">
        <ele>182.9</ele>
        <time>2021-09-07T06:15:21Z</time>
      </trkpt>
      <trkpt lat="43.28167" lon="2.47182">
        <ele>183.3</ele>
        <time>2021-09-07T06:15:23Z</time>
      </trkpt>
      <trkpt lat="43.28167" lon="2.47175">
        <ele>183.7</ele>
        <time>2021-09-07T06:15:25Z</time>
      </trkpt>
      <trkpt lat="43.28166" lon="2.47169">
        <ele>184.1</ele>
        <time>2021-09-07T06:15:27Z</time>
      </trkpt>
      <trkpt lat="43.28166" lon="2.47162">
        <ele>184.5</ele>
        <time>2021-09-07T06:15:29Z</time>
      </trkpt>
      <trkpt lat="43.28166" lon="2.47155">
        <ele>184.9</ele>
        <time>2021-09-07T06:15:31Z</time>
      </trkpt>
      <trkpt lat="43.28166" lon="2.47149">
        <ele>185.3</ele>
        <time>2021-09-07T06:15:33Z</time>
      </trkpt>
      <trkpt lat="43.28166" lon="2.47143">
        <ele>185.6</ele>
        <time>2021-09-07T06:15:35Z</time>
      </trkpt>
      <trkpt lat="43.28167" lon="2.47139">
        <ele>185.8</ele>
        <time>2021-09-07T06:15:36Z</time>
      </trkpt>
      <trkpt lat="43.28167" lon="2.47133">
        <ele>186.1</ele>
        <time>2021-09-07T06:15:38Z</time>
      </trkpt>
      <trkpt lat="43.28166" lon="2.47131">
        <ele>186.2</ele>
        <time>2021-09-07T06:15:39Z</time>
      </trkpt>
      <trkpt lat="43.28165" lon="2.47126">
        <ele>186.4</ele>
        <time>2021-09-07T06:15:41Z</time>
      </trkpt>
      <trkpt lat="43.28164" lon="2.4712">
        <ele>186.6</ele>
        <time>2021-09-07T06:15:43Z</time>
      </trkpt>
      <trkpt lat="43.28161" lon="2.47115">
        <ele>186.9</ele>
        <time>2021-09-07T06:15:45Z</time>
      </trkpt>
      <trkpt lat="43.2816" lon="2.4711">
        <ele>187.1</ele>
        <time>2021-09-07T06:15:47Z</time>
      </trkpt>
      <trkpt lat="43.28159" lon="2.47107">
        <ele>187.2</ele>
        <time>2021-09-07T06:15:48Z</time>
      </trkpt>
      <trkpt lat="43.28158" lon="2.47102">
        <ele>187.4</ele>
        <time>2021-09-07T06:15:50Z</time>
      </trkpt>
      <trkpt lat="43.28157" lon="2.47099">
        <ele>187.5</ele>
        <time>2021-09-07T06:15:51Z</time>
      </trkpt>
      <trkpt lat="43.28154" lon="2.47094">
        <ele>187.7</ele>
        <time>2021-09-07T06:15:53Z</time>
      </trkpt>
      <trkpt lat="43.28152" lon="2.47088">
        <ele>188</ele>
        <time>2021-09-07T06:15:55Z</time>
      </trkpt>
      <trkpt lat="43.2815" lon="2.47082">
        <ele>188.3</ele>
        <time>2021-09-07T06:15:57Z</time>
      </trkpt>
      <trkpt lat="43.28148" lon="2.47077">
        <ele>188.5</ele>
        <time>2021-09-07T06:15:59Z</time>
      </trkpt>
      <trkpt lat="43.28147" lon="2.4707">
        <ele>188.7</ele>
        <time>2021-09-07T06:16:01Z</time>
      </trkpt>
      <trkpt lat="43.28145" lon="2.47066">
        <ele>188.9</ele>
        <time>2021-09-07T06:16:02Z</time>
      </trkpt>
      <trkpt lat="43.28144" lon="2.47064">
        <ele>189</ele>
        <time>2021-09-07T06:16:03Z</time>
      </trkpt>
      <trkpt lat="43.28143" lon="2.47061">
        <ele>189.1</ele>
        <time>2021-09-07T06:16:04Z</time>
      </trkpt>
      <trkpt lat="43.28141" lon="2.47055">
        <ele>189.2</ele>
        <time>2021-09-07T06:16:06Z</time>
      </trkpt>
      <trkpt lat="43.28141" lon="2.47052">
        <ele>189.3</ele>
        <time>2021-09-07T06:16:07Z</time>
      </trkpt>
      <trkpt lat="43.28139" lon="2.47046">
        <ele>189.5</ele>
        <time>2021-09-07T06:16:09Z</time>
      </trkpt>
      <trkpt lat="43.28137" lon="2.4704">
        <ele>189.6</ele>
        <time>2021-09-07T06:16:11Z</time>
      </trkpt>
      <trkpt lat="43.28135" lon="2.47033">
        <ele>189.8</ele>
        <time>2021-09-07T06:16:13Z</time>
      </trkpt>
      <trkpt lat="43.28134" lon="2.47026">
        <ele>189.9</ele>
        <time>2021-09-07T06:16:15Z</time>
      </trkpt>
      <trkpt lat="43.28133" lon="2.47019">
        <ele>190</ele>
        <time>2021-09-07T06:16:17Z</time>
      </trkpt>
      <trkpt lat="43.28132" lon="2.47011">
        <ele>190.1</ele>
        <time>2021-09-07T06:16:19Z</time>
      </trkpt>
      <trkpt lat="43.28131" lon="2.47005">
        <ele>190.2</ele>
        <time>2021-09-07T06:16:21Z</time>
      </trkpt>
      <trkpt lat="43.2813" lon="2.47002">
        <ele>190.2</ele>
        <time>2021-09-07T06:16:22Z</time>
      </trkpt>
      <trkpt lat="43.28128" lon="2.46996">
        <ele>190.4</ele>
        <time>2021-09-07T06:16:24Z</time>
      </trkpt>
      <trkpt lat="43.28126" lon="2.46992">
        <ele>190.4</ele>
        <time>2021-09-07T06:16:25Z</time>
      </trkpt>
      <trkpt lat="43.28125" lon="2.46991">
        <ele>190.5</ele>
        <time>2021-09-07T06:16:26Z</time>
      </trkpt>
      <trkpt lat="43.28124" lon="2.46985">
        <ele>190.6</ele>
        <time>2021-09-07T06:16:28Z</time>
      </trkpt>
      <trkpt lat="43.28122" lon="2.46979">
        <ele>190.8</ele>
        <time>2021-09-07T06:16:30Z</time>
      </trkpt>
      <trkpt lat="43.2812" lon="2.46972">
        <ele>190.9</ele>
        <time>2021-09-07T06:16:32Z</time>
      </trkpt>
      <trkpt lat="43.28118" lon="2.46966">
        <ele>191</ele>
        <time>2021-09-07T06:16:34Z</time>
      </trkpt>
      <trkpt lat="43.28117" lon="2.46963">
        <ele>191.1</ele>
        <time>2021-09-07T06:16:35Z</time>
      </trkpt>
      <trkpt lat="43.28115" lon="2.46957">
        <ele>191.2</ele>
        <time>2021-09-07T06:16:37Z</time>
      </trkpt>
      <trkpt lat="43.28113" lon="2.46953">
        <ele>191.2</ele>
        <time>2021-09-07T06:16:38Z</time>
      </trkpt>
      <trkpt lat="43.28112" lon="2.46952">
        <ele>191.2</ele>
        <time>2021-09-07T06:16:39Z</time>
      </trkpt>
      <trkpt lat="43.2811" lon="2.46949">
        <ele>191.2</ele>
        <time>2021-09-07T06:16:41Z</time>
      </trkpt>
      <trkpt lat="43.28108" lon="2.46947">
        <ele>191.2</ele>
        <time>2021-09-07T06:16:42Z</time>
      </trkpt>
      <trkpt lat="43.28107" lon="2.46947">
        <ele>191.2</ele>
        <time>2021-09-07T06:16:43Z</time>
      </trkpt>
      <trkpt lat="43.28106" lon="2.46946">
        <ele>191.2</ele>
        <time>2021-09-07T06:16:45Z</time>
      </trkpt>
      <trkpt lat="43.28104" lon="2.46945">
        <ele>191.2</ele>
        <time>2021-09-07T06:16:46Z</time>
      </trkpt>
      <trkpt lat="43.28103" lon="2.46944">
        <ele>191.2</ele>
        <time>2021-09-07T06:16:48Z</time>
      </trkpt>
      <trkpt lat="43.28102" lon="2.46943">
        <ele>191.2</ele>
        <time>2021-09-07T06:16:49Z</time>
      </trkpt>
      <trkpt lat="43.28099" lon="2.46939">
        <ele>191.3</ele>
        <time>2021-09-07T06:16:51Z</time>
      </trkpt>
      <trkpt lat="43.28098" lon="2.46936">
        <ele>191.2</ele>
        <time>2021-09-07T06:16:52Z</time>
      </trkpt>
      <trkpt lat="43.28098" lon="2.46931">
        <ele>191.1</ele>
        <time>2021-09-07T06:16:54Z</time>
      </trkpt>
      <trkpt lat="43.28098" lon="2.4693">
        <ele>191</ele>
        <time>2021-09-07T06:16:56Z</time>
      </trkpt>
      <trkpt lat="43.28099" lon="2.46933">
        <ele>191</ele>
        <time>2021-09-07T06:16:58Z</time>
      </trkpt>
      <trkpt lat="43.28099" lon="2.46935">
        <ele>190.9</ele>
        <time>2021-09-07T06:16:59Z</time>
      </trkpt>
      <trkpt lat="43.28099" lon="2.46938">
        <ele>190.8</ele>
        <time>2021-09-07T06:17:00Z</time>
      </trkpt>
      <trkpt lat="43.281" lon="2.46945">
        <ele>190.7</ele>
        <time>2021-09-07T06:17:02Z</time>
      </trkpt>
      <trkpt lat="43.28101" lon="2.4695">
        <ele>190.5</ele>
        <time>2021-09-07T06:17:03Z</time>
      </trkpt>
      <trkpt lat="43.28101" lon="2.46952">
        <ele>190.5</ele>
        <time>2021-09-07T06:17:04Z</time>
      </trkpt>
      <trkpt lat="43.281" lon="2.46959">
        <ele>190.3</ele>
        <time>2021-09-07T06:17:06Z</time>
      </trkpt>
      <trkpt lat="43.281" lon="2.46966">
        <ele>190.1</ele>
        <time>2021-09-07T06:17:08Z</time>
      </trkpt>
      <trkpt lat="43.28099" lon="2.4697">
        <ele>190</ele>
        <time>2021-09-07T06:17:09Z</time>
      </trkpt>
      <trkpt lat="43.28098" lon="2.46977">
        <ele>189.8</ele>
        <time>2021-09-07T06:17:11Z</time>
      </trkpt>
      <trkpt lat="43.28097" lon="2.4698">
        <ele>189.7</ele>
        <time>2021-09-07T06:17:12Z</time>
      </trkpt>
      <trkpt lat="43.28096" lon="2.46984">
        <ele>189.6</ele>
        <time>2021-09-07T06:17:13Z</time>
      </trkpt>
      <trkpt lat="43.28094" lon="2.46989">
        <ele>189.5</ele>
        <time>2021-09-07T06:17:14Z</time>
      </trkpt>
      <trkpt lat="43.28094" lon="2.4699">
        <ele>189.4</ele>
        <time>2021-09-07T06:17:15Z</time>
      </trkpt>
      <trkpt lat="43.28092" lon="2.46996">
        <ele>189.2</ele>
        <time>2021-09-07T06:17:17Z</time>
      </trkpt>
      <trkpt lat="43.28091" lon="2.47001">
        <ele>189.1</ele>
        <time>2021-09-07T06:17:18Z</time>
      </trkpt>
      <trkpt lat="43.2809" lon="2.47002">
        <ele>189.1</ele>
        <time>2021-09-07T06:17:19Z</time>
      </trkpt>
      <trkpt lat="43.28089" lon="2.47009">
        <ele>188.9</ele>
        <time>2021-09-07T06:17:21Z</time>
      </trkpt>
      <trkpt lat="43.28087" lon="2.47015">
        <ele>188.7</ele>
        <time>2021-09-07T06:17:23Z</time>
      </trkpt>
      <trkpt lat="43.28086" lon="2.47019">
        <ele>188.6</ele>
        <time>2021-09-07T06:17:24Z</time>
      </trkpt>
      <trkpt lat="43.28084" lon="2.47025">
        <ele>188.4</ele>
        <time>2021-09-07T06:17:26Z</time>
      </trkpt>
      <trkpt lat="43.28082" lon="2.47032">
        <ele>188.2</ele>
        <time>2021-09-07T06:17:28Z</time>
      </trkpt>
      <trkpt lat="43.28082" lon="2.47039">
        <ele>188</ele>
        <time>2021-09-07T06:17:30Z</time>
      </trkpt>
      <trkpt lat="43.28081" lon="2.47043">
        <ele>187.9</ele>
        <time>2021-09-07T06:17:31Z</time>
      </trkpt>
      <trkpt lat="43.28081" lon="2.47047">
        <ele>187.8</ele>
        <time>2021-09-07T06:17:32Z</time>
      </trkpt>
      <trkpt lat="43.28081" lon="2.47051">
        <ele>187.7</ele>
        <time>2021-09-07T06:17:33Z</time>
      </trkpt>
      <trkpt lat="43.28081" lon="2.47058">
        <ele>187.5</ele>
        <time>2021-09-07T06:17:35Z</time>
      </trkpt>
      <trkpt lat="43.28081" lon="2.47064">
        <ele>187.3</ele>
        <time>2021-09-07T06:17:37Z</time>
      </trkpt>
      <trkpt lat="43.28081" lon="2.4707">
        <ele>187.1</ele>
        <time>2021-09-07T06:17:39Z</time>
      </trkpt>
      <trkpt lat="43.28081" lon="2.47075">
        <ele>187</ele>
        <time>2021-09-07T06:17:40Z</time>
      </trkpt>
      <trkpt lat="43.28081" lon="2.47077">
        <ele>186.9</ele>
        <time>2021-09-07T06:17:41Z</time>
      </trkpt>
      <trkpt lat="43.28082" lon="2.47083">
        <ele>186.7</ele>
        <time>2021-09-07T06:17:43Z</time>
      </trkpt>
      <trkpt lat="43.28083" lon="2.47089">
        <ele>186.5</ele>
        <time>2021-09-07T06:17:45Z</time>
      </trkpt>
      <trkpt lat="43.28084" lon="2.47094">
        <ele>186.3</ele>
        <time>2021-09-07T06:17:46Z</time>
      </trkpt>
      <trkpt lat="43.28084" lon="2.47096">
        <ele>186.3</ele>
        <time>2021-09-07T06:17:47Z</time>
      </trkpt>
      <trkpt lat="43.28084" lon="2.47099">
        <ele>186.2</ele>
        <time>2021-09-07T06:17:48Z</time>
      </trkpt>
      <trkpt lat="43.28085" lon="2.47106">
        <ele>185.9</ele>
        <time>2021-09-07T06:17:50Z</time>
      </trkpt>
      <trkpt lat="43.28085" lon="2.47111">
        <ele>185.8</ele>
        <time>2021-09-07T06:17:51Z</time>
      </trkpt>
      <trkpt lat="43.28086" lon="2.47113">
        <ele>185.7</ele>
        <time>2021-09-07T06:17:52Z</time>
      </trkpt>
      <trkpt lat="43.28087" lon="2.47119">
        <ele>185.5</ele>
        <time>2021-09-07T06:17:54Z</time>
      </trkpt>
      <trkpt lat="43.28087" lon="2.47125">
        <ele>185.3</ele>
        <time>2021-09-07T06:17:56Z</time>
      </trkpt>
      <trkpt lat="43.28088" lon="2.47128">
        <ele>185.2</ele>
        <time>2021-09-07T06:17:57Z</time>
      </trkpt>
      <trkpt lat="43.28089" lon="2.47128">
        <ele>185.2</ele>
        <time>2021-09-07T06:17:59Z</time>
      </trkpt>
      <trkpt lat="43.28089" lon="2.47128">
        <ele>185.2</ele>
        <time>2021-09-07T06:18:00Z</time>
      </trkpt>
      <trkpt lat="43.28089" lon="2.47129">
        <ele>185.1</ele>
        <time>2021-09-07T06:18:02Z</time>
      </trkpt>
      <trkpt lat="43.28089" lon="2.47129">
        <ele>185.1</ele>
        <time>2021-09-07T06:18:03Z</time>
      </trkpt>
      <trkpt lat="43.28089" lon="2.4713">
        <ele>185.1</ele>
        <time>2021-09-07T06:18:05Z</time>
      </trkpt>
      <trkpt lat="43.2809" lon="2.4713">
        <ele>185.1</ele>
        <time>2021-09-07T06:18:07Z</time>
      </trkpt>
      <trkpt lat="43.2809" lon="2.47131">
        <ele>185.1</ele>
        <time>2021-09-07T06:18:08Z</time>
      </trkpt>
      <trkpt lat="43.2809" lon="2.47131">
        <ele>185</ele>
        <time>2021-09-07T06:18:09Z</time>
      </trkpt>
      <trkpt lat="43.2809" lon="2.47131">
        <ele>185</ele>
        <time>2021-09-07T06:18:11Z</time>
      </trkpt>
      <trkpt lat="43.28091" lon="2.47132">
        <ele>185</ele>
        <time>2021-09-07T06:18:12Z</time>
      </trkpt>
      <trkpt lat="43.28091" lon="2.47132">
        <ele>185</ele>
        <time>2021-09-07T06:18:13Z</time>
      </trkpt>
      <trkpt lat="43.28091" lon="2.47139">
        <ele>184.8</ele>
        <time>2021-09-07T06:18:15Z</time>
      </trkpt>
      <trkpt lat="43.2809" lon="2.47144">
        <ele>184.6</ele>
        <time>2021-09-07T06:18:17Z</time>
      </trkpt>
      <trkpt lat="43.28091" lon="2.47148">
        <ele>184.4</ele>
        <time>2021-09-07T06:18:18Z</time>
      </trkpt>
      <trkpt lat="43.28091" lon="2.4715">
        <ele>184.4</ele>
        <time>2021-09-07T06:18:19Z</time>
      </trkpt>
      <trkpt lat="43.28091" lon="2.47155">
        <ele>184.2</ele>
        <time>2021-09-07T06:18:21Z</time>
      </trkpt>
      <trkpt lat="43.28091" lon="2.47158">
        <ele>184.1</ele>
        <time>2021-09-07T06:18:23Z</time>
      </trkpt>
      <trkpt lat="43.28092" lon="2.4716">
        <ele>184.1</ele>
        <time>2021-09-07T06:18:24Z</time>
      </trkpt>
      <trkpt lat="43.28092" lon="2.47162">
        <ele>184.2</ele>
        <time>2021-09-07T06:18:25Z</time>
      </trkpt>
      <trkpt lat="43.28092" lon="2.47165">
        <ele>184.3</ele>
        <time>2021-09-07T06:18:27Z</time>
      </trkpt>
      <trkpt lat="43.28093" lon="2.47169">
        <ele>184.4</ele>
        <time>2021-09-07T06:18:29Z</time>
      </trkpt>
      <trkpt lat="43.28093" lon="2.4717">
        <ele>184.5</ele>
        <time>2021-09-07T06:18:30Z</time>
      </trkpt>
      <trkpt lat="43.28093" lon="2.4717">
        <ele>184.5</ele>
        <time>2021-09-07T06:18:32Z</time>
      </trkpt>
      <trkpt lat="43.28093" lon="2.47168">
        <ele>184.6</ele>
        <time>2021-09-07T06:18:34Z</time>
      </trkpt>
      <trkpt lat="43.28092" lon="2.47166">
        <ele>184.6</ele>
        <time>2021-09-07T06:18:36Z</time>
      </trkpt>
      <trkpt lat="43.28092" lon="2.47164">
        <ele>184.7</ele>
        <time>2021-09-07T06:18:37Z</time>
      </trkpt>
      <trkpt lat="43.28091" lon="2.47159">
        <ele>184.9</ele>
        <time>2021-09-07T06:18:39Z</time>
      </trkpt>
      <trkpt lat="43.2809" lon="2.47156">
        <ele>185</ele>
        <time>2021-09-07T06:18:40Z</time>
      </trkpt>
      <trkpt lat="43.28089" lon="2.4715">
        <ele>185.2</ele>
        <time>2021-09-07T06:18:42Z</time>
      </trkpt>
      <trkpt lat="43.28088" lon="2.47144">
        <ele>185.4</ele>
        <time>2021-09-07T06:18:44Z</time>
      </trkpt>
      <trkpt lat="43.28088" lon="2.47138">
        <ele>185.6</ele>
        <time>2021-09-07T06:18:46Z</time>
      </trkpt>
      <trkpt lat="43.28087" lon="2.47133">
        <ele>185.7</ele>
        <time>2021-09-07T06:18:48Z</time>
      </trkpt>
      <trkpt lat="43.28086" lon="2.47131">
        <ele>185.8</ele>
        <time>2021-09-07T06:18:49Z</time>
      </trkpt>
      <trkpt lat="43.28085" lon="2.47125">
        <ele>186</ele>
        <time>2021-09-07T06:18:51Z</time>
      </trkpt>
      <trkpt lat="43.28084" lon="2.47119">
        <ele>186.2</ele>
        <time>2021-09-07T06:18:53Z</time>
      </trkpt>
      <trkpt lat="43.28084" lon="2.47114">
        <ele>186.3</ele>
        <time>2021-09-07T06:18:54Z</time>
      </trkpt>
      <trkpt lat="43.28083" lon="2.47113">
        <ele>186.4</ele>
        <time>2021-09-07T06:18:55Z</time>
      </trkpt>
      <trkpt lat="43.28083" lon="2.4711">
        <ele>186.5</ele>
        <time>2021-09-07T06:18:56Z</time>
      </trkpt>
      <trkpt lat="43.28082" lon="2.47105">
        <ele>186.7</ele>
        <time>2021-09-07T06:18:58Z</time>
      </trkpt>
      <trkpt lat="43.28081" lon="2.47099">
        <ele>186.8</ele>
        <time>2021-09-07T06:19:00Z</time>
      </trkpt>
      <trkpt lat="43.2808" lon="2.47096">
        <ele>186.9</ele>
        <time>2021-09-07T06:19:01Z</time>
      </trkpt>
      <trkpt lat="43.28079" lon="2.4709">
        <ele>187.1</ele>
        <time>2021-09-07T06:19:03Z</time>
      </trkpt>
      <trkpt lat="43.28079" lon="2.47085">
        <ele>187.2</ele>
        <time>2021-09-07T06:19:04Z</time>
      </trkpt>
      <trkpt lat="43.28078" lon="2.47084">
        <ele>187.3</ele>
        <time>2021-09-07T06:19:05Z</time>
      </trkpt>
      <trkpt lat="43.28078" lon="2.47078">
        <ele>187.5</ele>
        <time>2021-09-07T06:19:07Z</time>
      </trkpt>
      <trkpt lat="43.28077" lon="2.47074">
        <ele>187.6</ele>
        <time>2021-09-07T06:19:08Z</time>
      </trkpt>
      <trkpt lat="43.28077" lon="2.47068">
        <ele>187.7</ele>
        <time>2021-09-07T06:19:10Z</time>
      </trkpt>
      <trkpt lat="43.28077" lon="2.47062">
        <ele>187.9</ele>
        <time>2021-09-07T06:19:11Z</time>
      </trkpt>
      <trkpt lat="43.28077" lon="2.47061">
        <ele>187.9</ele>
        <time>2021-09-07T06:19:12Z</time>
      </trkpt>
      <trkpt lat="43.28077" lon="2.47057">
        <ele>188</ele>
        <time>2021-09-07T06:19:13Z</time>
      </trkpt>
      <trkpt lat="43.28078" lon="2.47049">
        <ele>188.2</ele>
        <time>2021-09-07T06:19:15Z</time>
      </trkpt>
      <trkpt lat="43.28078" lon="2.47044">
        <ele>188.4</ele>
        <time>2021-09-07T06:19:16Z</time>
      </trkpt>
      <trkpt lat="43.28078" lon="2.47042">
        <ele>188.4</ele>
        <time>2021-09-07T06:19:17Z</time>
      </trkpt>
      <trkpt lat="43.28079" lon="2.47035">
        <ele>188.6</ele>
        <time>2021-09-07T06:19:19Z</time>
      </trkpt>
      <trkpt lat="43.28081" lon="2.47028">
        <ele>188.8</ele>
        <time>2021-09-07T06:19:21Z</time>
      </trkpt>
      <trkpt lat="43.28081" lon="2.47024">
        <ele>188.9</ele>
        <time>2021-09-07T06:19:22Z</time>
      </trkpt>
      <trkpt lat="43.28081" lon="2.47023">
        <ele>188.9</ele>
        <time>2021-09-07T06:19:23Z</time>
      </trkpt>
      <trkpt lat="43.28081" lon="2.47018">
        <ele>189</ele>
        <time>2021-09-07T06:19:25Z</time>
      </trkpt>
      <trkpt lat="43.28081" lon="2.47012">
        <ele>189.2</ele>
        <time>2021-09-07T06:19:27Z</time>
      </trkpt>
      <trkpt lat="43.28081" lon="2.47007">
        <ele>189.3</ele>
        <time>2021-09-07T06:19:29Z</time>
      </trkpt>
      <trkpt lat="43.28082" lon="2.47002">
        <ele>189.4</ele>
        <time>2021-09-07T06:19:30Z</time>
      </trkpt>
      <trkpt lat="43.28082" lon="2.47001">
        <ele>189.5</ele>
        <time>2021-09-07T06:19:31Z</time>
      </trkpt>
      <trkpt lat="43.28083" lon="2.46994">
        <ele>189.7</ele>
        <time>2021-09-07T06:19:33Z</time>
      </trkpt>
      <trkpt lat="43.28084" lon="2.46989">
        <ele>189.8</ele>
        <time>2021-09-07T06:19:35Z</time>
      </trkpt>
      <trkpt lat="43.28085" lon="2.46984">
        <ele>189.9</ele>
        <time>2021-09-07T06:19:37Z</time>
      </trkpt>
      <trkpt lat="43.28085" lon="2.46983">
        <ele>189.9</ele>
        <time>2021-09-07T06:19:38Z</time>
      </trkpt>
      <trkpt lat="43.28086" lon="2.4698">
        <ele>190</ele>
        <time>2021-09-07T06:19:40Z</time>
      </trkpt>
      <trkpt lat="43.28086" lon="2.46977">
        <ele>190.1</ele>
        <time>2021-09-07T06:19:42Z</time>
      </trkpt>
      <trkpt lat="43.28084" lon="2.46974">
        <ele>190.2</ele>
        <time>2021-09-07T06:19:44Z</time>
      </trkpt>
      <trkpt lat="43.28082" lon="2.46972">
        <ele>190.3</ele>
        <time>2021-09-07T06:19:46Z</time>
      </trkpt>
      <trkpt lat="43.28081" lon="2.46969">
        <ele>190.3</ele>
        <time>2021-09-07T06:19:48Z</time>
      </trkpt>
      <trkpt lat="43.2808" lon="2.46968">
        <ele>190.5</ele>
        <time>2021-09-07T06:19:49Z</time>
      </trkpt>
      <trkpt lat="43.28078" lon="2.46966">
        <ele>190.5</ele>
        <time>2021-09-07T06:19:51Z</time>
      </trkpt>
      <trkpt lat="43.28077" lon="2.46965">
        <ele>190.6</ele>
        <time>2021-09-07T06:19:52Z</time>
      </trkpt>
      <trkpt lat="43.28075" lon="2.46965">
        <ele>190.6</ele>
        <time>2021-09-07T06:19:53Z</time>
      </trkpt>
      <trkpt lat="43.28073" lon="2.46964">
        <ele>190.7</ele>
        <time>2021-09-07T06:19:55Z</time>
      </trkpt>
      <trkpt lat="43.28072" lon="2.46964">
        <ele>190.7</ele>
        <time>2021-09-07T06:19:56Z</time>
      </trkpt>
      <trkpt lat="43.28071" lon="2.46964">
        <ele>190.7</ele>
        <time>2021-09-07T06:19:57Z</time>
      </trkpt>
      <trkpt lat="43.28068" lon="2.46966">
        <ele>190.8</ele>
        <time>2021-09-07T06:19:59Z</time>
      </trkpt>
      <trkpt lat="43.28067" lon="2.46966">
        <ele>190.8</ele>
        <time>2021-09-07T06:20:00Z</time>
      </trkpt>
      <trkpt lat="43.28066" lon="2.46966">
        <ele>190.8</ele>
        <time>2021-09-07T06:20:01Z</time>
      </trkpt>
      <trkpt lat="43.28065" lon="2.46966">
        <ele>190.8</ele>
        <time>2021-09-07T06:20:02Z</time>
      </trkpt>
      <trkpt lat="43.28062" lon="2.46966">
        <ele>190.9</ele>
        <time>2021-09-07T06:20:04Z</time>
      </trkpt>
      <trkpt lat="43.2806" lon="2.46966">
        <ele>191.1</ele>
        <time>2021-09-07T06:20:06Z</time>
      </trkpt>
      <trkpt lat="43.28057" lon="2.46965">
        <ele>191.2</ele>
        <time>2021-09-07T06:20:08Z</time>
      </trkpt>
      <trkpt lat="43.28054" lon="2.46965">
        <ele>191.3</ele>
        <time>2021-09-07T06:20:10Z</time>
      </trkpt>
      <trkpt lat="43.28052" lon="2.46964">
        <ele>191.4</ele>
        <time>2021-09-07T06:20:12Z</time>
      </trkpt>
      <trkpt lat="43.28051" lon="2.46964">
        <ele>191.4</ele>
        <time>2021-09-07T06:20:13Z</time>
      </trkpt>
      <trkpt lat="43.28048" lon="2.46964">
        <ele>191.5</ele>
        <time>2021-09-07T06:20:15Z</time>
      </trkpt>
      <trkpt lat="43.28047" lon="2.46964">
        <ele>191.5</ele>
        <time>2021-09-07T06:20:16Z</time>
      </trkpt>
      <trkpt lat="43.28044" lon="2.46964">
        <ele>191.6</ele>
        <time>2021-09-07T06:20:18Z</time>
      </trkpt>
      <trkpt lat="43.28043" lon="2.46964">
        <ele>191.6</ele>
        <time>2021-09-07T06:20:19Z</time>
      </trkpt>
      <trkpt lat="43.28041" lon="2.46963">
        <ele>191.7</ele>
        <time>2021-09-07T06:20:21Z</time>
      </trkpt>
      <trkpt lat="43.2804" lon="2.46962">
        <ele>191.7</ele>
        <time>2021-09-07T06:20:22Z</time>
      </trkpt>
      <trkpt lat="43.28038" lon="2.4696">
        <ele>191.9</ele>
        <time>2021-09-07T06:20:24Z</time>
      </trkpt>
      <trkpt lat="43.28036" lon="2.46956">
        <ele>191.9</ele>
        <time>2021-09-07T06:20:26Z</time>
      </trkpt>
      <trkpt lat="43.28036" lon="2.46954">
        <ele>192</ele>
        <time>2021-09-07T06:20:27Z</time>
      </trkpt>
      <trkpt lat="43.28035" lon="2.46949">
        <ele>192.1</ele>
        <time>2021-09-07T06:20:29Z</time>
      </trkpt>
      <trkpt lat="43.28034" lon="2.46947">
        <ele>192.1</ele>
        <time>2021-09-07T06:20:30Z</time>
      </trkpt>
      <trkpt lat="43.28031" lon="2.46942">
        <ele>192.3</ele>
        <time>2021-09-07T06:20:32Z</time>
      </trkpt>
      <trkpt lat="43.28028" lon="2.46937">
        <ele>192.4</ele>
        <time>2021-09-07T06:20:34Z</time>
      </trkpt>
      <trkpt lat="43.28026" lon="2.46935">
        <ele>192.5</ele>
        <time>2021-09-07T06:20:35Z</time>
      </trkpt>
      <trkpt lat="43.28021" lon="2.46931">
        <ele>192.7</ele>
        <time>2021-09-07T06:20:37Z</time>
      </trkpt>
      <trkpt lat="43.28019" lon="2.46929">
        <ele>192.8</ele>
        <time>2021-09-07T06:20:38Z</time>
      </trkpt>
      <trkpt lat="43.28015" lon="2.46926">
        <ele>192.9</ele>
        <time>2021-09-07T06:20:40Z</time>
      </trkpt>
      <trkpt lat="43.28012" lon="2.46923">
        <ele>193</ele>
        <time>2021-09-07T06:20:41Z</time>
      </trkpt>
      <trkpt lat="43.28011" lon="2.46922">
        <ele>193.1</ele>
        <time>2021-09-07T06:20:42Z</time>
      </trkpt>
      <trkpt lat="43.28006" lon="2.46919">
        <ele>193.2</ele>
        <time>2021-09-07T06:20:44Z</time>
      </trkpt>
      <trkpt lat="43.28003" lon="2.46916">
        <ele>193.2</ele>
        <time>2021-09-07T06:20:45Z</time>
      </trkpt>
      <trkpt lat="43.28002" lon="2.46915">
        <ele>193.2</ele>
        <time>2021-09-07T06:20:46Z</time>
      </trkpt>
      <trkpt lat="43.27998" lon="2.46909">
        <ele>193.4</ele>
        <time>2021-09-07T06:20:48Z</time>
      </trkpt>
      <trkpt lat="43.27994" lon="2.46905">
        <ele>193.4</ele>
        <time>2021-09-07T06:20:50Z</time>
      </trkpt>
      <trkpt lat="43.27992" lon="2.46902">
        <ele>193.4</ele>
        <time>2021-09-07T06:20:51Z</time>
      </trkpt>
      <trkpt lat="43.27989" lon="2.46899">
        <ele>193.4</ele>
        <time>2021-09-07T06:20:53Z</time>
      </trkpt>
      <trkpt lat="43.27985" lon="2.46897">
        <ele>193.5</ele>
        <time>2021-09-07T06:20:55Z</time>
      </trkpt>
      <trkpt lat="43.27981" lon="2.46894">
        <ele>193.5</ele>
        <time>2021-09-07T06:20:57Z</time>
      </trkpt>
      <trkpt lat="43.27979" lon="2.46892">
        <ele>193.5</ele>
        <time>2021-09-07T06:20:58Z</time>
      </trkpt>
      <trkpt lat="43.27974" lon="2.46889">
        <ele>193.5</ele>
        <time>2021-09-07T06:21:00Z</time>
      </trkpt>
      <trkpt lat="43.2797" lon="2.46887">
        <ele>193.5</ele>
        <time>2021-09-07T06:21:02Z</time>
      </trkpt>
      <trkpt lat="43.27965" lon="2.46886">
        <ele>193.5</ele>
        <time>2021-09-07T06:21:04Z</time>
      </trkpt>
      <trkpt lat="43.27961" lon="2.46884">
        <ele>193.5</ele>
        <time>2021-09-07T06:21:06Z</time>
      </trkpt>
      <trkpt lat="43.27957" lon="2.46882">
        <ele>193.4</ele>
        <time>2021-09-07T06:21:08Z</time>
      </trkpt>
      <trkpt lat="43.27955" lon="2.46881">
        <ele>193.4</ele>
        <time>2021-09-07T06:21:09Z</time>
      </trkpt>
      <trkpt lat="43.27951" lon="2.46881">
        <ele>193.3</ele>
        <time>2021-09-07T06:21:11Z</time>
      </trkpt>
      <trkpt lat="43.27946" lon="2.4688">
        <ele>193.3</ele>
        <time>2021-09-07T06:21:13Z</time>
      </trkpt>
      <trkpt lat="43.27942" lon="2.46877">
        <ele>193.2</ele>
        <time>2021-09-07T06:21:15Z</time>
      </trkpt>
      <trkpt lat="43.2794" lon="2.46877">
        <ele>193.2</ele>
        <time>2021-09-07T06:21:16Z</time>
      </trkpt>
      <trkpt lat="43.27934" lon="2.46874">
        <ele>193.1</ele>
        <time>2021-09-07T06:21:18Z</time>
      </trkpt>
      <trkpt lat="43.2793" lon="2.46873">
        <ele>193</ele>
        <time>2021-09-07T06:21:20Z</time>
      </trkpt>
      <trkpt lat="43.27928" lon="2.46872">
        <ele>193</ele>
        <time>2021-09-07T06:21:21Z</time>
      </trkpt>
      <trkpt lat="43.27923" lon="2.46871">
        <ele>192.9</ele>
        <time>2021-09-07T06:21:23Z</time>
      </trkpt>
      <trkpt lat="43.27918" lon="2.46872">
        <ele>192.9</ele>
        <time>2021-09-07T06:21:25Z</time>
      </trkpt>
      <trkpt lat="43.27915" lon="2.46872">
        <ele>192.9</ele>
        <time>2021-09-07T06:21:26Z</time>
      </trkpt>
      <trkpt lat="43.27914" lon="2.46871">
        <ele>192.9</ele>
        <time>2021-09-07T06:21:27Z</time>
      </trkpt>
      <trkpt lat="43.2791" lon="2.46873">
        <ele>192.9</ele>
        <time>2021-09-07T06:21:29Z</time>
      </trkpt>
      <trkpt lat="43.27907" lon="2.46874">
        <ele>192.9</ele>
        <time>2021-09-07T06:21:30Z</time>
      </trkpt>
      <trkpt lat="43.27903" lon="2.46878">
        <ele>193</ele>
        <time>2021-09-07T06:21:32Z</time>
      </trkpt>
      <trkpt lat="43.27902" lon="2.46881">
        <ele>193.1</ele>
        <time>2021-09-07T06:21:33Z</time>
      </trkpt>
      <trkpt lat="43.27898" lon="2.46885">
        <ele>193.3</ele>
        <time>2021-09-07T06:21:35Z</time>
      </trkpt>
      <trkpt lat="43.27896" lon="2.46889">
        <ele>193.5</ele>
        <time>2021-09-07T06:21:36Z</time>
      </trkpt>
      <trkpt lat="43.27895" lon="2.4689">
        <ele>193.6</ele>
        <time>2021-09-07T06:21:37Z</time>
      </trkpt>
      <trkpt lat="43.27892" lon="2.46894">
        <ele>193.8</ele>
        <time>2021-09-07T06:21:39Z</time>
      </trkpt>
      <trkpt lat="43.27891" lon="2.46896">
        <ele>193.9</ele>
        <time>2021-09-07T06:21:40Z</time>
      </trkpt>
      <trkpt lat="43.27889" lon="2.469">
        <ele>194.1</ele>
        <time>2021-09-07T06:21:42Z</time>
      </trkpt>
      <trkpt lat="43.27887" lon="2.46905">
        <ele>194.3</ele>
        <time>2021-09-07T06:21:44Z</time>
      </trkpt>
      <trkpt lat="43.27887" lon="2.46911">
        <ele>194.4</ele>
        <time>2021-09-07T06:21:46Z</time>
      </trkpt>
      <trkpt lat="43.27887" lon="2.46914">
        <ele>194.4</ele>
        <time>2021-09-07T06:21:47Z</time>
      </trkpt>
      <trkpt lat="43.27886" lon="2.46921">
        <ele>194.5</ele>
        <time>2021-09-07T06:21:49Z</time>
      </trkpt>
      <trkpt lat="43.27885" lon="2.46926">
        <ele>194.5</ele>
        <time>2021-09-07T06:21:50Z</time>
      </trkpt>
      <trkpt lat="43.27885" lon="2.46927">
        <ele>194.5</ele>
        <time>2021-09-07T06:21:51Z</time>
      </trkpt>
      <trkpt lat="43.27884" lon="2.46934">
        <ele>194.5</ele>
        <time>2021-09-07T06:21:53Z</time>
      </trkpt>
      <trkpt lat="43.27884" lon="2.46938">
        <ele>194.6</ele>
        <time>2021-09-07T06:21:54Z</time>
      </trkpt>
      <trkpt lat="43.27884" lon="2.46941">
        <ele>194.6</ele>
        <time>2021-09-07T06:21:55Z</time>
      </trkpt>
      <trkpt lat="43.27883" lon="2.46948">
        <ele>194.6</ele>
        <time>2021-09-07T06:21:57Z</time>
      </trkpt>
      <trkpt lat="43.27883" lon="2.46952">
        <ele>194.6</ele>
        <time>2021-09-07T06:21:58Z</time>
      </trkpt>
      <trkpt lat="43.27883" lon="2.46959">
        <ele>194.6</ele>
        <time>2021-09-07T06:22:00Z</time>
      </trkpt>
      <trkpt lat="43.27882" lon="2.46962">
        <ele>194.6</ele>
        <time>2021-09-07T06:22:01Z</time>
      </trkpt>
      <trkpt lat="43.27882" lon="2.46969">
        <ele>194.6</ele>
        <time>2021-09-07T06:22:03Z</time>
      </trkpt>
      <trkpt lat="43.27882" lon="2.46973">
        <ele>194.7</ele>
        <time>2021-09-07T06:22:04Z</time>
      </trkpt>
      <trkpt lat="43.27881" lon="2.46979">
        <ele>194.8</ele>
        <time>2021-09-07T06:22:06Z</time>
      </trkpt>
      <trkpt lat="43.27882" lon="2.46985">
        <ele>194.9</ele>
        <time>2021-09-07T06:22:08Z</time>
      </trkpt>
      <trkpt lat="43.27881" lon="2.46988">
        <ele>194.9</ele>
        <time>2021-09-07T06:22:09Z</time>
      </trkpt>
      <trkpt lat="43.27881" lon="2.46994">
        <ele>195</ele>
        <time>2021-09-07T06:22:11Z</time>
      </trkpt>
      <trkpt lat="43.27881" lon="2.46997">
        <ele>195.1</ele>
        <time>2021-09-07T06:22:12Z</time>
      </trkpt>
      <trkpt lat="43.27881" lon="2.47003">
        <ele>195.2</ele>
        <time>2021-09-07T06:22:14Z</time>
      </trkpt>
      <trkpt lat="43.2788" lon="2.47006">
        <ele>195.3</ele>
        <time>2021-09-07T06:22:15Z</time>
      </trkpt>
      <trkpt lat="43.2788" lon="2.47012">
        <ele>195.4</ele>
        <time>2021-09-07T06:22:17Z</time>
      </trkpt>
      <trkpt lat="43.2788" lon="2.47018">
        <ele>195.6</ele>
        <time>2021-09-07T06:22:19Z</time>
      </trkpt>
      <trkpt lat="43.2788" lon="2.47024">
        <ele>195.8</ele>
        <time>2021-09-07T06:22:21Z</time>
      </trkpt>
      <trkpt lat="43.27879" lon="2.47032">
        <ele>196</ele>
        <time>2021-09-07T06:22:23Z</time>
      </trkpt>
      <trkpt lat="43.27879" lon="2.47038">
        <ele>196.2</ele>
        <time>2021-09-07T06:22:25Z</time>
      </trkpt>
      <trkpt lat="43.27879" lon="2.47045">
        <ele>196.4</ele>
        <time>2021-09-07T06:22:27Z</time>
      </trkpt>
      <trkpt lat="43.27879" lon="2.47051">
        <ele>196.6</ele>
        <time>2021-09-07T06:22:29Z</time>
      </trkpt>
      <trkpt lat="43.27879" lon="2.47057">
        <ele>196.9</ele>
        <time>2021-09-07T06:22:31Z</time>
      </trkpt>
      <trkpt lat="43.27879" lon="2.4706">
        <ele>197</ele>
        <time>2021-09-07T06:22:32Z</time>
      </trkpt>
      <trkpt lat="43.27878" lon="2.47067">
        <ele>197.2</ele>
        <time>2021-09-07T06:22:34Z</time>
      </trkpt>
      <trkpt lat="43.27878" lon="2.47071">
        <ele>197.3</ele>
        <time>2021-09-07T06:22:35Z</time>
      </trkpt>
      <trkpt lat="43.27877" lon="2.47078">
        <ele>197.5</ele>
        <time>2021-09-07T06:22:37Z</time>
      </trkpt>
      <trkpt lat="43.27877" lon="2.47086">
        <ele>197.5</ele>
        <time>2021-09-07T06:22:39Z</time>
      </trkpt>
      <trkpt lat="43.27876" lon="2.4709">
        <ele>197.5</ele>
        <time>2021-09-07T06:22:40Z</time>
      </trkpt>
      <trkpt lat="43.27874" lon="2.47095">
        <ele>197.5</ele>
        <time>2021-09-07T06:22:42Z</time>
      </trkpt>
      <trkpt lat="43.27873" lon="2.47099">
        <ele>197.4</ele>
        <time>2021-09-07T06:22:44Z</time>
      </trkpt>
      <trkpt lat="43.27873" lon="2.471">
        <ele>197.4</ele>
        <time>2021-09-07T06:22:45Z</time>
      </trkpt>
      <trkpt lat="43.27873" lon="2.47097">
        <ele>197.4</ele>
        <time>2021-09-07T06:22:47Z</time>
      </trkpt>
      <trkpt lat="43.27873" lon="2.47098">
        <ele>197.4</ele>
        <time>2021-09-07T06:22:48Z</time>
      </trkpt>
      <trkpt lat="43.27873" lon="2.47099">
        <ele>197.3</ele>
        <time>2021-09-07T06:22:50Z</time>
      </trkpt>
      <trkpt lat="43.27873" lon="2.471">
        <ele>197.3</ele>
        <time>2021-09-07T06:22:51Z</time>
      </trkpt>
      <trkpt lat="43.27873" lon="2.47103">
        <ele>197.2</ele>
        <time>2021-09-07T06:22:53Z</time>
      </trkpt>
      <trkpt lat="43.27872" lon="2.47107">
        <ele>197.1</ele>
        <time>2021-09-07T06:22:55Z</time>
      </trkpt>
      <trkpt lat="43.27872" lon="2.47112">
        <ele>197</ele>
        <time>2021-09-07T06:22:56Z</time>
      </trkpt>
      <trkpt lat="43.27871" lon="2.47113">
        <ele>196.9</ele>
        <time>2021-09-07T06:22:57Z</time>
      </trkpt>
      <trkpt lat="43.27871" lon="2.47117">
        <ele>196.8</ele>
        <time>2021-09-07T06:22:58Z</time>
      </trkpt>
      <trkpt lat="43.2787" lon="2.47123">
        <ele>196.6</ele>
        <time>2021-09-07T06:23:00Z</time>
      </trkpt>
      <trkpt lat="43.27869" lon="2.4713">
        <ele>196.4</ele>
        <time>2021-09-07T06:23:02Z</time>
      </trkpt>
      <trkpt lat="43.27867" lon="2.47137">
        <ele>196.3</ele>
        <time>2021-09-07T06:23:04Z</time>
      </trkpt>
      <trkpt lat="43.27866" lon="2.47144">
        <ele>196.1</ele>
        <time>2021-09-07T06:23:06Z</time>
      </trkpt>
      <trkpt lat="43.27866" lon="2.47147">
        <ele>196.1</ele>
        <time>2021-09-07T06:23:07Z</time>
      </trkpt>
      <trkpt lat="43.27864" lon="2.47153">
        <ele>195.9</ele>
        <time>2021-09-07T06:23:09Z</time>
      </trkpt>
      <trkpt lat="43.27863" lon="2.4716">
        <ele>195.7</ele>
        <time>2021-09-07T06:23:11Z</time>
      </trkpt>
      <trkpt lat="43.27861" lon="2.47166">
        <ele>195.5</ele>
        <time>2021-09-07T06:23:13Z</time>
      </trkpt>
      <trkpt lat="43.2786" lon="2.47172">
        <ele>195.3</ele>
        <time>2021-09-07T06:23:15Z</time>
      </trkpt>
      <trkpt lat="43.27859" lon="2.47176">
        <ele>195.1</ele>
        <time>2021-09-07T06:23:16Z</time>
      </trkpt>
      <trkpt lat="43.27859" lon="2.47177">
        <ele>195.1</ele>
        <time>2021-09-07T06:23:17Z</time>
      </trkpt>
      <trkpt lat="43.27858" lon="2.47181">
        <ele>194.9</ele>
        <time>2021-09-07T06:23:19Z</time>
      </trkpt>
      <trkpt lat="43.27856" lon="2.47186">
        <ele>194.7</ele>
        <time>2021-09-07T06:23:21Z</time>
      </trkpt>
      <trkpt lat="43.27854" lon="2.47192">
        <ele>194.5</ele>
        <time>2021-09-07T06:23:23Z</time>
      </trkpt>
      <trkpt lat="43.27853" lon="2.47195">
        <ele>194.4</ele>
        <time>2021-09-07T06:23:24Z</time>
      </trkpt>
      <trkpt lat="43.27851" lon="2.472">
        <ele>194.2</ele>
        <time>2021-09-07T06:23:26Z</time>
      </trkpt>
      <trkpt lat="43.2785" lon="2.47202">
        <ele>194.1</ele>
        <time>2021-09-07T06:23:27Z</time>
      </trkpt>
      <trkpt lat="43.27847" lon="2.47209">
        <ele>193.8</ele>
        <time>2021-09-07T06:23:29Z</time>
      </trkpt>
      <trkpt lat="43.27845" lon="2.47215">
        <ele>193.6</ele>
        <time>2021-09-07T06:23:31Z</time>
      </trkpt>
      <trkpt lat="43.27842" lon="2.47221">
        <ele>193.3</ele>
        <time>2021-09-07T06:23:33Z</time>
      </trkpt>
      <trkpt lat="43.27839" lon="2.47226">
        <ele>193</ele>
        <time>2021-09-07T06:23:35Z</time>
      </trkpt>
      <trkpt lat="43.27836" lon="2.47231">
        <ele>192.7</ele>
        <time>2021-09-07T06:23:37Z</time>
      </trkpt>
      <trkpt lat="43.27835" lon="2.47234">
        <ele>192.5</ele>
        <time>2021-09-07T06:23:38Z</time>
      </trkpt>
      <trkpt lat="43.27834" lon="2.47235">
        <ele>192.5</ele>
        <time>2021-09-07T06:23:39Z</time>
      </trkpt>
      <trkpt lat="43.27833" lon="2.47236">
        <ele>192.3</ele>
        <time>2021-09-07T06:23:41Z</time>
      </trkpt>
      <trkpt lat="43.27832" lon="2.47237">
        <ele>192.3</ele>
        <time>2021-09-07T06:23:43Z</time>
      </trkpt>
      <trkpt lat="43.27832" lon="2.47238">
        <ele>192.2</ele>
        <time>2021-09-07T06:23:45Z</time>
      </trkpt>
      <trkpt lat="43.27833" lon="2.47236">
        <ele>192.2</ele>
        <time>2021-09-07T06:23:47Z</time>
      </trkpt>
      <trkpt lat="43.27832" lon="2.47237">
        <ele>192.1</ele>
        <time>2021-09-07T06:23:49Z</time>
      </trkpt>
      <trkpt lat="43.2783" lon="2.47237">
        <ele>192</ele>
        <time>2021-09-07T06:23:51Z</time>
      </trkpt>
      <trkpt lat="43.2783" lon="2.47237">
        <ele>192</ele>
        <time>2021-09-07T06:23:52Z</time>
      </trkpt>
      <trkpt lat="43.2783" lon="2.47237">
        <ele>192</ele>
        <time>2021-09-07T06:23:54Z</time>
      </trkpt>
      <trkpt lat="43.27829" lon="2.47236">
        <ele>191.9</ele>
        <time>2021-09-07T06:23:55Z</time>
      </trkpt>
      <trkpt lat="43.27828" lon="2.47236">
        <ele>191.9</ele>
        <time>2021-09-07T06:23:57Z</time>
      </trkpt>
      <trkpt lat="43.27828" lon="2.47236">
        <ele>191.9</ele>
        <time>2021-09-07T06:23:59Z</time>
      </trkpt>
      <trkpt lat="43.27827" lon="2.47237">
        <ele>191.8</ele>
        <time>2021-09-07T06:24:01Z</time>
      </trkpt>
      <trkpt lat="43.27826" lon="2.47237">
        <ele>191.8</ele>
        <time>2021-09-07T06:24:02Z</time>
      </trkpt>
      <trkpt lat="43.27825" lon="2.47238">
        <ele>191.7</ele>
        <time>2021-09-07T06:24:03Z</time>
      </trkpt>
      <trkpt lat="43.27822" lon="2.47239">
        <ele>191.5</ele>
        <time>2021-09-07T06:24:05Z</time>
      </trkpt>
      <trkpt lat="43.2782" lon="2.4724">
        <ele>191.4</ele>
        <time>2021-09-07T06:24:06Z</time>
      </trkpt>
      <trkpt lat="43.27816" lon="2.47242">
        <ele>191.2</ele>
        <time>2021-09-07T06:24:08Z</time>
      </trkpt>
      <trkpt lat="43.27814" lon="2.47242">
        <ele>191.1</ele>
        <time>2021-09-07T06:24:09Z</time>
      </trkpt>
      <trkpt lat="43.2781" lon="2.47242">
        <ele>190.9</ele>
        <time>2021-09-07T06:24:11Z</time>
      </trkpt>
      <trkpt lat="43.27806" lon="2.47243">
        <ele>190.8</ele>
        <time>2021-09-07T06:24:13Z</time>
      </trkpt>
      <trkpt lat="43.27803" lon="2.47245">
        <ele>190.6</ele>
        <time>2021-09-07T06:24:15Z</time>
      </trkpt>
      <trkpt lat="43.278" lon="2.47248">
        <ele>190.4</ele>
        <time>2021-09-07T06:24:17Z</time>
      </trkpt>
      <trkpt lat="43.27798" lon="2.47251">
        <ele>190.3</ele>
        <time>2021-09-07T06:24:19Z</time>
      </trkpt>
      <trkpt lat="43.27796" lon="2.47253">
        <ele>190.2</ele>
        <time>2021-09-07T06:24:20Z</time>
      </trkpt>
      <trkpt lat="43.27793" lon="2.47258">
        <ele>190</ele>
        <time>2021-09-07T06:24:22Z</time>
      </trkpt>
      <trkpt lat="43.27791" lon="2.47263">
        <ele>189.8</ele>
        <time>2021-09-07T06:24:24Z</time>
      </trkpt>
      <trkpt lat="43.27789" lon="2.47267">
        <ele>189.7</ele>
        <time>2021-09-07T06:24:25Z</time>
      </trkpt>
      <trkpt lat="43.27789" lon="2.47269">
        <ele>189.7</ele>
        <time>2021-09-07T06:24:26Z</time>
      </trkpt>
      <trkpt lat="43.27788" lon="2.47272">
        <ele>189.6</ele>
        <time>2021-09-07T06:24:27Z</time>
      </trkpt>
      <trkpt lat="43.27786" lon="2.47278">
        <ele>189.5</ele>
        <time>2021-09-07T06:24:29Z</time>
      </trkpt>
      <trkpt lat="43.27785" lon="2.47281">
        <ele>189.5</ele>
        <time>2021-09-07T06:24:30Z</time>
      </trkpt>
      <trkpt lat="43.27784" lon="2.47287">
        <ele>189.4</ele>
        <time>2021-09-07T06:24:32Z</time>
      </trkpt>
      <trkpt lat="43.27783" lon="2.47292">
        <ele>189.4</ele>
        <time>2021-09-07T06:24:34Z</time>
      </trkpt>
      <trkpt lat="43.27781" lon="2.47299">
        <ele>189.3</ele>
        <time>2021-09-07T06:24:36Z</time>
      </trkpt>
      <trkpt lat="43.2778" lon="2.47302">
        <ele>189.3</ele>
        <time>2021-09-07T06:24:37Z</time>
      </trkpt>
      <trkpt lat="43.27779" lon="2.47309">
        <ele>189.3</ele>
        <time>2021-09-07T06:24:39Z</time>
      </trkpt>
      <trkpt lat="43.27778" lon="2.47314">
        <ele>189.3</ele>
        <time>2021-09-07T06:24:40Z</time>
      </trkpt>
      <trkpt lat="43.27778" lon="2.47316">
        <ele>189.3</ele>
        <time>2021-09-07T06:24:41Z</time>
      </trkpt>
      <trkpt lat="43.27776" lon="2.47322">
        <ele>189.3</ele>
        <time>2021-09-07T06:24:43Z</time>
      </trkpt>
      <trkpt lat="43.27774" lon="2.47329">
        <ele>189.3</ele>
        <time>2021-09-07T06:24:45Z</time>
      </trkpt>
      <trkpt lat="43.27773" lon="2.47335">
        <ele>189.3</ele>
        <time>2021-09-07T06:24:47Z</time>
      </trkpt>
      <trkpt lat="43.27771" lon="2.47342">
        <ele>189.4</ele>
        <time>2021-09-07T06:24:49Z</time>
      </trkpt>
      <trkpt lat="43.2777" lon="2.47347">
        <ele>189.4</ele>
        <time>2021-09-07T06:24:50Z</time>
      </trkpt>
      <trkpt lat="43.2777" lon="2.47348">
        <ele>189.4</ele>
        <time>2021-09-07T06:24:51Z</time>
      </trkpt>
      <trkpt lat="43.27768" lon="2.47355">
        <ele>189.5</ele>
        <time>2021-09-07T06:24:53Z</time>
      </trkpt>
      <trkpt lat="43.27767" lon="2.47361">
        <ele>189.6</ele>
        <time>2021-09-07T06:24:55Z</time>
      </trkpt>
      <trkpt lat="43.27766" lon="2.47368">
        <ele>189.7</ele>
        <time>2021-09-07T06:24:57Z</time>
      </trkpt>
      <trkpt lat="43.27765" lon="2.47372">
        <ele>189.7</ele>
        <time>2021-09-07T06:24:58Z</time>
      </trkpt>
      <trkpt lat="43.27764" lon="2.47378">
        <ele>189.8</ele>
        <time>2021-09-07T06:25:00Z</time>
      </trkpt>
      <trkpt lat="43.27764" lon="2.47381">
        <ele>189.9</ele>
        <time>2021-09-07T06:25:01Z</time>
      </trkpt>
      <trkpt lat="43.27763" lon="2.47386">
        <ele>189.9</ele>
        <time>2021-09-07T06:25:03Z</time>
      </trkpt>
      <trkpt lat="43.27762" lon="2.47392">
        <ele>190</ele>
        <time>2021-09-07T06:25:05Z</time>
      </trkpt>
      <trkpt lat="43.2776" lon="2.47398">
        <ele>190.1</ele>
        <time>2021-09-07T06:25:07Z</time>
      </trkpt>
      <trkpt lat="43.27759" lon="2.47402">
        <ele>190.2</ele>
        <time>2021-09-07T06:25:08Z</time>
      </trkpt>
      <trkpt lat="43.27759" lon="2.47404">
        <ele>190.2</ele>
        <time>2021-09-07T06:25:09Z</time>
      </trkpt>
      <trkpt lat="43.27757" lon="2.47409">
        <ele>190.3</ele>
        <time>2021-09-07T06:25:11Z</time>
      </trkpt>
      <trkpt lat="43.27756" lon="2.47412">
        <ele>190.4</ele>
        <time>2021-09-07T06:25:12Z</time>
      </trkpt>
      <trkpt lat="43.27755" lon="2.47418">
        <ele>190.6</ele>
        <time>2021-09-07T06:25:14Z</time>
      </trkpt>
      <trkpt lat="43.27754" lon="2.47424">
        <ele>190.7</ele>
        <time>2021-09-07T06:25:16Z</time>
      </trkpt>
      <trkpt lat="43.27753" lon="2.47429">
        <ele>190.8</ele>
        <time>2021-09-07T06:25:18Z</time>
      </trkpt>
      <trkpt lat="43.27753" lon="2.47432">
        <ele>190.9</ele>
        <time>2021-09-07T06:25:19Z</time>
      </trkpt>
      <trkpt lat="43.27752" lon="2.47437">
        <ele>191.1</ele>
        <time>2021-09-07T06:25:21Z</time>
      </trkpt>
      <trkpt lat="43.27751" lon="2.47439">
        <ele>191.1</ele>
        <time>2021-09-07T06:25:22Z</time>
      </trkpt>
      <trkpt lat="43.2775" lon="2.47441">
        <ele>191.2</ele>
        <time>2021-09-07T06:25:23Z</time>
      </trkpt>
      <trkpt lat="43.27749" lon="2.47445">
        <ele>191.4</ele>
        <time>2021-09-07T06:25:25Z</time>
      </trkpt>
      <trkpt lat="43.27749" lon="2.47448">
        <ele>191.6</ele>
        <time>2021-09-07T06:25:27Z</time>
      </trkpt>
      <trkpt lat="43.27748" lon="2.47449">
        <ele>191.6</ele>
        <time>2021-09-07T06:25:28Z</time>
      </trkpt>
      <trkpt lat="43.27746" lon="2.47455">
        <ele>192</ele>
        <time>2021-09-07T06:25:30Z</time>
      </trkpt>
      <trkpt lat="43.27746" lon="2.47457">
        <ele>192.1</ele>
        <time>2021-09-07T06:25:31Z</time>
      </trkpt>
      <trkpt lat="43.27745" lon="2.47459">
        <ele>192.2</ele>
        <time>2021-09-07T06:25:32Z</time>
      </trkpt>
      <trkpt lat="43.27743" lon="2.47465">
        <ele>192.6</ele>
        <time>2021-09-07T06:25:34Z</time>
      </trkpt>
      <trkpt lat="43.27742" lon="2.47468">
        <ele>192.7</ele>
        <time>2021-09-07T06:25:35Z</time>
      </trkpt>
      <trkpt lat="43.2774" lon="2.47475">
        <ele>193.1</ele>
        <time>2021-09-07T06:25:37Z</time>
      </trkpt>
      <trkpt lat="43.27737" lon="2.4748">
        <ele>193.4</ele>
        <time>2021-09-07T06:25:39Z</time>
      </trkpt>
      <trkpt lat="43.27735" lon="2.47482">
        <ele>193.6</ele>
        <time>2021-09-07T06:25:40Z</time>
      </trkpt>
      <trkpt lat="43.27733" lon="2.47487">
        <ele>194</ele>
        <time>2021-09-07T06:25:42Z</time>
      </trkpt>
      <trkpt lat="43.2773" lon="2.47491">
        <ele>194.3</ele>
        <time>2021-09-07T06:25:44Z</time>
      </trkpt>
      <trkpt lat="43.27728" lon="2.47493">
        <ele>194.6</ele>
        <time>2021-09-07T06:25:45Z</time>
      </trkpt>
      <trkpt lat="43.27727" lon="2.47494">
        <ele>194.7</ele>
        <time>2021-09-07T06:25:46Z</time>
      </trkpt>
      <trkpt lat="43.27725" lon="2.47497">
        <ele>195</ele>
        <time>2021-09-07T06:25:47Z</time>
      </trkpt>
      <trkpt lat="43.27725" lon="2.47498">
        <ele>195.1</ele>
        <time>2021-09-07T06:25:48Z</time>
      </trkpt>
      <trkpt lat="43.27723" lon="2.47502">
        <ele>195.5</ele>
        <time>2021-09-07T06:25:50Z</time>
      </trkpt>
      <trkpt lat="43.27722" lon="2.47505">
        <ele>195.8</ele>
        <time>2021-09-07T06:25:52Z</time>
      </trkpt>
      <trkpt lat="43.27721" lon="2.47506">
        <ele>195.9</ele>
        <time>2021-09-07T06:25:53Z</time>
      </trkpt>
      <trkpt lat="43.2772" lon="2.47506">
        <ele>196</ele>
        <time>2021-09-07T06:25:54Z</time>
      </trkpt>
      <trkpt lat="43.27717" lon="2.47508">
        <ele>196.3</ele>
        <time>2021-09-07T06:25:56Z</time>
      </trkpt>
      <trkpt lat="43.27716" lon="2.47508">
        <ele>196.5</ele>
        <time>2021-09-07T06:25:57Z</time>
      </trkpt>
      <trkpt lat="43.27713" lon="2.47508">
        <ele>196.7</ele>
        <time>2021-09-07T06:25:59Z</time>
      </trkpt>
      <trkpt lat="43.27711" lon="2.47508">
        <ele>196.7</ele>
        <time>2021-09-07T06:26:00Z</time>
      </trkpt>
      <trkpt lat="43.27708" lon="2.4751">
        <ele>196.7</ele>
        <time>2021-09-07T06:26:02Z</time>
      </trkpt>
      <trkpt lat="43.27705" lon="2.47512">
        <ele>196.6</ele>
        <time>2021-09-07T06:26:04Z</time>
      </trkpt>
      <trkpt lat="43.27702" lon="2.47514">
        <ele>196.6</ele>
        <time>2021-09-07T06:26:05Z</time>
      </trkpt>
      <trkpt lat="43.27697" lon="2.47516">
        <ele>196.5</ele>
        <time>2021-09-07T06:26:07Z</time>
      </trkpt>
      <trkpt lat="43.27692" lon="2.47519">
        <ele>196.4</ele>
        <time>2021-09-07T06:26:09Z</time>
      </trkpt>
      <trkpt lat="43.27688" lon="2.47522">
        <ele>196.2</ele>
        <time>2021-09-07T06:26:11Z</time>
      </trkpt>
      <trkpt lat="43.27685" lon="2.47524">
        <ele>196.1</ele>
        <time>2021-09-07T06:26:12Z</time>
      </trkpt>
      <trkpt lat="43.27684" lon="2.47525">
        <ele>196</ele>
        <time>2021-09-07T06:26:13Z</time>
      </trkpt>
      <trkpt lat="43.2768" lon="2.47527">
        <ele>195.8</ele>
        <time>2021-09-07T06:26:15Z</time>
      </trkpt>
      <trkpt lat="43.27675" lon="2.47529">
        <ele>195.5</ele>
        <time>2021-09-07T06:26:17Z</time>
      </trkpt>
      <trkpt lat="43.2767" lon="2.4753">
        <ele>195.2</ele>
        <time>2021-09-07T06:26:19Z</time>
      </trkpt>
      <trkpt lat="43.27667" lon="2.4753">
        <ele>195</ele>
        <time>2021-09-07T06:26:20Z</time>
      </trkpt>
      <trkpt lat="43.27663" lon="2.4753">
        <ele>194.7</ele>
        <time>2021-09-07T06:26:22Z</time>
      </trkpt>
      <trkpt lat="43.27659" lon="2.4753">
        <ele>194.5</ele>
        <time>2021-09-07T06:26:23Z</time>
      </trkpt>
      <trkpt lat="43.27658" lon="2.47531">
        <ele>194.4</ele>
        <time>2021-09-07T06:26:24Z</time>
      </trkpt>
      <trkpt lat="43.27654" lon="2.47531">
        <ele>194.2</ele>
        <time>2021-09-07T06:26:26Z</time>
      </trkpt>
      <trkpt lat="43.27651" lon="2.47531">
        <ele>194</ele>
        <time>2021-09-07T06:26:27Z</time>
      </trkpt>
      <trkpt lat="43.27646" lon="2.47533">
        <ele>193.7</ele>
        <time>2021-09-07T06:26:29Z</time>
      </trkpt>
      <trkpt lat="43.27644" lon="2.47534">
        <ele>193.5</ele>
        <time>2021-09-07T06:26:30Z</time>
      </trkpt>
      <trkpt lat="43.27639" lon="2.47538">
        <ele>193.2</ele>
        <time>2021-09-07T06:26:32Z</time>
      </trkpt>
      <trkpt lat="43.27637" lon="2.4754">
        <ele>193</ele>
        <time>2021-09-07T06:26:33Z</time>
      </trkpt>
      <trkpt lat="43.27634" lon="2.47542">
        <ele>192.8</ele>
        <time>2021-09-07T06:26:34Z</time>
      </trkpt>
      <trkpt lat="43.27632" lon="2.47544">
        <ele>192.7</ele>
        <time>2021-09-07T06:26:35Z</time>
      </trkpt>
      <trkpt lat="43.27627" lon="2.47548">
        <ele>192.4</ele>
        <time>2021-09-07T06:26:37Z</time>
      </trkpt>
      <trkpt lat="43.27625" lon="2.4755">
        <ele>192.2</ele>
        <time>2021-09-07T06:26:38Z</time>
      </trkpt>
      <trkpt lat="43.27622" lon="2.47552">
        <ele>192.1</ele>
        <time>2021-09-07T06:26:39Z</time>
      </trkpt>
      <trkpt lat="43.27618" lon="2.47556">
        <ele>191.8</ele>
        <time>2021-09-07T06:26:41Z</time>
      </trkpt>
      <trkpt lat="43.27615" lon="2.47558">
        <ele>191.6</ele>
        <time>2021-09-07T06:26:42Z</time>
      </trkpt>
      <trkpt lat="43.27613" lon="2.4756">
        <ele>191.5</ele>
        <time>2021-09-07T06:26:43Z</time>
      </trkpt>
      <trkpt lat="43.27608" lon="2.47564">
        <ele>191.2</ele>
        <time>2021-09-07T06:26:45Z</time>
      </trkpt>
      <trkpt lat="43.27605" lon="2.47567">
        <ele>191</ele>
        <time>2021-09-07T06:26:46Z</time>
      </trkpt>
      <trkpt lat="43.27601" lon="2.4757">
        <ele>190.7</ele>
        <time>2021-09-07T06:26:48Z</time>
      </trkpt>
      <trkpt lat="43.27599" lon="2.47572">
        <ele>190.6</ele>
        <time>2021-09-07T06:26:49Z</time>
      </trkpt>
      <trkpt lat="43.27595" lon="2.47575">
        <ele>190.4</ele>
        <time>2021-09-07T06:26:51Z</time>
      </trkpt>
      <trkpt lat="43.27593" lon="2.47577">
        <ele>190.3</ele>
        <time>2021-09-07T06:26:52Z</time>
      </trkpt>
      <trkpt lat="43.2759" lon="2.4758">
        <ele>190.1</ele>
        <time>2021-09-07T06:26:54Z</time>
      </trkpt>
      <trkpt lat="43.27587" lon="2.47582">
        <ele>189.9</ele>
        <time>2021-09-07T06:26:55Z</time>
      </trkpt>
      <trkpt lat="43.27586" lon="2.47583">
        <ele>189.8</ele>
        <time>2021-09-07T06:26:56Z</time>
      </trkpt>
      <trkpt lat="43.27584" lon="2.47584">
        <ele>189.7</ele>
        <time>2021-09-07T06:26:57Z</time>
      </trkpt>
      <trkpt lat="43.2758" lon="2.47586">
        <ele>189.4</ele>
        <time>2021-09-07T06:26:59Z</time>
      </trkpt>
      <trkpt lat="43.27578" lon="2.47586">
        <ele>189.3</ele>
        <time>2021-09-07T06:27:00Z</time>
      </trkpt>
      <trkpt lat="43.27574" lon="2.47583">
        <ele>189.1</ele>
        <time>2021-09-07T06:27:02Z</time>
      </trkpt>
      <trkpt lat="43.27571" lon="2.47577">
        <ele>188.9</ele>
        <time>2021-09-07T06:27:04Z</time>
      </trkpt>
      <trkpt lat="43.2757" lon="2.4757">
        <ele>188.7</ele>
        <time>2021-09-07T06:27:06Z</time>
      </trkpt>
      <trkpt lat="43.27569" lon="2.47566">
        <ele>188.5</ele>
        <time>2021-09-07T06:27:07Z</time>
      </trkpt>
      <trkpt lat="43.27569" lon="2.47564">
        <ele>188.5</ele>
        <time>2021-09-07T06:27:08Z</time>
      </trkpt>
      <trkpt lat="43.27567" lon="2.47557">
        <ele>188.2</ele>
        <time>2021-09-07T06:27:10Z</time>
      </trkpt>
      <trkpt lat="43.27565" lon="2.47553">
        <ele>188.1</ele>
        <time>2021-09-07T06:27:11Z</time>
      </trkpt>
      <trkpt lat="43.27564" lon="2.47551">
        <ele>188</ele>
        <time>2021-09-07T06:27:12Z</time>
      </trkpt>
      <trkpt lat="43.2756" lon="2.47548">
        <ele>187.8</ele>
        <time>2021-09-07T06:27:14Z</time>
      </trkpt>
      <trkpt lat="43.27558" lon="2.47546">
        <ele>187.7</ele>
        <time>2021-09-07T06:27:15Z</time>
      </trkpt>
      <trkpt lat="43.27554" lon="2.47545">
        <ele>187.5</ele>
        <time>2021-09-07T06:27:17Z</time>
      </trkpt>
      <trkpt lat="43.27552" lon="2.47545">
        <ele>187.4</ele>
        <time>2021-09-07T06:27:18Z</time>
      </trkpt>
      <trkpt lat="43.27547" lon="2.47545">
        <ele>187.2</ele>
        <time>2021-09-07T06:27:20Z</time>
      </trkpt>
      <trkpt lat="43.27542" lon="2.47546">
        <ele>187</ele>
        <time>2021-09-07T06:27:22Z</time>
      </trkpt>
      <trkpt lat="43.27538" lon="2.47546">
        <ele>186.8</ele>
        <time>2021-09-07T06:27:23Z</time>
      </trkpt>
      <trkpt lat="43.27537" lon="2.47547">
        <ele>186.8</ele>
        <time>2021-09-07T06:27:24Z</time>
      </trkpt>
      <trkpt lat="43.27534" lon="2.47547">
        <ele>186.7</ele>
        <time>2021-09-07T06:27:25Z</time>
      </trkpt>
      <trkpt lat="43.27529" lon="2.47548">
        <ele>186.4</ele>
        <time>2021-09-07T06:27:27Z</time>
      </trkpt>
      <trkpt lat="43.27526" lon="2.47548">
        <ele>186.3</ele>
        <time>2021-09-07T06:27:28Z</time>
      </trkpt>
      <trkpt lat="43.2752" lon="2.47548">
        <ele>186</ele>
        <time>2021-09-07T06:27:30Z</time>
      </trkpt>
      <trkpt lat="43.27514" lon="2.47548">
        <ele>185.8</ele>
        <time>2021-09-07T06:27:32Z</time>
      </trkpt>
      <trkpt lat="43.27509" lon="2.47547">
        <ele>185.6</ele>
        <time>2021-09-07T06:27:34Z</time>
      </trkpt>
      <trkpt lat="43.27505" lon="2.47546">
        <ele>185.4</ele>
        <time>2021-09-07T06:27:36Z</time>
      </trkpt>
      <trkpt lat="43.27503" lon="2.47544">
        <ele>185.3</ele>
        <time>2021-09-07T06:27:37Z</time>
      </trkpt>
      <trkpt lat="43.27498" lon="2.47541">
        <ele>185.1</ele>
        <time>2021-09-07T06:27:39Z</time>
      </trkpt>
      <trkpt lat="43.27496" lon="2.47537">
        <ele>184.9</ele>
        <time>2021-09-07T06:27:40Z</time>
      </trkpt>
      <trkpt lat="43.27495" lon="2.47536">
        <ele>184.8</ele>
        <time>2021-09-07T06:27:41Z</time>
      </trkpt>
      <trkpt lat="43.27493" lon="2.47528">
        <ele>184.6</ele>
        <time>2021-09-07T06:27:43Z</time>
      </trkpt>
      <trkpt lat="43.27491" lon="2.47521">
        <ele>184.5</ele>
        <time>2021-09-07T06:27:45Z</time>
      </trkpt>
      <trkpt lat="43.27488" lon="2.47515">
        <ele>184.3</ele>
        <time>2021-09-07T06:27:47Z</time>
      </trkpt>
      <trkpt lat="43.27485" lon="2.4751">
        <ele>184.3</ele>
        <time>2021-09-07T06:27:49Z</time>
      </trkpt>
      <trkpt lat="43.27481" lon="2.47506">
        <ele>184</ele>
        <time>2021-09-07T06:27:51Z</time>
      </trkpt>
      <trkpt lat="43.27477" lon="2.47501">
        <ele>183.9</ele>
        <time>2021-09-07T06:27:53Z</time>
      </trkpt>
      <trkpt lat="43.27475" lon="2.47496">
        <ele>183.9</ele>
        <time>2021-09-07T06:27:55Z</time>
      </trkpt>
      <trkpt lat="43.27475" lon="2.47491">
        <ele>184.1</ele>
        <time>2021-09-07T06:27:57Z</time>
      </trkpt>
      <trkpt lat="43.27475" lon="2.47489">
        <ele>184.1</ele>
        <time>2021-09-07T06:27:59Z</time>
      </trkpt>
      <trkpt lat="43.27475" lon="2.47488">
        <ele>184.2</ele>
        <time>2021-09-07T06:28:01Z</time>
      </trkpt>
      <trkpt lat="43.27476" lon="2.47486">
        <ele>184.2</ele>
        <time>2021-09-07T06:28:02Z</time>
      </trkpt>
      <trkpt lat="43.27477" lon="2.47483">
        <ele>184.3</ele>
        <time>2021-09-07T06:28:04Z</time>
      </trkpt>
      <trkpt lat="43.27477" lon="2.47481">
        <ele>184.5</ele>
        <time>2021-09-07T06:28:06Z</time>
      </trkpt>
      <trkpt lat="43.27477" lon="2.47479">
        <ele>184.6</ele>
        <time>2021-09-07T06:28:07Z</time>
      </trkpt>
      <trkpt lat="43.27477" lon="2.47478">
        <ele>184.6</ele>
        <time>2021-09-07T06:28:08Z</time>
      </trkpt>
      <trkpt lat="43.27478" lon="2.47476">
        <ele>184.7</ele>
        <time>2021-09-07T06:28:10Z</time>
      </trkpt>
      <trkpt lat="43.27477" lon="2.47474">
        <ele>184.7</ele>
        <time>2021-09-07T06:28:11Z</time>
      </trkpt>
      <trkpt lat="43.27476" lon="2.47471">
        <ele>184.6</ele>
        <time>2021-09-07T06:28:12Z</time>
      </trkpt>
      <trkpt lat="43.27476" lon="2.47469">
        <ele>184.6</ele>
        <time>2021-09-07T06:28:14Z</time>
      </trkpt>
      <trkpt lat="43.27475" lon="2.47467">
        <ele>184.6</ele>
        <time>2021-09-07T06:28:16Z</time>
      </trkpt>
      <trkpt lat="43.27474" lon="2.47465">
        <ele>184.6</ele>
        <time>2021-09-07T06:28:17Z</time>
      </trkpt>
      <trkpt lat="43.27472" lon="2.47461">
        <ele>184.6</ele>
        <time>2021-09-07T06:28:19Z</time>
      </trkpt>
      <trkpt lat="43.27471" lon="2.47459">
        <ele>184.6</ele>
        <time>2021-09-07T06:28:20Z</time>
      </trkpt>
      <trkpt lat="43.27468" lon="2.47452">
        <ele>184.7</ele>
        <time>2021-09-07T06:28:22Z</time>
      </trkpt>
      <trkpt lat="43.27466" lon="2.47445">
        <ele>184.7</ele>
        <time>2021-09-07T06:28:24Z</time>
      </trkpt>
      <trkpt lat="43.27464" lon="2.47442">
        <ele>184.7</ele>
        <time>2021-09-07T06:28:25Z</time>
      </trkpt>
      <trkpt lat="43.27462" lon="2.47436">
        <ele>184.7</ele>
        <time>2021-09-07T06:28:27Z</time>
      </trkpt>
      <trkpt lat="43.27459" lon="2.4743">
        <ele>184.6</ele>
        <time>2021-09-07T06:28:29Z</time>
      </trkpt>
      <trkpt lat="43.27458" lon="2.47427">
        <ele>184.6</ele>
        <time>2021-09-07T06:28:30Z</time>
      </trkpt>
      <trkpt lat="43.27456" lon="2.47421">
        <ele>184.5</ele>
        <time>2021-09-07T06:28:32Z</time>
      </trkpt>
      <trkpt lat="43.27453" lon="2.47415">
        <ele>184.3</ele>
        <time>2021-09-07T06:28:34Z</time>
      </trkpt>
      <trkpt lat="43.27451" lon="2.4741">
        <ele>184.1</ele>
        <time>2021-09-07T06:28:36Z</time>
      </trkpt>
      <trkpt lat="43.27449" lon="2.47409">
        <ele>184.1</ele>
        <time>2021-09-07T06:28:37Z</time>
      </trkpt>
      <trkpt lat="43.27445" lon="2.47405">
        <ele>183.8</ele>
        <time>2021-09-07T06:28:39Z</time>
      </trkpt>
      <trkpt lat="43.27441" lon="2.47401">
        <ele>183.6</ele>
        <time>2021-09-07T06:28:41Z</time>
      </trkpt>
      <trkpt lat="43.2744" lon="2.47399">
        <ele>183.6</ele>
        <time>2021-09-07T06:28:42Z</time>
      </trkpt>
      <trkpt lat="43.27436" lon="2.47395">
        <ele>183.4</ele>
        <time>2021-09-07T06:28:44Z</time>
      </trkpt>
      <trkpt lat="43.27433" lon="2.4739">
        <ele>183.3</ele>
        <time>2021-09-07T06:28:46Z</time>
      </trkpt>
      <trkpt lat="43.27432" lon="2.47383">
        <ele>183.1</ele>
        <time>2021-09-07T06:28:48Z</time>
      </trkpt>
      <trkpt lat="43.27433" lon="2.47377">
        <ele>183</ele>
        <time>2021-09-07T06:28:50Z</time>
      </trkpt>
      <trkpt lat="43.27434" lon="2.47371">
        <ele>182.9</ele>
        <time>2021-09-07T06:28:52Z</time>
      </trkpt>
      <trkpt lat="43.27435" lon="2.47367">
        <ele>182.8</ele>
        <time>2021-09-07T06:28:53Z</time>
      </trkpt>
      <trkpt lat="43.27436" lon="2.47359">
        <ele>182.6</ele>
        <time>2021-09-07T06:28:55Z</time>
      </trkpt>
      <trkpt lat="43.27437" lon="2.47353">
        <ele>182.3</ele>
        <time>2021-09-07T06:28:57Z</time>
      </trkpt>
      <trkpt lat="43.27437" lon="2.47349">
        <ele>182.1</ele>
        <time>2021-09-07T06:28:58Z</time>
      </trkpt>
      <trkpt lat="43.27438" lon="2.47348">
        <ele>182</ele>
        <time>2021-09-07T06:28:59Z</time>
      </trkpt>
      <trkpt lat="43.27438" lon="2.47341">
        <ele>181.6</ele>
        <time>2021-09-07T06:29:01Z</time>
      </trkpt>
      <trkpt lat="43.27439" lon="2.47335">
        <ele>181.1</ele>
        <time>2021-09-07T06:29:03Z</time>
      </trkpt>
      <trkpt lat="43.2744" lon="2.4733">
        <ele>180.7</ele>
        <time>2021-09-07T06:29:05Z</time>
      </trkpt>
      <trkpt lat="43.27442" lon="2.47324">
        <ele>180.2</ele>
        <time>2021-09-07T06:29:07Z</time>
      </trkpt>
      <trkpt lat="43.27443" lon="2.47318">
        <ele>179.7</ele>
        <time>2021-09-07T06:29:09Z</time>
      </trkpt>
      <trkpt lat="43.27444" lon="2.47316">
        <ele>179.4</ele>
        <time>2021-09-07T06:29:10Z</time>
      </trkpt>
      <trkpt lat="43.27447" lon="2.4731">
        <ele>178.9</ele>
        <time>2021-09-07T06:29:12Z</time>
      </trkpt>
      <trkpt lat="43.27448" lon="2.47304">
        <ele>178.4</ele>
        <time>2021-09-07T06:29:14Z</time>
      </trkpt>
      <trkpt lat="43.2745" lon="2.47298">
        <ele>177.9</ele>
        <time>2021-09-07T06:29:16Z</time>
      </trkpt>
      <trkpt lat="43.27449" lon="2.47291">
        <ele>177.5</ele>
        <time>2021-09-07T06:29:18Z</time>
      </trkpt>
      <trkpt lat="43.2745" lon="2.47288">
        <ele>177.3</ele>
        <time>2021-09-07T06:29:19Z</time>
      </trkpt>
      <trkpt lat="43.2745" lon="2.47282">
        <ele>176.9</ele>
        <time>2021-09-07T06:29:21Z</time>
      </trkpt>
      <trkpt lat="43.2745" lon="2.47278">
        <ele>176.6</ele>
        <time>2021-09-07T06:29:22Z</time>
      </trkpt>
      <trkpt lat="43.2745" lon="2.47276">
        <ele>176.5</ele>
        <time>2021-09-07T06:29:23Z</time>
      </trkpt>
      <trkpt lat="43.2745" lon="2.47269">
        <ele>176.1</ele>
        <time>2021-09-07T06:29:25Z</time>
      </trkpt>
      <trkpt lat="43.2745" lon="2.47266">
        <ele>175.9</ele>
        <time>2021-09-07T06:29:26Z</time>
      </trkpt>
      <trkpt lat="43.27451" lon="2.4726">
        <ele>175.5</ele>
        <time>2021-09-07T06:29:28Z</time>
      </trkpt>
      <trkpt lat="43.27451" lon="2.47256">
        <ele>175.3</ele>
        <time>2021-09-07T06:29:29Z</time>
      </trkpt>
      <trkpt lat="43.27452" lon="2.47248">
        <ele>174.9</ele>
        <time>2021-09-07T06:29:31Z</time>
      </trkpt>
      <trkpt lat="43.27453" lon="2.47242">
        <ele>174.6</ele>
        <time>2021-09-07T06:29:33Z</time>
      </trkpt>
      <trkpt lat="43.27455" lon="2.47235">
        <ele>174.3</ele>
        <time>2021-09-07T06:29:35Z</time>
      </trkpt>
      <trkpt lat="43.27456" lon="2.47232">
        <ele>174.2</ele>
        <time>2021-09-07T06:29:36Z</time>
      </trkpt>
      <trkpt lat="43.27459" lon="2.47226">
        <ele>173.8</ele>
        <time>2021-09-07T06:29:38Z</time>
      </trkpt>
      <trkpt lat="43.27463" lon="2.47221">
        <ele>173.5</ele>
        <time>2021-09-07T06:29:40Z</time>
      </trkpt>
      <trkpt lat="43.27467" lon="2.47215">
        <ele>173.1</ele>
        <time>2021-09-07T06:29:42Z</time>
      </trkpt>
      <trkpt lat="43.27472" lon="2.4721">
        <ele>172.7</ele>
        <time>2021-09-07T06:29:44Z</time>
      </trkpt>
      <trkpt lat="43.27477" lon="2.47205">
        <ele>172.3</ele>
        <time>2021-09-07T06:29:46Z</time>
      </trkpt>
      <trkpt lat="43.27481" lon="2.47201">
        <ele>171.9</ele>
        <time>2021-09-07T06:29:48Z</time>
      </trkpt>
      <trkpt lat="43.27486" lon="2.47197">
        <ele>171.6</ele>
        <time>2021-09-07T06:29:50Z</time>
      </trkpt>
      <trkpt lat="43.27488" lon="2.47194">
        <ele>171.4</ele>
        <time>2021-09-07T06:29:51Z</time>
      </trkpt>
      <trkpt lat="43.27489" lon="2.47193">
        <ele>171.3</ele>
        <time>2021-09-07T06:29:52Z</time>
      </trkpt>
      <trkpt lat="43.2749" lon="2.47193">
        <ele>171.2</ele>
        <time>2021-09-07T06:29:53Z</time>
      </trkpt>
      <trkpt lat="43.27491" lon="2.47194">
        <ele>171.2</ele>
        <time>2021-09-07T06:29:54Z</time>
      </trkpt>
      <trkpt lat="43.27491" lon="2.47195">
        <ele>171.1</ele>
        <time>2021-09-07T06:29:55Z</time>
      </trkpt>
      <trkpt lat="43.27492" lon="2.47195">
        <ele>171.1</ele>
        <time>2021-09-07T06:29:56Z</time>
      </trkpt>
      <trkpt lat="43.27492" lon="2.47195">
        <ele>171.1</ele>
        <time>2021-09-07T06:29:58Z</time>
      </trkpt>
      <trkpt lat="43.27494" lon="2.47192">
        <ele>170.9</ele>
        <time>2021-09-07T06:30:00Z</time>
      </trkpt>
      <trkpt lat="43.27496" lon="2.47189">
        <ele>170.8</ele>
        <time>2021-09-07T06:30:01Z</time>
      </trkpt>
      <trkpt lat="43.27498" lon="2.47184">
        <ele>170.5</ele>
        <time>2021-09-07T06:30:03Z</time>
      </trkpt>
      <trkpt lat="43.275" lon="2.47179">
        <ele>170.3</ele>
        <time>2021-09-07T06:30:05Z</time>
      </trkpt>
      <trkpt lat="43.27501" lon="2.47175">
        <ele>170.2</ele>
        <time>2021-09-07T06:30:07Z</time>
      </trkpt>
      <trkpt lat="43.27502" lon="2.47175">
        <ele>170.2</ele>
        <time>2021-09-07T06:30:08Z</time>
      </trkpt>
      <trkpt lat="43.27504" lon="2.47173">
        <ele>170.1</ele>
        <time>2021-09-07T06:30:10Z</time>
      </trkpt>
      <trkpt lat="43.27507" lon="2.47173">
        <ele>170</ele>
        <time>2021-09-07T06:30:12Z</time>
      </trkpt>
      <trkpt lat="43.27508" lon="2.47173">
        <ele>170</ele>
        <time>2021-09-07T06:30:13Z</time>
      </trkpt>
      <trkpt lat="43.27508" lon="2.47172">
        <ele>170</ele>
        <time>2021-09-07T06:30:15Z</time>
      </trkpt>
      <trkpt lat="43.27508" lon="2.47172">
        <ele>169.9</ele>
        <time>2021-09-07T06:30:16Z</time>
      </trkpt>
      <trkpt lat="43.27508" lon="2.47172">
        <ele>169.9</ele>
        <time>2021-09-07T06:30:17Z</time>
      </trkpt>
      <trkpt lat="43.27508" lon="2.47172">
        <ele>169.9</ele>
        <time>2021-09-07T06:30:18Z</time>
      </trkpt>
      <trkpt lat="43.27508" lon="2.47172">
        <ele>169.9</ele>
        <time>2021-09-07T06:30:19Z</time>
      </trkpt>
      <trkpt lat="43.27507" lon="2.47171">
        <ele>169.9</ele>
        <time>2021-09-07T06:30:21Z</time>
      </trkpt>
      <trkpt lat="43.27507" lon="2.47171">
        <ele>169.9</ele>
        <time>2021-09-07T06:30:22Z</time>
      </trkpt>
      <trkpt lat="43.27506" lon="2.47173">
        <ele>169.9</ele>
        <time>2021-09-07T06:30:24Z</time>
      </trkpt>
      <trkpt lat="43.27503" lon="2.47173">
        <ele>169.8</ele>
        <time>2021-09-07T06:30:26Z</time>
      </trkpt>
      <trkpt lat="43.27499" lon="2.47173">
        <ele>169.7</ele>
        <time>2021-09-07T06:30:27Z</time>
      </trkpt>
      <trkpt lat="43.27498" lon="2.47173">
        <ele>169.6</ele>
        <time>2021-09-07T06:30:28Z</time>
      </trkpt>
      <trkpt lat="43.27496" lon="2.47172">
        <ele>169.5</ele>
        <time>2021-09-07T06:30:29Z</time>
      </trkpt>
      <trkpt lat="43.27491" lon="2.47168">
        <ele>169.4</ele>
        <time>2021-09-07T06:30:31Z</time>
      </trkpt>
      <trkpt lat="43.27488" lon="2.47164">
        <ele>169.3</ele>
        <time>2021-09-07T06:30:33Z</time>
      </trkpt>
      <trkpt lat="43.27485" lon="2.47159">
        <ele>169.2</ele>
        <time>2021-09-07T06:30:35Z</time>
      </trkpt>
      <trkpt lat="43.27483" lon="2.47156">
        <ele>169.2</ele>
        <time>2021-09-07T06:30:36Z</time>
      </trkpt>
      <trkpt lat="43.27482" lon="2.47155">
        <ele>169.2</ele>
        <time>2021-09-07T06:30:37Z</time>
      </trkpt>
      <trkpt lat="43.27479" lon="2.47151">
        <ele>169.2</ele>
        <time>2021-09-07T06:30:39Z</time>
      </trkpt>
      <trkpt lat="43.27475" lon="2.47147">
        <ele>169.3</ele>
        <time>2021-09-07T06:30:41Z</time>
      </trkpt>
      <trkpt lat="43.27471" lon="2.47143">
        <ele>169.3</ele>
        <time>2021-09-07T06:30:43Z</time>
      </trkpt>
      <trkpt lat="43.27467" lon="2.47141">
        <ele>169.4</ele>
        <time>2021-09-07T06:30:45Z</time>
      </trkpt>
      <trkpt lat="43.27465" lon="2.47141">
        <ele>169.4</ele>
        <time>2021-09-07T06:30:46Z</time>
      </trkpt>
      <trkpt lat="43.27463" lon="2.4714">
        <ele>169.5</ele>
        <time>2021-09-07T06:30:48Z</time>
      </trkpt>
      <trkpt lat="43.27462" lon="2.47139">
        <ele>169.5</ele>
        <time>2021-09-07T06:30:50Z</time>
      </trkpt>
      <trkpt lat="43.27461" lon="2.47139">
        <ele>169.6</ele>
        <time>2021-09-07T06:30:51Z</time>
      </trkpt>
      <trkpt lat="43.27463" lon="2.4714">
        <ele>169.6</ele>
        <time>2021-09-07T06:30:53Z</time>
      </trkpt>
      <trkpt lat="43.27467" lon="2.47141">
        <ele>169.7</ele>
        <time>2021-09-07T06:30:55Z</time>
      </trkpt>
      <trkpt lat="43.27471" lon="2.47143">
        <ele>169.9</ele>
        <time>2021-09-07T06:30:57Z</time>
      </trkpt>
      <trkpt lat="43.27472" lon="2.47144">
        <ele>169.9</ele>
        <time>2021-09-07T06:30:58Z</time>
      </trkpt>
      <trkpt lat="43.27476" lon="2.47146">
        <ele>170.1</ele>
        <time>2021-09-07T06:31:00Z</time>
      </trkpt>
      <trkpt lat="43.27479" lon="2.47149">
        <ele>170.2</ele>
        <time>2021-09-07T06:31:02Z</time>
      </trkpt>
      <trkpt lat="43.27481" lon="2.47151">
        <ele>170.4</ele>
        <time>2021-09-07T06:31:03Z</time>
      </trkpt>
      <trkpt lat="43.27482" lon="2.47152">
        <ele>170.4</ele>
        <time>2021-09-07T06:31:04Z</time>
      </trkpt>
      <trkpt lat="43.27484" lon="2.47157">
        <ele>170.6</ele>
        <time>2021-09-07T06:31:06Z</time>
      </trkpt>
      <trkpt lat="43.27485" lon="2.47159">
        <ele>170.7</ele>
        <time>2021-09-07T06:31:07Z</time>
      </trkpt>
      <trkpt lat="43.27489" lon="2.47164">
        <ele>170.9</ele>
        <time>2021-09-07T06:31:09Z</time>
      </trkpt>
      <trkpt lat="43.27492" lon="2.47168">
        <ele>171.2</ele>
        <time>2021-09-07T06:31:11Z</time>
      </trkpt>
      <trkpt lat="43.27494" lon="2.47169">
        <ele>171.2</ele>
        <time>2021-09-07T06:31:12Z</time>
      </trkpt>
      <trkpt lat="43.27499" lon="2.47171">
        <ele>171.4</ele>
        <time>2021-09-07T06:31:14Z</time>
      </trkpt>
      <trkpt lat="43.27503" lon="2.47172">
        <ele>171.6</ele>
        <time>2021-09-07T06:31:16Z</time>
      </trkpt>
      <trkpt lat="43.27507" lon="2.47171">
        <ele>171.8</ele>
        <time>2021-09-07T06:31:18Z</time>
      </trkpt>
      <trkpt lat="43.27511" lon="2.47169">
        <ele>172</ele>
        <time>2021-09-07T06:31:19Z</time>
      </trkpt>
      <trkpt lat="43.27512" lon="2.47168">
        <ele>172</ele>
        <time>2021-09-07T06:31:20Z</time>
      </trkpt>
      <trkpt lat="43.27516" lon="2.47165">
        <ele>172.2</ele>
        <time>2021-09-07T06:31:22Z</time>
      </trkpt>
      <trkpt lat="43.27518" lon="2.47164">
        <ele>172.4</ele>
        <time>2021-09-07T06:31:23Z</time>
      </trkpt>
      <trkpt lat="43.27522" lon="2.4716">
        <ele>172.6</ele>
        <time>2021-09-07T06:31:25Z</time>
      </trkpt>
      <trkpt lat="43.27524" lon="2.47157">
        <ele>172.7</ele>
        <time>2021-09-07T06:31:26Z</time>
      </trkpt>
      <trkpt lat="43.27526" lon="2.47155">
        <ele>172.8</ele>
        <time>2021-09-07T06:31:27Z</time>
      </trkpt>
      <trkpt lat="43.2753" lon="2.47153">
        <ele>173.1</ele>
        <time>2021-09-07T06:31:29Z</time>
      </trkpt>
      <trkpt lat="43.27534" lon="2.47152">
        <ele>173.2</ele>
        <time>2021-09-07T06:31:30Z</time>
      </trkpt>
      <trkpt lat="43.27535" lon="2.47151">
        <ele>173.3</ele>
        <time>2021-09-07T06:31:31Z</time>
      </trkpt>
      <trkpt lat="43.27539" lon="2.47147">
        <ele>173.5</ele>
        <time>2021-09-07T06:31:33Z</time>
      </trkpt>
      <trkpt lat="43.27544" lon="2.47144">
        <ele>173.7</ele>
        <time>2021-09-07T06:31:35Z</time>
      </trkpt>
      <trkpt lat="43.27548" lon="2.47142">
        <ele>173.9</ele>
        <time>2021-09-07T06:31:37Z</time>
      </trkpt>
      <trkpt lat="43.27552" lon="2.47139">
        <ele>174.1</ele>
        <time>2021-09-07T06:31:39Z</time>
      </trkpt>
      <trkpt lat="43.27555" lon="2.47137">
        <ele>174.3</ele>
        <time>2021-09-07T06:31:40Z</time>
      </trkpt>
      <trkpt lat="43.27556" lon="2.47136">
        <ele>174.3</ele>
        <time>2021-09-07T06:31:41Z</time>
      </trkpt>
      <trkpt lat="43.2756" lon="2.47133">
        <ele>174.6</ele>
        <time>2021-09-07T06:31:43Z</time>
      </trkpt>
      <trkpt lat="43.27563" lon="2.47132">
        <ele>174.7</ele>
        <time>2021-09-07T06:31:44Z</time>
      </trkpt>
      <trkpt lat="43.27567" lon="2.47129">
        <ele>174.9</ele>
        <time>2021-09-07T06:31:46Z</time>
      </trkpt>
      <trkpt lat="43.27569" lon="2.47128">
        <ele>175.1</ele>
        <time>2021-09-07T06:31:47Z</time>
      </trkpt>
      <trkpt lat="43.27573" lon="2.47127">
        <ele>175.3</ele>
        <time>2021-09-07T06:31:49Z</time>
      </trkpt>
      <trkpt lat="43.27578" lon="2.47125">
        <ele>175.6</ele>
        <time>2021-09-07T06:31:51Z</time>
      </trkpt>
      <trkpt lat="43.27582" lon="2.47122">
        <ele>175.8</ele>
        <time>2021-09-07T06:31:53Z</time>
      </trkpt>
      <trkpt lat="43.27586" lon="2.47119">
        <ele>176.1</ele>
        <time>2021-09-07T06:31:55Z</time>
      </trkpt>
      <trkpt lat="43.27589" lon="2.47114">
        <ele>176.4</ele>
        <time>2021-09-07T06:31:57Z</time>
      </trkpt>
      <trkpt lat="43.27592" lon="2.4711">
        <ele>176.7</ele>
        <time>2021-09-07T06:31:59Z</time>
      </trkpt>
      <trkpt lat="43.27593" lon="2.47107">
        <ele>176.8</ele>
        <time>2021-09-07T06:32:00Z</time>
      </trkpt>
      <trkpt lat="43.27595" lon="2.47102">
        <ele>177.1</ele>
        <time>2021-09-07T06:32:02Z</time>
      </trkpt>
      <trkpt lat="43.27596" lon="2.47098">
        <ele>177.3</ele>
        <time>2021-09-07T06:32:03Z</time>
      </trkpt>
      <trkpt lat="43.27597" lon="2.47097">
        <ele>177.3</ele>
        <time>2021-09-07T06:32:04Z</time>
      </trkpt>
      <trkpt lat="43.27598" lon="2.47091">
        <ele>177.6</ele>
        <time>2021-09-07T06:32:06Z</time>
      </trkpt>
      <trkpt lat="43.27599" lon="2.47088">
        <ele>177.7</ele>
        <time>2021-09-07T06:32:07Z</time>
      </trkpt>
      <trkpt lat="43.276" lon="2.47082">
        <ele>177.9</ele>
        <time>2021-09-07T06:32:09Z</time>
      </trkpt>
      <trkpt lat="43.276" lon="2.47077">
        <ele>178</ele>
        <time>2021-09-07T06:32:11Z</time>
      </trkpt>
      <trkpt lat="43.27602" lon="2.47072">
        <ele>178.1</ele>
        <time>2021-09-07T06:32:13Z</time>
      </trkpt>
      <trkpt lat="43.27603" lon="2.47067">
        <ele>178.3</ele>
        <time>2021-09-07T06:32:15Z</time>
      </trkpt>
      <trkpt lat="43.27604" lon="2.47065">
        <ele>178.3</ele>
        <time>2021-09-07T06:32:16Z</time>
      </trkpt>
      <trkpt lat="43.27606" lon="2.47059">
        <ele>178.4</ele>
        <time>2021-09-07T06:32:18Z</time>
      </trkpt>
      <trkpt lat="43.27607" lon="2.47054">
        <ele>178.5</ele>
        <time>2021-09-07T06:32:20Z</time>
      </trkpt>
      <trkpt lat="43.27608" lon="2.47051">
        <ele>178.5</ele>
        <time>2021-09-07T06:32:21Z</time>
      </trkpt>
      <trkpt lat="43.27609" lon="2.47045">
        <ele>178.5</ele>
        <time>2021-09-07T06:32:23Z</time>
      </trkpt>
      <trkpt lat="43.27611" lon="2.47041">
        <ele>178.5</ele>
        <time>2021-09-07T06:32:24Z</time>
      </trkpt>
      <trkpt lat="43.27611" lon="2.47039">
        <ele>178.6</ele>
        <time>2021-09-07T06:32:25Z</time>
      </trkpt>
      <trkpt lat="43.27614" lon="2.47033">
        <ele>178.6</ele>
        <time>2021-09-07T06:32:27Z</time>
      </trkpt>
      <trkpt lat="43.27618" lon="2.47027">
        <ele>178.6</ele>
        <time>2021-09-07T06:32:29Z</time>
      </trkpt>
      <trkpt lat="43.27622" lon="2.47021">
        <ele>178.6</ele>
        <time>2021-09-07T06:32:31Z</time>
      </trkpt>
      <trkpt lat="43.27626" lon="2.47014">
        <ele>178.6</ele>
        <time>2021-09-07T06:32:33Z</time>
      </trkpt>
      <trkpt lat="43.27628" lon="2.47011">
        <ele>178.6</ele>
        <time>2021-09-07T06:32:34Z</time>
      </trkpt>
      <trkpt lat="43.27631" lon="2.47005">
        <ele>178.7</ele>
        <time>2021-09-07T06:32:36Z</time>
      </trkpt>
      <trkpt lat="43.27633" lon="2.47002">
        <ele>178.8</ele>
        <time>2021-09-07T06:32:37Z</time>
      </trkpt>
      <trkpt lat="43.27635" lon="2.46998">
        <ele>178.8</ele>
        <time>2021-09-07T06:32:38Z</time>
      </trkpt>
      <trkpt lat="43.27638" lon="2.46992">
        <ele>178.9</ele>
        <time>2021-09-07T06:32:40Z</time>
      </trkpt>
      <trkpt lat="43.2764" lon="2.46989">
        <ele>179</ele>
        <time>2021-09-07T06:32:41Z</time>
      </trkpt>
      <trkpt lat="43.27643" lon="2.46982">
        <ele>179.2</ele>
        <time>2021-09-07T06:32:43Z</time>
      </trkpt>
      <trkpt lat="43.27646" lon="2.46975">
        <ele>179.3</ele>
        <time>2021-09-07T06:32:45Z</time>
      </trkpt>
      <trkpt lat="43.27648" lon="2.46969">
        <ele>179.5</ele>
        <time>2021-09-07T06:32:47Z</time>
      </trkpt>
      <trkpt lat="43.27649" lon="2.46966">
        <ele>179.6</ele>
        <time>2021-09-07T06:32:48Z</time>
      </trkpt>
      <trkpt lat="43.27652" lon="2.46959">
        <ele>179.8</ele>
        <time>2021-09-07T06:32:50Z</time>
      </trkpt>
      <trkpt lat="43.27655" lon="2.46953">
        <ele>179.9</ele>
        <time>2021-09-07T06:32:52Z</time>
      </trkpt>
      <trkpt lat="43.27656" lon="2.4695">
        <ele>180</ele>
        <time>2021-09-07T06:32:53Z</time>
      </trkpt>
      <trkpt lat="43.27658" lon="2.46944">
        <ele>180.2</ele>
        <time>2021-09-07T06:32:55Z</time>
      </trkpt>
      <trkpt lat="43.2766" lon="2.46938">
        <ele>180.3</ele>
        <time>2021-09-07T06:32:57Z</time>
      </trkpt>
      <trkpt lat="43.27661" lon="2.46932">
        <ele>180.4</ele>
        <time>2021-09-07T06:32:59Z</time>
      </trkpt>
      <trkpt lat="43.27663" lon="2.46927">
        <ele>180.5</ele>
        <time>2021-09-07T06:33:01Z</time>
      </trkpt>
      <trkpt lat="43.27662" lon="2.46924">
        <ele>180.6</ele>
        <time>2021-09-07T06:33:02Z</time>
      </trkpt>
      <trkpt lat="43.27663" lon="2.46919">
        <ele>180.6</ele>
        <time>2021-09-07T06:33:04Z</time>
      </trkpt>
      <trkpt lat="43.27664" lon="2.46914">
        <ele>180.7</ele>
        <time>2021-09-07T06:33:05Z</time>
      </trkpt>
      <trkpt lat="43.27664" lon="2.46913">
        <ele>180.7</ele>
        <time>2021-09-07T06:33:06Z</time>
      </trkpt>
      <trkpt lat="43.27664" lon="2.46906">
        <ele>180.9</ele>
        <time>2021-09-07T06:33:08Z</time>
      </trkpt>
      <trkpt lat="43.27664" lon="2.46898">
        <ele>181</ele>
        <time>2021-09-07T06:33:10Z</time>
      </trkpt>
      <trkpt lat="43.27665" lon="2.46895">
        <ele>181</ele>
        <time>2021-09-07T06:33:11Z</time>
      </trkpt>
      <trkpt lat="43.27666" lon="2.46888">
        <ele>181.1</ele>
        <time>2021-09-07T06:33:13Z</time>
      </trkpt>
      <trkpt lat="43.27667" lon="2.46881">
        <ele>181.1</ele>
        <time>2021-09-07T06:33:15Z</time>
      </trkpt>
      <trkpt lat="43.27668" lon="2.46878">
        <ele>181.2</ele>
        <time>2021-09-07T06:33:16Z</time>
      </trkpt>
      <trkpt lat="43.27669" lon="2.46872">
        <ele>181.2</ele>
        <time>2021-09-07T06:33:18Z</time>
      </trkpt>
      <trkpt lat="43.27671" lon="2.46866">
        <ele>181.2</ele>
        <time>2021-09-07T06:33:20Z</time>
      </trkpt>
      <trkpt lat="43.27671" lon="2.46863">
        <ele>181.2</ele>
        <time>2021-09-07T06:33:21Z</time>
      </trkpt>
      <trkpt lat="43.27672" lon="2.46858">
        <ele>181.2</ele>
        <time>2021-09-07T06:33:23Z</time>
      </trkpt>
      <trkpt lat="43.27673" lon="2.46855">
        <ele>181.2</ele>
        <time>2021-09-07T06:33:24Z</time>
      </trkpt>
      <trkpt lat="43.27674" lon="2.4685">
        <ele>181.2</ele>
        <time>2021-09-07T06:33:26Z</time>
      </trkpt>
      <trkpt lat="43.27674" lon="2.46845">
        <ele>181.2</ele>
        <time>2021-09-07T06:33:27Z</time>
      </trkpt>
      <trkpt lat="43.27674" lon="2.46844">
        <ele>181.2</ele>
        <time>2021-09-07T06:33:28Z</time>
      </trkpt>
      <trkpt lat="43.27674" lon="2.46837">
        <ele>181.2</ele>
        <time>2021-09-07T06:33:30Z</time>
      </trkpt>
      <trkpt lat="43.27673" lon="2.46832">
        <ele>181.3</ele>
        <time>2021-09-07T06:33:31Z</time>
      </trkpt>
      <trkpt lat="43.27673" lon="2.46831">
        <ele>181.3</ele>
        <time>2021-09-07T06:33:32Z</time>
      </trkpt>
      <trkpt lat="43.27672" lon="2.46824">
        <ele>181.3</ele>
        <time>2021-09-07T06:33:34Z</time>
      </trkpt>
      <trkpt lat="43.27672" lon="2.46821">
        <ele>181.4</ele>
        <time>2021-09-07T06:33:35Z</time>
      </trkpt>
      <trkpt lat="43.27671" lon="2.46815">
        <ele>181.5</ele>
        <time>2021-09-07T06:33:37Z</time>
      </trkpt>
      <trkpt lat="43.27671" lon="2.46809">
        <ele>181.6</ele>
        <time>2021-09-07T06:33:39Z</time>
      </trkpt>
      <trkpt lat="43.27672" lon="2.46803">
        <ele>181.7</ele>
        <time>2021-09-07T06:33:41Z</time>
      </trkpt>
      <trkpt lat="43.27673" lon="2.46796">
        <ele>181.9</ele>
        <time>2021-09-07T06:33:43Z</time>
      </trkpt>
      <trkpt lat="43.27674" lon="2.46792">
        <ele>182.1</ele>
        <time>2021-09-07T06:33:44Z</time>
      </trkpt>
      <trkpt lat="43.27674" lon="2.4679">
        <ele>182.1</ele>
        <time>2021-09-07T06:33:45Z</time>
      </trkpt>
      <trkpt lat="43.27675" lon="2.46784">
        <ele>182.3</ele>
        <time>2021-09-07T06:33:47Z</time>
      </trkpt>
      <trkpt lat="43.27676" lon="2.46781">
        <ele>182.5</ele>
        <time>2021-09-07T06:33:48Z</time>
      </trkpt>
      <trkpt lat="43.27677" lon="2.46775">
        <ele>182.7</ele>
        <time>2021-09-07T06:33:50Z</time>
      </trkpt>
      <trkpt lat="43.27678" lon="2.46772">
        <ele>182.9</ele>
        <time>2021-09-07T06:33:51Z</time>
      </trkpt>
      <trkpt lat="43.27679" lon="2.46766">
        <ele>183.1</ele>
        <time>2021-09-07T06:33:53Z</time>
      </trkpt>
      <trkpt lat="43.2768" lon="2.46761">
        <ele>183.4</ele>
        <time>2021-09-07T06:33:55Z</time>
      </trkpt>
      <trkpt lat="43.27681" lon="2.46756">
        <ele>183.6</ele>
        <time>2021-09-07T06:33:56Z</time>
      </trkpt>
      <trkpt lat="43.27681" lon="2.46755">
        <ele>183.7</ele>
        <time>2021-09-07T06:33:57Z</time>
      </trkpt>
      <trkpt lat="43.27683" lon="2.46749">
        <ele>184</ele>
        <time>2021-09-07T06:33:59Z</time>
      </trkpt>
      <trkpt lat="43.27683" lon="2.46747">
        <ele>184.1</ele>
        <time>2021-09-07T06:34:00Z</time>
      </trkpt>
      <trkpt lat="43.27684" lon="2.46745">
        <ele>184.2</ele>
        <time>2021-09-07T06:34:01Z</time>
      </trkpt>
      <trkpt lat="43.27685" lon="2.46741">
        <ele>184.4</ele>
        <time>2021-09-07T06:34:03Z</time>
      </trkpt>
      <trkpt lat="43.27685" lon="2.4674">
        <ele>184.4</ele>
        <time>2021-09-07T06:34:04Z</time>
      </trkpt>
      <trkpt lat="43.27686" lon="2.46737">
        <ele>184.6</ele>
        <time>2021-09-07T06:34:06Z</time>
      </trkpt>
      <trkpt lat="43.27686" lon="2.46739">
        <ele>184.7</ele>
        <time>2021-09-07T06:34:07Z</time>
      </trkpt>
      <trkpt lat="43.27687" lon="2.46737">
        <ele>184.7</ele>
        <time>2021-09-07T06:34:09Z</time>
      </trkpt>
      <trkpt lat="43.27688" lon="2.46734">
        <ele>184.9</ele>
        <time>2021-09-07T06:34:11Z</time>
      </trkpt>
      <trkpt lat="43.27687" lon="2.46732">
        <ele>185</ele>
        <time>2021-09-07T06:34:13Z</time>
      </trkpt>
      <trkpt lat="43.27687" lon="2.46731">
        <ele>185</ele>
        <time>2021-09-07T06:34:14Z</time>
      </trkpt>
      <trkpt lat="43.27686" lon="2.4673">
        <ele>185.1</ele>
        <time>2021-09-07T06:34:15Z</time>
      </trkpt>
      <trkpt lat="43.27686" lon="2.46729">
        <ele>185.1</ele>
        <time>2021-09-07T06:34:16Z</time>
      </trkpt>
      <trkpt lat="43.27686" lon="2.46727">
        <ele>185.2</ele>
        <time>2021-09-07T06:34:18Z</time>
      </trkpt>
      <trkpt lat="43.27686" lon="2.46726">
        <ele>185.2</ele>
        <time>2021-09-07T06:34:19Z</time>
      </trkpt>
      <trkpt lat="43.27684" lon="2.46726">
        <ele>185.3</ele>
        <time>2021-09-07T06:34:21Z</time>
      </trkpt>
      <trkpt lat="43.27683" lon="2.46726">
        <ele>185.3</ele>
        <time>2021-09-07T06:34:22Z</time>
      </trkpt>
      <trkpt lat="43.27681" lon="2.46727">
        <ele>185.4</ele>
        <time>2021-09-07T06:34:23Z</time>
      </trkpt>
      <trkpt lat="43.2768" lon="2.46727">
        <ele>184.2</ele>
        <time>2021-09-07T06:34:24Z</time>
      </trkpt>
      <trkpt lat="43.27679" lon="2.46728">
        <ele>184.1</ele>
        <time>2021-09-07T06:34:25Z</time>
      </trkpt>
      <trkpt lat="43.27675" lon="2.46728">
        <ele>183.9</ele>
        <time>2021-09-07T06:34:27Z</time>
      </trkpt>
      <trkpt lat="43.27671" lon="2.46727">
        <ele>183.6</ele>
        <time>2021-09-07T06:34:29Z</time>
      </trkpt>
      <trkpt lat="43.2767" lon="2.46727">
        <ele>183.5</ele>
        <time>2021-09-07T06:34:30Z</time>
      </trkpt>
      <trkpt lat="43.27668" lon="2.46727">
        <ele>183.5</ele>
        <time>2021-09-07T06:34:31Z</time>
      </trkpt>
      <trkpt lat="43.27664" lon="2.46726">
        <ele>183.2</ele>
        <time>2021-09-07T06:34:33Z</time>
      </trkpt>
      <trkpt lat="43.27662" lon="2.46726">
        <ele>183.1</ele>
        <time>2021-09-07T06:34:34Z</time>
      </trkpt>
      <trkpt lat="43.27661" lon="2.46725">
        <ele>183.1</ele>
        <time>2021-09-07T06:34:35Z</time>
      </trkpt>
      <trkpt lat="43.2766" lon="2.46725">
        <ele>183</ele>
        <time>2021-09-07T06:34:36Z</time>
      </trkpt>
      <trkpt lat="43.27659" lon="2.46725">
        <ele>183</ele>
        <time>2021-09-07T06:34:38Z</time>
      </trkpt>
      <trkpt lat="43.27655" lon="2.46725">
        <ele>182.8</ele>
        <time>2021-09-07T06:34:40Z</time>
      </trkpt>
      <trkpt lat="43.27651" lon="2.46726">
        <ele>182.6</ele>
        <time>2021-09-07T06:34:42Z</time>
      </trkpt>
      <trkpt lat="43.27646" lon="2.46728">
        <ele>182.4</ele>
        <time>2021-09-07T06:34:44Z</time>
      </trkpt>
      <trkpt lat="43.27643" lon="2.46729">
        <ele>182.3</ele>
        <time>2021-09-07T06:34:45Z</time>
      </trkpt>
      <trkpt lat="43.27641" lon="2.46729">
        <ele>182.2</ele>
        <time>2021-09-07T06:34:46Z</time>
      </trkpt>
      <trkpt lat="43.27638" lon="2.4673">
        <ele>182.2</ele>
        <time>2021-09-07T06:34:47Z</time>
      </trkpt>
      <trkpt lat="43.27632" lon="2.46732">
        <ele>182.1</ele>
        <time>2021-09-07T06:34:49Z</time>
      </trkpt>
      <trkpt lat="43.27627" lon="2.46733">
        <ele>182</ele>
        <time>2021-09-07T06:34:51Z</time>
      </trkpt>
      <trkpt lat="43.27624" lon="2.46735">
        <ele>182</ele>
        <time>2021-09-07T06:34:52Z</time>
      </trkpt>
      <trkpt lat="43.2762" lon="2.46736">
        <ele>182</ele>
        <time>2021-09-07T06:34:53Z</time>
      </trkpt>
      <trkpt lat="43.27619" lon="2.46737">
        <ele>182</ele>
        <time>2021-09-07T06:34:54Z</time>
      </trkpt>
      <trkpt lat="43.27614" lon="2.46739">
        <ele>182</ele>
        <time>2021-09-07T06:34:56Z</time>
      </trkpt>
      <trkpt lat="43.27608" lon="2.4674">
        <ele>181.9</ele>
        <time>2021-09-07T06:34:58Z</time>
      </trkpt>
      <trkpt lat="43.27605" lon="2.46741">
        <ele>181.9</ele>
        <time>2021-09-07T06:34:59Z</time>
      </trkpt>
      <trkpt lat="43.27602" lon="2.46743">
        <ele>181.9</ele>
        <time>2021-09-07T06:35:00Z</time>
      </trkpt>
      <trkpt lat="43.27599" lon="2.46744">
        <ele>181.9</ele>
        <time>2021-09-07T06:35:01Z</time>
      </trkpt>
      <trkpt lat="43.27593" lon="2.46746">
        <ele>182</ele>
        <time>2021-09-07T06:35:03Z</time>
      </trkpt>
      <trkpt lat="43.27591" lon="2.46747">
        <ele>182</ele>
        <time>2021-09-07T06:35:04Z</time>
      </trkpt>
      <trkpt lat="43.27587" lon="2.46749">
        <ele>182</ele>
        <time>2021-09-07T06:35:06Z</time>
      </trkpt>
      <trkpt lat="43.27583" lon="2.46749">
        <ele>182</ele>
        <time>2021-09-07T06:35:08Z</time>
      </trkpt>
      <trkpt lat="43.27578" lon="2.46749">
        <ele>182.1</ele>
        <time>2021-09-07T06:35:10Z</time>
      </trkpt>
      <trkpt lat="43.27571" lon="2.46748">
        <ele>182.2</ele>
        <time>2021-09-07T06:35:12Z</time>
      </trkpt>
      <trkpt lat="43.27567" lon="2.46748">
        <ele>182.3</ele>
        <time>2021-09-07T06:35:13Z</time>
      </trkpt>
      <trkpt lat="43.27564" lon="2.46748">
        <ele>182.3</ele>
        <time>2021-09-07T06:35:14Z</time>
      </trkpt>
      <trkpt lat="43.27557" lon="2.46749">
        <ele>182.5</ele>
        <time>2021-09-07T06:35:16Z</time>
      </trkpt>
      <trkpt lat="43.27554" lon="2.46749">
        <ele>182.6</ele>
        <time>2021-09-07T06:35:17Z</time>
      </trkpt>
      <trkpt lat="43.2755" lon="2.4675">
        <ele>182.6</ele>
        <time>2021-09-07T06:35:18Z</time>
      </trkpt>
      <trkpt lat="43.27543" lon="2.4675">
        <ele>182.8</ele>
        <time>2021-09-07T06:35:20Z</time>
      </trkpt>
      <trkpt lat="43.27536" lon="2.46749">
        <ele>183</ele>
        <time>2021-09-07T06:35:22Z</time>
      </trkpt>
      <trkpt lat="43.27525" lon="2.46746">
        <ele>183.1</ele>
        <time>2021-09-07T06:35:25Z</time>
      </trkpt>
      <trkpt lat="43.27516" lon="2.46742">
        <ele>183.1</ele>
        <time>2021-09-07T06:35:27Z</time>
      </trkpt>
      <trkpt lat="43.27506" lon="2.46736">
        <ele>182.9</ele>
        <time>2021-09-07T06:35:29Z</time>
      </trkpt>
      <trkpt lat="43.27502" lon="2.46733">
        <ele>182.8</ele>
        <time>2021-09-07T06:35:30Z</time>
      </trkpt>
      <trkpt lat="43.27499" lon="2.4673">
        <ele>182.7</ele>
        <time>2021-09-07T06:35:31Z</time>
      </trkpt>
      <trkpt lat="43.27493" lon="2.46725">
        <ele>182.5</ele>
        <time>2021-09-07T06:35:33Z</time>
      </trkpt>
      <trkpt lat="43.27487" lon="2.4672">
        <ele>182.2</ele>
        <time>2021-09-07T06:35:35Z</time>
      </trkpt>
      <trkpt lat="43.27481" lon="2.46717">
        <ele>181.8</ele>
        <time>2021-09-07T06:35:37Z</time>
      </trkpt>
      <trkpt lat="43.27478" lon="2.46715">
        <ele>181.7</ele>
        <time>2021-09-07T06:35:38Z</time>
      </trkpt>
      <trkpt lat="43.27474" lon="2.46712">
        <ele>181.5</ele>
        <time>2021-09-07T06:35:40Z</time>
      </trkpt>
      <trkpt lat="43.27473" lon="2.46711">
        <ele>181.5</ele>
        <time>2021-09-07T06:35:41Z</time>
      </trkpt>
      <trkpt lat="43.2747" lon="2.4671">
        <ele>181.3</ele>
        <time>2021-09-07T06:35:43Z</time>
      </trkpt>
      <trkpt lat="43.27465" lon="2.46711">
        <ele>181.1</ele>
        <time>2021-09-07T06:35:45Z</time>
      </trkpt>
      <trkpt lat="43.27464" lon="2.46713">
        <ele>181.1</ele>
        <time>2021-09-07T06:35:46Z</time>
      </trkpt>
      <trkpt lat="43.27462" lon="2.46714">
        <ele>181.1</ele>
        <time>2021-09-07T06:35:47Z</time>
      </trkpt>
      <trkpt lat="43.27461" lon="2.46716">
        <ele>180.9</ele>
        <time>2021-09-07T06:35:48Z</time>
      </trkpt>
      <trkpt lat="43.27458" lon="2.46722">
        <ele>180.7</ele>
        <time>2021-09-07T06:35:50Z</time>
      </trkpt>
      <trkpt lat="43.27457" lon="2.46726">
        <ele>180.6</ele>
        <time>2021-09-07T06:35:51Z</time>
      </trkpt>
      <trkpt lat="43.27455" lon="2.46733">
        <ele>180.3</ele>
        <time>2021-09-07T06:35:53Z</time>
      </trkpt>
      <trkpt lat="43.27453" lon="2.4674">
        <ele>180.1</ele>
        <time>2021-09-07T06:35:55Z</time>
      </trkpt>
      <trkpt lat="43.27451" lon="2.46743">
        <ele>180</ele>
        <time>2021-09-07T06:35:56Z</time>
      </trkpt>
      <trkpt lat="43.2745" lon="2.46746">
        <ele>179.8</ele>
        <time>2021-09-07T06:35:57Z</time>
      </trkpt>
      <trkpt lat="43.27448" lon="2.46749">
        <ele>179.7</ele>
        <time>2021-09-07T06:35:58Z</time>
      </trkpt>
      <trkpt lat="43.27446" lon="2.46755">
        <ele>179.4</ele>
        <time>2021-09-07T06:36:00Z</time>
      </trkpt>
      <trkpt lat="43.27442" lon="2.4676">
        <ele>179</ele>
        <time>2021-09-07T06:36:02Z</time>
      </trkpt>
      <trkpt lat="43.2744" lon="2.46763">
        <ele>178.9</ele>
        <time>2021-09-07T06:36:03Z</time>
      </trkpt>
      <trkpt lat="43.27437" lon="2.46768">
        <ele>178.5</ele>
        <time>2021-09-07T06:36:05Z</time>
      </trkpt>
      <trkpt lat="43.27432" lon="2.46773">
        <ele>178</ele>
        <time>2021-09-07T06:36:07Z</time>
      </trkpt>
      <trkpt lat="43.2743" lon="2.46775">
        <ele>177.8</ele>
        <time>2021-09-07T06:36:08Z</time>
      </trkpt>
      <trkpt lat="43.27427" lon="2.46777">
        <ele>177.6</ele>
        <time>2021-09-07T06:36:09Z</time>
      </trkpt>
      <trkpt lat="43.27421" lon="2.4678">
        <ele>177.1</ele>
        <time>2021-09-07T06:36:11Z</time>
      </trkpt>
      <trkpt lat="43.27416" lon="2.46783">
        <ele>176.8</ele>
        <time>2021-09-07T06:36:13Z</time>
      </trkpt>
      <trkpt lat="43.27414" lon="2.46786">
        <ele>176.6</ele>
        <time>2021-09-07T06:36:14Z</time>
      </trkpt>
      <trkpt lat="43.27412" lon="2.46792">
        <ele>176.4</ele>
        <time>2021-09-07T06:36:16Z</time>
      </trkpt>
      <trkpt lat="43.27411" lon="2.46796">
        <ele>176.3</ele>
        <time>2021-09-07T06:36:17Z</time>
      </trkpt>
      <trkpt lat="43.27411" lon="2.46803">
        <ele>176.1</ele>
        <time>2021-09-07T06:36:19Z</time>
      </trkpt>
      <trkpt lat="43.2741" lon="2.46811">
        <ele>176</ele>
        <time>2021-09-07T06:36:21Z</time>
      </trkpt>
      <trkpt lat="43.27409" lon="2.46814">
        <ele>176</ele>
        <time>2021-09-07T06:36:22Z</time>
      </trkpt>
      <trkpt lat="43.27409" lon="2.46821">
        <ele>175.9</ele>
        <time>2021-09-07T06:36:24Z</time>
      </trkpt>
      <trkpt lat="43.27407" lon="2.46826">
        <ele>175.9</ele>
        <time>2021-09-07T06:36:26Z</time>
      </trkpt>
      <trkpt lat="43.27406" lon="2.46831">
        <ele>175.9</ele>
        <time>2021-09-07T06:36:28Z</time>
      </trkpt>
      <trkpt lat="43.27405" lon="2.46838">
        <ele>175.8</ele>
        <time>2021-09-07T06:36:30Z</time>
      </trkpt>
      <trkpt lat="43.27402" lon="2.46844">
        <ele>175.8</ele>
        <time>2021-09-07T06:36:32Z</time>
      </trkpt>
      <trkpt lat="43.27398" lon="2.46849">
        <ele>175.8</ele>
        <time>2021-09-07T06:36:34Z</time>
      </trkpt>
      <trkpt lat="43.27396" lon="2.46851">
        <ele>175.8</ele>
        <time>2021-09-07T06:36:35Z</time>
      </trkpt>
      <trkpt lat="43.27393" lon="2.46854">
        <ele>175.8</ele>
        <time>2021-09-07T06:36:36Z</time>
      </trkpt>
      <trkpt lat="43.27387" lon="2.46856">
        <ele>175.9</ele>
        <time>2021-09-07T06:36:38Z</time>
      </trkpt>
      <trkpt lat="43.27381" lon="2.46858">
        <ele>176</ele>
        <time>2021-09-07T06:36:40Z</time>
      </trkpt>
      <trkpt lat="43.27376" lon="2.46859">
        <ele>176.2</ele>
        <time>2021-09-07T06:36:42Z</time>
      </trkpt>
      <trkpt lat="43.27373" lon="2.46859">
        <ele>176.3</ele>
        <time>2021-09-07T06:36:43Z</time>
      </trkpt>
      <trkpt lat="43.27371" lon="2.4686">
        <ele>176.5</ele>
        <time>2021-09-07T06:36:44Z</time>
      </trkpt>
      <trkpt lat="43.27365" lon="2.46862">
        <ele>176.8</ele>
        <time>2021-09-07T06:36:46Z</time>
      </trkpt>
      <trkpt lat="43.27363" lon="2.46863">
        <ele>177</ele>
        <time>2021-09-07T06:36:47Z</time>
      </trkpt>
      <trkpt lat="43.27358" lon="2.46865">
        <ele>177.4</ele>
        <time>2021-09-07T06:36:49Z</time>
      </trkpt>
      <trkpt lat="43.27353" lon="2.46868">
        <ele>177.8</ele>
        <time>2021-09-07T06:36:51Z</time>
      </trkpt>
      <trkpt lat="43.27349" lon="2.46871">
        <ele>178.4</ele>
        <time>2021-09-07T06:36:53Z</time>
      </trkpt>
      <trkpt lat="43.27346" lon="2.46874">
        <ele>178.9</ele>
        <time>2021-09-07T06:36:55Z</time>
      </trkpt>
      <trkpt lat="43.27343" lon="2.46876">
        <ele>179.3</ele>
        <time>2021-09-07T06:36:56Z</time>
      </trkpt>
      <trkpt lat="43.27342" lon="2.46877">
        <ele>179.5</ele>
        <time>2021-09-07T06:36:57Z</time>
      </trkpt>
      <trkpt lat="43.2734" lon="2.46878">
        <ele>179.7</ele>
        <time>2021-09-07T06:36:58Z</time>
      </trkpt>
      <trkpt lat="43.27336" lon="2.46879">
        <ele>180.3</ele>
        <time>2021-09-07T06:37:00Z</time>
      </trkpt>
      <trkpt lat="43.27332" lon="2.4688">
        <ele>181</ele>
        <time>2021-09-07T06:37:02Z</time>
      </trkpt>
      <trkpt lat="43.2733" lon="2.4688">
        <ele>181.3</ele>
        <time>2021-09-07T06:37:03Z</time>
      </trkpt>
      <trkpt lat="43.27326" lon="2.46881">
        <ele>182</ele>
        <time>2021-09-07T06:37:05Z</time>
      </trkpt>
      <trkpt lat="43.27323" lon="2.46882">
        <ele>182.5</ele>
        <time>2021-09-07T06:37:07Z</time>
      </trkpt>
      <trkpt lat="43.2732" lon="2.46882">
        <ele>183</ele>
        <time>2021-09-07T06:37:09Z</time>
      </trkpt>
      <trkpt lat="43.27317" lon="2.4688">
        <ele>183.5</ele>
        <time>2021-09-07T06:37:11Z</time>
      </trkpt>
      <trkpt lat="43.27315" lon="2.4688">
        <ele>183.8</ele>
        <time>2021-09-07T06:37:12Z</time>
      </trkpt>
      <trkpt lat="43.27313" lon="2.46879">
        <ele>184.1</ele>
        <time>2021-09-07T06:37:14Z</time>
      </trkpt>
      <trkpt lat="43.27312" lon="2.46879">
        <ele>184.3</ele>
        <time>2021-09-07T06:37:15Z</time>
      </trkpt>
      <trkpt lat="43.2731" lon="2.46881">
        <ele>184.7</ele>
        <time>2021-09-07T06:37:17Z</time>
      </trkpt>
      <trkpt lat="43.27309" lon="2.46884">
        <ele>185.1</ele>
        <time>2021-09-07T06:37:19Z</time>
      </trkpt>
      <trkpt lat="43.27309" lon="2.46885">
        <ele>185.3</ele>
        <time>2021-09-07T06:37:20Z</time>
      </trkpt>
      <trkpt lat="43.27307" lon="2.46887">
        <ele>185.6</ele>
        <time>2021-09-07T06:37:22Z</time>
      </trkpt>
      <trkpt lat="43.27307" lon="2.46888">
        <ele>185.8</ele>
        <time>2021-09-07T06:37:23Z</time>
      </trkpt>
      <trkpt lat="43.27305" lon="2.46891">
        <ele>186.2</ele>
        <time>2021-09-07T06:37:25Z</time>
      </trkpt>
      <trkpt lat="43.27304" lon="2.46894">
        <ele>186.6</ele>
        <time>2021-09-07T06:37:27Z</time>
      </trkpt>
      <trkpt lat="43.27303" lon="2.46896">
        <ele>186.8</ele>
        <time>2021-09-07T06:37:28Z</time>
      </trkpt>
      <trkpt lat="43.27303" lon="2.46898">
        <ele>187</ele>
        <time>2021-09-07T06:37:29Z</time>
      </trkpt>
      <trkpt lat="43.27301" lon="2.46901">
        <ele>187.3</ele>
        <time>2021-09-07T06:37:31Z</time>
      </trkpt>
      <trkpt lat="43.273" lon="2.46902">
        <ele>187.5</ele>
        <time>2021-09-07T06:37:32Z</time>
      </trkpt>
      <trkpt lat="43.27299" lon="2.46903">
        <ele>187.7</ele>
        <time>2021-09-07T06:37:33Z</time>
      </trkpt>
      <trkpt lat="43.27299" lon="2.46907">
        <ele>188.1</ele>
        <time>2021-09-07T06:37:35Z</time>
      </trkpt>
      <trkpt lat="43.27298" lon="2.46911">
        <ele>188.5</ele>
        <time>2021-09-07T06:37:37Z</time>
      </trkpt>
      <trkpt lat="43.27297" lon="2.46914">
        <ele>188.7</ele>
        <time>2021-09-07T06:37:38Z</time>
      </trkpt>
      <trkpt lat="43.27296" lon="2.46917">
        <ele>189.1</ele>
        <time>2021-09-07T06:37:40Z</time>
      </trkpt>
      <trkpt lat="43.27294" lon="2.4692">
        <ele>189.4</ele>
        <time>2021-09-07T06:37:42Z</time>
      </trkpt>
      <trkpt lat="43.27293" lon="2.46921">
        <ele>189.6</ele>
        <time>2021-09-07T06:37:43Z</time>
      </trkpt>
      <trkpt lat="43.2729" lon="2.46923">
        <ele>190</ele>
        <time>2021-09-07T06:37:45Z</time>
      </trkpt>
      <trkpt lat="43.27288" lon="2.46926">
        <ele>190.3</ele>
        <time>2021-09-07T06:37:47Z</time>
      </trkpt>
      <trkpt lat="43.27286" lon="2.46928">
        <ele>190.6</ele>
        <time>2021-09-07T06:37:49Z</time>
      </trkpt>
      <trkpt lat="43.27285" lon="2.4693">
        <ele>190.8</ele>
        <time>2021-09-07T06:37:51Z</time>
      </trkpt>
      <trkpt lat="43.27284" lon="2.46931">
        <ele>190.9</ele>
        <time>2021-09-07T06:37:52Z</time>
      </trkpt>
      <trkpt lat="43.27282" lon="2.46933">
        <ele>191.1</ele>
        <time>2021-09-07T06:37:54Z</time>
      </trkpt>
      <trkpt lat="43.27281" lon="2.46934">
        <ele>191.3</ele>
        <time>2021-09-07T06:37:55Z</time>
      </trkpt>
      <trkpt lat="43.2728" lon="2.46935">
        <ele>191.4</ele>
        <time>2021-09-07T06:37:57Z</time>
      </trkpt>
      <trkpt lat="43.27279" lon="2.46937">
        <ele>191.5</ele>
        <time>2021-09-07T06:37:58Z</time>
      </trkpt>
      <trkpt lat="43.27278" lon="2.46937">
        <ele>191.6</ele>
        <time>2021-09-07T06:38:00Z</time>
      </trkpt>
      <trkpt lat="43.27276" lon="2.46938">
        <ele>191.8</ele>
        <time>2021-09-07T06:38:02Z</time>
      </trkpt>
      <trkpt lat="43.27273" lon="2.46941">
        <ele>192</ele>
        <time>2021-09-07T06:38:04Z</time>
      </trkpt>
      <trkpt lat="43.27272" lon="2.46942">
        <ele>192.1</ele>
        <time>2021-09-07T06:38:05Z</time>
      </trkpt>
      <trkpt lat="43.27272" lon="2.46942">
        <ele>192.1</ele>
        <time>2021-09-07T06:38:06Z</time>
      </trkpt>
      <trkpt lat="43.27272" lon="2.46942">
        <ele>192.1</ele>
        <time>2021-09-07T06:38:07Z</time>
      </trkpt>
      <trkpt lat="43.27269" lon="2.46942">
        <ele>192.3</ele>
        <time>2021-09-07T06:38:09Z</time>
      </trkpt>
      <trkpt lat="43.27268" lon="2.46941">
        <ele>192.3</ele>
        <time>2021-09-07T06:38:11Z</time>
      </trkpt>
      <trkpt lat="43.27267" lon="2.46941">
        <ele>192.4</ele>
        <time>2021-09-07T06:38:13Z</time>
      </trkpt>
      <trkpt lat="43.27267" lon="2.46941">
        <ele>192.4</ele>
        <time>2021-09-07T06:38:14Z</time>
      </trkpt>
      <trkpt lat="43.27267" lon="2.46941">
        <ele>192.4</ele>
        <time>2021-09-07T06:38:15Z</time>
      </trkpt>
      <trkpt lat="43.27267" lon="2.46941">
        <ele>192.4</ele>
        <time>2021-09-07T06:38:17Z</time>
      </trkpt>
      <trkpt lat="43.27267" lon="2.46941">
        <ele>192.4</ele>
        <time>2021-09-07T06:38:19Z</time>
      </trkpt>
      <trkpt lat="43.27267" lon="2.46942">
        <ele>192.4</ele>
        <time>2021-09-07T06:38:21Z</time>
      </trkpt>
      <trkpt lat="43.27266" lon="2.46943">
        <ele>192.4</ele>
        <time>2021-09-07T06:38:23Z</time>
      </trkpt>
      <trkpt lat="43.27264" lon="2.46944">
        <ele>192.5</ele>
        <time>2021-09-07T06:38:25Z</time>
      </trkpt>
      <trkpt lat="43.27264" lon="2.46945">
        <ele>192.5</ele>
        <time>2021-09-07T06:38:26Z</time>
      </trkpt>
      <trkpt lat="43.27262" lon="2.46945">
        <ele>192.5</ele>
        <time>2021-09-07T06:38:28Z</time>
      </trkpt>
      <trkpt lat="43.27261" lon="2.46946">
        <ele>192.5</ele>
        <time>2021-09-07T06:38:29Z</time>
      </trkpt>
      <trkpt lat="43.2726" lon="2.46946">
        <ele>192.6</ele>
        <time>2021-09-07T06:38:30Z</time>
      </trkpt>
      <trkpt lat="43.27258" lon="2.46947">
        <ele>192.4</ele>
        <time>2021-09-07T06:38:32Z</time>
      </trkpt>
      <trkpt lat="43.27257" lon="2.46948">
        <ele>192.3</ele>
        <time>2021-09-07T06:38:33Z</time>
      </trkpt>
      <trkpt lat="43.27255" lon="2.46949">
        <ele>192.2</ele>
        <time>2021-09-07T06:38:34Z</time>
      </trkpt>
      <trkpt lat="43.27252" lon="2.4695">
        <ele>191.9</ele>
        <time>2021-09-07T06:38:36Z</time>
      </trkpt>
      <trkpt lat="43.27249" lon="2.4695">
        <ele>191.6</ele>
        <time>2021-09-07T06:38:38Z</time>
      </trkpt>
      <trkpt lat="43.27246" lon="2.46952">
        <ele>191.3</ele>
        <time>2021-09-07T06:38:40Z</time>
      </trkpt>
      <trkpt lat="43.27242" lon="2.46954">
        <ele>191</ele>
        <time>2021-09-07T06:38:42Z</time>
      </trkpt>
      <trkpt lat="43.2724" lon="2.46955">
        <ele>190.8</ele>
        <time>2021-09-07T06:38:43Z</time>
      </trkpt>
      <trkpt lat="43.27235" lon="2.46957">
        <ele>190.3</ele>
        <time>2021-09-07T06:38:45Z</time>
      </trkpt>
      <trkpt lat="43.27231" lon="2.46959">
        <ele>189.8</ele>
        <time>2021-09-07T06:38:47Z</time>
      </trkpt>
      <trkpt lat="43.27225" lon="2.4696">
        <ele>189.3</ele>
        <time>2021-09-07T06:38:49Z</time>
      </trkpt>
      <trkpt lat="43.27219" lon="2.4696">
        <ele>188.7</ele>
        <time>2021-09-07T06:38:51Z</time>
      </trkpt>
      <trkpt lat="43.27216" lon="2.46959">
        <ele>188.3</ele>
        <time>2021-09-07T06:38:52Z</time>
      </trkpt>
      <trkpt lat="43.27209" lon="2.46958">
        <ele>187.7</ele>
        <time>2021-09-07T06:38:54Z</time>
      </trkpt>
      <trkpt lat="43.27205" lon="2.46957">
        <ele>187.5</ele>
        <time>2021-09-07T06:38:55Z</time>
      </trkpt>
      <trkpt lat="43.27199" lon="2.46954">
        <ele>187.2</ele>
        <time>2021-09-07T06:38:57Z</time>
      </trkpt>
      <trkpt lat="43.27194" lon="2.4695">
        <ele>187.1</ele>
        <time>2021-09-07T06:38:59Z</time>
      </trkpt>
      <trkpt lat="43.27191" lon="2.46947">
        <ele>187</ele>
        <time>2021-09-07T06:39:00Z</time>
      </trkpt>
      <trkpt lat="43.27188" lon="2.46942">
        <ele>187</ele>
        <time>2021-09-07T06:39:02Z</time>
      </trkpt>
      <trkpt lat="43.27185" lon="2.46936">
        <ele>187</ele>
        <time>2021-09-07T06:39:04Z</time>
      </trkpt>
      <trkpt lat="43.27182" lon="2.46929">
        <ele>187.1</ele>
        <time>2021-09-07T06:39:06Z</time>
      </trkpt>
      <trkpt lat="43.27181" lon="2.46925">
        <ele>187.2</ele>
        <time>2021-09-07T06:39:07Z</time>
      </trkpt>
      <trkpt lat="43.2718" lon="2.46922">
        <ele>187.3</ele>
        <time>2021-09-07T06:39:08Z</time>
      </trkpt>
      <trkpt lat="43.27178" lon="2.46914">
        <ele>187.5</ele>
        <time>2021-09-07T06:39:10Z</time>
      </trkpt>
      <trkpt lat="43.27176" lon="2.46906">
        <ele>187.8</ele>
        <time>2021-09-07T06:39:12Z</time>
      </trkpt>
      <trkpt lat="43.27175" lon="2.46903">
        <ele>187.9</ele>
        <time>2021-09-07T06:39:13Z</time>
      </trkpt>
      <trkpt lat="43.27173" lon="2.46896">
        <ele>188.2</ele>
        <time>2021-09-07T06:39:15Z</time>
      </trkpt>
      <trkpt lat="43.27172" lon="2.46891">
        <ele>188.5</ele>
        <time>2021-09-07T06:39:16Z</time>
      </trkpt>
      <trkpt lat="43.27172" lon="2.4689">
        <ele>188.6</ele>
        <time>2021-09-07T06:39:17Z</time>
      </trkpt>
      <trkpt lat="43.2717" lon="2.46882">
        <ele>189</ele>
        <time>2021-09-07T06:39:19Z</time>
      </trkpt>
      <trkpt lat="43.2717" lon="2.46876">
        <ele>189.2</ele>
        <time>2021-09-07T06:39:21Z</time>
      </trkpt>
      <trkpt lat="43.2717" lon="2.46871">
        <ele>189.3</ele>
        <time>2021-09-07T06:39:23Z</time>
      </trkpt>
      <trkpt lat="43.27171" lon="2.46866">
        <ele>189.2</ele>
        <time>2021-09-07T06:39:25Z</time>
      </trkpt>
      <trkpt lat="43.27172" lon="2.46864">
        <ele>189.1</ele>
        <time>2021-09-07T06:39:26Z</time>
      </trkpt>
      <trkpt lat="43.27173" lon="2.46862">
        <ele>189</ele>
        <time>2021-09-07T06:39:28Z</time>
      </trkpt>
      <trkpt lat="43.27174" lon="2.4686">
        <ele>188.8</ele>
        <time>2021-09-07T06:39:30Z</time>
      </trkpt>
      <trkpt lat="43.27175" lon="2.46858">
        <ele>188.6</ele>
        <time>2021-09-07T06:39:31Z</time>
      </trkpt>
      <trkpt lat="43.27175" lon="2.46854">
        <ele>188.2</ele>
        <time>2021-09-07T06:39:33Z</time>
      </trkpt>
      <trkpt lat="43.27175" lon="2.4685">
        <ele>187.7</ele>
        <time>2021-09-07T06:39:35Z</time>
      </trkpt>
      <trkpt lat="43.27173" lon="2.46847">
        <ele>187.3</ele>
        <time>2021-09-07T06:39:37Z</time>
      </trkpt>
      <trkpt lat="43.27172" lon="2.46845">
        <ele>187</ele>
        <time>2021-09-07T06:39:38Z</time>
      </trkpt>
      <trkpt lat="43.27169" lon="2.46842">
        <ele>186.4</ele>
        <time>2021-09-07T06:39:40Z</time>
      </trkpt>
      <trkpt lat="43.27166" lon="2.46839">
        <ele>185.8</ele>
        <time>2021-09-07T06:39:42Z</time>
      </trkpt>
      <trkpt lat="43.27162" lon="2.46837">
        <ele>185.4</ele>
        <time>2021-09-07T06:39:44Z</time>
      </trkpt>
      <trkpt lat="43.27159" lon="2.46834">
        <ele>185</ele>
        <time>2021-09-07T06:39:45Z</time>
      </trkpt>
      <trkpt lat="43.27158" lon="2.46834">
        <ele>184.9</ele>
        <time>2021-09-07T06:39:46Z</time>
      </trkpt>
      <trkpt lat="43.27153" lon="2.46831">
        <ele>184.4</ele>
        <time>2021-09-07T06:39:48Z</time>
      </trkpt>
      <trkpt lat="43.27151" lon="2.46829">
        <ele>184.1</ele>
        <time>2021-09-07T06:39:49Z</time>
      </trkpt>
      <trkpt lat="43.27148" lon="2.46827">
        <ele>183.9</ele>
        <time>2021-09-07T06:39:50Z</time>
      </trkpt>
      <trkpt lat="43.27146" lon="2.46826">
        <ele>183.8</ele>
        <time>2021-09-07T06:39:51Z</time>
      </trkpt>
      <trkpt lat="43.27141" lon="2.46822">
        <ele>183.4</ele>
        <time>2021-09-07T06:39:53Z</time>
      </trkpt>
      <trkpt lat="43.27136" lon="2.46818">
        <ele>183.2</ele>
        <time>2021-09-07T06:39:55Z</time>
      </trkpt>
      <trkpt lat="43.27134" lon="2.46816">
        <ele>183.1</ele>
        <time>2021-09-07T06:39:56Z</time>
      </trkpt>
      <trkpt lat="43.27129" lon="2.46813">
        <ele>183</ele>
        <time>2021-09-07T06:39:58Z</time>
      </trkpt>
      <trkpt lat="43.27125" lon="2.46809">
        <ele>182.9</ele>
        <time>2021-09-07T06:40:00Z</time>
      </trkpt>
      <trkpt lat="43.27121" lon="2.46805">
        <ele>182.9</ele>
        <time>2021-09-07T06:40:02Z</time>
      </trkpt>
      <trkpt lat="43.27119" lon="2.46803">
        <ele>182.9</ele>
        <time>2021-09-07T06:40:03Z</time>
      </trkpt>
      <trkpt lat="43.27116" lon="2.468">
        <ele>182.9</ele>
        <time>2021-09-07T06:40:05Z</time>
      </trkpt>
      <trkpt lat="43.27114" lon="2.46798">
        <ele>182.9</ele>
        <time>2021-09-07T06:40:06Z</time>
      </trkpt>
      <trkpt lat="43.27112" lon="2.46795">
        <ele>182.9</ele>
        <time>2021-09-07T06:40:08Z</time>
      </trkpt>
      <trkpt lat="43.2711" lon="2.46791">
        <ele>183</ele>
        <time>2021-09-07T06:40:09Z</time>
      </trkpt>
      <trkpt lat="43.27109" lon="2.4679">
        <ele>183</ele>
        <time>2021-09-07T06:40:10Z</time>
      </trkpt>
      <trkpt lat="43.27107" lon="2.46785">
        <ele>183</ele>
        <time>2021-09-07T06:40:12Z</time>
      </trkpt>
      <trkpt lat="43.27106" lon="2.46779">
        <ele>183.3</ele>
        <time>2021-09-07T06:40:14Z</time>
      </trkpt>
      <trkpt lat="43.27106" lon="2.46776">
        <ele>183.2</ele>
        <time>2021-09-07T06:40:15Z</time>
      </trkpt>
      <trkpt lat="43.27107" lon="2.46769">
        <ele>182.9</ele>
        <time>2021-09-07T06:40:17Z</time>
      </trkpt>
      <trkpt lat="43.27108" lon="2.46767">
        <ele>182.8</ele>
        <time>2021-09-07T06:40:18Z</time>
      </trkpt>
      <trkpt lat="43.2711" lon="2.46762">
        <ele>182.6</ele>
        <time>2021-09-07T06:40:20Z</time>
      </trkpt>
      <trkpt lat="43.27111" lon="2.46756">
        <ele>182.4</ele>
        <time>2021-09-07T06:40:22Z</time>
      </trkpt>
      <trkpt lat="43.27112" lon="2.46753">
        <ele>182.3</ele>
        <time>2021-09-07T06:40:23Z</time>
      </trkpt>
      <trkpt lat="43.27113" lon="2.46747">
        <ele>182.1</ele>
        <time>2021-09-07T06:40:25Z</time>
      </trkpt>
      <trkpt lat="43.27113" lon="2.46744">
        <ele>182</ele>
        <time>2021-09-07T06:40:26Z</time>
      </trkpt>
      <trkpt lat="43.27114" lon="2.46738">
        <ele>181.8</ele>
        <time>2021-09-07T06:40:28Z</time>
      </trkpt>
      <trkpt lat="43.27114" lon="2.46735">
        <ele>181.7</ele>
        <time>2021-09-07T06:40:29Z</time>
      </trkpt>
      <trkpt lat="43.27115" lon="2.46729">
        <ele>181.5</ele>
        <time>2021-09-07T06:40:31Z</time>
      </trkpt>
      <trkpt lat="43.27116" lon="2.46724">
        <ele>181.3</ele>
        <time>2021-09-07T06:40:32Z</time>
      </trkpt>
      <trkpt lat="43.27116" lon="2.46723">
        <ele>181.3</ele>
        <time>2021-09-07T06:40:33Z</time>
      </trkpt>
      <trkpt lat="43.27117" lon="2.46716">
        <ele>181</ele>
        <time>2021-09-07T06:40:35Z</time>
      </trkpt>
      <trkpt lat="43.27119" lon="2.46709">
        <ele>180.7</ele>
        <time>2021-09-07T06:40:37Z</time>
      </trkpt>
      <trkpt lat="43.2712" lon="2.46702">
        <ele>180.5</ele>
        <time>2021-09-07T06:40:39Z</time>
      </trkpt>
      <trkpt lat="43.2712" lon="2.46699">
        <ele>180.4</ele>
        <time>2021-09-07T06:40:40Z</time>
      </trkpt>
      <trkpt lat="43.27122" lon="2.46692">
        <ele>180.2</ele>
        <time>2021-09-07T06:40:42Z</time>
      </trkpt>
      <trkpt lat="43.27124" lon="2.46684">
        <ele>179.9</ele>
        <time>2021-09-07T06:40:44Z</time>
      </trkpt>
      <trkpt lat="43.27124" lon="2.46681">
        <ele>179.8</ele>
        <time>2021-09-07T06:40:45Z</time>
      </trkpt>
      <trkpt lat="43.27125" lon="2.46674">
        <ele>179.7</ele>
        <time>2021-09-07T06:40:47Z</time>
      </trkpt>
      <trkpt lat="43.27126" lon="2.46668">
        <ele>179.5</ele>
        <time>2021-09-07T06:40:49Z</time>
      </trkpt>
      <trkpt lat="43.27127" lon="2.46662">
        <ele>179.3</ele>
        <time>2021-09-07T06:40:51Z</time>
      </trkpt>
      <trkpt lat="43.27129" lon="2.46655">
        <ele>179.1</ele>
        <time>2021-09-07T06:40:53Z</time>
      </trkpt>
      <trkpt lat="43.2713" lon="2.46649">
        <ele>179</ele>
        <time>2021-09-07T06:40:55Z</time>
      </trkpt>
      <trkpt lat="43.27132" lon="2.46643">
        <ele>178.8</ele>
        <time>2021-09-07T06:40:57Z</time>
      </trkpt>
      <trkpt lat="43.27133" lon="2.46639">
        <ele>178.7</ele>
        <time>2021-09-07T06:40:58Z</time>
      </trkpt>
      <trkpt lat="43.27134" lon="2.46637">
        <ele>178.7</ele>
        <time>2021-09-07T06:40:59Z</time>
      </trkpt>
      <trkpt lat="43.27135" lon="2.46632">
        <ele>178.5</ele>
        <time>2021-09-07T06:41:00Z</time>
      </trkpt>
      <trkpt lat="43.27135" lon="2.4663">
        <ele>178.5</ele>
        <time>2021-09-07T06:41:01Z</time>
      </trkpt>
      <trkpt lat="43.27136" lon="2.46627">
        <ele>178.4</ele>
        <time>2021-09-07T06:41:02Z</time>
      </trkpt>
      <trkpt lat="43.27139" lon="2.4662">
        <ele>178.3</ele>
        <time>2021-09-07T06:41:04Z</time>
      </trkpt>
      <trkpt lat="43.27141" lon="2.46612">
        <ele>178.1</ele>
        <time>2021-09-07T06:41:06Z</time>
      </trkpt>
      <trkpt lat="43.27143" lon="2.46605">
        <ele>178</ele>
        <time>2021-09-07T06:41:08Z</time>
      </trkpt>
      <trkpt lat="43.27145" lon="2.46597">
        <ele>177.8</ele>
        <time>2021-09-07T06:41:10Z</time>
      </trkpt>
      <trkpt lat="43.27146" lon="2.46591">
        <ele>177.6</ele>
        <time>2021-09-07T06:41:12Z</time>
      </trkpt>
      <trkpt lat="43.27148" lon="2.46585">
        <ele>177.5</ele>
        <time>2021-09-07T06:41:14Z</time>
      </trkpt>
      <trkpt lat="43.27149" lon="2.46579">
        <ele>177.3</ele>
        <time>2021-09-07T06:41:16Z</time>
      </trkpt>
      <trkpt lat="43.27151" lon="2.46573">
        <ele>177.2</ele>
        <time>2021-09-07T06:41:18Z</time>
      </trkpt>
      <trkpt lat="43.27154" lon="2.46568">
        <ele>177.1</ele>
        <time>2021-09-07T06:41:20Z</time>
      </trkpt>
      <trkpt lat="43.27155" lon="2.46564">
        <ele>176.9</ele>
        <time>2021-09-07T06:41:21Z</time>
      </trkpt>
      <trkpt lat="43.27156" lon="2.46563">
        <ele>176.9</ele>
        <time>2021-09-07T06:41:22Z</time>
      </trkpt>
      <trkpt lat="43.27159" lon="2.46557">
        <ele>176.7</ele>
        <time>2021-09-07T06:41:24Z</time>
      </trkpt>
      <trkpt lat="43.2716" lon="2.46554">
        <ele>176.6</ele>
        <time>2021-09-07T06:41:25Z</time>
      </trkpt>
      <trkpt lat="43.27163" lon="2.46549">
        <ele>176.5</ele>
        <time>2021-09-07T06:41:27Z</time>
      </trkpt>
      <trkpt lat="43.27166" lon="2.46544">
        <ele>176.4</ele>
        <time>2021-09-07T06:41:29Z</time>
      </trkpt>
      <trkpt lat="43.27169" lon="2.46539">
        <ele>176.3</ele>
        <time>2021-09-07T06:41:31Z</time>
      </trkpt>
      <trkpt lat="43.27173" lon="2.46534">
        <ele>176.2</ele>
        <time>2021-09-07T06:41:33Z</time>
      </trkpt>
      <trkpt lat="43.27175" lon="2.46531">
        <ele>176.1</ele>
        <time>2021-09-07T06:41:34Z</time>
      </trkpt>
      <trkpt lat="43.27178" lon="2.46526">
        <ele>175.9</ele>
        <time>2021-09-07T06:41:36Z</time>
      </trkpt>
      <trkpt lat="43.27181" lon="2.46522">
        <ele>175.8</ele>
        <time>2021-09-07T06:41:37Z</time>
      </trkpt>
      <trkpt lat="43.27182" lon="2.46521">
        <ele>175.7</ele>
        <time>2021-09-07T06:41:38Z</time>
      </trkpt>
      <trkpt lat="43.27186" lon="2.46516">
        <ele>175.5</ele>
        <time>2021-09-07T06:41:40Z</time>
      </trkpt>
      <trkpt lat="43.27189" lon="2.46513">
        <ele>175.4</ele>
        <time>2021-09-07T06:41:41Z</time>
      </trkpt>
      <trkpt lat="43.27193" lon="2.46508">
        <ele>175.2</ele>
        <time>2021-09-07T06:41:43Z</time>
      </trkpt>
      <trkpt lat="43.27197" lon="2.46502">
        <ele>174.9</ele>
        <time>2021-09-07T06:41:45Z</time>
      </trkpt>
      <trkpt lat="43.27199" lon="2.465">
        <ele>174.8</ele>
        <time>2021-09-07T06:41:46Z</time>
      </trkpt>
      <trkpt lat="43.27203" lon="2.46495">
        <ele>174.6</ele>
        <time>2021-09-07T06:41:48Z</time>
      </trkpt>
      <trkpt lat="43.27207" lon="2.4649">
        <ele>174.5</ele>
        <time>2021-09-07T06:41:50Z</time>
      </trkpt>
      <trkpt lat="43.27211" lon="2.46484">
        <ele>174.4</ele>
        <time>2021-09-07T06:41:52Z</time>
      </trkpt>
      <trkpt lat="43.27213" lon="2.46482">
        <ele>174.3</ele>
        <time>2021-09-07T06:41:53Z</time>
      </trkpt>
      <trkpt lat="43.27218" lon="2.46477">
        <ele>174.2</ele>
        <time>2021-09-07T06:41:55Z</time>
      </trkpt>
      <trkpt lat="43.27221" lon="2.46471">
        <ele>174</ele>
        <time>2021-09-07T06:41:57Z</time>
      </trkpt>
      <trkpt lat="43.27224" lon="2.46468">
        <ele>173.9</ele>
        <time>2021-09-07T06:41:58Z</time>
      </trkpt>
      <trkpt lat="43.27226" lon="2.46466">
        <ele>173.9</ele>
        <time>2021-09-07T06:41:59Z</time>
      </trkpt>
      <trkpt lat="43.2723" lon="2.46462">
        <ele>173.7</ele>
        <time>2021-09-07T06:42:01Z</time>
      </trkpt>
      <trkpt lat="43.27235" lon="2.46457">
        <ele>173.6</ele>
        <time>2021-09-07T06:42:03Z</time>
      </trkpt>
      <trkpt lat="43.27237" lon="2.46454">
        <ele>173.5</ele>
        <time>2021-09-07T06:42:04Z</time>
      </trkpt>
      <trkpt lat="43.27239" lon="2.46452">
        <ele>173.4</ele>
        <time>2021-09-07T06:42:05Z</time>
      </trkpt>
      <trkpt lat="43.27242" lon="2.46447">
        <ele>173.3</ele>
        <time>2021-09-07T06:42:07Z</time>
      </trkpt>
      <trkpt lat="43.27247" lon="2.46443">
        <ele>173.1</ele>
        <time>2021-09-07T06:42:09Z</time>
      </trkpt>
      <trkpt lat="43.27249" lon="2.4644">
        <ele>173.1</ele>
        <time>2021-09-07T06:42:10Z</time>
      </trkpt>
      <trkpt lat="43.27253" lon="2.46435">
        <ele>173</ele>
        <time>2021-09-07T06:42:12Z</time>
      </trkpt>
      <trkpt lat="43.27257" lon="2.4643">
        <ele>172.9</ele>
        <time>2021-09-07T06:42:14Z</time>
      </trkpt>
      <trkpt lat="43.27261" lon="2.46426">
        <ele>172.8</ele>
        <time>2021-09-07T06:42:16Z</time>
      </trkpt>
      <trkpt lat="43.27265" lon="2.46422">
        <ele>172.7</ele>
        <time>2021-09-07T06:42:18Z</time>
      </trkpt>
      <trkpt lat="43.27269" lon="2.46416">
        <ele>172.7</ele>
        <time>2021-09-07T06:42:20Z</time>
      </trkpt>
      <trkpt lat="43.27271" lon="2.46414">
        <ele>172.7</ele>
        <time>2021-09-07T06:42:21Z</time>
      </trkpt>
      <trkpt lat="43.27274" lon="2.46411">
        <ele>172.7</ele>
        <time>2021-09-07T06:42:22Z</time>
      </trkpt>
      <trkpt lat="43.27279" lon="2.46406">
        <ele>172.7</ele>
        <time>2021-09-07T06:42:24Z</time>
      </trkpt>
      <trkpt lat="43.27281" lon="2.46404">
        <ele>172.7</ele>
        <time>2021-09-07T06:42:25Z</time>
      </trkpt>
      <trkpt lat="43.27286" lon="2.46399">
        <ele>172.7</ele>
        <time>2021-09-07T06:42:27Z</time>
      </trkpt>
      <trkpt lat="43.27288" lon="2.46397">
        <ele>172.7</ele>
        <time>2021-09-07T06:42:28Z</time>
      </trkpt>
      <trkpt lat="43.27292" lon="2.46392">
        <ele>172.7</ele>
        <time>2021-09-07T06:42:30Z</time>
      </trkpt>
      <trkpt lat="43.27294" lon="2.4639">
        <ele>172.7</ele>
        <time>2021-09-07T06:42:31Z</time>
      </trkpt>
      <trkpt lat="43.27299" lon="2.46385">
        <ele>172.7</ele>
        <time>2021-09-07T06:42:33Z</time>
      </trkpt>
      <trkpt lat="43.27302" lon="2.46383">
        <ele>172.7</ele>
        <time>2021-09-07T06:42:34Z</time>
      </trkpt>
      <trkpt lat="43.27307" lon="2.46378">
        <ele>172.6</ele>
        <time>2021-09-07T06:42:36Z</time>
      </trkpt>
      <trkpt lat="43.27309" lon="2.46376">
        <ele>172.6</ele>
        <time>2021-09-07T06:42:37Z</time>
      </trkpt>
      <trkpt lat="43.27311" lon="2.46374">
        <ele>172.6</ele>
        <time>2021-09-07T06:42:38Z</time>
      </trkpt>
      <trkpt lat="43.27316" lon="2.46372">
        <ele>172.6</ele>
        <time>2021-09-07T06:42:40Z</time>
      </trkpt>
      <trkpt lat="43.27318" lon="2.46371">
        <ele>172.5</ele>
        <time>2021-09-07T06:42:41Z</time>
      </trkpt>
      <trkpt lat="43.27324" lon="2.46369">
        <ele>172.5</ele>
        <time>2021-09-07T06:42:43Z</time>
      </trkpt>
      <trkpt lat="43.27327" lon="2.46368">
        <ele>172.5</ele>
        <time>2021-09-07T06:42:44Z</time>
      </trkpt>
      <trkpt lat="43.2733" lon="2.46368">
        <ele>172.5</ele>
        <time>2021-09-07T06:42:45Z</time>
      </trkpt>
      <trkpt lat="43.27333" lon="2.46367">
        <ele>172.5</ele>
        <time>2021-09-07T06:42:46Z</time>
      </trkpt>
      <trkpt lat="43.27335" lon="2.46367">
        <ele>172.5</ele>
        <time>2021-09-07T06:42:47Z</time>
      </trkpt>
      <trkpt lat="43.27339" lon="2.46367">
        <ele>172.5</ele>
        <time>2021-09-07T06:42:49Z</time>
      </trkpt>
      <trkpt lat="43.27343" lon="2.46366">
        <ele>172.4</ele>
        <time>2021-09-07T06:42:50Z</time>
      </trkpt>
      <trkpt lat="43.27344" lon="2.46366">
        <ele>172.4</ele>
        <time>2021-09-07T06:42:51Z</time>
      </trkpt>
      <trkpt lat="43.27347" lon="2.46362">
        <ele>172.4</ele>
        <time>2021-09-07T06:42:53Z</time>
      </trkpt>
      <trkpt lat="43.27347" lon="2.46359">
        <ele>172.3</ele>
        <time>2021-09-07T06:42:54Z</time>
      </trkpt>
      <trkpt lat="43.27347" lon="2.46353">
        <ele>172.3</ele>
        <time>2021-09-07T06:42:56Z</time>
      </trkpt>
      <trkpt lat="43.27347" lon="2.46349">
        <ele>172.2</ele>
        <time>2021-09-07T06:42:57Z</time>
      </trkpt>
      <trkpt lat="43.27346" lon="2.46343">
        <ele>172.2</ele>
        <time>2021-09-07T06:42:59Z</time>
      </trkpt>
      <trkpt lat="43.27345" lon="2.4634">
        <ele>172.2</ele>
        <time>2021-09-07T06:43:00Z</time>
      </trkpt>
      <trkpt lat="43.27343" lon="2.46334">
        <ele>172.1</ele>
        <time>2021-09-07T06:43:02Z</time>
      </trkpt>
      <trkpt lat="43.27342" lon="2.46327">
        <ele>172.1</ele>
        <time>2021-09-07T06:43:04Z</time>
      </trkpt>
      <trkpt lat="43.27341" lon="2.46323">
        <ele>172</ele>
        <time>2021-09-07T06:43:05Z</time>
      </trkpt>
      <trkpt lat="43.2734" lon="2.46316">
        <ele>171.9</ele>
        <time>2021-09-07T06:43:07Z</time>
      </trkpt>
      <trkpt lat="43.2734" lon="2.46312">
        <ele>171.9</ele>
        <time>2021-09-07T06:43:08Z</time>
      </trkpt>
      <trkpt lat="43.27339" lon="2.46309">
        <ele>171.8</ele>
        <time>2021-09-07T06:43:09Z</time>
      </trkpt>
      <trkpt lat="43.27338" lon="2.46302">
        <ele>171.7</ele>
        <time>2021-09-07T06:43:11Z</time>
      </trkpt>
      <trkpt lat="43.27336" lon="2.46296">
        <ele>171.5</ele>
        <time>2021-09-07T06:43:13Z</time>
      </trkpt>
      <trkpt lat="43.27336" lon="2.46293">
        <ele>171.5</ele>
        <time>2021-09-07T06:43:14Z</time>
      </trkpt>
      <trkpt lat="43.27335" lon="2.46286">
        <ele>171.3</ele>
        <time>2021-09-07T06:43:16Z</time>
      </trkpt>
      <trkpt lat="43.27335" lon="2.46282">
        <ele>171.2</ele>
        <time>2021-09-07T06:43:17Z</time>
      </trkpt>
      <trkpt lat="43.27335" lon="2.46275">
        <ele>171</ele>
        <time>2021-09-07T06:43:19Z</time>
      </trkpt>
      <trkpt lat="43.27335" lon="2.46272">
        <ele>170.9</ele>
        <time>2021-09-07T06:43:20Z</time>
      </trkpt>
      <trkpt lat="43.27335" lon="2.46265">
        <ele>170.8</ele>
        <time>2021-09-07T06:43:22Z</time>
      </trkpt>
      <trkpt lat="43.27335" lon="2.46262">
        <ele>170.7</ele>
        <time>2021-09-07T06:43:23Z</time>
      </trkpt>
      <trkpt lat="43.27335" lon="2.46255">
        <ele>170.7</ele>
        <time>2021-09-07T06:43:25Z</time>
      </trkpt>
      <trkpt lat="43.27335" lon="2.46251">
        <ele>170.7</ele>
        <time>2021-09-07T06:43:26Z</time>
      </trkpt>
      <trkpt lat="43.27334" lon="2.46249">
        <ele>170.7</ele>
        <time>2021-09-07T06:43:27Z</time>
      </trkpt>
      <trkpt lat="43.27333" lon="2.46243">
        <ele>170.6</ele>
        <time>2021-09-07T06:43:29Z</time>
      </trkpt>
      <trkpt lat="43.27333" lon="2.4624">
        <ele>170.6</ele>
        <time>2021-09-07T06:43:30Z</time>
      </trkpt>
      <trkpt lat="43.27332" lon="2.46234">
        <ele>170.6</ele>
        <time>2021-09-07T06:43:32Z</time>
      </trkpt>
      <trkpt lat="43.27331" lon="2.46231">
        <ele>170.6</ele>
        <time>2021-09-07T06:43:33Z</time>
      </trkpt>
      <trkpt lat="43.2733" lon="2.46224">
        <ele>170.5</ele>
        <time>2021-09-07T06:43:35Z</time>
      </trkpt>
      <trkpt lat="43.27328" lon="2.46216">
        <ele>170.5</ele>
        <time>2021-09-07T06:43:37Z</time>
      </trkpt>
      <trkpt lat="43.27327" lon="2.46213">
        <ele>170.5</ele>
        <time>2021-09-07T06:43:38Z</time>
      </trkpt>
      <trkpt lat="43.27326" lon="2.46205">
        <ele>170.6</ele>
        <time>2021-09-07T06:43:40Z</time>
      </trkpt>
      <trkpt lat="43.27324" lon="2.46198">
        <ele>170.6</ele>
        <time>2021-09-07T06:43:42Z</time>
      </trkpt>
      <trkpt lat="43.27323" lon="2.46194">
        <ele>170.6</ele>
        <time>2021-09-07T06:43:43Z</time>
      </trkpt>
      <trkpt lat="43.27323" lon="2.4619">
        <ele>170.7</ele>
        <time>2021-09-07T06:43:44Z</time>
      </trkpt>
      <trkpt lat="43.27322" lon="2.46184">
        <ele>170.7</ele>
        <time>2021-09-07T06:43:46Z</time>
      </trkpt>
      <trkpt lat="43.27321" lon="2.4618">
        <ele>170.7</ele>
        <time>2021-09-07T06:43:47Z</time>
      </trkpt>
      <trkpt lat="43.27321" lon="2.46176">
        <ele>170.8</ele>
        <time>2021-09-07T06:43:48Z</time>
      </trkpt>
      <trkpt lat="43.2732" lon="2.46169">
        <ele>170.9</ele>
        <time>2021-09-07T06:43:50Z</time>
      </trkpt>
      <trkpt lat="43.2732" lon="2.46165">
        <ele>170.9</ele>
        <time>2021-09-07T06:43:51Z</time>
      </trkpt>
      <trkpt lat="43.27319" lon="2.46159">
        <ele>171</ele>
        <time>2021-09-07T06:43:53Z</time>
      </trkpt>
      <trkpt lat="43.27318" lon="2.46153">
        <ele>171</ele>
        <time>2021-09-07T06:43:55Z</time>
      </trkpt>
      <trkpt lat="43.27317" lon="2.46145">
        <ele>171.1</ele>
        <time>2021-09-07T06:43:57Z</time>
      </trkpt>
      <trkpt lat="43.27316" lon="2.46142">
        <ele>171.2</ele>
        <time>2021-09-07T06:43:58Z</time>
      </trkpt>
      <trkpt lat="43.27315" lon="2.46134">
        <ele>171.3</ele>
        <time>2021-09-07T06:44:00Z</time>
      </trkpt>
      <trkpt lat="43.27315" lon="2.4613">
        <ele>171.4</ele>
        <time>2021-09-07T06:44:01Z</time>
      </trkpt>
      <trkpt lat="43.27314" lon="2.46126">
        <ele>171.4</ele>
        <time>2021-09-07T06:44:02Z</time>
      </trkpt>
      <trkpt lat="43.27313" lon="2.46119">
        <ele>171.6</ele>
        <time>2021-09-07T06:44:04Z</time>
      </trkpt>
      <trkpt lat="43.27312" lon="2.46116">
        <ele>171.7</ele>
        <time>2021-09-07T06:44:05Z</time>
      </trkpt>
      <trkpt lat="43.2731" lon="2.46109">
        <ele>171.8</ele>
        <time>2021-09-07T06:44:07Z</time>
      </trkpt>
      <trkpt lat="43.27309" lon="2.46105">
        <ele>171.9</ele>
        <time>2021-09-07T06:44:08Z</time>
      </trkpt>
      <trkpt lat="43.27309" lon="2.46103">
        <ele>171.9</ele>
        <time>2021-09-07T06:44:09Z</time>
      </trkpt>
      <trkpt lat="43.27308" lon="2.46097">
        <ele>172</ele>
        <time>2021-09-07T06:44:11Z</time>
      </trkpt>
      <trkpt lat="43.27307" lon="2.46094">
        <ele>172</ele>
        <time>2021-09-07T06:44:12Z</time>
      </trkpt>
      <trkpt lat="43.27305" lon="2.46088">
        <ele>172.2</ele>
        <time>2021-09-07T06:44:14Z</time>
      </trkpt>
      <trkpt lat="43.27304" lon="2.46082">
        <ele>172.3</ele>
        <time>2021-09-07T06:44:16Z</time>
      </trkpt>
      <trkpt lat="43.27302" lon="2.46076">
        <ele>172.4</ele>
        <time>2021-09-07T06:44:18Z</time>
      </trkpt>
      <trkpt lat="43.27302" lon="2.46073">
        <ele>172.4</ele>
        <time>2021-09-07T06:44:19Z</time>
      </trkpt>
      <trkpt lat="43.273" lon="2.46067">
        <ele>172.5</ele>
        <time>2021-09-07T06:44:21Z</time>
      </trkpt>
      <trkpt lat="43.27298" lon="2.4606">
        <ele>172.5</ele>
        <time>2021-09-07T06:44:23Z</time>
      </trkpt>
      <trkpt lat="43.27298" lon="2.46056">
        <ele>172.5</ele>
        <time>2021-09-07T06:44:24Z</time>
      </trkpt>
      <trkpt lat="43.27296" lon="2.4605">
        <ele>172.4</ele>
        <time>2021-09-07T06:44:26Z</time>
      </trkpt>
      <trkpt lat="43.27295" lon="2.46043">
        <ele>172.4</ele>
        <time>2021-09-07T06:44:28Z</time>
      </trkpt>
      <trkpt lat="43.27294" lon="2.4604">
        <ele>172.3</ele>
        <time>2021-09-07T06:44:29Z</time>
      </trkpt>
      <trkpt lat="43.27293" lon="2.46036">
        <ele>172.3</ele>
        <time>2021-09-07T06:44:30Z</time>
      </trkpt>
      <trkpt lat="43.27292" lon="2.46028">
        <ele>172.2</ele>
        <time>2021-09-07T06:44:32Z</time>
      </trkpt>
      <trkpt lat="43.27291" lon="2.46025">
        <ele>172.2</ele>
        <time>2021-09-07T06:44:33Z</time>
      </trkpt>
      <trkpt lat="43.2729" lon="2.46018">
        <ele>172.2</ele>
        <time>2021-09-07T06:44:35Z</time>
      </trkpt>
      <trkpt lat="43.2729" lon="2.46011">
        <ele>172.1</ele>
        <time>2021-09-07T06:44:37Z</time>
      </trkpt>
      <trkpt lat="43.27289" lon="2.46004">
        <ele>172.1</ele>
        <time>2021-09-07T06:44:39Z</time>
      </trkpt>
      <trkpt lat="43.27288" lon="2.45997">
        <ele>172</ele>
        <time>2021-09-07T06:44:41Z</time>
      </trkpt>
      <trkpt lat="43.27288" lon="2.45992">
        <ele>172</ele>
        <time>2021-09-07T06:44:42Z</time>
      </trkpt>
      <trkpt lat="43.27288" lon="2.4599">
        <ele>172</ele>
        <time>2021-09-07T06:44:43Z</time>
      </trkpt>
      <trkpt lat="43.27287" lon="2.45981">
        <ele>172</ele>
        <time>2021-09-07T06:44:45Z</time>
      </trkpt>
      <trkpt lat="43.27287" lon="2.45974">
        <ele>171.9</ele>
        <time>2021-09-07T06:44:47Z</time>
      </trkpt>
      <trkpt lat="43.27287" lon="2.45967">
        <ele>171.8</ele>
        <time>2021-09-07T06:44:49Z</time>
      </trkpt>
      <trkpt lat="43.27287" lon="2.45964">
        <ele>171.8</ele>
        <time>2021-09-07T06:44:50Z</time>
      </trkpt>
      <trkpt lat="43.27287" lon="2.45958">
        <ele>171.7</ele>
        <time>2021-09-07T06:44:52Z</time>
      </trkpt>
      <trkpt lat="43.27287" lon="2.45951">
        <ele>171.7</ele>
        <time>2021-09-07T06:44:54Z</time>
      </trkpt>
      <trkpt lat="43.27287" lon="2.45946">
        <ele>171.7</ele>
        <time>2021-09-07T06:44:55Z</time>
      </trkpt>
      <trkpt lat="43.27287" lon="2.45945">
        <ele>171.7</ele>
        <time>2021-09-07T06:44:56Z</time>
      </trkpt>
      <trkpt lat="43.27287" lon="2.45938">
        <ele>171.6</ele>
        <time>2021-09-07T06:44:58Z</time>
      </trkpt>
      <trkpt lat="43.27287" lon="2.45932">
        <ele>171.6</ele>
        <time>2021-09-07T06:44:59Z</time>
      </trkpt>
      <trkpt lat="43.27287" lon="2.45931">
        <ele>171.6</ele>
        <time>2021-09-07T06:45:00Z</time>
      </trkpt>
      <trkpt lat="43.27286" lon="2.45924">
        <ele>171.7</ele>
        <time>2021-09-07T06:45:02Z</time>
      </trkpt>
      <trkpt lat="43.27286" lon="2.45919">
        <ele>171.7</ele>
        <time>2021-09-07T06:45:04Z</time>
      </trkpt>
      <trkpt lat="43.27285" lon="2.45913">
        <ele>171.7</ele>
        <time>2021-09-07T06:45:06Z</time>
      </trkpt>
      <trkpt lat="43.27285" lon="2.4591">
        <ele>171.7</ele>
        <time>2021-09-07T06:45:07Z</time>
      </trkpt>
      <trkpt lat="43.27284" lon="2.45904">
        <ele>171.7</ele>
        <time>2021-09-07T06:45:09Z</time>
      </trkpt>
      <trkpt lat="43.27284" lon="2.45901">
        <ele>171.7</ele>
        <time>2021-09-07T06:45:10Z</time>
      </trkpt>
      <trkpt lat="43.27283" lon="2.45895">
        <ele>171.7</ele>
        <time>2021-09-07T06:45:12Z</time>
      </trkpt>
      <trkpt lat="43.27283" lon="2.45892">
        <ele>171.7</ele>
        <time>2021-09-07T06:45:13Z</time>
      </trkpt>
      <trkpt lat="43.27281" lon="2.45886">
        <ele>171.7</ele>
        <time>2021-09-07T06:45:15Z</time>
      </trkpt>
      <trkpt lat="43.27279" lon="2.45878">
        <ele>171.6</ele>
        <time>2021-09-07T06:45:17Z</time>
      </trkpt>
      <trkpt lat="43.27278" lon="2.45872">
        <ele>171.6</ele>
        <time>2021-09-07T06:45:19Z</time>
      </trkpt>
      <trkpt lat="43.27277" lon="2.45869">
        <ele>171.6</ele>
        <time>2021-09-07T06:45:20Z</time>
      </trkpt>
      <trkpt lat="43.27276" lon="2.45866">
        <ele>171.6</ele>
        <time>2021-09-07T06:45:22Z</time>
      </trkpt>
      <trkpt lat="43.27275" lon="2.45864">
        <ele>171.6</ele>
        <time>2021-09-07T06:45:23Z</time>
      </trkpt>
      <trkpt lat="43.27274" lon="2.45859">
        <ele>171.6</ele>
        <time>2021-09-07T06:45:25Z</time>
      </trkpt>
      <trkpt lat="43.27273" lon="2.45853">
        <ele>171.6</ele>
        <time>2021-09-07T06:45:27Z</time>
      </trkpt>
      <trkpt lat="43.27271" lon="2.45847">
        <ele>171.6</ele>
        <time>2021-09-07T06:45:29Z</time>
      </trkpt>
      <trkpt lat="43.2727" lon="2.45842">
        <ele>171.6</ele>
        <time>2021-09-07T06:45:31Z</time>
      </trkpt>
      <trkpt lat="43.2727" lon="2.4584">
        <ele>171.6</ele>
        <time>2021-09-07T06:45:32Z</time>
      </trkpt>
      <trkpt lat="43.2727" lon="2.45836">
        <ele>171.6</ele>
        <time>2021-09-07T06:45:34Z</time>
      </trkpt>
      <trkpt lat="43.2727" lon="2.45832">
        <ele>171.6</ele>
        <time>2021-09-07T06:45:36Z</time>
      </trkpt>
      <trkpt lat="43.2727" lon="2.4583">
        <ele>171.6</ele>
        <time>2021-09-07T06:45:37Z</time>
      </trkpt>
      <trkpt lat="43.27269" lon="2.45825">
        <ele>171.6</ele>
        <time>2021-09-07T06:45:39Z</time>
      </trkpt>
      <trkpt lat="43.27268" lon="2.45823">
        <ele>171.6</ele>
        <time>2021-09-07T06:45:40Z</time>
      </trkpt>
      <trkpt lat="43.27268" lon="2.45819">
        <ele>171.6</ele>
        <time>2021-09-07T06:45:42Z</time>
      </trkpt>
      <trkpt lat="43.27271" lon="2.45815">
        <ele>171.5</ele>
        <time>2021-09-07T06:45:44Z</time>
      </trkpt>
      <trkpt lat="43.27273" lon="2.45814">
        <ele>171.6</ele>
        <time>2021-09-07T06:45:45Z</time>
      </trkpt>
      <trkpt lat="43.27277" lon="2.45813">
        <ele>171.7</ele>
        <time>2021-09-07T06:45:47Z</time>
      </trkpt>
      <trkpt lat="43.27279" lon="2.45813">
        <ele>171.8</ele>
        <time>2021-09-07T06:45:48Z</time>
      </trkpt>
      <trkpt lat="43.27283" lon="2.45811">
        <ele>171.9</ele>
        <time>2021-09-07T06:45:50Z</time>
      </trkpt>
      <trkpt lat="43.27285" lon="2.45808">
        <ele>172.1</ele>
        <time>2021-09-07T06:45:52Z</time>
      </trkpt>
      <trkpt lat="43.27286" lon="2.45807">
        <ele>172.1</ele>
        <time>2021-09-07T06:45:53Z</time>
      </trkpt>
      <trkpt lat="43.27287" lon="2.45806">
        <ele>172.1</ele>
        <time>2021-09-07T06:45:54Z</time>
      </trkpt>
      <trkpt lat="43.27288" lon="2.45805">
        <ele>172.2</ele>
        <time>2021-09-07T06:45:56Z</time>
      </trkpt>
      <trkpt lat="43.27289" lon="2.45805">
        <ele>172.2</ele>
        <time>2021-09-07T06:45:57Z</time>
      </trkpt>
      <trkpt lat="43.27291" lon="2.45804">
        <ele>172.3</ele>
        <time>2021-09-07T06:45:59Z</time>
      </trkpt>
      <trkpt lat="43.27292" lon="2.45804">
        <ele>172.3</ele>
        <time>2021-09-07T06:46:00Z</time>
      </trkpt>
      <trkpt lat="43.27292" lon="2.45803">
        <ele>172.3</ele>
        <time>2021-09-07T06:46:01Z</time>
      </trkpt>
      <trkpt lat="43.27293" lon="2.45803">
        <ele>172.3</ele>
        <time>2021-09-07T06:46:02Z</time>
      </trkpt>
      <trkpt lat="43.27293" lon="2.45803">
        <ele>172.3</ele>
        <time>2021-09-07T06:46:03Z</time>
      </trkpt>
      <trkpt lat="43.27295" lon="2.45803">
        <ele>172.4</ele>
        <time>2021-09-07T06:46:05Z</time>
      </trkpt>
      <trkpt lat="43.27296" lon="2.45804">
        <ele>172.4</ele>
        <time>2021-09-07T06:46:06Z</time>
      </trkpt>
      <trkpt lat="43.27298" lon="2.45804">
        <ele>172.5</ele>
        <time>2021-09-07T06:46:08Z</time>
      </trkpt>
      <trkpt lat="43.273" lon="2.45804">
        <ele>172.5</ele>
        <time>2021-09-07T06:46:10Z</time>
      </trkpt>
      <trkpt lat="43.273" lon="2.45804">
        <ele>172.5</ele>
        <time>2021-09-07T06:46:11Z</time>
      </trkpt>
      <trkpt lat="43.27301" lon="2.45804">
        <ele>172.6</ele>
        <time>2021-09-07T06:46:13Z</time>
      </trkpt>
      <trkpt lat="43.27301" lon="2.45804">
        <ele>172.6</ele>
        <time>2021-09-07T06:46:15Z</time>
      </trkpt>
      <trkpt lat="43.27301" lon="2.45803">
        <ele>172.6</ele>
        <time>2021-09-07T06:46:17Z</time>
      </trkpt>
      <trkpt lat="43.27301" lon="2.45802">
        <ele>172.6</ele>
        <time>2021-09-07T06:46:19Z</time>
      </trkpt>
      <trkpt lat="43.27301" lon="2.45802">
        <ele>172.6</ele>
        <time>2021-09-07T06:46:20Z</time>
      </trkpt>
      <trkpt lat="43.27301" lon="2.45802">
        <ele>172.6</ele>
        <time>2021-09-07T06:46:21Z</time>
      </trkpt>
      <trkpt lat="43.27301" lon="2.45802">
        <ele>172.6</ele>
        <time>2021-09-07T06:46:23Z</time>
      </trkpt>
      <trkpt lat="43.27301" lon="2.45802">
        <ele>172.6</ele>
        <time>2021-09-07T06:46:24Z</time>
      </trkpt>
      <trkpt lat="43.27301" lon="2.45802">
        <ele>172.6</ele>
        <time>2021-09-07T06:46:26Z</time>
      </trkpt>
      <trkpt lat="43.27301" lon="2.45802">
        <ele>172.6</ele>
        <time>2021-09-07T06:46:28Z</time>
      </trkpt>
      <trkpt lat="43.27301" lon="2.45802">
        <ele>172.6</ele>
        <time>2021-09-07T06:46:30Z</time>
      </trkpt>
      <trkpt lat="43.27301" lon="2.45802">
        <ele>172.6</ele>
        <time>2021-09-07T06:46:32Z</time>
      </trkpt>
      <trkpt lat="43.27301" lon="2.45802">
        <ele>172.6</ele>
        <time>2021-09-07T06:46:33Z</time>
      </trkpt>
      <trkpt lat="43.27301" lon="2.45802">
        <ele>172.6</ele>
        <time>2021-09-07T06:46:35Z</time>
      </trkpt>
      <trkpt lat="43.27301" lon="2.45802">
        <ele>172.6</ele>
        <time>2021-09-07T06:46:37Z</time>
      </trkpt>
      <trkpt lat="43.27301" lon="2.45802">
        <ele>172.6</ele>
        <time>2021-09-07T06:46:39Z</time>
      </trkpt>
      <trkpt lat="43.27301" lon="2.45802">
        <ele>172.6</ele>
        <time>2021-09-07T06:46:40Z</time>
      </trkpt>
      <trkpt lat="43.27301" lon="2.45802">
        <ele>172.6</ele>
        <time>2021-09-07T06:46:42Z</time>
      </trkpt>
      <trkpt lat="43.27301" lon="2.45802">
        <ele>172.6</ele>
        <time>2021-09-07T06:46:43Z</time>
      </trkpt>
      <trkpt lat="43.27301" lon="2.45802">
        <ele>172.6</ele>
        <time>2021-09-07T06:46:45Z</time>
      </trkpt>
      <trkpt lat="43.27301" lon="2.45802">
        <ele>172.6</ele>
        <time>2021-09-07T06:46:46Z</time>
      </trkpt>
      <trkpt lat="43.27301" lon="2.45802">
        <ele>172.6</ele>
        <time>2021-09-07T06:46:47Z</time>
      </trkpt>
      <trkpt lat="43.27301" lon="2.45802">
        <ele>172.6</ele>
        <time>2021-09-07T06:46:49Z</time>
      </trkpt>
      <trkpt lat="43.27302" lon="2.45802">
        <ele>172.6</ele>
        <time>2021-09-07T06:46:51Z</time>
      </trkpt>
      <trkpt lat="43.27302" lon="2.45802">
        <ele>172.5</ele>
        <time>2021-09-07T06:46:52Z</time>
      </trkpt>
      <trkpt lat="43.27304" lon="2.45802">
        <ele>172.5</ele>
        <time>2021-09-07T06:46:54Z</time>
      </trkpt>
      <trkpt lat="43.27306" lon="2.45802">
        <ele>172.5</ele>
        <time>2021-09-07T06:46:56Z</time>
      </trkpt>
      <trkpt lat="43.27308" lon="2.45802">
        <ele>172.5</ele>
        <time>2021-09-07T06:46:58Z</time>
      </trkpt>
      <trkpt lat="43.27308" lon="2.45803">
        <ele>172.5</ele>
        <time>2021-09-07T06:46:59Z</time>
      </trkpt>
      <trkpt lat="43.27308" lon="2.45803">
        <ele>172.5</ele>
        <time>2021-09-07T06:47:01Z</time>
      </trkpt>
      <trkpt lat="43.27308" lon="2.45803">
        <ele>172.5</ele>
        <time>2021-09-07T06:47:02Z</time>
      </trkpt>
      <trkpt lat="43.27308" lon="2.45803">
        <ele>172.5</ele>
        <time>2021-09-07T06:47:03Z</time>
      </trkpt>
      <trkpt lat="43.27308" lon="2.45803">
        <ele>172.5</ele>
        <time>2021-09-07T06:47:04Z</time>
      </trkpt>
      <trkpt lat="43.27307" lon="2.45803">
        <ele>172.5</ele>
        <time>2021-09-07T06:47:06Z</time>
      </trkpt>
      <trkpt lat="43.27307" lon="2.45803">
        <ele>172.5</ele>
        <time>2021-09-07T06:47:07Z</time>
      </trkpt>
      <trkpt lat="43.27307" lon="2.45803">
        <ele>172.5</ele>
        <time>2021-09-07T06:47:08Z</time>
      </trkpt>
      <trkpt lat="43.27307" lon="2.45804">
        <ele>172.5</ele>
        <time>2021-09-07T06:47:09Z</time>
      </trkpt>
      <trkpt lat="43.27307" lon="2.45804">
        <ele>172.5</ele>
        <time>2021-09-07T06:47:11Z</time>
      </trkpt>
      <trkpt lat="43.27306" lon="2.45803">
        <ele>172.5</ele>
        <time>2021-09-07T06:47:13Z</time>
      </trkpt>
      <trkpt lat="43.27306" lon="2.45804">
        <ele>172.5</ele>
        <time>2021-09-07T06:47:14Z</time>
      </trkpt>
      <trkpt lat="43.27307" lon="2.45804">
        <ele>172.5</ele>
        <time>2021-09-07T06:47:15Z</time>
      </trkpt>
      <trkpt lat="43.27308" lon="2.45804">
        <ele>172.5</ele>
        <time>2021-09-07T06:47:17Z</time>
      </trkpt>
      <trkpt lat="43.27309" lon="2.45804">
        <ele>172.5</ele>
        <time>2021-09-07T06:47:19Z</time>
      </trkpt>
      <trkpt lat="43.2731" lon="2.45805">
        <ele>172.5</ele>
        <time>2021-09-07T06:47:21Z</time>
      </trkpt>
      <trkpt lat="43.2731" lon="2.45805">
        <ele>172.5</ele>
        <time>2021-09-07T06:47:23Z</time>
      </trkpt>
      <trkpt lat="43.2731" lon="2.45805">
        <ele>172.5</ele>
        <time>2021-09-07T06:47:25Z</time>
      </trkpt>
      <trkpt lat="43.2731" lon="2.45806">
        <ele>172.5</ele>
        <time>2021-09-07T06:47:26Z</time>
      </trkpt>
      <trkpt lat="43.27311" lon="2.45806">
        <ele>172.5</ele>
        <time>2021-09-07T06:47:28Z</time>
      </trkpt>
      <trkpt lat="43.27311" lon="2.45806">
        <ele>172.5</ele>
        <time>2021-09-07T06:47:29Z</time>
      </trkpt>
      <trkpt lat="43.27311" lon="2.45806">
        <ele>172.5</ele>
        <time>2021-09-07T06:47:30Z</time>
      </trkpt>
      <trkpt lat="43.27311" lon="2.45805">
        <ele>172.4</ele>
        <time>2021-09-07T06:47:32Z</time>
      </trkpt>
      <trkpt lat="43.27312" lon="2.45804">
        <ele>172.4</ele>
        <time>2021-09-07T06:47:34Z</time>
      </trkpt>
      <trkpt lat="43.27313" lon="2.45804">
        <ele>172.4</ele>
        <time>2021-09-07T06:47:35Z</time>
      </trkpt>
      <trkpt lat="43.27313" lon="2.45803">
        <ele>172.4</ele>
        <time>2021-09-07T06:47:36Z</time>
      </trkpt>
      <trkpt lat="43.27313" lon="2.45803">
        <ele>172.4</ele>
        <time>2021-09-07T06:47:37Z</time>
      </trkpt>
      <trkpt lat="43.27315" lon="2.45801">
        <ele>172.4</ele>
        <time>2021-09-07T06:47:39Z</time>
      </trkpt>
      <trkpt lat="43.27315" lon="2.458">
        <ele>172.4</ele>
        <time>2021-09-07T06:47:40Z</time>
      </trkpt>
      <trkpt lat="43.27314" lon="2.45798">
        <ele>172.4</ele>
        <time>2021-09-07T06:47:42Z</time>
      </trkpt>
      <trkpt lat="43.27314" lon="2.45798">
        <ele>172.4</ele>
        <time>2021-09-07T06:47:43Z</time>
      </trkpt>
      <trkpt lat="43.27314" lon="2.45797">
        <ele>172.4</ele>
        <time>2021-09-07T06:47:44Z</time>
      </trkpt>
      <trkpt lat="43.27313" lon="2.45798">
        <ele>172.4</ele>
        <time>2021-09-07T06:47:46Z</time>
      </trkpt>
      <trkpt lat="43.27313" lon="2.45798">
        <ele>172.4</ele>
        <time>2021-09-07T06:47:47Z</time>
      </trkpt>
      <trkpt lat="43.27313" lon="2.45797">
        <ele>172.4</ele>
        <time>2021-09-07T06:47:48Z</time>
      </trkpt>
      <trkpt lat="43.27313" lon="2.45797">
        <ele>172.4</ele>
        <time>2021-09-07T06:47:50Z</time>
      </trkpt>
      <trkpt lat="43.27313" lon="2.45796">
        <ele>172.4</ele>
        <time>2021-09-07T06:47:52Z</time>
      </trkpt>
      <trkpt lat="43.27313" lon="2.45796">
        <ele>172.4</ele>
        <time>2021-09-07T06:47:53Z</time>
      </trkpt>
      <trkpt lat="43.27312" lon="2.45796">
        <ele>172.4</ele>
        <time>2021-09-07T06:47:55Z</time>
      </trkpt>
      <trkpt lat="43.2731" lon="2.45797">
        <ele>172.4</ele>
        <time>2021-09-07T06:47:57Z</time>
      </trkpt>
      <trkpt lat="43.2731" lon="2.45798">
        <ele>172.3</ele>
        <time>2021-09-07T06:47:58Z</time>
      </trkpt>
      <trkpt lat="43.27311" lon="2.458">
        <ele>172.3</ele>
        <time>2021-09-07T06:48:00Z</time>
      </trkpt>
      <trkpt lat="43.27311" lon="2.45801">
        <ele>172.3</ele>
        <time>2021-09-07T06:48:01Z</time>
      </trkpt>
      <trkpt lat="43.27312" lon="2.45801">
        <ele>172.3</ele>
        <time>2021-09-07T06:48:02Z</time>
      </trkpt>
      <trkpt lat="43.27312" lon="2.45801">
        <ele>172.3</ele>
        <time>2021-09-07T06:48:04Z</time>
      </trkpt>
      <trkpt lat="43.27312" lon="2.458">
        <ele>172.3</ele>
        <time>2021-09-07T06:48:05Z</time>
      </trkpt>
      <trkpt lat="43.27312" lon="2.458">
        <ele>172.3</ele>
        <time>2021-09-07T06:48:06Z</time>
      </trkpt>
      <trkpt lat="43.27312" lon="2.458">
        <ele>172.3</ele>
        <time>2021-09-07T06:48:07Z</time>
      </trkpt>
      <trkpt lat="43.27313" lon="2.458">
        <ele>172.3</ele>
        <time>2021-09-07T06:48:09Z</time>
      </trkpt>
      <trkpt lat="43.27314" lon="2.45798">
        <ele>172.3</ele>
        <time>2021-09-07T06:48:11Z</time>
      </trkpt>
      <trkpt lat="43.27314" lon="2.45798">
        <ele>172.3</ele>
        <time>2021-09-07T06:48:13Z</time>
      </trkpt>
      <trkpt lat="43.27314" lon="2.45797">
        <ele>172.3</ele>
        <time>2021-09-07T06:48:14Z</time>
      </trkpt>
      <trkpt lat="43.27312" lon="2.45798">
        <ele>172.3</ele>
        <time>2021-09-07T06:48:16Z</time>
      </trkpt>
      <trkpt lat="43.27309" lon="2.458">
        <ele>172.2</ele>
        <time>2021-09-07T06:48:18Z</time>
      </trkpt>
      <trkpt lat="43.27308" lon="2.458">
        <ele>172.2</ele>
        <time>2021-09-07T06:48:19Z</time>
      </trkpt>
      <trkpt lat="43.27305" lon="2.45802">
        <ele>172.2</ele>
        <time>2021-09-07T06:48:21Z</time>
      </trkpt>
      <trkpt lat="43.27302" lon="2.45803">
        <ele>172.2</ele>
        <time>2021-09-07T06:48:23Z</time>
      </trkpt>
      <trkpt lat="43.27301" lon="2.45803">
        <ele>172.2</ele>
        <time>2021-09-07T06:48:24Z</time>
      </trkpt>
      <trkpt lat="43.27297" lon="2.45804">
        <ele>172.1</ele>
        <time>2021-09-07T06:48:26Z</time>
      </trkpt>
      <trkpt lat="43.27293" lon="2.45805">
        <ele>172.1</ele>
        <time>2021-09-07T06:48:28Z</time>
      </trkpt>
      <trkpt lat="43.27288" lon="2.45805">
        <ele>172</ele>
        <time>2021-09-07T06:48:30Z</time>
      </trkpt>
      <trkpt lat="43.27285" lon="2.45804">
        <ele>172</ele>
        <time>2021-09-07T06:48:31Z</time>
      </trkpt>
      <trkpt lat="43.27282" lon="2.45803">
        <ele>172</ele>
        <time>2021-09-07T06:48:32Z</time>
      </trkpt>
      <trkpt lat="43.27278" lon="2.458">
        <ele>171.3</ele>
        <time>2021-09-07T06:48:34Z</time>
      </trkpt>
      <trkpt lat="43.27277" lon="2.45796">
        <ele>171.2</ele>
        <time>2021-09-07T06:48:36Z</time>
      </trkpt>
      <trkpt lat="43.27277" lon="2.45795">
        <ele>171.2</ele>
        <time>2021-09-07T06:48:37Z</time>
      </trkpt>
      <trkpt lat="43.27277" lon="2.4579">
        <ele>171.2</ele>
        <time>2021-09-07T06:48:39Z</time>
      </trkpt>
      <trkpt lat="43.27277" lon="2.45785">
        <ele>171.1</ele>
        <time>2021-09-07T06:48:40Z</time>
      </trkpt>
      <trkpt lat="43.27277" lon="2.45784">
        <ele>171.1</ele>
        <time>2021-09-07T06:48:41Z</time>
      </trkpt>
      <trkpt lat="43.27277" lon="2.45781">
        <ele>171</ele>
        <time>2021-09-07T06:48:42Z</time>
      </trkpt>
      <trkpt lat="43.27276" lon="2.45775">
        <ele>171</ele>
        <time>2021-09-07T06:48:44Z</time>
      </trkpt>
      <trkpt lat="43.27276" lon="2.45772">
        <ele>171</ele>
        <time>2021-09-07T06:48:45Z</time>
      </trkpt>
      <trkpt lat="43.27277" lon="2.45767">
        <ele>170.9</ele>
        <time>2021-09-07T06:48:47Z</time>
      </trkpt>
      <trkpt lat="43.27279" lon="2.45761">
        <ele>170.9</ele>
        <time>2021-09-07T06:48:49Z</time>
      </trkpt>
      <trkpt lat="43.2728" lon="2.45758">
        <ele>170.8</ele>
        <time>2021-09-07T06:48:50Z</time>
      </trkpt>
      <trkpt lat="43.27283" lon="2.45752">
        <ele>170.7</ele>
        <time>2021-09-07T06:48:52Z</time>
      </trkpt>
      <trkpt lat="43.27284" lon="2.45749">
        <ele>170.7</ele>
        <time>2021-09-07T06:48:53Z</time>
      </trkpt>
      <trkpt lat="43.27286" lon="2.45743">
        <ele>170.6</ele>
        <time>2021-09-07T06:48:55Z</time>
      </trkpt>
      <trkpt lat="43.27288" lon="2.45738">
        <ele>170.5</ele>
        <time>2021-09-07T06:48:57Z</time>
      </trkpt>
      <trkpt lat="43.2729" lon="2.45735">
        <ele>170.5</ele>
        <time>2021-09-07T06:48:58Z</time>
      </trkpt>
      <trkpt lat="43.2729" lon="2.45734">
        <ele>170.4</ele>
        <time>2021-09-07T06:48:59Z</time>
      </trkpt>
      <trkpt lat="43.27292" lon="2.45732">
        <ele>170.4</ele>
        <time>2021-09-07T06:49:00Z</time>
      </trkpt>
      <trkpt lat="43.27295" lon="2.45729">
        <ele>170.3</ele>
        <time>2021-09-07T06:49:02Z</time>
      </trkpt>
      <trkpt lat="43.27299" lon="2.45726">
        <ele>170.2</ele>
        <time>2021-09-07T06:49:04Z</time>
      </trkpt>
      <trkpt lat="43.27303" lon="2.45724">
        <ele>170.1</ele>
        <time>2021-09-07T06:49:05Z</time>
      </trkpt>
      <trkpt lat="43.27304" lon="2.45723">
        <ele>170.1</ele>
        <time>2021-09-07T06:49:06Z</time>
      </trkpt>
      <trkpt lat="43.27309" lon="2.45721">
        <ele>170</ele>
        <time>2021-09-07T06:49:08Z</time>
      </trkpt>
      <trkpt lat="43.27311" lon="2.4572">
        <ele>170</ele>
        <time>2021-09-07T06:49:09Z</time>
      </trkpt>
      <trkpt lat="43.27316" lon="2.45719">
        <ele>169.9</ele>
        <time>2021-09-07T06:49:11Z</time>
      </trkpt>
      <trkpt lat="43.27319" lon="2.45718">
        <ele>169.8</ele>
        <time>2021-09-07T06:49:12Z</time>
      </trkpt>
      <trkpt lat="43.27324" lon="2.45717">
        <ele>169.7</ele>
        <time>2021-09-07T06:49:14Z</time>
      </trkpt>
      <trkpt lat="43.27329" lon="2.45718">
        <ele>169.6</ele>
        <time>2021-09-07T06:49:16Z</time>
      </trkpt>
      <trkpt lat="43.27332" lon="2.45718">
        <ele>169.5</ele>
        <time>2021-09-07T06:49:17Z</time>
      </trkpt>
      <trkpt lat="43.27337" lon="2.45717">
        <ele>169.5</ele>
        <time>2021-09-07T06:49:19Z</time>
      </trkpt>
      <trkpt lat="43.2734" lon="2.45717">
        <ele>169.4</ele>
        <time>2021-09-07T06:49:20Z</time>
      </trkpt>
      <trkpt lat="43.27345" lon="2.45716">
        <ele>169.4</ele>
        <time>2021-09-07T06:49:22Z</time>
      </trkpt>
      <trkpt lat="43.27347" lon="2.45716">
        <ele>169.4</ele>
        <time>2021-09-07T06:49:23Z</time>
      </trkpt>
      <trkpt lat="43.27352" lon="2.45715">
        <ele>169.3</ele>
        <time>2021-09-07T06:49:25Z</time>
      </trkpt>
      <trkpt lat="43.27355" lon="2.45714">
        <ele>169.3</ele>
        <time>2021-09-07T06:49:26Z</time>
      </trkpt>
      <trkpt lat="43.27357" lon="2.45713">
        <ele>169.3</ele>
        <time>2021-09-07T06:49:27Z</time>
      </trkpt>
      <trkpt lat="43.27363" lon="2.45711">
        <ele>169.2</ele>
        <time>2021-09-07T06:49:29Z</time>
      </trkpt>
      <trkpt lat="43.27367" lon="2.45709">
        <ele>169.2</ele>
        <time>2021-09-07T06:49:31Z</time>
      </trkpt>
      <trkpt lat="43.27372" lon="2.45708">
        <ele>169.1</ele>
        <time>2021-09-07T06:49:33Z</time>
      </trkpt>
      <trkpt lat="43.27377" lon="2.45705">
        <ele>169.1</ele>
        <time>2021-09-07T06:49:35Z</time>
      </trkpt>
      <trkpt lat="43.27382" lon="2.45703">
        <ele>169</ele>
        <time>2021-09-07T06:49:37Z</time>
      </trkpt>
      <trkpt lat="43.27386" lon="2.45699">
        <ele>169</ele>
        <time>2021-09-07T06:49:39Z</time>
      </trkpt>
      <trkpt lat="43.27388" lon="2.45696">
        <ele>168.9</ele>
        <time>2021-09-07T06:49:40Z</time>
      </trkpt>
      <trkpt lat="43.27389" lon="2.45694">
        <ele>168.9</ele>
        <time>2021-09-07T06:49:41Z</time>
      </trkpt>
      <trkpt lat="43.2739" lon="2.45692">
        <ele>168.8</ele>
        <time>2021-09-07T06:49:42Z</time>
      </trkpt>
      <trkpt lat="43.27392" lon="2.45687">
        <ele>168.7</ele>
        <time>2021-09-07T06:49:44Z</time>
      </trkpt>
      <trkpt lat="43.27394" lon="2.45685">
        <ele>168.6</ele>
        <time>2021-09-07T06:49:45Z</time>
      </trkpt>
      <trkpt lat="43.27396" lon="2.45678">
        <ele>168.5</ele>
        <time>2021-09-07T06:49:47Z</time>
      </trkpt>
      <trkpt lat="43.27397" lon="2.45675">
        <ele>168.4</ele>
        <time>2021-09-07T06:49:48Z</time>
      </trkpt>
      <trkpt lat="43.274" lon="2.45668">
        <ele>168.3</ele>
        <time>2021-09-07T06:49:50Z</time>
      </trkpt>
      <trkpt lat="43.27401" lon="2.45664">
        <ele>168.2</ele>
        <time>2021-09-07T06:49:51Z</time>
      </trkpt>
      <trkpt lat="43.27403" lon="2.45659">
        <ele>168.1</ele>
        <time>2021-09-07T06:49:53Z</time>
      </trkpt>
      <trkpt lat="43.27404" lon="2.45656">
        <ele>168.1</ele>
        <time>2021-09-07T06:49:54Z</time>
      </trkpt>
      <trkpt lat="43.27407" lon="2.45651">
        <ele>168</ele>
        <time>2021-09-07T06:49:56Z</time>
      </trkpt>
      <trkpt lat="43.27409" lon="2.45646">
        <ele>167.9</ele>
        <time>2021-09-07T06:49:58Z</time>
      </trkpt>
      <trkpt lat="43.2741" lon="2.45643">
        <ele>167.9</ele>
        <time>2021-09-07T06:49:59Z</time>
      </trkpt>
      <trkpt lat="43.27412" lon="2.45637">
        <ele>167.8</ele>
        <time>2021-09-07T06:50:01Z</time>
      </trkpt>
      <trkpt lat="43.27414" lon="2.45631">
        <ele>167.8</ele>
        <time>2021-09-07T06:50:03Z</time>
      </trkpt>
      <trkpt lat="43.27415" lon="2.45628">
        <ele>167.8</ele>
        <time>2021-09-07T06:50:04Z</time>
      </trkpt>
      <trkpt lat="43.27416" lon="2.45623">
        <ele>167.7</ele>
        <time>2021-09-07T06:50:06Z</time>
      </trkpt>
      <trkpt lat="43.27418" lon="2.45616">
        <ele>167.7</ele>
        <time>2021-09-07T06:50:08Z</time>
      </trkpt>
      <trkpt lat="43.27419" lon="2.45613">
        <ele>167.7</ele>
        <time>2021-09-07T06:50:09Z</time>
      </trkpt>
      <trkpt lat="43.27421" lon="2.45608">
        <ele>167.7</ele>
        <time>2021-09-07T06:50:10Z</time>
      </trkpt>
      <trkpt lat="43.27422" lon="2.45607">
        <ele>167.7</ele>
        <time>2021-09-07T06:50:11Z</time>
      </trkpt>
      <trkpt lat="43.27424" lon="2.45602">
        <ele>167.7</ele>
        <time>2021-09-07T06:50:13Z</time>
      </trkpt>
      <trkpt lat="43.27425" lon="2.45599">
        <ele>167.7</ele>
        <time>2021-09-07T06:50:14Z</time>
      </trkpt>
      <trkpt lat="43.27427" lon="2.45593">
        <ele>167.7</ele>
        <time>2021-09-07T06:50:16Z</time>
      </trkpt>
      <trkpt lat="43.27428" lon="2.4559">
        <ele>167.7</ele>
        <time>2021-09-07T06:50:17Z</time>
      </trkpt>
      <trkpt lat="43.2743" lon="2.45584">
        <ele>167.7</ele>
        <time>2021-09-07T06:50:19Z</time>
      </trkpt>
      <trkpt lat="43.27431" lon="2.45578">
        <ele>167.8</ele>
        <time>2021-09-07T06:50:21Z</time>
      </trkpt>
      <trkpt lat="43.27433" lon="2.45572">
        <ele>167.8</ele>
        <time>2021-09-07T06:50:23Z</time>
      </trkpt>
      <trkpt lat="43.27435" lon="2.45566">
        <ele>167.8</ele>
        <time>2021-09-07T06:50:25Z</time>
      </trkpt>
      <trkpt lat="43.27437" lon="2.45562">
        <ele>167.9</ele>
        <time>2021-09-07T06:50:26Z</time>
      </trkpt>
      <trkpt lat="43.27437" lon="2.4556">
        <ele>167.9</ele>
        <time>2021-09-07T06:50:27Z</time>
      </trkpt>
      <trkpt lat="43.27438" lon="2.45557">
        <ele>167.8</ele>
        <time>2021-09-07T06:50:28Z</time>
      </trkpt>
      <trkpt lat="43.27438" lon="2.45549">
        <ele>167.5</ele>
        <time>2021-09-07T06:50:30Z</time>
      </trkpt>
      <trkpt lat="43.27439" lon="2.45545">
        <ele>167.4</ele>
        <time>2021-09-07T06:50:31Z</time>
      </trkpt>
      <trkpt lat="43.2744" lon="2.45538">
        <ele>167.1</ele>
        <time>2021-09-07T06:50:33Z</time>
      </trkpt>
      <trkpt lat="43.27441" lon="2.4553">
        <ele>166.9</ele>
        <time>2021-09-07T06:50:35Z</time>
      </trkpt>
      <trkpt lat="43.27443" lon="2.45522">
        <ele>166.6</ele>
        <time>2021-09-07T06:50:37Z</time>
      </trkpt>
      <trkpt lat="43.27444" lon="2.45514">
        <ele>166.4</ele>
        <time>2021-09-07T06:50:39Z</time>
      </trkpt>
      <trkpt lat="43.27446" lon="2.45505">
        <ele>166.2</ele>
        <time>2021-09-07T06:50:41Z</time>
      </trkpt>
      <trkpt lat="43.27447" lon="2.45498">
        <ele>166</ele>
        <time>2021-09-07T06:50:43Z</time>
      </trkpt>
      <trkpt lat="43.27448" lon="2.45493">
        <ele>165.9</ele>
        <time>2021-09-07T06:50:44Z</time>
      </trkpt>
      <trkpt lat="43.27448" lon="2.45491">
        <ele>165.8</ele>
        <time>2021-09-07T06:50:45Z</time>
      </trkpt>
      <trkpt lat="43.27449" lon="2.45484">
        <ele>165.7</ele>
        <time>2021-09-07T06:50:47Z</time>
      </trkpt>
      <trkpt lat="43.2745" lon="2.45481">
        <ele>165.7</ele>
        <time>2021-09-07T06:50:48Z</time>
      </trkpt>
      <trkpt lat="43.27451" lon="2.45474">
        <ele>165.6</ele>
        <time>2021-09-07T06:50:50Z</time>
      </trkpt>
      <trkpt lat="43.27452" lon="2.4547">
        <ele>165.5</ele>
        <time>2021-09-07T06:50:51Z</time>
      </trkpt>
      <trkpt lat="43.27452" lon="2.45468">
        <ele>165.5</ele>
        <time>2021-09-07T06:50:52Z</time>
      </trkpt>
      <trkpt lat="43.27453" lon="2.45462">
        <ele>165.4</ele>
        <time>2021-09-07T06:50:54Z</time>
      </trkpt>
      <trkpt lat="43.27454" lon="2.45455">
        <ele>165.4</ele>
        <time>2021-09-07T06:50:56Z</time>
      </trkpt>
      <trkpt lat="43.27454" lon="2.45451">
        <ele>165.4</ele>
        <time>2021-09-07T06:50:57Z</time>
      </trkpt>
      <trkpt lat="43.27454" lon="2.45444">
        <ele>165.4</ele>
        <time>2021-09-07T06:50:59Z</time>
      </trkpt>
      <trkpt lat="43.27455" lon="2.45441">
        <ele>165.4</ele>
        <time>2021-09-07T06:51:00Z</time>
      </trkpt>
      <trkpt lat="43.27455" lon="2.45435">
        <ele>165.3</ele>
        <time>2021-09-07T06:51:02Z</time>
      </trkpt>
      <trkpt lat="43.27456" lon="2.45431">
        <ele>165.3</ele>
        <time>2021-09-07T06:51:03Z</time>
      </trkpt>
      <trkpt lat="43.27458" lon="2.45424">
        <ele>165.3</ele>
        <time>2021-09-07T06:51:05Z</time>
      </trkpt>
      <trkpt lat="43.27459" lon="2.45417">
        <ele>165.3</ele>
        <time>2021-09-07T06:51:07Z</time>
      </trkpt>
      <trkpt lat="43.27461" lon="2.45411">
        <ele>165.3</ele>
        <time>2021-09-07T06:51:09Z</time>
      </trkpt>
      <trkpt lat="43.27462" lon="2.45405">
        <ele>165.4</ele>
        <time>2021-09-07T06:51:11Z</time>
      </trkpt>
      <trkpt lat="43.27463" lon="2.454">
        <ele>165.4</ele>
        <time>2021-09-07T06:51:12Z</time>
      </trkpt>
      <trkpt lat="43.27463" lon="2.45398">
        <ele>165.4</ele>
        <time>2021-09-07T06:51:13Z</time>
      </trkpt>
      <trkpt lat="43.27465" lon="2.45391">
        <ele>165.4</ele>
        <time>2021-09-07T06:51:15Z</time>
      </trkpt>
      <trkpt lat="43.27467" lon="2.45388">
        <ele>165.4</ele>
        <time>2021-09-07T06:51:16Z</time>
      </trkpt>
      <trkpt lat="43.2747" lon="2.45382">
        <ele>165.5</ele>
        <time>2021-09-07T06:51:18Z</time>
      </trkpt>
      <trkpt lat="43.27472" lon="2.45377">
        <ele>165.5</ele>
        <time>2021-09-07T06:51:20Z</time>
      </trkpt>
      <trkpt lat="43.27474" lon="2.45373">
        <ele>165.5</ele>
        <time>2021-09-07T06:51:21Z</time>
      </trkpt>
      <trkpt lat="43.27475" lon="2.45371">
        <ele>165.6</ele>
        <time>2021-09-07T06:51:22Z</time>
      </trkpt>
      <trkpt lat="43.27477" lon="2.45366">
        <ele>165.6</ele>
        <time>2021-09-07T06:51:24Z</time>
      </trkpt>
      <trkpt lat="43.27478" lon="2.4536">
        <ele>165.7</ele>
        <time>2021-09-07T06:51:26Z</time>
      </trkpt>
      <trkpt lat="43.2748" lon="2.45354">
        <ele>165.8</ele>
        <time>2021-09-07T06:51:28Z</time>
      </trkpt>
      <trkpt lat="43.27482" lon="2.45352">
        <ele>165.8</ele>
        <time>2021-09-07T06:51:29Z</time>
      </trkpt>
      <trkpt lat="43.27484" lon="2.45348">
        <ele>165.8</ele>
        <time>2021-09-07T06:51:31Z</time>
      </trkpt>
      <trkpt lat="43.27485" lon="2.45343">
        <ele>165.9</ele>
        <time>2021-09-07T06:51:33Z</time>
      </trkpt>
      <trkpt lat="43.27488" lon="2.45337">
        <ele>166</ele>
        <time>2021-09-07T06:51:35Z</time>
      </trkpt>
      <trkpt lat="43.27489" lon="2.45331">
        <ele>166</ele>
        <time>2021-09-07T06:51:37Z</time>
      </trkpt>
      <trkpt lat="43.27491" lon="2.45326">
        <ele>166.1</ele>
        <time>2021-09-07T06:51:38Z</time>
      </trkpt>
      <trkpt lat="43.27491" lon="2.45324">
        <ele>166.1</ele>
        <time>2021-09-07T06:51:39Z</time>
      </trkpt>
      <trkpt lat="43.27493" lon="2.45321">
        <ele>166.2</ele>
        <time>2021-09-07T06:51:40Z</time>
      </trkpt>
      <trkpt lat="43.27495" lon="2.45315">
        <ele>166.2</ele>
        <time>2021-09-07T06:51:42Z</time>
      </trkpt>
      <trkpt lat="43.27497" lon="2.4531">
        <ele>166.3</ele>
        <time>2021-09-07T06:51:43Z</time>
      </trkpt>
      <trkpt lat="43.27497" lon="2.45308">
        <ele>166.3</ele>
        <time>2021-09-07T06:51:44Z</time>
      </trkpt>
      <trkpt lat="43.27499" lon="2.45302">
        <ele>166.4</ele>
        <time>2021-09-07T06:51:46Z</time>
      </trkpt>
      <trkpt lat="43.275" lon="2.45296">
        <ele>166.5</ele>
        <time>2021-09-07T06:51:48Z</time>
      </trkpt>
      <trkpt lat="43.275" lon="2.45292">
        <ele>166.6</ele>
        <time>2021-09-07T06:51:50Z</time>
      </trkpt>
      <trkpt lat="43.275" lon="2.4529">
        <ele>166.6</ele>
        <time>2021-09-07T06:51:51Z</time>
      </trkpt>
      <trkpt lat="43.27501" lon="2.45283">
        <ele>166.7</ele>
        <time>2021-09-07T06:51:53Z</time>
      </trkpt>
      <trkpt lat="43.27502" lon="2.45276">
        <ele>166.9</ele>
        <time>2021-09-07T06:51:55Z</time>
      </trkpt>
      <trkpt lat="43.27503" lon="2.45269">
        <ele>167.1</ele>
        <time>2021-09-07T06:51:57Z</time>
      </trkpt>
      <trkpt lat="43.27503" lon="2.45262">
        <ele>167.3</ele>
        <time>2021-09-07T06:51:59Z</time>
      </trkpt>
      <trkpt lat="43.27503" lon="2.4526">
        <ele>167.3</ele>
        <time>2021-09-07T06:52:00Z</time>
      </trkpt>
      <trkpt lat="43.27503" lon="2.45254">
        <ele>167.4</ele>
        <time>2021-09-07T06:52:02Z</time>
      </trkpt>
      <trkpt lat="43.27504" lon="2.45251">
        <ele>167.5</ele>
        <time>2021-09-07T06:52:03Z</time>
      </trkpt>
      <trkpt lat="43.27504" lon="2.45245">
        <ele>167.5</ele>
        <time>2021-09-07T06:52:05Z</time>
      </trkpt>
      <trkpt lat="43.27505" lon="2.45242">
        <ele>167.5</ele>
        <time>2021-09-07T06:52:06Z</time>
      </trkpt>
      <trkpt lat="43.27506" lon="2.45236">
        <ele>167.4</ele>
        <time>2021-09-07T06:52:08Z</time>
      </trkpt>
      <trkpt lat="43.27507" lon="2.4523">
        <ele>167.4</ele>
        <time>2021-09-07T06:52:09Z</time>
      </trkpt>
      <trkpt lat="43.27508" lon="2.45228">
        <ele>167.4</ele>
        <time>2021-09-07T06:52:10Z</time>
      </trkpt>
      <trkpt lat="43.27509" lon="2.45222">
        <ele>167.3</ele>
        <time>2021-09-07T06:52:12Z</time>
      </trkpt>
      <trkpt lat="43.27511" lon="2.45218">
        <ele>167.2</ele>
        <time>2021-09-07T06:52:14Z</time>
      </trkpt>
      <trkpt lat="43.27513" lon="2.45214">
        <ele>167.1</ele>
        <time>2021-09-07T06:52:16Z</time>
      </trkpt>
      <trkpt lat="43.27514" lon="2.45213">
        <ele>167</ele>
        <time>2021-09-07T06:52:17Z</time>
      </trkpt>
      <trkpt lat="43.27515" lon="2.45209">
        <ele>166.9</ele>
        <time>2021-09-07T06:52:19Z</time>
      </trkpt>
      <trkpt lat="43.27516" lon="2.45203">
        <ele>166.8</ele>
        <time>2021-09-07T06:52:21Z</time>
      </trkpt>
      <trkpt lat="43.27517" lon="2.452">
        <ele>166.7</ele>
        <time>2021-09-07T06:52:22Z</time>
      </trkpt>
      <trkpt lat="43.2752" lon="2.45193">
        <ele>166.5</ele>
        <time>2021-09-07T06:52:24Z</time>
      </trkpt>
      <trkpt lat="43.27521" lon="2.4519">
        <ele>166.4</ele>
        <time>2021-09-07T06:52:25Z</time>
      </trkpt>
      <trkpt lat="43.27522" lon="2.45187">
        <ele>166.2</ele>
        <time>2021-09-07T06:52:26Z</time>
      </trkpt>
      <trkpt lat="43.27525" lon="2.45179">
        <ele>166</ele>
        <time>2021-09-07T06:52:28Z</time>
      </trkpt>
      <trkpt lat="43.27529" lon="2.45173">
        <ele>165.8</ele>
        <time>2021-09-07T06:52:30Z</time>
      </trkpt>
      <trkpt lat="43.27531" lon="2.4517">
        <ele>165.6</ele>
        <time>2021-09-07T06:52:31Z</time>
      </trkpt>
      <trkpt lat="43.27534" lon="2.45167">
        <ele>165.5</ele>
        <time>2021-09-07T06:52:32Z</time>
      </trkpt>
      <trkpt lat="43.27539" lon="2.45163">
        <ele>165.3</ele>
        <time>2021-09-07T06:52:34Z</time>
      </trkpt>
      <trkpt lat="43.27542" lon="2.45161">
        <ele>165.3</ele>
        <time>2021-09-07T06:52:35Z</time>
      </trkpt>
      <trkpt lat="43.27548" lon="2.45158">
        <ele>165.2</ele>
        <time>2021-09-07T06:52:37Z</time>
      </trkpt>
      <trkpt lat="43.27554" lon="2.45156">
        <ele>165.1</ele>
        <time>2021-09-07T06:52:39Z</time>
      </trkpt>
      <trkpt lat="43.2756" lon="2.45154">
        <ele>165.1</ele>
        <time>2021-09-07T06:52:41Z</time>
      </trkpt>
      <trkpt lat="43.27565" lon="2.45152">
        <ele>165.1</ele>
        <time>2021-09-07T06:52:43Z</time>
      </trkpt>
      <trkpt lat="43.27571" lon="2.45151">
        <ele>165</ele>
        <time>2021-09-07T06:52:45Z</time>
      </trkpt>
      <trkpt lat="43.27575" lon="2.4515">
        <ele>165</ele>
        <time>2021-09-07T06:52:46Z</time>
      </trkpt>
      <trkpt lat="43.27576" lon="2.45149">
        <ele>165</ele>
        <time>2021-09-07T06:52:47Z</time>
      </trkpt>
      <trkpt lat="43.27581" lon="2.45148">
        <ele>165</ele>
        <time>2021-09-07T06:52:49Z</time>
      </trkpt>
      <trkpt lat="43.27586" lon="2.45147">
        <ele>165</ele>
        <time>2021-09-07T06:52:51Z</time>
      </trkpt>
      <trkpt lat="43.27591" lon="2.45145">
        <ele>165</ele>
        <time>2021-09-07T06:52:53Z</time>
      </trkpt>
      <trkpt lat="43.27593" lon="2.45144">
        <ele>165</ele>
        <time>2021-09-07T06:52:54Z</time>
      </trkpt>
      <trkpt lat="43.27598" lon="2.45142">
        <ele>165</ele>
        <time>2021-09-07T06:52:56Z</time>
      </trkpt>
      <trkpt lat="43.27601" lon="2.45141">
        <ele>165</ele>
        <time>2021-09-07T06:52:57Z</time>
      </trkpt>
      <trkpt lat="43.27606" lon="2.45138">
        <ele>165</ele>
        <time>2021-09-07T06:52:59Z</time>
      </trkpt>
      <trkpt lat="43.2761" lon="2.45136">
        <ele>165</ele>
        <time>2021-09-07T06:53:01Z</time>
      </trkpt>
      <trkpt lat="43.27615" lon="2.45133">
        <ele>165</ele>
        <time>2021-09-07T06:53:03Z</time>
      </trkpt>
      <trkpt lat="43.27619" lon="2.45129">
        <ele>165</ele>
        <time>2021-09-07T06:53:05Z</time>
      </trkpt>
      <trkpt lat="43.27624" lon="2.45126">
        <ele>165</ele>
        <time>2021-09-07T06:53:07Z</time>
      </trkpt>
      <trkpt lat="43.27627" lon="2.45124">
        <ele>165</ele>
        <time>2021-09-07T06:53:08Z</time>
      </trkpt>
      <trkpt lat="43.27632" lon="2.4512">
        <ele>165</ele>
        <time>2021-09-07T06:53:10Z</time>
      </trkpt>
      <trkpt lat="43.27636" lon="2.45117">
        <ele>165</ele>
        <time>2021-09-07T06:53:12Z</time>
      </trkpt>
      <trkpt lat="43.27641" lon="2.45113">
        <ele>165</ele>
        <time>2021-09-07T06:53:14Z</time>
      </trkpt>
      <trkpt lat="43.27645" lon="2.4511">
        <ele>165.2</ele>
        <time>2021-09-07T06:53:16Z</time>
      </trkpt>
      <trkpt lat="43.27648" lon="2.45108">
        <ele>165.4</ele>
        <time>2021-09-07T06:53:17Z</time>
      </trkpt>
      <trkpt lat="43.27652" lon="2.45104">
        <ele>165.6</ele>
        <time>2021-09-07T06:53:19Z</time>
      </trkpt>
      <trkpt lat="43.27657" lon="2.45101">
        <ele>165.8</ele>
        <time>2021-09-07T06:53:21Z</time>
      </trkpt>
      <trkpt lat="43.27659" lon="2.45099">
        <ele>165.9</ele>
        <time>2021-09-07T06:53:22Z</time>
      </trkpt>
      <trkpt lat="43.27664" lon="2.45095">
        <ele>166.1</ele>
        <time>2021-09-07T06:53:24Z</time>
      </trkpt>
      <trkpt lat="43.27669" lon="2.45092">
        <ele>166.4</ele>
        <time>2021-09-07T06:53:26Z</time>
      </trkpt>
      <trkpt lat="43.27671" lon="2.4509">
        <ele>166.5</ele>
        <time>2021-09-07T06:53:27Z</time>
      </trkpt>
      <trkpt lat="43.27675" lon="2.45087">
        <ele>166.7</ele>
        <time>2021-09-07T06:53:29Z</time>
      </trkpt>
      <trkpt lat="43.27677" lon="2.45083">
        <ele>166.9</ele>
        <time>2021-09-07T06:53:31Z</time>
      </trkpt>
      <trkpt lat="43.27679" lon="2.45081">
        <ele>167</ele>
        <time>2021-09-07T06:53:32Z</time>
      </trkpt>
      <trkpt lat="43.27682" lon="2.45076">
        <ele>167.2</ele>
        <time>2021-09-07T06:53:34Z</time>
      </trkpt>
      <trkpt lat="43.27685" lon="2.45073">
        <ele>167.4</ele>
        <time>2021-09-07T06:53:35Z</time>
      </trkpt>
      <trkpt lat="43.27686" lon="2.45072">
        <ele>167.5</ele>
        <time>2021-09-07T06:53:36Z</time>
      </trkpt>
      <trkpt lat="43.2769" lon="2.45068">
        <ele>167.8</ele>
        <time>2021-09-07T06:53:38Z</time>
      </trkpt>
      <trkpt lat="43.27694" lon="2.45064">
        <ele>168.1</ele>
        <time>2021-09-07T06:53:40Z</time>
      </trkpt>
      <trkpt lat="43.27697" lon="2.45062">
        <ele>168.3</ele>
        <time>2021-09-07T06:53:41Z</time>
      </trkpt>
      <trkpt lat="43.27698" lon="2.45061">
        <ele>168.4</ele>
        <time>2021-09-07T06:53:42Z</time>
      </trkpt>
      <trkpt lat="43.27701" lon="2.45059">
        <ele>168.6</ele>
        <time>2021-09-07T06:53:44Z</time>
      </trkpt>
      <trkpt lat="43.27703" lon="2.45058">
        <ele>168.7</ele>
        <time>2021-09-07T06:53:45Z</time>
      </trkpt>
      <trkpt lat="43.27706" lon="2.45056">
        <ele>168.9</ele>
        <time>2021-09-07T06:53:47Z</time>
      </trkpt>
      <trkpt lat="43.27707" lon="2.45055">
        <ele>169.1</ele>
        <time>2021-09-07T06:53:48Z</time>
      </trkpt>
      <trkpt lat="43.2771" lon="2.45054">
        <ele>169.4</ele>
        <time>2021-09-07T06:53:50Z</time>
      </trkpt>
      <trkpt lat="43.27712" lon="2.45054">
        <ele>169.6</ele>
        <time>2021-09-07T06:53:51Z</time>
      </trkpt>
      <trkpt lat="43.27713" lon="2.45053">
        <ele>169.7</ele>
        <time>2021-09-07T06:53:52Z</time>
      </trkpt>
      <trkpt lat="43.27716" lon="2.45051">
        <ele>170</ele>
        <time>2021-09-07T06:53:54Z</time>
      </trkpt>
      <trkpt lat="43.27718" lon="2.4505">
        <ele>170.2</ele>
        <time>2021-09-07T06:53:55Z</time>
      </trkpt>
      <trkpt lat="43.27721" lon="2.45048">
        <ele>170.6</ele>
        <time>2021-09-07T06:53:57Z</time>
      </trkpt>
      <trkpt lat="43.27724" lon="2.45045">
        <ele>170.9</ele>
        <time>2021-09-07T06:53:59Z</time>
      </trkpt>
      <trkpt lat="43.27725" lon="2.45043">
        <ele>171.1</ele>
        <time>2021-09-07T06:54:00Z</time>
      </trkpt>
      <trkpt lat="43.27726" lon="2.45042">
        <ele>171.3</ele>
        <time>2021-09-07T06:54:01Z</time>
      </trkpt>
      <trkpt lat="43.27726" lon="2.45039">
        <ele>171.5</ele>
        <time>2021-09-07T06:54:03Z</time>
      </trkpt>
      <trkpt lat="43.27725" lon="2.45037">
        <ele>171.6</ele>
        <time>2021-09-07T06:54:04Z</time>
      </trkpt>
      <trkpt lat="43.27725" lon="2.45036">
        <ele>171.7</ele>
        <time>2021-09-07T06:54:05Z</time>
      </trkpt>
      <trkpt lat="43.27725" lon="2.45034">
        <ele>171.9</ele>
        <time>2021-09-07T06:54:07Z</time>
      </trkpt>
      <trkpt lat="43.27725" lon="2.45034">
        <ele>171.9</ele>
        <time>2021-09-07T06:54:08Z</time>
      </trkpt>
      <trkpt lat="43.27725" lon="2.45032">
        <ele>172</ele>
        <time>2021-09-07T06:54:10Z</time>
      </trkpt>
      <trkpt lat="43.27724" lon="2.45029">
        <ele>172.2</ele>
        <time>2021-09-07T06:54:12Z</time>
      </trkpt>
      <trkpt lat="43.27724" lon="2.45027">
        <ele>172.3</ele>
        <time>2021-09-07T06:54:13Z</time>
      </trkpt>
      <trkpt lat="43.27725" lon="2.45021">
        <ele>172.7</ele>
        <time>2021-09-07T06:54:15Z</time>
      </trkpt>
      <trkpt lat="43.27726" lon="2.45019">
        <ele>172.8</ele>
        <time>2021-09-07T06:54:16Z</time>
      </trkpt>
      <trkpt lat="43.27729" lon="2.45013">
        <ele>173.1</ele>
        <time>2021-09-07T06:54:18Z</time>
      </trkpt>
      <trkpt lat="43.27731" lon="2.45007">
        <ele>173.2</ele>
        <time>2021-09-07T06:54:20Z</time>
      </trkpt>
      <trkpt lat="43.27731" lon="2.45003">
        <ele>173.3</ele>
        <time>2021-09-07T06:54:21Z</time>
      </trkpt>
      <trkpt lat="43.27731" lon="2.45001">
        <ele>173.3</ele>
        <time>2021-09-07T06:54:22Z</time>
      </trkpt>
      <trkpt lat="43.27732" lon="2.44997">
        <ele>173.4</ele>
        <time>2021-09-07T06:54:24Z</time>
      </trkpt>
      <trkpt lat="43.27735" lon="2.44994">
        <ele>173.4</ele>
        <time>2021-09-07T06:54:26Z</time>
      </trkpt>
      <trkpt lat="43.27737" lon="2.44993">
        <ele>173.5</ele>
        <time>2021-09-07T06:54:28Z</time>
      </trkpt>
      <trkpt lat="43.27737" lon="2.44991">
        <ele>173.5</ele>
        <time>2021-09-07T06:54:30Z</time>
      </trkpt>
      <trkpt lat="43.27737" lon="2.44991">
        <ele>173.5</ele>
        <time>2021-09-07T06:54:31Z</time>
      </trkpt>
      <trkpt lat="43.27737" lon="2.44989">
        <ele>173.5</ele>
        <time>2021-09-07T06:54:32Z</time>
      </trkpt>
      <trkpt lat="43.27736" lon="2.44983">
        <ele>173.5</ele>
        <time>2021-09-07T06:54:34Z</time>
      </trkpt>
      <trkpt lat="43.27736" lon="2.44977">
        <ele>173.5</ele>
        <time>2021-09-07T06:54:36Z</time>
      </trkpt>
      <trkpt lat="43.27735" lon="2.44975">
        <ele>173.5</ele>
        <time>2021-09-07T06:54:37Z</time>
      </trkpt>
      <trkpt lat="43.27732" lon="2.4497">
        <ele>173.5</ele>
        <time>2021-09-07T06:54:39Z</time>
      </trkpt>
      <trkpt lat="43.27731" lon="2.44967">
        <ele>173.5</ele>
        <time>2021-09-07T06:54:40Z</time>
      </trkpt>
      <trkpt lat="43.2773" lon="2.44961">
        <ele>173.5</ele>
        <time>2021-09-07T06:54:42Z</time>
      </trkpt>
      <trkpt lat="43.27729" lon="2.44958">
        <ele>173.4</ele>
        <time>2021-09-07T06:54:44Z</time>
      </trkpt>
      <trkpt lat="43.27728" lon="2.44956">
        <ele>173.4</ele>
        <time>2021-09-07T06:54:45Z</time>
      </trkpt>
      <trkpt lat="43.27726" lon="2.4495">
        <ele>173.4</ele>
        <time>2021-09-07T06:54:47Z</time>
      </trkpt>
      <trkpt lat="43.27726" lon="2.44946">
        <ele>173.3</ele>
        <time>2021-09-07T06:54:48Z</time>
      </trkpt>
      <trkpt lat="43.27726" lon="2.44938">
        <ele>173.3</ele>
        <time>2021-09-07T06:54:50Z</time>
      </trkpt>
      <trkpt lat="43.27726" lon="2.44934">
        <ele>173.2</ele>
        <time>2021-09-07T06:54:51Z</time>
      </trkpt>
      <trkpt lat="43.27724" lon="2.44927">
        <ele>173.2</ele>
        <time>2021-09-07T06:54:53Z</time>
      </trkpt>
      <trkpt lat="43.27724" lon="2.44923">
        <ele>173.2</ele>
        <time>2021-09-07T06:54:54Z</time>
      </trkpt>
      <trkpt lat="43.27723" lon="2.44915">
        <ele>173.2</ele>
        <time>2021-09-07T06:54:56Z</time>
      </trkpt>
      <trkpt lat="43.27723" lon="2.44909">
        <ele>173.2</ele>
        <time>2021-09-07T06:54:58Z</time>
      </trkpt>
      <trkpt lat="43.27722" lon="2.44904">
        <ele>173.2</ele>
        <time>2021-09-07T06:55:00Z</time>
      </trkpt>
      <trkpt lat="43.27721" lon="2.44901">
        <ele>173.2</ele>
        <time>2021-09-07T06:55:01Z</time>
      </trkpt>
      <trkpt lat="43.2772" lon="2.44896">
        <ele>173.2</ele>
        <time>2021-09-07T06:55:03Z</time>
      </trkpt>
      <trkpt lat="43.2772" lon="2.4489">
        <ele>173.2</ele>
        <time>2021-09-07T06:55:05Z</time>
      </trkpt>
      <trkpt lat="43.27721" lon="2.44884">
        <ele>173.1</ele>
        <time>2021-09-07T06:55:07Z</time>
      </trkpt>
      <trkpt lat="43.27721" lon="2.44878">
        <ele>173.1</ele>
        <time>2021-09-07T06:55:09Z</time>
      </trkpt>
      <trkpt lat="43.2772" lon="2.44871">
        <ele>173</ele>
        <time>2021-09-07T06:55:11Z</time>
      </trkpt>
      <trkpt lat="43.2772" lon="2.44867">
        <ele>173</ele>
        <time>2021-09-07T06:55:12Z</time>
      </trkpt>
      <trkpt lat="43.27718" lon="2.4486">
        <ele>172.9</ele>
        <time>2021-09-07T06:55:14Z</time>
      </trkpt>
      <trkpt lat="43.27717" lon="2.44853">
        <ele>172.9</ele>
        <time>2021-09-07T06:55:16Z</time>
      </trkpt>
      <trkpt lat="43.27715" lon="2.44846">
        <ele>172.8</ele>
        <time>2021-09-07T06:55:18Z</time>
      </trkpt>
      <trkpt lat="43.27714" lon="2.44841">
        <ele>172.8</ele>
        <time>2021-09-07T06:55:19Z</time>
      </trkpt>
      <trkpt lat="43.27714" lon="2.44839">
        <ele>172.8</ele>
        <time>2021-09-07T06:55:20Z</time>
      </trkpt>
      <trkpt lat="43.27712" lon="2.44832">
        <ele>172.8</ele>
        <time>2021-09-07T06:55:22Z</time>
      </trkpt>
      <trkpt lat="43.27711" lon="2.44824">
        <ele>172.9</ele>
        <time>2021-09-07T06:55:24Z</time>
      </trkpt>
      <trkpt lat="43.2771" lon="2.44816">
        <ele>173</ele>
        <time>2021-09-07T06:55:26Z</time>
      </trkpt>
      <trkpt lat="43.2771" lon="2.44812">
        <ele>173.1</ele>
        <time>2021-09-07T06:55:27Z</time>
      </trkpt>
      <trkpt lat="43.2771" lon="2.44808">
        <ele>173.1</ele>
        <time>2021-09-07T06:55:28Z</time>
      </trkpt>
      <trkpt lat="43.27711" lon="2.44801">
        <ele>173.2</ele>
        <time>2021-09-07T06:55:30Z</time>
      </trkpt>
      <trkpt lat="43.27711" lon="2.44797">
        <ele>173.3</ele>
        <time>2021-09-07T06:55:31Z</time>
      </trkpt>
      <trkpt lat="43.27711" lon="2.44791">
        <ele>173.4</ele>
        <time>2021-09-07T06:55:33Z</time>
      </trkpt>
      <trkpt lat="43.27711" lon="2.44787">
        <ele>173.5</ele>
        <time>2021-09-07T06:55:34Z</time>
      </trkpt>
      <trkpt lat="43.27712" lon="2.44781">
        <ele>173.6</ele>
        <time>2021-09-07T06:55:36Z</time>
      </trkpt>
      <trkpt lat="43.27713" lon="2.44775">
        <ele>173.6</ele>
        <time>2021-09-07T06:55:38Z</time>
      </trkpt>
      <trkpt lat="43.27712" lon="2.44769">
        <ele>173.7</ele>
        <time>2021-09-07T06:55:40Z</time>
      </trkpt>
      <trkpt lat="43.27712" lon="2.44767">
        <ele>173.7</ele>
        <time>2021-09-07T06:55:41Z</time>
      </trkpt>
      <trkpt lat="43.2771" lon="2.44763">
        <ele>173.8</ele>
        <time>2021-09-07T06:55:43Z</time>
      </trkpt>
      <trkpt lat="43.27709" lon="2.4476">
        <ele>173.8</ele>
        <time>2021-09-07T06:55:44Z</time>
      </trkpt>
      <trkpt lat="43.27707" lon="2.44754">
        <ele>173.9</ele>
        <time>2021-09-07T06:55:46Z</time>
      </trkpt>
      <trkpt lat="43.27706" lon="2.44748">
        <ele>174</ele>
        <time>2021-09-07T06:55:48Z</time>
      </trkpt>
      <trkpt lat="43.27707" lon="2.44741">
        <ele>174.1</ele>
        <time>2021-09-07T06:55:50Z</time>
      </trkpt>
      <trkpt lat="43.27708" lon="2.44733">
        <ele>174.2</ele>
        <time>2021-09-07T06:55:52Z</time>
      </trkpt>
      <trkpt lat="43.27709" lon="2.44729">
        <ele>174.3</ele>
        <time>2021-09-07T06:55:53Z</time>
      </trkpt>
      <trkpt lat="43.2771" lon="2.44725">
        <ele>174.3</ele>
        <time>2021-09-07T06:55:54Z</time>
      </trkpt>
      <trkpt lat="43.2771" lon="2.44722">
        <ele>174.4</ele>
        <time>2021-09-07T06:55:55Z</time>
      </trkpt>
      <trkpt lat="43.2771" lon="2.44715">
        <ele>174.5</ele>
        <time>2021-09-07T06:55:57Z</time>
      </trkpt>
      <trkpt lat="43.2771" lon="2.4471">
        <ele>174.6</ele>
        <time>2021-09-07T06:55:58Z</time>
      </trkpt>
      <trkpt lat="43.27711" lon="2.44708">
        <ele>174.6</ele>
        <time>2021-09-07T06:55:59Z</time>
      </trkpt>
      <trkpt lat="43.27711" lon="2.44702">
        <ele>174.7</ele>
        <time>2021-09-07T06:56:01Z</time>
      </trkpt>
      <trkpt lat="43.27712" lon="2.44695">
        <ele>174.8</ele>
        <time>2021-09-07T06:56:03Z</time>
      </trkpt>
      <trkpt lat="43.27713" lon="2.44692">
        <ele>174.8</ele>
        <time>2021-09-07T06:56:04Z</time>
      </trkpt>
      <trkpt lat="43.27716" lon="2.44688">
        <ele>174.9</ele>
        <time>2021-09-07T06:56:06Z</time>
      </trkpt>
      <trkpt lat="43.27718" lon="2.44687">
        <ele>175</ele>
        <time>2021-09-07T06:56:07Z</time>
      </trkpt>
      <trkpt lat="43.27722" lon="2.44684">
        <ele>175.1</ele>
        <time>2021-09-07T06:56:09Z</time>
      </trkpt>
      <trkpt lat="43.27724" lon="2.44681">
        <ele>175.1</ele>
        <time>2021-09-07T06:56:11Z</time>
      </trkpt>
      <trkpt lat="43.27725" lon="2.44676">
        <ele>175.2</ele>
        <time>2021-09-07T06:56:13Z</time>
      </trkpt>
      <trkpt lat="43.27726" lon="2.44674">
        <ele>175.2</ele>
        <time>2021-09-07T06:56:14Z</time>
      </trkpt>
      <trkpt lat="43.27727" lon="2.44669">
        <ele>175.3</ele>
        <time>2021-09-07T06:56:16Z</time>
      </trkpt>
      <trkpt lat="43.27727" lon="2.44666">
        <ele>175.4</ele>
        <time>2021-09-07T06:56:17Z</time>
      </trkpt>
      <trkpt lat="43.27729" lon="2.44661">
        <ele>175.5</ele>
        <time>2021-09-07T06:56:19Z</time>
      </trkpt>
      <trkpt lat="43.27731" lon="2.44655">
        <ele>175.6</ele>
        <time>2021-09-07T06:56:21Z</time>
      </trkpt>
      <trkpt lat="43.27732" lon="2.4465">
        <ele>175.6</ele>
        <time>2021-09-07T06:56:23Z</time>
      </trkpt>
      <trkpt lat="43.27733" lon="2.44643">
        <ele>175.7</ele>
        <time>2021-09-07T06:56:25Z</time>
      </trkpt>
      <trkpt lat="43.27733" lon="2.4464">
        <ele>175.8</ele>
        <time>2021-09-07T06:56:26Z</time>
      </trkpt>
      <trkpt lat="43.27733" lon="2.44633">
        <ele>175.9</ele>
        <time>2021-09-07T06:56:28Z</time>
      </trkpt>
      <trkpt lat="43.27733" lon="2.44628">
        <ele>176</ele>
        <time>2021-09-07T06:56:30Z</time>
      </trkpt>
      <trkpt lat="43.27733" lon="2.44622">
        <ele>176.1</ele>
        <time>2021-09-07T06:56:32Z</time>
      </trkpt>
      <trkpt lat="43.27733" lon="2.44619">
        <ele>176.2</ele>
        <time>2021-09-07T06:56:33Z</time>
      </trkpt>
      <trkpt lat="43.27734" lon="2.44612">
        <ele>176.3</ele>
        <time>2021-09-07T06:56:35Z</time>
      </trkpt>
      <trkpt lat="43.27735" lon="2.44609">
        <ele>176.4</ele>
        <time>2021-09-07T06:56:36Z</time>
      </trkpt>
      <trkpt lat="43.27736" lon="2.44603">
        <ele>176.4</ele>
        <time>2021-09-07T06:56:38Z</time>
      </trkpt>
      <trkpt lat="43.27736" lon="2.44596">
        <ele>176.6</ele>
        <time>2021-09-07T06:56:40Z</time>
      </trkpt>
      <trkpt lat="43.27736" lon="2.44592">
        <ele>176.6</ele>
        <time>2021-09-07T06:56:41Z</time>
      </trkpt>
      <trkpt lat="43.27736" lon="2.44585">
        <ele>176.7</ele>
        <time>2021-09-07T06:56:43Z</time>
      </trkpt>
      <trkpt lat="43.27736" lon="2.44582">
        <ele>176.8</ele>
        <time>2021-09-07T06:56:44Z</time>
      </trkpt>
      <trkpt lat="43.27734" lon="2.44579">
        <ele>176.9</ele>
        <time>2021-09-07T06:56:46Z</time>
      </trkpt>
      <trkpt lat="43.27731" lon="2.44576">
        <ele>177</ele>
        <time>2021-09-07T06:56:48Z</time>
      </trkpt>
      <trkpt lat="43.27731" lon="2.44576">
        <ele>177</ele>
        <time>2021-09-07T06:56:49Z</time>
      </trkpt>
      <trkpt lat="43.27729" lon="2.4457">
        <ele>177.1</ele>
        <time>2021-09-07T06:56:51Z</time>
      </trkpt>
      <trkpt lat="43.27727" lon="2.44563">
        <ele>177.2</ele>
        <time>2021-09-07T06:56:53Z</time>
      </trkpt>
      <trkpt lat="43.27727" lon="2.44559">
        <ele>177.2</ele>
        <time>2021-09-07T06:56:54Z</time>
      </trkpt>
      <trkpt lat="43.27727" lon="2.44557">
        <ele>177.2</ele>
        <time>2021-09-07T06:56:55Z</time>
      </trkpt>
      <trkpt lat="43.27727" lon="2.44555">
        <ele>177.2</ele>
        <time>2021-09-07T06:56:56Z</time>
      </trkpt>
      <trkpt lat="43.27727" lon="2.4455">
        <ele>177.3</ele>
        <time>2021-09-07T06:56:58Z</time>
      </trkpt>
      <trkpt lat="43.27727" lon="2.44546">
        <ele>177.3</ele>
        <time>2021-09-07T06:57:00Z</time>
      </trkpt>
      <trkpt lat="43.27726" lon="2.44542">
        <ele>177.4</ele>
        <time>2021-09-07T06:57:02Z</time>
      </trkpt>
      <trkpt lat="43.27724" lon="2.44538">
        <ele>177.4</ele>
        <time>2021-09-07T06:57:04Z</time>
      </trkpt>
      <trkpt lat="43.27723" lon="2.44536">
        <ele>177.4</ele>
        <time>2021-09-07T06:57:05Z</time>
      </trkpt>
      <trkpt lat="43.27721" lon="2.44532">
        <ele>177.4</ele>
        <time>2021-09-07T06:57:07Z</time>
      </trkpt>
      <trkpt lat="43.2772" lon="2.44528">
        <ele>177.4</ele>
        <time>2021-09-07T06:57:08Z</time>
      </trkpt>
      <trkpt lat="43.27719" lon="2.44526">
        <ele>177.4</ele>
        <time>2021-09-07T06:57:09Z</time>
      </trkpt>
      <trkpt lat="43.27718" lon="2.4452">
        <ele>177.4</ele>
        <time>2021-09-07T06:57:11Z</time>
      </trkpt>
      <trkpt lat="43.27716" lon="2.44516">
        <ele>177.3</ele>
        <time>2021-09-07T06:57:12Z</time>
      </trkpt>
      <trkpt lat="43.27716" lon="2.44515">
        <ele>177.3</ele>
        <time>2021-09-07T06:57:13Z</time>
      </trkpt>
      <trkpt lat="43.27713" lon="2.44512">
        <ele>177.3</ele>
        <time>2021-09-07T06:57:15Z</time>
      </trkpt>
      <trkpt lat="43.27711" lon="2.44509">
        <ele>177.2</ele>
        <time>2021-09-07T06:57:16Z</time>
      </trkpt>
      <trkpt lat="43.2771" lon="2.44507">
        <ele>177.2</ele>
        <time>2021-09-07T06:57:17Z</time>
      </trkpt>
      <trkpt lat="43.27709" lon="2.44501">
        <ele>177</ele>
        <time>2021-09-07T06:57:19Z</time>
      </trkpt>
      <trkpt lat="43.27706" lon="2.44497">
        <ele>176.9</ele>
        <time>2021-09-07T06:57:21Z</time>
      </trkpt>
      <trkpt lat="43.27705" lon="2.44496">
        <ele>176.8</ele>
        <time>2021-09-07T06:57:22Z</time>
      </trkpt>
      <trkpt lat="43.27702" lon="2.44495">
        <ele>176.7</ele>
        <time>2021-09-07T06:57:24Z</time>
      </trkpt>
      <trkpt lat="43.27698" lon="2.44492">
        <ele>176.4</ele>
        <time>2021-09-07T06:57:26Z</time>
      </trkpt>
      <trkpt lat="43.27695" lon="2.44486">
        <ele>176.2</ele>
        <time>2021-09-07T06:57:28Z</time>
      </trkpt>
      <trkpt lat="43.27694" lon="2.44481">
        <ele>175.9</ele>
        <time>2021-09-07T06:57:29Z</time>
      </trkpt>
      <trkpt lat="43.27693" lon="2.44473">
        <ele>175.5</ele>
        <time>2021-09-07T06:57:31Z</time>
      </trkpt>
      <trkpt lat="43.27692" lon="2.44468">
        <ele>175.2</ele>
        <time>2021-09-07T06:57:32Z</time>
      </trkpt>
      <trkpt lat="43.27692" lon="2.44466">
        <ele>175.1</ele>
        <time>2021-09-07T06:57:33Z</time>
      </trkpt>
      <trkpt lat="43.2769" lon="2.44459">
        <ele>174.6</ele>
        <time>2021-09-07T06:57:35Z</time>
      </trkpt>
      <trkpt lat="43.27688" lon="2.44451">
        <ele>174.1</ele>
        <time>2021-09-07T06:57:37Z</time>
      </trkpt>
      <trkpt lat="43.27689" lon="2.44447">
        <ele>173.8</ele>
        <time>2021-09-07T06:57:38Z</time>
      </trkpt>
      <trkpt lat="43.2769" lon="2.44443">
        <ele>173.5</ele>
        <time>2021-09-07T06:57:39Z</time>
      </trkpt>
      <trkpt lat="43.27691" lon="2.44439">
        <ele>173.2</ele>
        <time>2021-09-07T06:57:40Z</time>
      </trkpt>
      <trkpt lat="43.27693" lon="2.44434">
        <ele>172.8</ele>
        <time>2021-09-07T06:57:42Z</time>
      </trkpt>
      <trkpt lat="43.27695" lon="2.44429">
        <ele>172.3</ele>
        <time>2021-09-07T06:57:44Z</time>
      </trkpt>
      <trkpt lat="43.27697" lon="2.44424">
        <ele>172</ele>
        <time>2021-09-07T06:57:45Z</time>
      </trkpt>
      <trkpt lat="43.27697" lon="2.44422">
        <ele>171.8</ele>
        <time>2021-09-07T06:57:46Z</time>
      </trkpt>
      <trkpt lat="43.27698" lon="2.44415">
        <ele>171.4</ele>
        <time>2021-09-07T06:57:48Z</time>
      </trkpt>
      <trkpt lat="43.27699" lon="2.44412">
        <ele>171.1</ele>
        <time>2021-09-07T06:57:49Z</time>
      </trkpt>
      <trkpt lat="43.277" lon="2.44408">
        <ele>170.8</ele>
        <time>2021-09-07T06:57:51Z</time>
      </trkpt>
      <trkpt lat="43.277" lon="2.44404">
        <ele>170.5</ele>
        <time>2021-09-07T06:57:53Z</time>
      </trkpt>
      <trkpt lat="43.277" lon="2.44402">
        <ele>170.4</ele>
        <time>2021-09-07T06:57:54Z</time>
      </trkpt>
      <trkpt lat="43.27699" lon="2.44398">
        <ele>170.1</ele>
        <time>2021-09-07T06:57:56Z</time>
      </trkpt>
      <trkpt lat="43.27698" lon="2.44396">
        <ele>169.9</ele>
        <time>2021-09-07T06:57:57Z</time>
      </trkpt>
      <trkpt lat="43.27695" lon="2.44392">
        <ele>169.6</ele>
        <time>2021-09-07T06:57:59Z</time>
      </trkpt>
      <trkpt lat="43.27694" lon="2.4439">
        <ele>169.3</ele>
        <time>2021-09-07T06:58:00Z</time>
      </trkpt>
      <trkpt lat="43.2769" lon="2.44387">
        <ele>168.9</ele>
        <time>2021-09-07T06:58:02Z</time>
      </trkpt>
      <trkpt lat="43.27688" lon="2.44385">
        <ele>168.7</ele>
        <time>2021-09-07T06:58:04Z</time>
      </trkpt>
      <trkpt lat="43.27688" lon="2.44383">
        <ele>168.6</ele>
        <time>2021-09-07T06:58:06Z</time>
      </trkpt>
      <trkpt lat="43.27688" lon="2.44383">
        <ele>168.5</ele>
        <time>2021-09-07T06:58:07Z</time>
      </trkpt>
      <trkpt lat="43.27687" lon="2.44381">
        <ele>168.4</ele>
        <time>2021-09-07T06:58:09Z</time>
      </trkpt>
      <trkpt lat="43.27686" lon="2.4438">
        <ele>168.3</ele>
        <time>2021-09-07T06:58:10Z</time>
      </trkpt>
      <trkpt lat="43.27686" lon="2.44375">
        <ele>167.9</ele>
        <time>2021-09-07T06:58:12Z</time>
      </trkpt>
      <trkpt lat="43.27686" lon="2.44375">
        <ele>167.9</ele>
        <time>2021-09-07T06:58:13Z</time>
      </trkpt>
      <trkpt lat="43.27686" lon="2.44373">
        <ele>167.8</ele>
        <time>2021-09-07T06:58:15Z</time>
      </trkpt>
      <trkpt lat="43.27686" lon="2.44374">
        <ele>167.8</ele>
        <time>2021-09-07T06:58:16Z</time>
      </trkpt>
      <trkpt lat="43.27686" lon="2.44373">
        <ele>167.7</ele>
        <time>2021-09-07T06:58:17Z</time>
      </trkpt>
      <trkpt lat="43.27686" lon="2.44372">
        <ele>167.6</ele>
        <time>2021-09-07T06:58:19Z</time>
      </trkpt>
      <trkpt lat="43.27686" lon="2.44371">
        <ele>167.6</ele>
        <time>2021-09-07T06:58:20Z</time>
      </trkpt>
      <trkpt lat="43.27686" lon="2.4437">
        <ele>167.5</ele>
        <time>2021-09-07T06:58:22Z</time>
      </trkpt>
      <trkpt lat="43.27686" lon="2.44369">
        <ele>167.4</ele>
        <time>2021-09-07T06:58:23Z</time>
      </trkpt>
      <trkpt lat="43.27686" lon="2.44368">
        <ele>167.4</ele>
        <time>2021-09-07T06:58:25Z</time>
      </trkpt>
      <trkpt lat="43.27686" lon="2.44368">
        <ele>167.4</ele>
        <time>2021-09-07T06:58:26Z</time>
      </trkpt>
      <trkpt lat="43.27686" lon="2.44368">
        <ele>167.4</ele>
        <time>2021-09-07T06:58:27Z</time>
      </trkpt>
      <trkpt lat="43.27686" lon="2.44368">
        <ele>167.4</ele>
        <time>2021-09-07T06:58:28Z</time>
      </trkpt>
      <trkpt lat="43.27685" lon="2.44367">
        <ele>167.3</ele>
        <time>2021-09-07T06:58:30Z</time>
      </trkpt>
      <trkpt lat="43.27685" lon="2.44366">
        <ele>167.2</ele>
        <time>2021-09-07T06:58:31Z</time>
      </trkpt>
      <trkpt lat="43.27685" lon="2.44366">
        <ele>167.2</ele>
        <time>2021-09-07T06:58:33Z</time>
      </trkpt>
      <trkpt lat="43.27686" lon="2.44365">
        <ele>167.1</ele>
        <time>2021-09-07T06:58:35Z</time>
      </trkpt>
      <trkpt lat="43.27686" lon="2.44365">
        <ele>167.1</ele>
        <time>2021-09-07T06:58:37Z</time>
      </trkpt>
      <trkpt lat="43.27686" lon="2.44364">
        <ele>167.1</ele>
        <time>2021-09-07T06:58:39Z</time>
      </trkpt>
      <trkpt lat="43.27686" lon="2.44364">
        <ele>167</ele>
        <time>2021-09-07T06:58:41Z</time>
      </trkpt>
      <trkpt lat="43.27686" lon="2.44363">
        <ele>167</ele>
        <time>2021-09-07T06:58:43Z</time>
      </trkpt>
      <trkpt lat="43.27686" lon="2.44363">
        <ele>167</ele>
        <time>2021-09-07T06:58:44Z</time>
      </trkpt>
      <trkpt lat="43.27686" lon="2.44363">
        <ele>167</ele>
        <time>2021-09-07T06:58:46Z</time>
      </trkpt>
      <trkpt lat="43.27686" lon="2.44361">
        <ele>166.9</ele>
        <time>2021-09-07T06:58:48Z</time>
      </trkpt>
      <trkpt lat="43.27686" lon="2.44361">
        <ele>166.8</ele>
        <time>2021-09-07T06:58:49Z</time>
      </trkpt>
      <trkpt lat="43.27687" lon="2.4436">
        <ele>166.8</ele>
        <time>2021-09-07T06:58:51Z</time>
      </trkpt>
      <trkpt lat="43.27687" lon="2.4436">
        <ele>166.8</ele>
        <time>2021-09-07T06:58:52Z</time>
      </trkpt>
      <trkpt lat="43.27686" lon="2.4436">
        <ele>166.8</ele>
        <time>2021-09-07T06:58:54Z</time>
      </trkpt>
      <trkpt lat="43.27686" lon="2.4436">
        <ele>166.7</ele>
        <time>2021-09-07T06:58:55Z</time>
      </trkpt>
      <trkpt lat="43.27686" lon="2.44359">
        <ele>166.7</ele>
        <time>2021-09-07T06:58:57Z</time>
      </trkpt>
      <trkpt lat="43.27686" lon="2.44359">
        <ele>166.7</ele>
        <time>2021-09-07T06:58:58Z</time>
      </trkpt>
      <trkpt lat="43.27686" lon="2.4436">
        <ele>166.7</ele>
        <time>2021-09-07T06:59:00Z</time>
      </trkpt>
      <trkpt lat="43.27686" lon="2.4436">
        <ele>166.7</ele>
        <time>2021-09-07T06:59:01Z</time>
      </trkpt>
      <trkpt lat="43.27687" lon="2.4436">
        <ele>166.7</ele>
        <time>2021-09-07T06:59:02Z</time>
      </trkpt>
      <trkpt lat="43.27687" lon="2.4436">
        <ele>166.7</ele>
        <time>2021-09-07T06:59:04Z</time>
      </trkpt>
      <trkpt lat="43.27687" lon="2.4436">
        <ele>166.7</ele>
        <time>2021-09-07T06:59:05Z</time>
      </trkpt>
      <trkpt lat="43.27687" lon="2.4436">
        <ele>166.7</ele>
        <time>2021-09-07T06:59:07Z</time>
      </trkpt>
      <trkpt lat="43.27687" lon="2.4436">
        <ele>166.7</ele>
        <time>2021-09-07T06:59:08Z</time>
      </trkpt>
      <trkpt lat="43.27687" lon="2.4436">
        <ele>166.7</ele>
        <time>2021-09-07T06:59:10Z</time>
      </trkpt>
      <trkpt lat="43.27687" lon="2.4436">
        <ele>166.7</ele>
        <time>2021-09-07T06:59:11Z</time>
      </trkpt>
      <trkpt lat="43.27687" lon="2.4436">
        <ele>166.7</ele>
        <time>2021-09-07T06:59:13Z</time>
      </trkpt>
      <trkpt lat="43.27687" lon="2.4436">
        <ele>166.6</ele>
        <time>2021-09-07T06:59:15Z</time>
      </trkpt>
      <trkpt lat="43.27686" lon="2.44361">
        <ele>166.6</ele>
        <time>2021-09-07T06:59:16Z</time>
      </trkpt>
      <trkpt lat="43.27687" lon="2.44363">
        <ele>166.5</ele>
        <time>2021-09-07T06:59:18Z</time>
      </trkpt>
      <trkpt lat="43.27687" lon="2.44363">
        <ele>166.4</ele>
        <time>2021-09-07T06:59:19Z</time>
      </trkpt>
      <trkpt lat="43.27686" lon="2.44364">
        <ele>166.4</ele>
        <time>2021-09-07T06:59:20Z</time>
      </trkpt>
      <trkpt lat="43.27685" lon="2.44364">
        <ele>166.3</ele>
        <time>2021-09-07T06:59:21Z</time>
      </trkpt>
      <trkpt lat="43.27683" lon="2.44363">
        <ele>166</ele>
        <time>2021-09-07T06:59:23Z</time>
      </trkpt>
      <trkpt lat="43.27681" lon="2.44361">
        <ele>165.8</ele>
        <time>2021-09-07T06:59:25Z</time>
      </trkpt>
      <trkpt lat="43.2768" lon="2.4436">
        <ele>165.6</ele>
        <time>2021-09-07T06:59:27Z</time>
      </trkpt>
      <trkpt lat="43.27678" lon="2.44357">
        <ele>165.4</ele>
        <time>2021-09-07T06:59:29Z</time>
      </trkpt>
      <trkpt lat="43.27677" lon="2.44353">
        <ele>165.1</ele>
        <time>2021-09-07T06:59:31Z</time>
      </trkpt>
      <trkpt lat="43.27676" lon="2.44349">
        <ele>164.7</ele>
        <time>2021-09-07T06:59:33Z</time>
      </trkpt>
      <trkpt lat="43.27676" lon="2.44348">
        <ele>164.6</ele>
        <time>2021-09-07T06:59:34Z</time>
      </trkpt>
      <trkpt lat="43.27675" lon="2.44344">
        <ele>164.3</ele>
        <time>2021-09-07T06:59:36Z</time>
      </trkpt>
      <trkpt lat="43.27674" lon="2.44343">
        <ele>164</ele>
        <time>2021-09-07T06:59:37Z</time>
      </trkpt>
      <trkpt lat="43.27671" lon="2.44341">
        <ele>163.7</ele>
        <time>2021-09-07T06:59:39Z</time>
      </trkpt>
      <trkpt lat="43.2767" lon="2.4434">
        <ele>163.5</ele>
        <time>2021-09-07T06:59:40Z</time>
      </trkpt>
      <trkpt lat="43.27667" lon="2.44337">
        <ele>163</ele>
        <time>2021-09-07T06:59:42Z</time>
      </trkpt>
      <trkpt lat="43.27666" lon="2.44334">
        <ele>162.6</ele>
        <time>2021-09-07T06:59:43Z</time>
      </trkpt>
      <trkpt lat="43.27665" lon="2.4433">
        <ele>161.6</ele>
        <time>2021-09-07T06:59:45Z</time>
      </trkpt>
      <trkpt lat="43.27666" lon="2.44325">
        <ele>160.9</ele>
        <time>2021-09-07T06:59:47Z</time>
      </trkpt>
      <trkpt lat="43.27669" lon="2.44324">
        <ele>160.4</ele>
        <time>2021-09-07T06:59:49Z</time>
      </trkpt>
      <trkpt lat="43.27673" lon="2.44324">
        <ele>159.9</ele>
        <time>2021-09-07T06:59:51Z</time>
      </trkpt>
      <trkpt lat="43.27678" lon="2.44325">
        <ele>159.4</ele>
        <time>2021-09-07T06:59:53Z</time>
      </trkpt>
      <trkpt lat="43.2768" lon="2.44324">
        <ele>159</ele>
        <time>2021-09-07T06:59:54Z</time>
      </trkpt>
      <trkpt lat="43.27683" lon="2.44322">
        <ele>158.5</ele>
        <time>2021-09-07T06:59:56Z</time>
      </trkpt>
      <trkpt lat="43.27683" lon="2.44317">
        <ele>157.9</ele>
        <time>2021-09-07T06:59:58Z</time>
      </trkpt>
      <trkpt lat="43.27683" lon="2.44315">
        <ele>157.3</ele>
        <time>2021-09-07T06:59:59Z</time>
      </trkpt>
      <trkpt lat="43.27682" lon="2.44313">
        <ele>156.9</ele>
        <time>2021-09-07T07:00:00Z</time>
      </trkpt>
      <trkpt lat="43.27679" lon="2.44312">
        <ele>156.3</ele>
        <time>2021-09-07T07:00:02Z</time>
      </trkpt>
      <trkpt lat="43.27677" lon="2.44311">
        <ele>156</ele>
        <time>2021-09-07T07:00:03Z</time>
      </trkpt>
      <trkpt lat="43.27675" lon="2.44311">
        <ele>155.6</ele>
        <time>2021-09-07T07:00:05Z</time>
      </trkpt>
      <trkpt lat="43.27672" lon="2.4431">
        <ele>155.3</ele>
        <time>2021-09-07T07:00:07Z</time>
      </trkpt>
      <trkpt lat="43.27671" lon="2.4431">
        <ele>155</ele>
        <time>2021-09-07T07:00:08Z</time>
      </trkpt>
      <trkpt lat="43.2767" lon="2.44306">
        <ele>154.4</ele>
        <time>2021-09-07T07:00:10Z</time>
      </trkpt>
      <trkpt lat="43.2767" lon="2.44305">
        <ele>154</ele>
        <time>2021-09-07T07:00:11Z</time>
      </trkpt>
      <trkpt lat="43.2767" lon="2.443">
        <ele>153.4</ele>
        <time>2021-09-07T07:00:13Z</time>
      </trkpt>
      <trkpt lat="43.27671" lon="2.44297">
        <ele>152.7</ele>
        <time>2021-09-07T07:00:15Z</time>
      </trkpt>
      <trkpt lat="43.27674" lon="2.44294">
        <ele>152.1</ele>
        <time>2021-09-07T07:00:17Z</time>
      </trkpt>
      <trkpt lat="43.27677" lon="2.44292">
        <ele>151.8</ele>
        <time>2021-09-07T07:00:19Z</time>
      </trkpt>
      <trkpt lat="43.27681" lon="2.44292">
        <ele>151.6</ele>
        <time>2021-09-07T07:00:21Z</time>
      </trkpt>
      <trkpt lat="43.27685" lon="2.44292">
        <ele>151.4</ele>
        <time>2021-09-07T07:00:23Z</time>
      </trkpt>
      <trkpt lat="43.27686" lon="2.44292">
        <ele>151.3</ele>
        <time>2021-09-07T07:00:24Z</time>
      </trkpt>
      <trkpt lat="43.27689" lon="2.44291">
        <ele>151.2</ele>
        <time>2021-09-07T07:00:26Z</time>
      </trkpt>
      <trkpt lat="43.27692" lon="2.44289">
        <ele>151.1</ele>
        <time>2021-09-07T07:00:28Z</time>
      </trkpt>
      <trkpt lat="43.27692" lon="2.44288">
        <ele>151.1</ele>
        <time>2021-09-07T07:00:29Z</time>
      </trkpt>
      <trkpt lat="43.27695" lon="2.44285">
        <ele>151</ele>
        <time>2021-09-07T07:00:31Z</time>
      </trkpt>
      <trkpt lat="43.27696" lon="2.44285">
        <ele>151</ele>
        <time>2021-09-07T07:00:32Z</time>
      </trkpt>
      <trkpt lat="43.27698" lon="2.44286">
        <ele>151</ele>
        <time>2021-09-07T07:00:34Z</time>
      </trkpt>
      <trkpt lat="43.277" lon="2.44286">
        <ele>151</ele>
        <time>2021-09-07T07:00:35Z</time>
      </trkpt>
      <trkpt lat="43.27703" lon="2.44286">
        <ele>150.9</ele>
        <time>2021-09-07T07:00:37Z</time>
      </trkpt>
      <trkpt lat="43.27704" lon="2.44286">
        <ele>150.9</ele>
        <time>2021-09-07T07:00:38Z</time>
      </trkpt>
      <trkpt lat="43.27705" lon="2.44286">
        <ele>150.9</ele>
        <time>2021-09-07T07:00:40Z</time>
      </trkpt>
      <trkpt lat="43.27705" lon="2.44285">
        <ele>150.9</ele>
        <time>2021-09-07T07:00:41Z</time>
      </trkpt>
      <trkpt lat="43.27707" lon="2.44285">
        <ele>150.8</ele>
        <time>2021-09-07T07:00:43Z</time>
      </trkpt>
      <trkpt lat="43.2771" lon="2.44285">
        <ele>150.6</ele>
        <time>2021-09-07T07:00:45Z</time>
      </trkpt>
      <trkpt lat="43.27712" lon="2.44285">
        <ele>150.5</ele>
        <time>2021-09-07T07:00:46Z</time>
      </trkpt>
      <trkpt lat="43.27713" lon="2.44284">
        <ele>150.5</ele>
        <time>2021-09-07T07:00:47Z</time>
      </trkpt>
      <trkpt lat="43.27716" lon="2.44284">
        <ele>150.2</ele>
        <time>2021-09-07T07:00:49Z</time>
      </trkpt>
      <trkpt lat="43.27722" lon="2.44284">
        <ele>149.8</ele>
        <time>2021-09-07T07:00:51Z</time>
      </trkpt>
      <trkpt lat="43.27726" lon="2.44285">
        <ele>149.5</ele>
        <time>2021-09-07T07:00:53Z</time>
      </trkpt>
      <trkpt lat="43.27729" lon="2.44287">
        <ele>149.4</ele>
        <time>2021-09-07T07:00:54Z</time>
      </trkpt>
      <trkpt lat="43.2773" lon="2.44288">
        <ele>149.4</ele>
        <time>2021-09-07T07:00:55Z</time>
      </trkpt>
      <trkpt lat="43.27732" lon="2.4429">
        <ele>149.4</ele>
        <time>2021-09-07T07:00:56Z</time>
      </trkpt>
      <trkpt lat="43.27737" lon="2.44294">
        <ele>149.4</ele>
        <time>2021-09-07T07:00:58Z</time>
      </trkpt>
      <trkpt lat="43.27742" lon="2.44297">
        <ele>149.6</ele>
        <time>2021-09-07T07:01:00Z</time>
      </trkpt>
      <trkpt lat="43.27745" lon="2.44299">
        <ele>149.8</ele>
        <time>2021-09-07T07:01:02Z</time>
      </trkpt>
      <trkpt lat="43.27748" lon="2.44303">
        <ele>150</ele>
        <time>2021-09-07T07:01:04Z</time>
      </trkpt>
      <trkpt lat="43.27749" lon="2.44307">
        <ele>150.3</ele>
        <time>2021-09-07T07:01:06Z</time>
      </trkpt>
      <trkpt lat="43.27751" lon="2.44311">
        <ele>150.5</ele>
        <time>2021-09-07T07:01:08Z</time>
      </trkpt>
      <trkpt lat="43.27753" lon="2.44314">
        <ele>150.8</ele>
        <time>2021-09-07T07:01:10Z</time>
      </trkpt>
      <trkpt lat="43.27754" lon="2.44317">
        <ele>150.9</ele>
        <time>2021-09-07T07:01:11Z</time>
      </trkpt>
      <trkpt lat="43.27756" lon="2.44321">
        <ele>151.2</ele>
        <time>2021-09-07T07:01:13Z</time>
      </trkpt>
      <trkpt lat="43.27757" lon="2.44323">
        <ele>151.3</ele>
        <time>2021-09-07T07:01:14Z</time>
      </trkpt>
      <trkpt lat="43.27759" lon="2.44327">
        <ele>151.6</ele>
        <time>2021-09-07T07:01:16Z</time>
      </trkpt>
      <trkpt lat="43.2776" lon="2.44331">
        <ele>151.9</ele>
        <time>2021-09-07T07:01:18Z</time>
      </trkpt>
      <trkpt lat="43.27761" lon="2.44334">
        <ele>152</ele>
        <time>2021-09-07T07:01:19Z</time>
      </trkpt>
      <trkpt lat="43.27762" lon="2.44339">
        <ele>152.4</ele>
        <time>2021-09-07T07:01:21Z</time>
      </trkpt>
      <trkpt lat="43.27763" lon="2.44342">
        <ele>152.5</ele>
        <time>2021-09-07T07:01:22Z</time>
      </trkpt>
      <trkpt lat="43.27765" lon="2.44348">
        <ele>152.9</ele>
        <time>2021-09-07T07:01:24Z</time>
      </trkpt>
      <trkpt lat="43.27765" lon="2.4435">
        <ele>153.1</ele>
        <time>2021-09-07T07:01:25Z</time>
      </trkpt>
      <trkpt lat="43.27766" lon="2.44355">
        <ele>153.4</ele>
        <time>2021-09-07T07:01:27Z</time>
      </trkpt>
      <trkpt lat="43.27768" lon="2.44358">
        <ele>153.6</ele>
        <time>2021-09-07T07:01:29Z</time>
      </trkpt>
      <trkpt lat="43.27769" lon="2.44362">
        <ele>153.9</ele>
        <time>2021-09-07T07:01:31Z</time>
      </trkpt>
      <trkpt lat="43.27769" lon="2.44366">
        <ele>154.2</ele>
        <time>2021-09-07T07:01:33Z</time>
      </trkpt>
      <trkpt lat="43.2777" lon="2.44369">
        <ele>154.4</ele>
        <time>2021-09-07T07:01:34Z</time>
      </trkpt>
      <trkpt lat="43.27771" lon="2.44374">
        <ele>154.8</ele>
        <time>2021-09-07T07:01:36Z</time>
      </trkpt>
      <trkpt lat="43.27772" lon="2.44379">
        <ele>155.2</ele>
        <time>2021-09-07T07:01:38Z</time>
      </trkpt>
      <trkpt lat="43.27773" lon="2.44383">
        <ele>155.5</ele>
        <time>2021-09-07T07:01:39Z</time>
      </trkpt>
      <trkpt lat="43.27773" lon="2.44385">
        <ele>155.4</ele>
        <time>2021-09-07T07:01:40Z</time>
      </trkpt>
      <trkpt lat="43.27775" lon="2.44388">
        <ele>155.5</ele>
        <time>2021-09-07T07:01:42Z</time>
      </trkpt>
      <trkpt lat="43.27779" lon="2.4439">
        <ele>155.6</ele>
        <time>2021-09-07T07:01:44Z</time>
      </trkpt>
      <trkpt lat="43.27781" lon="2.44391">
        <ele>155.5</ele>
        <time>2021-09-07T07:01:45Z</time>
      </trkpt>
      <trkpt lat="43.27784" lon="2.44393">
        <ele>155.4</ele>
        <time>2021-09-07T07:01:47Z</time>
      </trkpt>
      <trkpt lat="43.27786" lon="2.44396">
        <ele>155.5</ele>
        <time>2021-09-07T07:01:49Z</time>
      </trkpt>
      <trkpt lat="43.27787" lon="2.44395">
        <ele>155.4</ele>
        <time>2021-09-07T07:01:50Z</time>
      </trkpt>
      <trkpt lat="43.2779" lon="2.44396">
        <ele>155.2</ele>
        <time>2021-09-07T07:01:52Z</time>
      </trkpt>
      <trkpt lat="43.27791" lon="2.44397">
        <ele>155.2</ele>
        <time>2021-09-07T07:01:53Z</time>
      </trkpt>
      <trkpt lat="43.27794" lon="2.444">
        <ele>155.1</ele>
        <time>2021-09-07T07:01:55Z</time>
      </trkpt>
      <trkpt lat="43.27796" lon="2.44404">
        <ele>155</ele>
        <time>2021-09-07T07:01:57Z</time>
      </trkpt>
      <trkpt lat="43.27798" lon="2.44408">
        <ele>155.1</ele>
        <time>2021-09-07T07:01:59Z</time>
      </trkpt>
      <trkpt lat="43.27799" lon="2.44411">
        <ele>154.9</ele>
        <time>2021-09-07T07:02:01Z</time>
      </trkpt>
      <trkpt lat="43.278" lon="2.44412">
        <ele>154.9</ele>
        <time>2021-09-07T07:02:02Z</time>
      </trkpt>
      <trkpt lat="43.278" lon="2.44414">
        <ele>154.8</ele>
        <time>2021-09-07T07:02:04Z</time>
      </trkpt>
      <trkpt lat="43.27799" lon="2.44413">
        <ele>154.8</ele>
        <time>2021-09-07T07:02:06Z</time>
      </trkpt>
      <trkpt lat="43.27799" lon="2.44413">
        <ele>154.7</ele>
        <time>2021-09-07T07:02:07Z</time>
      </trkpt>
      <trkpt lat="43.27799" lon="2.44411">
        <ele>154.5</ele>
        <time>2021-09-07T07:02:09Z</time>
      </trkpt>
      <trkpt lat="43.278" lon="2.44409">
        <ele>154.5</ele>
        <time>2021-09-07T07:02:10Z</time>
      </trkpt>
      <trkpt lat="43.27802" lon="2.44406">
        <ele>154.2</ele>
        <time>2021-09-07T07:02:12Z</time>
      </trkpt>
      <trkpt lat="43.27804" lon="2.44403">
        <ele>154.1</ele>
        <time>2021-09-07T07:02:14Z</time>
      </trkpt>
      <trkpt lat="43.27805" lon="2.44401">
        <ele>153.9</ele>
        <time>2021-09-07T07:02:15Z</time>
      </trkpt>
      <trkpt lat="43.27806" lon="2.44399">
        <ele>153.9</ele>
        <time>2021-09-07T07:02:16Z</time>
      </trkpt>
      <trkpt lat="43.27807" lon="2.44398">
        <ele>153.8</ele>
        <time>2021-09-07T07:02:17Z</time>
      </trkpt>
      <trkpt lat="43.27808" lon="2.44395">
        <ele>153.8</ele>
        <time>2021-09-07T07:02:19Z</time>
      </trkpt>
      <trkpt lat="43.27808" lon="2.44393">
        <ele>153.8</ele>
        <time>2021-09-07T07:02:21Z</time>
      </trkpt>
      <trkpt lat="43.27808" lon="2.44392">
        <ele>153.6</ele>
        <time>2021-09-07T07:02:23Z</time>
      </trkpt>
      <trkpt lat="43.27807" lon="2.44391">
        <ele>153.6</ele>
        <time>2021-09-07T07:02:24Z</time>
      </trkpt>
      <trkpt lat="43.27806" lon="2.4439">
        <ele>153.5</ele>
        <time>2021-09-07T07:02:25Z</time>
      </trkpt>
      <trkpt lat="43.27805" lon="2.44387">
        <ele>153.5</ele>
        <time>2021-09-07T07:02:27Z</time>
      </trkpt>
      <trkpt lat="43.27804" lon="2.44385">
        <ele>153.4</ele>
        <time>2021-09-07T07:02:28Z</time>
      </trkpt>
      <trkpt lat="43.27803" lon="2.4438">
        <ele>153.3</ele>
        <time>2021-09-07T07:02:30Z</time>
      </trkpt>
      <trkpt lat="43.27803" lon="2.44378">
        <ele>153.3</ele>
        <time>2021-09-07T07:02:31Z</time>
      </trkpt>
      <trkpt lat="43.27802" lon="2.44374">
        <ele>153.2</ele>
        <time>2021-09-07T07:02:33Z</time>
      </trkpt>
      <trkpt lat="43.27802" lon="2.44373">
        <ele>153.2</ele>
        <time>2021-09-07T07:02:34Z</time>
      </trkpt>
      <trkpt lat="43.27802" lon="2.44371">
        <ele>153.2</ele>
        <time>2021-09-07T07:02:35Z</time>
      </trkpt>
      <trkpt lat="43.27802" lon="2.44366">
        <ele>153.2</ele>
        <time>2021-09-07T07:02:37Z</time>
      </trkpt>
      <trkpt lat="43.27803" lon="2.44359">
        <ele>153.4</ele>
        <time>2021-09-07T07:02:39Z</time>
      </trkpt>
      <trkpt lat="43.27803" lon="2.44351">
        <ele>153.6</ele>
        <time>2021-09-07T07:02:41Z</time>
      </trkpt>
      <trkpt lat="43.27803" lon="2.44346">
        <ele>153.7</ele>
        <time>2021-09-07T07:02:42Z</time>
      </trkpt>
      <trkpt lat="43.27804" lon="2.44342">
        <ele>153.8</ele>
        <time>2021-09-07T07:02:43Z</time>
      </trkpt>
      <trkpt lat="43.27806" lon="2.44333">
        <ele>154.6</ele>
        <time>2021-09-07T07:02:45Z</time>
      </trkpt>
      <trkpt lat="43.27808" lon="2.44326">
        <ele>155.5</ele>
        <time>2021-09-07T07:02:47Z</time>
      </trkpt>
      <trkpt lat="43.27809" lon="2.44322">
        <ele>155.4</ele>
        <time>2021-09-07T07:02:48Z</time>
      </trkpt>
      <trkpt lat="43.2781" lon="2.44313">
        <ele>155.7</ele>
        <time>2021-09-07T07:02:50Z</time>
      </trkpt>
      <trkpt lat="43.2781" lon="2.44309">
        <ele>155.8</ele>
        <time>2021-09-07T07:02:51Z</time>
      </trkpt>
      <trkpt lat="43.2781" lon="2.44301">
        <ele>156</ele>
        <time>2021-09-07T07:02:53Z</time>
      </trkpt>
      <trkpt lat="43.2781" lon="2.44298">
        <ele>156</ele>
        <time>2021-09-07T07:02:54Z</time>
      </trkpt>
      <trkpt lat="43.27809" lon="2.44291">
        <ele>156.2</ele>
        <time>2021-09-07T07:02:56Z</time>
      </trkpt>
      <trkpt lat="43.2781" lon="2.44287">
        <ele>156.1</ele>
        <time>2021-09-07T07:02:57Z</time>
      </trkpt>
      <trkpt lat="43.2781" lon="2.4428">
        <ele>156.2</ele>
        <time>2021-09-07T07:02:59Z</time>
      </trkpt>
      <trkpt lat="43.2781" lon="2.44274">
        <ele>156.2</ele>
        <time>2021-09-07T07:03:01Z</time>
      </trkpt>
      <trkpt lat="43.2781" lon="2.44269">
        <ele>156.1</ele>
        <time>2021-09-07T07:03:03Z</time>
      </trkpt>
      <trkpt lat="43.27811" lon="2.44267">
        <ele>156.5</ele>
        <time>2021-09-07T07:03:04Z</time>
      </trkpt>
      <trkpt lat="43.27811" lon="2.44262">
        <ele>156.4</ele>
        <time>2021-09-07T07:03:06Z</time>
      </trkpt>
      <trkpt lat="43.27811" lon="2.44261">
        <ele>156.4</ele>
        <time>2021-09-07T07:03:07Z</time>
      </trkpt>
      <trkpt lat="43.2781" lon="2.44259">
        <ele>156.4</ele>
        <time>2021-09-07T07:03:08Z</time>
      </trkpt>
      <trkpt lat="43.27809" lon="2.44257">
        <ele>156.4</ele>
        <time>2021-09-07T07:03:09Z</time>
      </trkpt>
      <trkpt lat="43.27808" lon="2.44254">
        <ele>156.4</ele>
        <time>2021-09-07T07:03:11Z</time>
      </trkpt>
      <trkpt lat="43.27805" lon="2.44251">
        <ele>156.4</ele>
        <time>2021-09-07T07:03:12Z</time>
      </trkpt>
      <trkpt lat="43.27805" lon="2.4425">
        <ele>156.4</ele>
        <time>2021-09-07T07:03:13Z</time>
      </trkpt>
      <trkpt lat="43.27803" lon="2.44247">
        <ele>156.4</ele>
        <time>2021-09-07T07:03:15Z</time>
      </trkpt>
      <trkpt lat="43.27802" lon="2.44244">
        <ele>156.4</ele>
        <time>2021-09-07T07:03:17Z</time>
      </trkpt>
      <trkpt lat="43.27801" lon="2.44241">
        <ele>156.4</ele>
        <time>2021-09-07T07:03:18Z</time>
      </trkpt>
      <trkpt lat="43.27801" lon="2.44236">
        <ele>156.5</ele>
        <time>2021-09-07T07:03:20Z</time>
      </trkpt>
      <trkpt lat="43.27801" lon="2.44232">
        <ele>156.5</ele>
        <time>2021-09-07T07:03:22Z</time>
      </trkpt>
      <trkpt lat="43.27801" lon="2.44229">
        <ele>156.6</ele>
        <time>2021-09-07T07:03:24Z</time>
      </trkpt>
      <trkpt lat="43.27801" lon="2.44225">
        <ele>156.6</ele>
        <time>2021-09-07T07:03:26Z</time>
      </trkpt>
      <trkpt lat="43.27803" lon="2.44219">
        <ele>156.7</ele>
        <time>2021-09-07T07:03:28Z</time>
      </trkpt>
      <trkpt lat="43.27806" lon="2.44218">
        <ele>157.5</ele>
        <time>2021-09-07T07:03:29Z</time>
      </trkpt>
      <trkpt lat="43.27809" lon="2.44217">
        <ele>157.7</ele>
        <time>2021-09-07T07:03:30Z</time>
      </trkpt>
      <trkpt lat="43.27814" lon="2.44216">
        <ele>158.3</ele>
        <time>2021-09-07T07:03:32Z</time>
      </trkpt>
      <trkpt lat="43.27818" lon="2.44217">
        <ele>158.6</ele>
        <time>2021-09-07T07:03:34Z</time>
      </trkpt>
      <trkpt lat="43.27819" lon="2.44216">
        <ele>158.8</ele>
        <time>2021-09-07T07:03:35Z</time>
      </trkpt>
      <trkpt lat="43.27821" lon="2.44216">
        <ele>159</ele>
        <time>2021-09-07T07:03:36Z</time>
      </trkpt>
      <trkpt lat="43.27823" lon="2.44214">
        <ele>159.2</ele>
        <time>2021-09-07T07:03:38Z</time>
      </trkpt>
      <trkpt lat="43.27824" lon="2.44212">
        <ele>159.4</ele>
        <time>2021-09-07T07:03:40Z</time>
      </trkpt>
      <trkpt lat="43.27826" lon="2.44208">
        <ele>159.7</ele>
        <time>2021-09-07T07:03:42Z</time>
      </trkpt>
      <trkpt lat="43.27827" lon="2.44204">
        <ele>160</ele>
        <time>2021-09-07T07:03:44Z</time>
      </trkpt>
      <trkpt lat="43.27828" lon="2.44201">
        <ele>160.2</ele>
        <time>2021-09-07T07:03:45Z</time>
      </trkpt>
      <trkpt lat="43.27829" lon="2.44196">
        <ele>160.6</ele>
        <time>2021-09-07T07:03:47Z</time>
      </trkpt>
      <trkpt lat="43.2783" lon="2.44194">
        <ele>160.7</ele>
        <time>2021-09-07T07:03:48Z</time>
      </trkpt>
      <trkpt lat="43.27832" lon="2.4419">
        <ele>161</ele>
        <time>2021-09-07T07:03:50Z</time>
      </trkpt>
      <trkpt lat="43.27833" lon="2.44188">
        <ele>161.2</ele>
        <time>2021-09-07T07:03:51Z</time>
      </trkpt>
      <trkpt lat="43.27836" lon="2.44186">
        <ele>161.5</ele>
        <time>2021-09-07T07:03:53Z</time>
      </trkpt>
      <trkpt lat="43.27838" lon="2.44185">
        <ele>161.6</ele>
        <time>2021-09-07T07:03:54Z</time>
      </trkpt>
      <trkpt lat="43.27841" lon="2.44185">
        <ele>161.9</ele>
        <time>2021-09-07T07:03:56Z</time>
      </trkpt>
      <trkpt lat="43.27843" lon="2.44185">
        <ele>162</ele>
        <time>2021-09-07T07:03:57Z</time>
      </trkpt>
      <trkpt lat="43.27846" lon="2.44183">
        <ele>162.3</ele>
        <time>2021-09-07T07:03:59Z</time>
      </trkpt>
      <trkpt lat="43.2785" lon="2.44181">
        <ele>162.6</ele>
        <time>2021-09-07T07:04:01Z</time>
      </trkpt>
      <trkpt lat="43.27851" lon="2.4418">
        <ele>162.7</ele>
        <time>2021-09-07T07:04:02Z</time>
      </trkpt>
      <trkpt lat="43.27852" lon="2.44176">
        <ele>162.9</ele>
        <time>2021-09-07T07:04:04Z</time>
      </trkpt>
      <trkpt lat="43.27854" lon="2.4417">
        <ele>163.2</ele>
        <time>2021-09-07T07:04:06Z</time>
      </trkpt>
      <trkpt lat="43.27855" lon="2.44167">
        <ele>163.4</ele>
        <time>2021-09-07T07:04:07Z</time>
      </trkpt>
      <trkpt lat="43.27858" lon="2.44163">
        <ele>163.6</ele>
        <time>2021-09-07T07:04:09Z</time>
      </trkpt>
      <trkpt lat="43.27861" lon="2.4416">
        <ele>163.8</ele>
        <time>2021-09-07T07:04:10Z</time>
      </trkpt>
      <trkpt lat="43.27861" lon="2.44159">
        <ele>163.8</ele>
        <time>2021-09-07T07:04:11Z</time>
      </trkpt>
      <trkpt lat="43.27865" lon="2.44155">
        <ele>164.1</ele>
        <time>2021-09-07T07:04:13Z</time>
      </trkpt>
      <trkpt lat="43.27868" lon="2.4415">
        <ele>164.3</ele>
        <time>2021-09-07T07:04:15Z</time>
      </trkpt>
      <trkpt lat="43.27871" lon="2.44146">
        <ele>164.5</ele>
        <time>2021-09-07T07:04:17Z</time>
      </trkpt>
      <trkpt lat="43.27873" lon="2.44142">
        <ele>164.6</ele>
        <time>2021-09-07T07:04:19Z</time>
      </trkpt>
      <trkpt lat="43.27874" lon="2.4414">
        <ele>164.7</ele>
        <time>2021-09-07T07:04:20Z</time>
      </trkpt>
      <trkpt lat="43.27875" lon="2.44139">
        <ele>164.8</ele>
        <time>2021-09-07T07:04:21Z</time>
      </trkpt>
      <trkpt lat="43.27876" lon="2.44136">
        <ele>164.9</ele>
        <time>2021-09-07T07:04:23Z</time>
      </trkpt>
      <trkpt lat="43.27876" lon="2.44135">
        <ele>164.9</ele>
        <time>2021-09-07T07:04:24Z</time>
      </trkpt>
      <trkpt lat="43.27876" lon="2.44134">
        <ele>164.9</ele>
        <time>2021-09-07T07:04:25Z</time>
      </trkpt>
      <trkpt lat="43.27878" lon="2.4413">
        <ele>165.1</ele>
        <time>2021-09-07T07:04:27Z</time>
      </trkpt>
      <trkpt lat="43.27878" lon="2.44129">
        <ele>165.2</ele>
        <time>2021-09-07T07:04:28Z</time>
      </trkpt>
      <trkpt lat="43.27881" lon="2.44125">
        <ele>165.3</ele>
        <time>2021-09-07T07:04:30Z</time>
      </trkpt>
      <trkpt lat="43.27884" lon="2.44122">
        <ele>165.5</ele>
        <time>2021-09-07T07:04:32Z</time>
      </trkpt>
      <trkpt lat="43.27886" lon="2.44121">
        <ele>165.6</ele>
        <time>2021-09-07T07:04:33Z</time>
      </trkpt>
      <trkpt lat="43.27888" lon="2.44119">
        <ele>166.1</ele>
        <time>2021-09-07T07:04:35Z</time>
      </trkpt>
      <trkpt lat="43.2789" lon="2.44118">
        <ele>166.1</ele>
        <time>2021-09-07T07:04:36Z</time>
      </trkpt>
      <trkpt lat="43.27892" lon="2.44115">
        <ele>166.2</ele>
        <time>2021-09-07T07:04:38Z</time>
      </trkpt>
      <trkpt lat="43.27895" lon="2.44111">
        <ele>166.3</ele>
        <time>2021-09-07T07:04:40Z</time>
      </trkpt>
      <trkpt lat="43.27898" lon="2.44109">
        <ele>166.4</ele>
        <time>2021-09-07T07:04:41Z</time>
      </trkpt>
      <trkpt lat="43.27899" lon="2.44108">
        <ele>166.4</ele>
        <time>2021-09-07T07:04:42Z</time>
      </trkpt>
      <trkpt lat="43.27902" lon="2.44106">
        <ele>166.5</ele>
        <time>2021-09-07T07:04:44Z</time>
      </trkpt>
      <trkpt lat="43.27903" lon="2.44105">
        <ele>166.5</ele>
        <time>2021-09-07T07:04:45Z</time>
      </trkpt>
      <trkpt lat="43.27906" lon="2.44104">
        <ele>166.5</ele>
        <time>2021-09-07T07:04:47Z</time>
      </trkpt>
      <trkpt lat="43.27909" lon="2.44103">
        <ele>166.6</ele>
        <time>2021-09-07T07:04:49Z</time>
      </trkpt>
      <trkpt lat="43.2791" lon="2.44103">
        <ele>166.6</ele>
        <time>2021-09-07T07:04:50Z</time>
      </trkpt>
      <trkpt lat="43.27913" lon="2.44101">
        <ele>166.7</ele>
        <time>2021-09-07T07:04:52Z</time>
      </trkpt>
      <trkpt lat="43.27916" lon="2.441">
        <ele>166.8</ele>
        <time>2021-09-07T07:04:53Z</time>
      </trkpt>
      <trkpt lat="43.27917" lon="2.44099">
        <ele>166.8</ele>
        <time>2021-09-07T07:04:54Z</time>
      </trkpt>
      <trkpt lat="43.27921" lon="2.44097">
        <ele>166.9</ele>
        <time>2021-09-07T07:04:56Z</time>
      </trkpt>
      <trkpt lat="43.27923" lon="2.44096">
        <ele>166.9</ele>
        <time>2021-09-07T07:04:57Z</time>
      </trkpt>
      <trkpt lat="43.27926" lon="2.44095">
        <ele>166.9</ele>
        <time>2021-09-07T07:04:59Z</time>
      </trkpt>
      <trkpt lat="43.27929" lon="2.44094">
        <ele>167</ele>
        <time>2021-09-07T07:05:01Z</time>
      </trkpt>
      <trkpt lat="43.27931" lon="2.44094">
        <ele>167</ele>
        <time>2021-09-07T07:05:02Z</time>
      </trkpt>
      <trkpt lat="43.27933" lon="2.44095">
        <ele>167</ele>
        <time>2021-09-07T07:05:03Z</time>
      </trkpt>
      <trkpt lat="43.27935" lon="2.44094">
        <ele>167</ele>
        <time>2021-09-07T07:05:04Z</time>
      </trkpt>
      <trkpt lat="43.2794" lon="2.44093">
        <ele>167</ele>
        <time>2021-09-07T07:05:06Z</time>
      </trkpt>
      <trkpt lat="43.27944" lon="2.44093">
        <ele>166.9</ele>
        <time>2021-09-07T07:05:08Z</time>
      </trkpt>
      <trkpt lat="43.27946" lon="2.44093">
        <ele>166.9</ele>
        <time>2021-09-07T07:05:09Z</time>
      </trkpt>
      <trkpt lat="43.2795" lon="2.44094">
        <ele>166.9</ele>
        <time>2021-09-07T07:05:11Z</time>
      </trkpt>
      <trkpt lat="43.27956" lon="2.44095">
        <ele>166.8</ele>
        <time>2021-09-07T07:05:13Z</time>
      </trkpt>
      <trkpt lat="43.27962" lon="2.44098">
        <ele>166.7</ele>
        <time>2021-09-07T07:05:15Z</time>
      </trkpt>
      <trkpt lat="43.27965" lon="2.44099">
        <ele>166.7</ele>
        <time>2021-09-07T07:05:16Z</time>
      </trkpt>
      <trkpt lat="43.27968" lon="2.44101">
        <ele>166.6</ele>
        <time>2021-09-07T07:05:17Z</time>
      </trkpt>
      <trkpt lat="43.27971" lon="2.44102">
        <ele>166.6</ele>
        <time>2021-09-07T07:05:18Z</time>
      </trkpt>
      <trkpt lat="43.27976" lon="2.44104">
        <ele>166.6</ele>
        <time>2021-09-07T07:05:20Z</time>
      </trkpt>
      <trkpt lat="43.27982" lon="2.44106">
        <ele>166.5</ele>
        <time>2021-09-07T07:05:22Z</time>
      </trkpt>
      <trkpt lat="43.27985" lon="2.44106">
        <ele>166.5</ele>
        <time>2021-09-07T07:05:23Z</time>
      </trkpt>
      <trkpt lat="43.27987" lon="2.44107">
        <ele>166.6</ele>
        <time>2021-09-07T07:05:24Z</time>
      </trkpt>
      <trkpt lat="43.27993" lon="2.44108">
        <ele>166.6</ele>
        <time>2021-09-07T07:05:26Z</time>
      </trkpt>
      <trkpt lat="43.27998" lon="2.4411">
        <ele>166.6</ele>
        <time>2021-09-07T07:05:28Z</time>
      </trkpt>
      <trkpt lat="43.28003" lon="2.44111">
        <ele>166.7</ele>
        <time>2021-09-07T07:05:30Z</time>
      </trkpt>
      <trkpt lat="43.28007" lon="2.44113">
        <ele>166.8</ele>
        <time>2021-09-07T07:05:32Z</time>
      </trkpt>
      <trkpt lat="43.28012" lon="2.44114">
        <ele>166.9</ele>
        <time>2021-09-07T07:05:34Z</time>
      </trkpt>
      <trkpt lat="43.28014" lon="2.44115">
        <ele>167.1</ele>
        <time>2021-09-07T07:05:35Z</time>
      </trkpt>
      <trkpt lat="43.28018" lon="2.44118">
        <ele>167.3</ele>
        <time>2021-09-07T07:05:37Z</time>
      </trkpt>
      <trkpt lat="43.2802" lon="2.4412">
        <ele>167.5</ele>
        <time>2021-09-07T07:05:38Z</time>
      </trkpt>
      <trkpt lat="43.28021" lon="2.44121">
        <ele>167.5</ele>
        <time>2021-09-07T07:05:39Z</time>
      </trkpt>
      <trkpt lat="43.28025" lon="2.44123">
        <ele>168.2</ele>
        <time>2021-09-07T07:05:41Z</time>
      </trkpt>
      <trkpt lat="43.28028" lon="2.44125">
        <ele>169</ele>
        <time>2021-09-07T07:05:43Z</time>
      </trkpt>
      <trkpt lat="43.28031" lon="2.44127">
        <ele>169.7</ele>
        <time>2021-09-07T07:05:45Z</time>
      </trkpt>
      <trkpt lat="43.28033" lon="2.44127">
        <ele>170.1</ele>
        <time>2021-09-07T07:05:46Z</time>
      </trkpt>
      <trkpt lat="43.28036" lon="2.44129">
        <ele>170.8</ele>
        <time>2021-09-07T07:05:48Z</time>
      </trkpt>
      <trkpt lat="43.28037" lon="2.4413">
        <ele>171.1</ele>
        <time>2021-09-07T07:05:49Z</time>
      </trkpt>
      <trkpt lat="43.28039" lon="2.44129">
        <ele>171.5</ele>
        <time>2021-09-07T07:05:50Z</time>
      </trkpt>
      <trkpt lat="43.28041" lon="2.44129">
        <ele>171.9</ele>
        <time>2021-09-07T07:05:52Z</time>
      </trkpt>
      <trkpt lat="43.28042" lon="2.44129">
        <ele>172.3</ele>
        <time>2021-09-07T07:05:54Z</time>
      </trkpt>
      <trkpt lat="43.28045" lon="2.4413">
        <ele>172.9</ele>
        <time>2021-09-07T07:05:56Z</time>
      </trkpt>
      <trkpt lat="43.28045" lon="2.44131">
        <ele>173.1</ele>
        <time>2021-09-07T07:05:58Z</time>
      </trkpt>
      <trkpt lat="43.28046" lon="2.44132">
        <ele>173.4</ele>
        <time>2021-09-07T07:06:00Z</time>
      </trkpt>
      <trkpt lat="43.28046" lon="2.44133">
        <ele>173.6</ele>
        <time>2021-09-07T07:06:01Z</time>
      </trkpt>
      <trkpt lat="43.28047" lon="2.44134">
        <ele>173.8</ele>
        <time>2021-09-07T07:06:03Z</time>
      </trkpt>
      <trkpt lat="43.28047" lon="2.44136">
        <ele>174</ele>
        <time>2021-09-07T07:06:04Z</time>
      </trkpt>
      <trkpt lat="43.28048" lon="2.44137">
        <ele>174.3</ele>
        <time>2021-09-07T07:06:06Z</time>
      </trkpt>
      <trkpt lat="43.28048" lon="2.44138">
        <ele>174.5</ele>
        <time>2021-09-07T07:06:07Z</time>
      </trkpt>
      <trkpt lat="43.28049" lon="2.44139">
        <ele>174.8</ele>
        <time>2021-09-07T07:06:08Z</time>
      </trkpt>
      <trkpt lat="43.2805" lon="2.44141">
        <ele>175.3</ele>
        <time>2021-09-07T07:06:10Z</time>
      </trkpt>
      <trkpt lat="43.28051" lon="2.44143">
        <ele>175.6</ele>
        <time>2021-09-07T07:06:11Z</time>
      </trkpt>
      <trkpt lat="43.28052" lon="2.44144">
        <ele>175.9</ele>
        <time>2021-09-07T07:06:13Z</time>
      </trkpt>
      <trkpt lat="43.28052" lon="2.44145">
        <ele>176</ele>
        <time>2021-09-07T07:06:15Z</time>
      </trkpt>
      <trkpt lat="43.28053" lon="2.44147">
        <ele>176.4</ele>
        <time>2021-09-07T07:06:17Z</time>
      </trkpt>
      <trkpt lat="43.28055" lon="2.44147">
        <ele>176.7</ele>
        <time>2021-09-07T07:06:18Z</time>
      </trkpt>
      <trkpt lat="43.28056" lon="2.44148">
        <ele>176.9</ele>
        <time>2021-09-07T07:06:20Z</time>
      </trkpt>
      <trkpt lat="43.28057" lon="2.44149">
        <ele>177.1</ele>
        <time>2021-09-07T07:06:21Z</time>
      </trkpt>
      <trkpt lat="43.28058" lon="2.4415">
        <ele>177.3</ele>
        <time>2021-09-07T07:06:23Z</time>
      </trkpt>
      <trkpt lat="43.28059" lon="2.44151">
        <ele>177.6</ele>
        <time>2021-09-07T07:06:25Z</time>
      </trkpt>
      <trkpt lat="43.28061" lon="2.44152">
        <ele>177.9</ele>
        <time>2021-09-07T07:06:27Z</time>
      </trkpt>
      <trkpt lat="43.28063" lon="2.44153">
        <ele>178.2</ele>
        <time>2021-09-07T07:06:29Z</time>
      </trkpt>
      <trkpt lat="43.28064" lon="2.44155">
        <ele>178.4</ele>
        <time>2021-09-07T07:06:31Z</time>
      </trkpt>
      <trkpt lat="43.28064" lon="2.44157">
        <ele>178.6</ele>
        <time>2021-09-07T07:06:33Z</time>
      </trkpt>
      <trkpt lat="43.28065" lon="2.4416">
        <ele>178.8</ele>
        <time>2021-09-07T07:06:35Z</time>
      </trkpt>
      <trkpt lat="43.28067" lon="2.44162">
        <ele>179</ele>
        <time>2021-09-07T07:06:37Z</time>
      </trkpt>
      <trkpt lat="43.28068" lon="2.44163">
        <ele>176.8</ele>
        <time>2021-09-07T07:06:38Z</time>
      </trkpt>
      <trkpt lat="43.28069" lon="2.44165">
        <ele>176.8</ele>
        <time>2021-09-07T07:06:40Z</time>
      </trkpt>
      <trkpt lat="43.28071" lon="2.44165">
        <ele>176.8</ele>
        <time>2021-09-07T07:06:41Z</time>
      </trkpt>
      <trkpt lat="43.28073" lon="2.44166">
        <ele>176.8</ele>
        <time>2021-09-07T07:06:43Z</time>
      </trkpt>
      <trkpt lat="43.28077" lon="2.44169">
        <ele>176.8</ele>
        <time>2021-09-07T07:06:45Z</time>
      </trkpt>
      <trkpt lat="43.28082" lon="2.44171">
        <ele>179.3</ele>
        <time>2021-09-07T07:06:47Z</time>
      </trkpt>
      <trkpt lat="43.28086" lon="2.44173">
        <ele>180.2</ele>
        <time>2021-09-07T07:06:49Z</time>
      </trkpt>
      <trkpt lat="43.2809" lon="2.44175">
        <ele>180.9</ele>
        <time>2021-09-07T07:06:51Z</time>
      </trkpt>
      <trkpt lat="43.28091" lon="2.44175">
        <ele>181.2</ele>
        <time>2021-09-07T07:06:52Z</time>
      </trkpt>
      <trkpt lat="43.28092" lon="2.44176">
        <ele>181.5</ele>
        <time>2021-09-07T07:06:53Z</time>
      </trkpt>
      <trkpt lat="43.28095" lon="2.44176">
        <ele>181.2</ele>
        <time>2021-09-07T07:06:55Z</time>
      </trkpt>
      <trkpt lat="43.28098" lon="2.44177">
        <ele>180.8</ele>
        <time>2021-09-07T07:06:57Z</time>
      </trkpt>
      <trkpt lat="43.281" lon="2.44178">
        <ele>180.4</ele>
        <time>2021-09-07T07:06:59Z</time>
      </trkpt>
      <trkpt lat="43.28101" lon="2.44179">
        <ele>180.3</ele>
        <time>2021-09-07T07:07:00Z</time>
      </trkpt>
      <trkpt lat="43.28102" lon="2.44179">
        <ele>180.1</ele>
        <time>2021-09-07T07:07:02Z</time>
      </trkpt>
      <trkpt lat="43.28102" lon="2.44179">
        <ele>180</ele>
        <time>2021-09-07T07:07:03Z</time>
      </trkpt>
      <trkpt lat="43.28103" lon="2.44179">
        <ele>179.9</ele>
        <time>2021-09-07T07:07:04Z</time>
      </trkpt>
      <trkpt lat="43.28105" lon="2.44179">
        <ele>179.5</ele>
        <time>2021-09-07T07:07:05Z</time>
      </trkpt>
      <trkpt lat="43.28109" lon="2.44178">
        <ele>178.6</ele>
        <time>2021-09-07T07:07:07Z</time>
      </trkpt>
      <trkpt lat="43.28111" lon="2.44179">
        <ele>177.8</ele>
        <time>2021-09-07T07:07:08Z</time>
      </trkpt>
      <trkpt lat="43.28114" lon="2.4418">
        <ele>176.7</ele>
        <time>2021-09-07T07:07:10Z</time>
      </trkpt>
      <trkpt lat="43.28116" lon="2.4418">
        <ele>176.2</ele>
        <time>2021-09-07T07:07:11Z</time>
      </trkpt>
      <trkpt lat="43.28117" lon="2.4418">
        <ele>175.7</ele>
        <time>2021-09-07T07:07:13Z</time>
      </trkpt>
      <trkpt lat="43.28118" lon="2.4418">
        <ele>175.3</ele>
        <time>2021-09-07T07:07:15Z</time>
      </trkpt>
      <trkpt lat="43.28119" lon="2.4418">
        <ele>175</ele>
        <time>2021-09-07T07:07:16Z</time>
      </trkpt>
      <trkpt lat="43.2812" lon="2.4418">
        <ele>174.6</ele>
        <time>2021-09-07T07:07:18Z</time>
      </trkpt>
      <trkpt lat="43.28121" lon="2.44178">
        <ele>173.8</ele>
        <time>2021-09-07T07:07:20Z</time>
      </trkpt>
      <trkpt lat="43.28123" lon="2.44178">
        <ele>172.8</ele>
        <time>2021-09-07T07:07:22Z</time>
      </trkpt>
      <trkpt lat="43.28124" lon="2.44177">
        <ele>172.4</ele>
        <time>2021-09-07T07:07:23Z</time>
      </trkpt>
      <trkpt lat="43.28128" lon="2.44178">
        <ele>171</ele>
        <time>2021-09-07T07:07:25Z</time>
      </trkpt>
      <trkpt lat="43.28129" lon="2.44178">
        <ele>170.2</ele>
        <time>2021-09-07T07:07:26Z</time>
      </trkpt>
      <trkpt lat="43.28131" lon="2.44178">
        <ele>169.5</ele>
        <time>2021-09-07T07:07:27Z</time>
      </trkpt>
      <trkpt lat="43.28133" lon="2.44178">
        <ele>168.5</ele>
        <time>2021-09-07T07:07:29Z</time>
      </trkpt>
      <trkpt lat="43.28135" lon="2.44178">
        <ele>167.9</ele>
        <time>2021-09-07T07:07:31Z</time>
      </trkpt>
      <trkpt lat="43.28136" lon="2.44178">
        <ele>167.5</ele>
        <time>2021-09-07T07:07:32Z</time>
      </trkpt>
      <trkpt lat="43.28138" lon="2.44178">
        <ele>166.4</ele>
        <time>2021-09-07T07:07:34Z</time>
      </trkpt>
      <trkpt lat="43.28139" lon="2.44178">
        <ele>166</ele>
        <time>2021-09-07T07:07:35Z</time>
      </trkpt>
      <trkpt lat="43.2814" lon="2.44178">
        <ele>165.6</ele>
        <time>2021-09-07T07:07:36Z</time>
      </trkpt>
      <trkpt lat="43.28142" lon="2.44179">
        <ele>164.9</ele>
        <time>2021-09-07T07:07:38Z</time>
      </trkpt>
      <trkpt lat="43.28144" lon="2.4418">
        <ele>163.7</ele>
        <time>2021-09-07T07:07:40Z</time>
      </trkpt>
      <trkpt lat="43.28146" lon="2.4418">
        <ele>163.1</ele>
        <time>2021-09-07T07:07:41Z</time>
      </trkpt>
      <trkpt lat="43.28147" lon="2.44181">
        <ele>162.4</ele>
        <time>2021-09-07T07:07:42Z</time>
      </trkpt>
      <trkpt lat="43.28151" lon="2.4418">
        <ele>161</ele>
        <time>2021-09-07T07:07:44Z</time>
      </trkpt>
      <trkpt lat="43.28152" lon="2.4418">
        <ele>160.6</ele>
        <time>2021-09-07T07:07:45Z</time>
      </trkpt>
      <trkpt lat="43.28154" lon="2.44179">
        <ele>159.3</ele>
        <time>2021-09-07T07:07:47Z</time>
      </trkpt>
      <trkpt lat="43.28156" lon="2.44176">
        <ele>158.4</ele>
        <time>2021-09-07T07:07:49Z</time>
      </trkpt>
      <trkpt lat="43.28156" lon="2.44173">
        <ele>157.4</ele>
        <time>2021-09-07T07:07:51Z</time>
      </trkpt>
      <trkpt lat="43.28156" lon="2.44171">
        <ele>157</ele>
        <time>2021-09-07T07:07:52Z</time>
      </trkpt>
      <trkpt lat="43.28155" lon="2.44166">
        <ele>156.6</ele>
        <time>2021-09-07T07:07:54Z</time>
      </trkpt>
      <trkpt lat="43.28154" lon="2.44163">
        <ele>156.9</ele>
        <time>2021-09-07T07:07:55Z</time>
      </trkpt>
      <trkpt lat="43.28154" lon="2.44162">
        <ele>156.5</ele>
        <time>2021-09-07T07:07:56Z</time>
      </trkpt>
      <trkpt lat="43.28153" lon="2.4416">
        <ele>156.4</ele>
        <time>2021-09-07T07:07:57Z</time>
      </trkpt>
      <trkpt lat="43.28152" lon="2.44157">
        <ele>156</ele>
        <time>2021-09-07T07:07:59Z</time>
      </trkpt>
      <trkpt lat="43.28151" lon="2.44155">
        <ele>156.4</ele>
        <time>2021-09-07T07:08:01Z</time>
      </trkpt>
      <trkpt lat="43.2815" lon="2.44154">
        <ele>156</ele>
        <time>2021-09-07T07:08:02Z</time>
      </trkpt>
      <trkpt lat="43.2815" lon="2.44152">
        <ele>155.9</ele>
        <time>2021-09-07T07:08:03Z</time>
      </trkpt>
      <trkpt lat="43.28149" lon="2.44149">
        <ele>155.5</ele>
        <time>2021-09-07T07:08:05Z</time>
      </trkpt>
      <trkpt lat="43.28149" lon="2.44148">
        <ele>155.5</ele>
        <time>2021-09-07T07:08:06Z</time>
      </trkpt>
      <trkpt lat="43.28148" lon="2.44146">
        <ele>155.8</ele>
        <time>2021-09-07T07:08:08Z</time>
      </trkpt>
      <trkpt lat="43.28147" lon="2.44144">
        <ele>155.4</ele>
        <time>2021-09-07T07:08:09Z</time>
      </trkpt>
      <trkpt lat="43.28146" lon="2.44143">
        <ele>155.3</ele>
        <time>2021-09-07T07:08:10Z</time>
      </trkpt>
      <trkpt lat="43.28144" lon="2.44139">
        <ele>155.4</ele>
        <time>2021-09-07T07:08:12Z</time>
      </trkpt>
      <trkpt lat="43.28141" lon="2.44137">
        <ele>155.4</ele>
        <time>2021-09-07T07:08:14Z</time>
      </trkpt>
      <trkpt lat="43.2814" lon="2.44134">
        <ele>155.3</ele>
        <time>2021-09-07T07:08:16Z</time>
      </trkpt>
      <trkpt lat="43.28137" lon="2.4413">
        <ele>155.3</ele>
        <time>2021-09-07T07:08:18Z</time>
      </trkpt>
      <trkpt lat="43.28135" lon="2.44128">
        <ele>155.3</ele>
        <time>2021-09-07T07:08:20Z</time>
      </trkpt>
      <trkpt lat="43.28132" lon="2.44125">
        <ele>155.7</ele>
        <time>2021-09-07T07:08:22Z</time>
      </trkpt>
      <trkpt lat="43.28131" lon="2.44123">
        <ele>155.3</ele>
        <time>2021-09-07T07:08:23Z</time>
      </trkpt>
      <trkpt lat="43.2813" lon="2.44121">
        <ele>155.2</ele>
        <time>2021-09-07T07:08:24Z</time>
      </trkpt>
      <trkpt lat="43.2813" lon="2.44119">
        <ele>154.7</ele>
        <time>2021-09-07T07:08:25Z</time>
      </trkpt>
      <trkpt lat="43.28132" lon="2.44115">
        <ele>154.3</ele>
        <time>2021-09-07T07:08:27Z</time>
      </trkpt>
      <trkpt lat="43.28134" lon="2.44114">
        <ele>153.8</ele>
        <time>2021-09-07T07:08:28Z</time>
      </trkpt>
      <trkpt lat="43.28138" lon="2.44111">
        <ele>153.3</ele>
        <time>2021-09-07T07:08:30Z</time>
      </trkpt>
      <trkpt lat="43.28142" lon="2.4411">
        <ele>152</ele>
        <time>2021-09-07T07:08:32Z</time>
      </trkpt>
      <trkpt lat="43.28145" lon="2.4411">
        <ele>152</ele>
        <time>2021-09-07T07:08:33Z</time>
      </trkpt>
      <trkpt lat="43.28146" lon="2.4411">
        <ele>151.5</ele>
        <time>2021-09-07T07:08:34Z</time>
      </trkpt>
      <trkpt lat="43.2815" lon="2.44109">
        <ele>151.1</ele>
        <time>2021-09-07T07:08:36Z</time>
      </trkpt>
      <trkpt lat="43.28152" lon="2.44108">
        <ele>150.7</ele>
        <time>2021-09-07T07:08:37Z</time>
      </trkpt>
      <trkpt lat="43.28155" lon="2.44106">
        <ele>150.4</ele>
        <time>2021-09-07T07:08:39Z</time>
      </trkpt>
      <trkpt lat="43.28156" lon="2.44105">
        <ele>150.3</ele>
        <time>2021-09-07T07:08:40Z</time>
      </trkpt>
      <trkpt lat="43.28156" lon="2.44102">
        <ele>150.1</ele>
        <time>2021-09-07T07:08:42Z</time>
      </trkpt>
      <trkpt lat="43.28156" lon="2.44098">
        <ele>149.8</ele>
        <time>2021-09-07T07:08:44Z</time>
      </trkpt>
      <trkpt lat="43.28156" lon="2.44096">
        <ele>149.6</ele>
        <time>2021-09-07T07:08:45Z</time>
      </trkpt>
      <trkpt lat="43.28157" lon="2.44093">
        <ele>149.3</ele>
        <time>2021-09-07T07:08:47Z</time>
      </trkpt>
      <trkpt lat="43.28158" lon="2.44091">
        <ele>149.2</ele>
        <time>2021-09-07T07:08:48Z</time>
      </trkpt>
      <trkpt lat="43.28161" lon="2.44085">
        <ele>148.6</ele>
        <time>2021-09-07T07:08:50Z</time>
      </trkpt>
      <trkpt lat="43.28163" lon="2.4408">
        <ele>148.2</ele>
        <time>2021-09-07T07:08:51Z</time>
      </trkpt>
      <trkpt lat="43.28169" lon="2.4407">
        <ele>147.3</ele>
        <time>2021-09-07T07:08:53Z</time>
      </trkpt>
      <trkpt lat="43.28176" lon="2.44061">
        <ele>146.5</ele>
        <time>2021-09-07T07:08:56Z</time>
      </trkpt>
      <trkpt lat="43.28181" lon="2.44052">
        <ele>146</ele>
        <time>2021-09-07T07:08:57Z</time>
      </trkpt>
      <trkpt lat="43.28183" lon="2.44047">
        <ele>145.6</ele>
        <time>2021-09-07T07:08:58Z</time>
      </trkpt>
      <trkpt lat="43.28188" lon="2.44043">
        <ele>145.4</ele>
        <time>2021-09-07T07:09:00Z</time>
      </trkpt>
      <trkpt lat="43.28192" lon="2.44044">
        <ele>145.2</ele>
        <time>2021-09-07T07:09:02Z</time>
      </trkpt>
      <trkpt lat="43.28195" lon="2.44045">
        <ele>145.1</ele>
        <time>2021-09-07T07:09:03Z</time>
      </trkpt>
      <trkpt lat="43.282" lon="2.44049">
        <ele>144.8</ele>
        <time>2021-09-07T07:09:05Z</time>
      </trkpt>
      <trkpt lat="43.28203" lon="2.44051">
        <ele>144.7</ele>
        <time>2021-09-07T07:09:06Z</time>
      </trkpt>
      <trkpt lat="43.28207" lon="2.44055">
        <ele>144.5</ele>
        <time>2021-09-07T07:09:08Z</time>
      </trkpt>
      <trkpt lat="43.2821" lon="2.44058">
        <ele>144.4</ele>
        <time>2021-09-07T07:09:09Z</time>
      </trkpt>
      <trkpt lat="43.28211" lon="2.44059">
        <ele>144.3</ele>
        <time>2021-09-07T07:09:10Z</time>
      </trkpt>
      <trkpt lat="43.28213" lon="2.44061">
        <ele>144.3</ele>
        <time>2021-09-07T07:09:11Z</time>
      </trkpt>
      <trkpt lat="43.28217" lon="2.44065">
        <ele>144.1</ele>
        <time>2021-09-07T07:09:13Z</time>
      </trkpt>
      <trkpt lat="43.28219" lon="2.44067">
        <ele>144.1</ele>
        <time>2021-09-07T07:09:14Z</time>
      </trkpt>
      <trkpt lat="43.28222" lon="2.44068">
        <ele>144</ele>
        <time>2021-09-07T07:09:15Z</time>
      </trkpt>
      <trkpt lat="43.28226" lon="2.44072">
        <ele>143.9</ele>
        <time>2021-09-07T07:09:17Z</time>
      </trkpt>
      <trkpt lat="43.28232" lon="2.44075">
        <ele>143.8</ele>
        <time>2021-09-07T07:09:19Z</time>
      </trkpt>
      <trkpt lat="43.28235" lon="2.44077">
        <ele>143.8</ele>
        <time>2021-09-07T07:09:20Z</time>
      </trkpt>
      <trkpt lat="43.2824" lon="2.44081">
        <ele>143.6</ele>
        <time>2021-09-07T07:09:22Z</time>
      </trkpt>
      <trkpt lat="43.28245" lon="2.44085">
        <ele>143.6</ele>
        <time>2021-09-07T07:09:24Z</time>
      </trkpt>
      <trkpt lat="43.28248" lon="2.44087">
        <ele>143.5</ele>
        <time>2021-09-07T07:09:25Z</time>
      </trkpt>
      <trkpt lat="43.2825" lon="2.44089">
        <ele>143.5</ele>
        <time>2021-09-07T07:09:26Z</time>
      </trkpt>
      <trkpt lat="43.28255" lon="2.44093">
        <ele>143.4</ele>
        <time>2021-09-07T07:09:28Z</time>
      </trkpt>
      <trkpt lat="43.28256" lon="2.44094">
        <ele>143.4</ele>
        <time>2021-09-07T07:09:29Z</time>
      </trkpt>
      <trkpt lat="43.28261" lon="2.44098">
        <ele>143.3</ele>
        <time>2021-09-07T07:09:31Z</time>
      </trkpt>
      <trkpt lat="43.28264" lon="2.441">
        <ele>143.3</ele>
        <time>2021-09-07T07:09:32Z</time>
      </trkpt>
      <trkpt lat="43.28265" lon="2.44101">
        <ele>143.2</ele>
        <time>2021-09-07T07:09:33Z</time>
      </trkpt>
      <trkpt lat="43.2827" lon="2.44104">
        <ele>143.2</ele>
        <time>2021-09-07T07:09:35Z</time>
      </trkpt>
      <trkpt lat="43.28272" lon="2.44106">
        <ele>143.2</ele>
        <time>2021-09-07T07:09:36Z</time>
      </trkpt>
      <trkpt lat="43.28275" lon="2.44107">
        <ele>143.2</ele>
        <time>2021-09-07T07:09:37Z</time>
      </trkpt>
      <trkpt lat="43.28281" lon="2.44108">
        <ele>143.1</ele>
        <time>2021-09-07T07:09:39Z</time>
      </trkpt>
      <trkpt lat="43.28286" lon="2.44109">
        <ele>143.1</ele>
        <time>2021-09-07T07:09:41Z</time>
      </trkpt>
      <trkpt lat="43.2829" lon="2.44107">
        <ele>143.1</ele>
        <time>2021-09-07T07:09:43Z</time>
      </trkpt>
      <trkpt lat="43.28294" lon="2.44104">
        <ele>143</ele>
        <time>2021-09-07T07:09:45Z</time>
      </trkpt>
      <trkpt lat="43.28297" lon="2.44097">
        <ele>143</ele>
        <time>2021-09-07T07:09:47Z</time>
      </trkpt>
      <trkpt lat="43.28298" lon="2.44093">
        <ele>142.9</ele>
        <time>2021-09-07T07:09:48Z</time>
      </trkpt>
      <trkpt lat="43.283" lon="2.44085">
        <ele>142.8</ele>
        <time>2021-09-07T07:09:50Z</time>
      </trkpt>
      <trkpt lat="43.28301" lon="2.4408">
        <ele>142.8</ele>
        <time>2021-09-07T07:09:51Z</time>
      </trkpt>
      <trkpt lat="43.28303" lon="2.44072">
        <ele>142.7</ele>
        <time>2021-09-07T07:09:53Z</time>
      </trkpt>
      <trkpt lat="43.28304" lon="2.44068">
        <ele>142.6</ele>
        <time>2021-09-07T07:09:54Z</time>
      </trkpt>
      <trkpt lat="43.28305" lon="2.4406">
        <ele>142.5</ele>
        <time>2021-09-07T07:09:56Z</time>
      </trkpt>
      <trkpt lat="43.28307" lon="2.44052">
        <ele>142.3</ele>
        <time>2021-09-07T07:09:58Z</time>
      </trkpt>
      <trkpt lat="43.28308" lon="2.44049">
        <ele>142.3</ele>
        <time>2021-09-07T07:09:59Z</time>
      </trkpt>
    </trkseg>
  </trk>
</gpx>